# Wetter Temperatur Luftdruck Luftfeuchtigkeit Sichtweite Windgeschwindigkeit Windrichtung Zeit
1 Clouds -5 1018 62 0 2.1 130 09:57 08.04.2020
2 Clouds -5 1018 62 0 2.1 130 09:39 08.04.2020
3 -273 0 0 0 0 0 09:19 08.04.2020
4 Clouds -5 1018 62 0 3.6 80 08:57 08.04.2020
5 Clouds -5 1018 62 0 3.6 80 08:38 08.04.2020
6 Clouds -5 1018 62 0 3.6 80 08:20 08.04.2020
7 Clouds -5 1017 62 0 4.6 70 07:42 08.04.2020
8 Clouds -5 1017 62 0 4.6 70 07:21 08.04.2020
9 Clouds -6 1017 67 0 4.1 70 06:28 08.04.2020
10 Clouds -6 1016 57 0 3.1 80 04:54 08.04.2020
11 Clouds -6 1016 67 0 2.1 120 02:50 08.04.2020
12 Clouds -6 1016 67 0 2.1 120 02:21 08.04.2020
13 Clouds -5 1015 62 0 2.1 120 01:56 08.04.2020
14 Clouds -5 1015 62 0 2.1 120 01:28 08.04.2020
15 Clouds -3 1014 53 10000 1.5 210 00:47 08.04.2020
16 Clouds -3 1014 53 10000 1.5 210 00:25 08.04.2020
17 Clouds -1 1013 46 10000 1 20 23:56 07.04.2020
18 Clouds -1 1013 46 10000 1 20 23:37 07.04.2020
19 Clouds -1 1013 46 10000 1 20 23:18 07.04.2020
20 Clouds 2 1013 40 10000 1.5 220 22:54 07.04.2020
21 Clouds 2 1013 40 10000 1.5 220 22:54 07.04.2020
22 Clouds 2 1013 40 10000 1.5 220 22:36 07.04.2020
23 Clouds 2 1013 40 10000 1.5 220 22:18 07.04.2020
24 Clouds 4 1012 32 10000 1.5 210 21:42 07.04.2020
25 Clouds 4 1012 32 10000 1.5 210 21:21 07.04.2020
26 Clouds 1 1011 43 10000 2.6 250 20:58 07.04.2020
27 Clouds 1 1011 43 10000 2.6 250 20:39 07.04.2020
28 Clouds 1 1011 43 10000 2.6 250 20:21 07.04.2020
29 Clouds 2 1010 40 10000 3.1 50 19:57 07.04.2020
30 Clouds 2 1010 40 10000 3.1 50 19:37 07.04.2020
31 Clouds 2 1010 40 10000 3.1 50 19:19 07.04.2020
32 Clouds 3 1009 37 10000 3.6 90 18:58 07.04.2020
33 Clouds 3 1009 37 10000 3.6 90 18:58 07.04.2020
34 Clouds 3 1009 37 10000 3.6 90 18:39 07.04.2020
35 Clouds 3 1009 37 10000 3.6 90 18:20 07.04.2020
36 Clouds 1 1009 43 10000 3.1 90 17:46 07.04.2020
37 Clouds 1 1009 43 10000 3.1 90 17:24 07.04.2020
38 Clouds 3 1008 37 10000 2.1 100 16:54 07.04.2020
39 Clouds 3 1008 37 10000 2.1 100 16:36 07.04.2020
40 Clouds 3 1008 37 10000 2.1 100 16:36 07.04.2020
41 Clouds 3 1008 37 10000 2.1 100 16:18 07.04.2020
42 Clouds 1 1008 40 10000 1 120 15:42 07.04.2020
43 Clouds 1 1008 40 10000 1 120 15:24 07.04.2020
44 Clouds -1 1007 46 10000 1.5 130 14:43 07.04.2020
45 Clouds -1 1007 46 10000 1.5 130 14:23 07.04.2020
46 Clouds -3 1006 49 10000 1.5 110 13:58 07.04.2020
47 Clouds -3 1006 49 10000 1.5 110 13:39 07.04.2020
48 Clouds -3 1006 49 10000 1.5 110 13:19 07.04.2020
49 Clouds -6 1005 57 10000 2.1 110 12:56 07.04.2020
50 Clouds -6 1005 57 10000 2.1 110 12:37 07.04.2020
51 Clouds -6 1005 57 10000 2.1 110 12:18 07.04.2020
52 Clouds -7 1004 62 10000 2.6 110 11:45 07.04.2020
53 Clouds -7 1004 62 10000 2.6 110 11:27 07.04.2020
54 Clouds -7 1003 67 0 2.1 110 10:59 07.04.2020
55 Clouds -7 1003 67 0 2.1 110 10:39 07.04.2020
56 Clouds -7 1003 67 0 2.1 110 10:39 07.04.2020
57 Clouds -7 1003 67 0 2.1 110 10:20 07.04.2020
58 Clouds -6 1003 73 0 3.6 80 09:46 07.04.2020
59 Clouds -6 1003 73 0 3.6 80 09:20 07.04.2020
60 Clouds -7 1002 73 0 1.5 90 08:59 07.04.2020
61 Clouds -7 1002 73 0 1.5 90 08:39 07.04.2020
62 Clouds -7 1002 73 0 1.5 90 08:20 07.04.2020
63 Clouds -6 1002 73 0 2.1 90 07:44 07.04.2020
64 Clouds -6 1002 73 0 2.1 90 07:44 07.04.2020
65 Clouds -6 1002 73 0 2.1 90 07:26 07.04.2020
66 Clouds -6 1001 73 0 2.1 110 06:52 07.04.2020
67 Clouds -6 1001 73 0 2.1 110 06:26 07.04.2020
68 Clouds -7 1001 73 0 2.1 90 05:54 07.04.2020
69 Clouds -7 1001 73 0 2.1 90 05:25 07.04.2020
70 Clouds -7 1000 73 0 1.5 110 03:36 07.04.2020
71 Clouds -7 1000 73 0 1.5 110 03:18 07.04.2020
72 Clouds -6 1000 67 0 1.5 120 02:45 07.04.2020
73 Clouds -6 999 67 0 1.5 90 01:38 07.04.2020
74 Clouds -6 999 67 0 1.5 90 01:20 07.04.2020
75 Clouds -5 999 67 0 2.1 30 00:25 07.04.2020
76 Clouds -3 998 58 0 2.6 360 23:42 06.04.2020
77 Clouds -3 998 58 0 2.6 360 23:21 06.04.2020
78 Snow -1 998 58 0 3.6 350 22:54 06.04.2020
79 Snow -1 998 58 0 3.6 350 22:36 06.04.2020
80 Snow -1 998 58 0 3.6 350 22:18 06.04.2020
81 Clouds -1 998 54 0 1.5 360 21:43 06.04.2020
82 Clouds -1 998 54 0 1.5 360 21:20 06.04.2020
83 Clouds -2 998 54 10000 2.1 90 20:57 06.04.2020
84 Clouds -2 998 54 10000 2.1 90 20:39 06.04.2020
85 Clouds -2 998 54 10000 2.1 90 20:21 06.04.2020
86 Clouds -2 998 54 10000 2.6 60 19:58 06.04.2020
87 Clouds -2 998 54 10000 2.6 60 19:39 06.04.2020
88 Clouds -2 998 54 10000 2.6 60 19:20 06.04.2020
89 Clouds 2 998 40 10000 2.1 80 18:43 06.04.2020
90 Clouds 2 998 40 10000 2.1 80 18:24 06.04.2020
91 Clouds 3 998 40 10000 2.1 100 17:59 06.04.2020
92 Clouds 3 998 40 10000 2.1 100 17:41 06.04.2020
93 Clouds 3 998 40 10000 2.1 100 17:19 06.04.2020
94 Clouds 1 998 47 10000 3.6 100 16:49 06.04.2020
95 Clouds 1 998 47 10000 3.6 100 16:49 06.04.2020
96 Clouds 1 998 47 10000 3.6 100 16:31 06.04.2020
97 Rain -3 999 63 10000 2.6 90 15:00 06.04.2020
98 Clouds -3 999 63 10000 2.1 90 13:45 06.04.2020
99 Clouds -3 999 63 10000 2.1 90 13:45 06.04.2020
100 Clouds -3 999 63 10000 2.1 90 13:45 06.04.2020
101 Clouds -3 999 63 10000 2.1 90 13:23 06.04.2020
102 Snow -4 999 68 10000 0.5 0 12:50 06.04.2020
103 Snow -4 999 68 10000 0.5 0 12:50 06.04.2020
104 Snow -4 999 68 10000 0.5 0 12:50 06.04.2020
105 Snow -4 999 68 10000 0.5 0 12:50 06.04.2020
106 Snow -4 999 68 10000 0.5 0 12:50 06.04.2020
107 Snow -4 999 68 10000 0.5 0 12:21 06.04.2020
108 Snow -5 1000 79 10000 3.1 160 11:54 06.04.2020
109 Snow -5 1000 79 10000 3.1 160 11:54 06.04.2020
110 Snow -5 1000 79 10000 3.1 160 11:54 06.04.2020
111 Snow -5 1000 79 10000 3.1 160 11:54 06.04.2020
112 Snow -5 1000 79 10000 3.1 160 11:54 06.04.2020
113 Snow -5 1000 79 10000 3.1 160 11:28 06.04.2020
114 Snow -5 1000 79 10000 3.1 160 11:28 06.04.2020
115 Snow -5 1000 79 10000 3.1 160 11:28 06.04.2020
116 Snow -5 1000 79 10000 3.1 160 11:28 06.04.2020
117 Snow -5 1001 73 0 2.1 160 10:49 06.04.2020
118 Snow -5 1001 73 0 2.1 160 10:49 06.04.2020
119 Snow -5 1001 73 0 2.1 160 10:49 06.04.2020
120 Snow -5 1001 73 0 2.1 160 10:49 06.04.2020
121 Snow -5 1001 73 0 2.1 160 10:49 06.04.2020
122 Snow -5 1001 73 0 2.1 160 10:21 06.04.2020
123 Snow -5 1001 73 0 2.1 160 10:21 06.04.2020
124 Snow -5 1001 73 0 1.5 180 09:42 06.04.2020
125 Snow -5 1001 73 0 1.5 180 09:42 06.04.2020
126 Snow -5 1001 73 0 1.5 180 09:42 06.04.2020
127 Snow -5 1001 73 0 1.5 180 09:20 06.04.2020
128 Snow -5 1002 79 0 3.1 150 08:51 06.04.2020
129 Snow -5 1002 79 0 3.1 150 08:30 06.04.2020
130 Snow -5 1003 79 0 2.1 220 07:26 06.04.2020
131 Snow -5 1004 73 0 1 180 06:40 06.04.2020
132 Snow -5 1004 73 0 1 180 06:40 06.04.2020
133 Snow -5 1004 73 0 1 180 06:18 06.04.2020
134 Snow -4 1007 68 0 2.6 280 04:18 06.04.2020
135 Clear -4 1008 58 0 1 0 02:56 06.04.2020
136 Clear -4 1008 58 0 1 0 02:18 06.04.2020
137 Clear -5 1009 62 0 3.1 80 01:23 06.04.2020
138 Clear -4 1010 58 0 2.1 20 00:41 06.04.2020
139 Clear -4 1010 58 0 2.1 20 00:21 06.04.2020
140 Clear -4 1010 58 0 2.1 20 00:21 06.04.2020
141 Clear -4 1010 58 0 2.1 20 00:21 06.04.2020
142 Clear -4 1010 58 0 2.1 20 00:21 06.04.2020
143 Clear -2 1010 54 0 2.1 30 23:43 05.04.2020
144 Clear -2 1010 54 0 2.1 30 23:23 05.04.2020
145 Clear -2 1010 54 0 2.1 30 23:23 05.04.2020
146 Clear -1 1010 46 0 3.1 350 22:55 05.04.2020
147 Clear -1 1010 46 0 3.1 350 22:37 05.04.2020
148 Clear -1 1010 46 0 3.1 350 22:18 05.04.2020
149 Clear 0 1010 86 0 3.6 350 21:44 05.04.2020
150 Clear 0 1010 85 0 3.6 350 21:23 05.04.2020
151 Clouds 1 1011 47 0 3.6 60 20:26 05.04.2020
152 Clouds 3 1011 37 10000 3.1 50 19:57 05.04.2020
153 Clouds 3 1011 37 10000 3.1 50 19:37 05.04.2020
154 Clouds 3 1011 37 10000 3.1 50 19:19 05.04.2020
155 Clouds 3 1011 37 10000 3.1 60 18:41 05.04.2020
156 Clouds 3 1011 37 10000 3.1 60 18:39 05.04.2020
157 Clouds 3 1011 37 10000 3.1 60 18:39 05.04.2020
158 Clouds 3 1011 37 10000 3.1 60 18:39 05.04.2020
159 Clouds 3 1011 37 10000 3.1 60 18:39 05.04.2020
160 Clouds 2 1012 34 10000 3.6 50 17:51 05.04.2020
161 Clouds 2 1012 34 10000 3.6 50 17:51 05.04.2020
162 Clouds 2 1012 34 10000 3.6 50 17:51 05.04.2020
163 Clouds 2 1012 34 10000 3.6 50 17:51 05.04.2020
164 Clouds 2 1012 34 10000 3.6 50 17:23 05.04.2020
165 Clouds 0 1011 84 10000 5.7 60 16:47 05.04.2020
166 Clouds 0 1011 84 10000 5.7 60 16:20 05.04.2020
167 Clouds -1 1012 39 10000 7.2 60 15:46 05.04.2020
168 Clouds -1 1012 39 10000 7.2 60 15:46 05.04.2020
169 Clouds -1 1012 39 10000 7.2 60 15:28 05.04.2020
170 Clouds -3 1011 42 10000 7.2 80 14:48 05.04.2020
171 Clouds -3 1011 42 10000 7.2 80 14:48 05.04.2020
172 Clouds -3 1011 42 10000 7.2 80 14:24 05.04.2020
173 Clouds -3 1011 42 10000 7.2 80 14:24 05.04.2020
174 Clouds -3 1011 42 10000 7.2 80 14:24 05.04.2020
175 Clouds -3 1011 42 10000 7.2 80 14:24 05.04.2020
176 Clouds -3 1011 42 10000 7.2 80 14:24 05.04.2020
177 Clouds -4 1011 45 10000 8.2 80 13:41 05.04.2020
178 Clouds -4 1011 41 10000 8.7 80 12:48 05.04.2020
179 Clouds -4 1011 41 10000 8.7 80 12:48 05.04.2020
180 Clouds -4 1011 41 10000 8.7 80 12:48 05.04.2020
181 Clouds -4 1011 41 10000 8.7 80 12:48 05.04.2020
182 Clouds -4 1011 41 10000 8.7 80 12:44 05.04.2020
183 Clouds -4 1011 45 10000 8.2 80 11:41 05.04.2020
184 Clouds -4 1011 45 10000 8.2 80 11:20 05.04.2020
185 Clouds -4 1011 41 0 9.3 100 10:48 05.04.2020
186 Clouds -4 1011 41 0 9.3 100 10:24 05.04.2020
187 Clouds -4 1011 41 0 8.2 80 09:57 05.04.2020
188 Clouds -4 1011 41 0 8.2 80 09:31 05.04.2020
189 Clouds -7 1014 79 0 5.68 74 08:58 05.04.2020
190 Clouds -7 1014 79 0 5.68 74 08:58 05.04.2020
191 Clouds -7 1014 79 0 5.68 74 08:58 05.04.2020
192 Clouds -7 1014 79 0 5.68 74 08:58 05.04.2020
193 Clouds -7 1014 79 0 5.68 74 08:58 05.04.2020
194 Clouds -7 1014 79 0 5.68 74 07:25 05.04.2020
195 Clouds -4 1004 53 0 8.49 60 04:36 05.04.2020
196 Clouds -4 1004 53 0 8.49 60 03:30 05.04.2020
197 Clouds -4 1004 53 0 8.49 60 02:49 05.04.2020
198 Clouds -4 1004 53 0 8.49 60 01:47 05.04.2020
199 Clouds -4 1004 53 0 8.49 60 01:28 05.04.2020
200 Clouds -4 1004 53 0 8.49 60 00:44 05.04.2020
201 Clouds -4 1004 53 0 8.49 60 00:21 05.04.2020
202 Clouds -4 1004 53 0 8.49 60 23:43 04.04.2020
203 Clouds -4 1004 53 0 8.49 60 23:23 04.04.2020
204 Clouds -4 1004 53 0 8.49 60 22:59 04.04.2020
205 Clouds -4 1004 53 0 8.49 60 22:40 04.04.2020
206 Clouds -4 1004 53 0 8.49 60 22:21 04.04.2020
207 Clouds -4 1004 53 0 8.49 60 21:58 04.04.2020
208 Clouds -4 1004 53 0 8.49 60 21:39 04.04.2020
209 Clear -4 1004 53 10000 8.7 60 21:19 04.04.2020
210 Clear -4 1004 53 10000 8.7 60 20:58 04.04.2020
211 Clear -4 1004 53 10000 8.7 60 20:39 04.04.2020
212 Clear -4 1004 53 10000 8.7 60 20:21 04.04.2020
213 Clear -4 1004 45 10000 9.8 90 19:57 04.04.2020
214 Clear -4 1004 45 10000 9.8 90 19:37 04.04.2020
215 Clear -4 1004 45 10000 9.8 90 19:19 04.04.2020
216 Clear -5 1004 53 10000 7.7 70 18:56 04.04.2020
217 Clear -5 1004 53 10000 7.7 70 18:37 04.04.2020
218 Clear -5 1004 53 10000 7.7 70 18:19 04.04.2020
219 Clear -5 1005 49 10000 4.1 40 17:41 04.04.2020
220 Clear -5 1005 49 10000 4.1 40 17:41 04.04.2020
221 Clear -5 1005 49 10000 4.1 40 17:21 04.04.2020
222 Clouds -9 1005 61 10000 4.6 340 16:59 04.04.2020
223 Clouds -9 1005 61 10000 4.6 340 16:41 04.04.2020
224 Clouds -9 1005 61 10000 4.6 340 16:22 04.04.2020
225 Clouds -8 1006 52 10000 4.1 360 15:55 04.04.2020
226 Clouds -8 1006 52 10000 4.1 360 15:36 04.04.2020
227 Clouds -8 1006 52 10000 4.1 360 15:18 04.04.2020
228 Clouds -9 1006 56 10000 4.6 20 14:42 04.04.2020
229 Clouds -9 1006 56 10000 4.6 20 14:22 04.04.2020
230 Clouds -10 1007 56 10000 5.1 30 13:56 04.04.2020
231 Clouds -10 1007 56 10000 5.1 30 13:37 04.04.2020
232 Clouds -10 1007 56 10000 5.1 30 13:19 04.04.2020
233 Clouds -11 1007 56 10000 10.3 10 12:44 04.04.2020
234 Clouds -11 1007 56 10000 10.3 10 12:24 04.04.2020
235 Clouds -12 1008 60 10000 7.7 30 11:59 04.04.2020
236 Clouds -12 1008 60 10000 7.7 30 11:38 04.04.2020
237 Clouds -12 1008 60 10000 7.7 30 11:19 04.04.2020
238 Clear -12 1009 60 0 9.8 30 10:56 04.04.2020
239 Clear -12 1009 60 0 9.8 30 10:38 04.04.2020
240 Clear -12 1009 60 0 9.8 30 10:19 04.04.2020
241 Clear -12 1010 66 0 12.3 20 09:54 04.04.2020
242 Clear -12 1010 66 0 12.3 20 09:36 04.04.2020
243 Clear -12 1010 66 0 12.3 20 09:18 04.04.2020
244 Clear -12 1011 60 0 11.8 30 08:41 04.04.2020
245 Clear -12 1011 60 0 11.8 30 08:21 04.04.2020
246 Clear -11 1012 72 0 12.9 10 07:46 04.04.2020
247 Clear -11 1012 72 0 12.9 10 07:26 04.04.2020
248 Clear -11 1013 61 0 11.8 20 06:53 04.04.2020
249 Clear -11 1013 61 0 11.8 20 06:20 04.04.2020
250 Clear -11 1013 66 0 12.9 30 05:43 04.04.2020
251 Clear -11 1013 66 0 12.9 30 05:43 04.04.2020
252 Clear -11 1013 66 0 12.9 30 05:24 04.04.2020
253 Clear -11 1015 72 0 14.9 30 04:31 04.04.2020
254 Clear -10 1016 66 0 12.9 30 03:53 04.04.2020
255 Clear -9 1015 61 0 13.4 10 02:54 04.04.2020
256 Clear -9 1015 61 0 13.4 10 02:34 04.04.2020
257 Clear -9 1016 72 0 9.8 10 01:57 04.04.2020
258 Clear -9 1016 72 0 9.8 10 01:25 04.04.2020
259 Clear -8 1016 61 0 10.8 350 00:50 04.04.2020
260 Clear -8 1016 61 0 10.8 350 00:30 04.04.2020
261 Clear -6 1017 62 0 9.3 350 23:41 03.04.2020
262 Clear -6 1017 62 0 9.3 350 23:41 03.04.2020
263 Clear -6 1017 62 0 9.3 350 23:21 03.04.2020
264 Clear -6 1018 62 0 8.2 340 22:59 03.04.2020
265 Clear -6 1018 62 0 8.2 340 22:40 03.04.2020
266 Clear -6 1018 62 0 8.2 340 22:19 03.04.2020
267 Clear -5 1018 58 0 8.2 350 21:56 03.04.2020
268 Clear -4 1018 58 0 8.2 350 21:37 03.04.2020
269 Clear -4 1018 58 0 8.2 350 21:19 03.04.2020
270 Clear -5 1019 62 0 10.3 340 20:54 03.04.2020
271 Clear -5 1019 62 0 10.3 340 20:36 03.04.2020
272 Clear -5 1019 62 0 10.3 340 20:18 03.04.2020
273 Clear -5 1020 49 10000 7.2 360 19:54 03.04.2020
274 Clear -4 1020 49 10000 7.2 360 19:36 03.04.2020
275 Clear -4 1020 49 10000 7.2 360 19:36 03.04.2020
276 Clear -4 1020 49 10000 7.2 360 19:18 03.04.2020
277 Clear -4 1021 58 10000 8.2 350 18:42 03.04.2020
278 Clear -4 1021 58 10000 8.2 350 18:23 03.04.2020
279 Clear -5 1021 57 10000 8.2 10 17:58 03.04.2020
280 Clear -5 1021 57 10000 8.2 10 17:40 03.04.2020
281 Clear -5 1021 57 10000 8.2 10 17:19 03.04.2020
282 Clear -5 1021 57 10000 8.2 10 17:19 03.04.2020
283 Clear -5 1022 57 10000 8.7 10 16:54 03.04.2020
284 Clear -5 1022 57 10000 8.7 10 16:54 03.04.2020
285 Clear -5 1022 57 10000 8.7 10 16:36 03.04.2020
286 Clear -5 1022 57 10000 8.7 10 16:18 03.04.2020
287 Clear -5 1022 57 10000 8.7 10 16:18 03.04.2020
288 Clear -6 1023 53 10000 8.7 10 15:41 03.04.2020
289 Clear -6 1023 53 10000 8.7 10 15:22 03.04.2020
290 Clear -7 1024 62 10000 7.2 10 14:58 03.04.2020
291 Clear -7 1025 62 0 7.6 20 14:40 03.04.2020
292 Clear -7 1025 62 10000 7.7 20 14:21 03.04.2020
293 Clear -7 1025 62 10000 7.7 20 13:46 03.04.2020
294 Clear -7 1025 62 10000 7.7 20 13:27 03.04.2020
295 Clear -8 1026 66 10000 8.2 350 12:57 03.04.2020
296 Clear -9 1026 66 10000 8.2 350 12:39 03.04.2020
297 Clear -9 1026 66 10000 8.2 350 12:18 03.04.2020
298 Clear -9 1026 61 10000 6.2 40 11:55 03.04.2020
299 Clear -9 1026 61 10000 6.2 40 11:55 03.04.2020
300 Clear -8 1026 61 10000 6.2 40 11:37 03.04.2020
301 Clear -8 1026 61 10000 6.2 40 11:18 03.04.2020
302 Clear -9 1026 72 10000 7.7 20 10:56 03.04.2020
303 Clear -9 1026 72 10000 7.7 20 10:37 03.04.2020
304 Clear -9 1026 72 10000 7.7 20 10:19 03.04.2020
305 Clear -9 1028 66 0 8.7 350 09:56 03.04.2020
306 Clear -9 1028 66 0 8.7 350 09:37 03.04.2020
307 Clear -9 1028 66 0 8.7 350 09:19 03.04.2020
308 Clear -8 1028 67 0 7.7 20 08:44 03.04.2020
309 Clear -8 1028 67 0 7.7 20 08:25 03.04.2020
310 Clear -9 1028 61 0 7.2 30 07:57 03.04.2020
311 Clear -9 1028 61 0 7.2 30 07:39 03.04.2020
312 Clear -9 1028 61 0 7.2 30 07:20 03.04.2020
313 Clear -8 1029 67 0 8.2 20 06:28 03.04.2020
314 Clear -8 1029 67 0 8.2 20 06:28 03.04.2020
315 Clear -9 1030 66 0 9.3 20 05:43 03.04.2020
316 Clear -9 1030 61 0 8.7 20 04:30 03.04.2020
317 Clear -9 1031 61 0 10.8 20 03:35 03.04.2020
318 Clear -10 1032 61 0 11.3 20 02:40 03.04.2020
319 Clear -10 1032 72 0 8.7 10 01:27 03.04.2020
320 Clear -9 1032 56 10000 7.2 20 00:56 03.04.2020
321 Clear -9 1032 56 10000 7.2 20 00:33 03.04.2020
322 Clear -9 1033 61 10000 8.2 20 23:57 02.04.2020
323 Clear -9 1033 61 10000 8.2 20 23:38 02.04.2020
324 Clear -9 1033 61 10000 8.2 20 23:19 02.04.2020
325 Clear -10 1033 61 10000 8.2 350 22:42 02.04.2020
326 Clear -10 1033 61 10000 8.2 350 22:42 02.04.2020
327 Clear -10 1033 61 10000 8.2 350 22:23 02.04.2020
328 Clear -10 1033 56 10000 8.7 10 21:59 02.04.2020
329 Clear -10 1033 56 10000 8.7 10 21:59 02.04.2020
330 Clear -9 1033 56 10000 8.7 10 21:37 02.04.2020
331 Clear -9 1033 56 10000 8.7 10 21:19 02.04.2020
332 Clear -9 1033 56 10000 10.3 10 20:54 02.04.2020
333 Clear -9 1033 56 10000 10.3 10 20:36 02.04.2020
334 Clear -9 1033 56 10000 10.3 10 20:18 02.04.2020
335 Clear -9 1033 52 10000 8.2 20 19:42 02.04.2020
336 Clear -9 1033 52 10000 8.2 20 19:20 02.04.2020
337 Clear -10 1033 56 10000 13.9 360 18:56 02.04.2020
338 Clear -10 1033 56 10000 13.9 360 18:38 02.04.2020
339 Clear -10 1033 56 10000 13.9 360 18:19 02.04.2020
340 Clear -10 1034 56 10000 13.9 10 17:44 02.04.2020
341 Clear -10 1034 56 10000 13.9 10 17:26 02.04.2020
342 Clear -11 1034 51 10000 13.4 10 16:59 02.04.2020
343 Clear -11 1034 51 10000 13.4 10 16:41 02.04.2020
344 Clear -11 1034 51 10000 13.4 10 16:22 02.04.2020
345 Clear -11 1035 61 10000 15.4 10 15:57 02.04.2020
346 Clear -11 1035 61 10000 15.4 10 15:39 02.04.2020
347 Clear -11 1035 61 10000 15.4 10 15:20 02.04.2020
348 Clouds -11 1035 61 10000 13.4 10 14:58 02.04.2020
349 Clouds -11 1035 61 10000 13.4 10 14:38 02.04.2020
350 Clouds -11 1035 61 10000 13.4 10 14:19 02.04.2020
351 Clouds -12 1035 72 10000 10.3 360 13:55 02.04.2020
352 Clouds -12 1035 72 10000 10.3 360 13:37 02.04.2020
353 Clouds -12 1035 72 10000 10.3 360 13:37 02.04.2020
354 Clouds -12 1035 72 10000 10.3 360 13:19 02.04.2020
355 Clouds -12 1035 72 10000 11.3 360 12:46 02.04.2020
356 Clouds -12 1035 72 10000 11.3 360 12:20 02.04.2020
357 Clouds -12 1035 72 10000 11.3 360 12:20 02.04.2020
358 Clear -13 1035 71 0 8.7 350 11:58 02.04.2020
359 Clear -13 1035 71 0 8.7 350 11:39 02.04.2020
360 Clear -13 1035 71 0 8.7 350 11:21 02.04.2020
361 Clear -13 1036 71 0 9.3 350 10:57 02.04.2020
362 Clear -13 1036 71 0 9.3 350 10:39 02.04.2020
363 Clear -13 1036 71 0 9.3 350 10:21 02.04.2020
364 Clear -12 1036 66 0 7.7 10 09:59 02.04.2020
365 Clear -12 1036 66 0 7.7 10 09:41 02.04.2020
366 Clear -12 1036 66 0 7.7 10 09:23 02.04.2020
367 Clear -14 1036 77 0 8.2 350 08:57 02.04.2020
368 Clear -14 1036 77 0 8.2 350 08:38 02.04.2020
369 Clear -14 1036 77 0 8.2 350 08:19 02.04.2020
370 Clear -12 1037 78 0 5.7 10 07:42 02.04.2020
371 Clear -12 1037 78 0 5.7 10 07:19 02.04.2020
372 Clear -13 1037 78 0 6.2 350 06:26 02.04.2020
373 Clear -12 1038 66 0 5.1 10 05:59 02.04.2020
374 Clear -12 1038 66 0 5.1 10 05:41 02.04.2020
375 Clear -11 1040 56 0 7.2 340 02:46 02.04.2020
376 Clear -11 1040 56 0 6.2 350 01:28 02.04.2020
377 Clear -11 1040 61 0 7.7 350 00:42 02.04.2020
378 Clear -11 1040 61 0 7.7 350 00:24 02.04.2020
379 Clear -10 1040 61 0 6.7 350 23:41 01.04.2020
380 Clear -10 1040 61 0 6.7 350 23:20 01.04.2020
381 Clouds -9 1040 61 10000 7.7 340 22:58 01.04.2020
382 Clouds -9 1040 61 10000 7.7 340 22:58 01.04.2020
383 Clouds -9 1040 61 10000 7.7 340 22:39 01.04.2020
384 Clouds -9 1040 61 10000 7.7 340 22:21 01.04.2020
385 Clouds -8 1040 61 10000 7.7 10 21:42 01.04.2020
386 Clouds -8 1040 61 10000 7.7 10 21:22 01.04.2020
387 Clouds -8 1040 61 10000 7.7 10 21:21 01.04.2020
388 Clouds -9 1041 66 10000 7.2 360 20:57 01.04.2020
389 Clouds -9 1041 66 10000 7.2 360 20:39 01.04.2020
390 Clouds -9 1041 66 10000 7.2 360 20:21 01.04.2020
391 Clouds -9 1041 57 10000 9.3 350 19:59 01.04.2020
392 Clouds -8 1041 57 10000 9.3 350 19:41 01.04.2020
393 Clouds -8 1041 57 10000 9.3 350 19:20 01.04.2020
394 Clouds -8 1041 57 10000 8.2 360 18:44 01.04.2020
395 Clouds -8 1041 57 10000 8.2 360 18:26 01.04.2020
396 Clouds -9 1041 61 10000 9.3 340 17:58 01.04.2020
397 Clouds -9 1041 61 10000 9.3 340 17:38 01.04.2020
398 Clouds -9 1041 61 10000 9.3 340 17:20 01.04.2020
399 Clouds -9 1041 61 10000 7.2 350 16:59 01.04.2020
400 Clouds -8 1041 61 10000 7.2 350 16:40 01.04.2020
401 Clouds -8 1041 61 10000 7.2 350 16:22 01.04.2020
402 Clouds -9 1042 61 10000 5.1 350 15:58 01.04.2020
403 Clouds -9 1042 61 10000 5.1 350 15:38 01.04.2020
404 Clouds -9 1042 61 10000 5.1 350 15:20 01.04.2020
405 Clouds -10 1042 56 10000 7.2 10 14:56 01.04.2020
406 Clouds -10 1042 56 10000 7.2 10 14:38 01.04.2020
407 Clouds -10 1042 56 10000 7.2 10 14:19 01.04.2020
408 Clouds -10 1042 56 10000 8.7 10 13:57 01.04.2020
409 Clouds -11 1042 56 10000 8.7 10 13:37 01.04.2020
410 Clouds -11 1042 56 10000 8.7 10 13:18 01.04.2020
411 Clouds -10 1042 66 10000 7.7 360 12:43 01.04.2020
412 Clouds -10 1042 66 10000 7.7 360 12:24 01.04.2020
413 Clouds -11 1042 78 10000 7.2 350 11:59 01.04.2020
414 Clouds -11 1042 78 10000 7.2 350 11:40 01.04.2020
415 Clouds -11 1042 78 10000 7.2 350 11:21 01.04.2020
416 Clouds -11 1042 72 0 6.7 350 10:57 01.04.2020
417 Clouds -11 1042 72 0 6.7 350 10:37 01.04.2020
418 Clouds -11 1042 72 0 6.7 350 10:18 01.04.2020
419 Clouds -11 1042 66 0 5.7 340 09:54 01.04.2020
420 Clouds -11 1042 66 0 5.7 340 09:36 01.04.2020
421 Clouds -11 1042 66 0 5.7 340 09:18 01.04.2020
422 Clouds -11 1043 72 0 5.1 340 08:40 01.04.2020
423 Clouds -11 1043 72 0 5.1 340 08:18 01.04.2020
424 Clouds -10 1043 61 0 3.1 350 07:42 01.04.2020
425 Clouds -10 1043 61 0 3.1 350 07:20 01.04.2020
426 Clouds -10 1043 61 0 3.6 330 06:47 01.04.2020
427 Clouds -10 1043 61 0 3.6 330 06:23 01.04.2020
428 Clouds -10 1043 61 0 3.6 340 05:55 01.04.2020
429 Clouds -10 1043 66 0 3.1 300 04:30 01.04.2020
430 Clouds -10 1043 66 0 3.1 340 03:28 01.04.2020
431 Clouds -10 1043 66 0 2.6 330 02:49 01.04.2020
432 Clouds -10 1043 72 0 3.1 270 01:56 01.04.2020
433 Clouds -10 1043 72 0 3.1 270 01:37 01.04.2020
434 Clouds -10 1043 72 0 3.1 270 01:18 01.04.2020
435 Clouds -9 1042 66 10000 4.1 290 00:43 01.04.2020
436 Clouds -9 1042 66 10000 4.1 290 00:18 01.04.2020
437 Clouds -9 1042 66 10000 2.6 260 23:41 31.03.2020
438 Clouds -9 1042 66 10000 2.6 260 23:23 31.03.2020
439 Clouds -9 1042 66 10000 2.6 260 23:23 31.03.2020
440 Clouds -6 1041 53 10000 4.1 290 22:57 31.03.2020
441 Clouds -6 1041 53 10000 4.1 290 22:36 31.03.2020
442 Clouds -6 1041 53 10000 4.1 290 22:18 31.03.2020
443 Clouds -6 1041 57 10000 3.6 280 21:55 31.03.2020
444 Clouds -6 1041 57 10000 3.6 280 21:55 31.03.2020
445 Clouds -6 1041 57 10000 3.6 280 21:37 31.03.2020
446 Clouds -6 1041 57 10000 3.6 280 21:19 31.03.2020
447 Clouds -5 1040 53 10000 4.1 280 20:54 31.03.2020
448 Clouds -5 1040 53 10000 4.1 280 20:36 31.03.2020
449 Clouds -5 1040 53 10000 4.1 280 20:18 31.03.2020
450 Clouds -5 1040 53 10000 5.1 290 19:41 31.03.2020
451 Clouds -5 1040 53 10000 5.1 290 19:22 31.03.2020
452 Clouds -6 1039 57 10000 5.1 280 18:56 31.03.2020
453 Clouds -6 1039 57 10000 5.1 280 18:37 31.03.2020
454 Clouds -6 1039 57 10000 5.1 280 18:18 31.03.2020
455 Clouds -4 1038 49 10000 4.6 280 17:54 31.03.2020
456 Clouds -4 1038 49 10000 4.6 280 17:36 31.03.2020
457 Clouds -4 1038 49 10000 4.6 280 17:36 31.03.2020
458 Clouds -4 1038 49 10000 4.6 280 17:18 31.03.2020
459 Clouds -5 1037 53 10000 5.7 300 16:39 31.03.2020
460 Clouds -5 1037 53 10000 5.7 300 16:19 31.03.2020
461 Clouds -6 1036 62 10000 5.7 290 15:57 31.03.2020
462 Clouds -6 1036 62 10000 5.7 290 15:57 31.03.2020
463 Clouds -6 1036 62 10000 5.7 290 15:39 31.03.2020
464 Clouds -6 1036 62 10000 5.7 290 15:20 31.03.2020
465 Clouds -6 1036 62 10000 5.7 290 15:20 31.03.2020
466 Snow -6 1035 73 10000 5.1 290 14:57 31.03.2020
467 Snow -6 1035 73 10000 5.1 290 14:38 31.03.2020
468 Snow -6 1035 73 10000 5.1 290 14:20 31.03.2020
469 Snow -6 1033 73 10000 6.2 290 13:43 31.03.2020
470 Snow -6 1033 73 10000 6.2 290 13:19 31.03.2020
471 Snow -5 1032 79 6000 5.1 290 12:56 31.03.2020
472 Snow -5 1032 79 6000 5.1 290 12:38 31.03.2020
473 Snow -5 1032 79 6000 5.1 290 12:19 31.03.2020
474 Snow -5 1031 73 0 4.6 250 11:39 31.03.2020
475 Snow -5 1031 73 0 4.6 250 11:20 31.03.2020
476 Snow -4 1031 68 0 5.1 250 10:58 31.03.2020
477 Snow -4 1031 68 0 5.1 250 10:40 31.03.2020
478 Snow -4 1031 68 0 5.1 250 10:21 31.03.2020
479 Snow -4 1029 68 0 4.6 250 09:56 31.03.2020
480 Snow -4 1029 68 0 4.6 250 09:37 31.03.2020
481 Snow -4 1029 68 0 4.6 250 09:19 31.03.2020
482 Snow -4 1028 68 0 5.1 250 08:56 31.03.2020
483 Snow -4 1028 68 0 5.1 250 08:38 31.03.2020
484 Snow -4 1028 68 0 5.1 250 08:19 31.03.2020
485 Snow -4 1027 73 0 3.6 240 07:55 31.03.2020
486 Snow -4 1027 73 0 3.6 240 07:55 31.03.2020
487 Snow -4 1027 73 0 3.6 240 07:37 31.03.2020
488 Snow -4 1027 73 0 3.6 240 07:18 31.03.2020
489 Snow -3 1026 86 0 4.1 230 06:42 31.03.2020
490 Snow -3 1025 86 0 8.7 200 05:59 31.03.2020
491 Snow -3 1025 86 0 8.7 200 05:39 31.03.2020
492 Snow -2 1023 74 0 10.3 150 03:28 31.03.2020
493 Clouds -3 1023 73 0 10.8 150 01:52 31.03.2020
494 Clouds -3 1023 73 0 10.8 150 01:33 31.03.2020
495 Clouds -3 1023 79 0 7.2 170 00:46 31.03.2020
496 Clouds -3 1023 79 0 7.2 170 00:24 31.03.2020
497 Clouds -3 1022 73 0 7.2 160 23:41 30.03.2020
498 Clouds -3 1022 73 0 7.2 160 23:20 30.03.2020
499 Clouds -3 1022 68 10000 6.2 160 22:58 30.03.2020
500 Clouds -2 1022 68 10000 6.2 160 22:39 30.03.2020
501 -273 0 0 0 0 0 22:20 30.03.2020
502 Clouds -2 1022 68 10000 5.7 150 21:58 30.03.2020
503 Clouds -2 1022 68 10000 5.7 150 21:39 30.03.2020
504 Clouds -2 1022 68 10000 5.7 150 21:21 30.03.2020
505 Clouds -2 1022 74 10000 4.1 220 20:59 30.03.2020
506 Clouds -2 1022 74 10000 4.1 220 20:39 30.03.2020
507 Clouds -2 1022 74 10000 4.1 220 20:20 30.03.2020
508 Clouds -2 1022 74 10000 5.1 230 19:57 30.03.2020
509 Clouds -2 1022 74 10000 5.1 230 19:39 30.03.2020
510 Clouds -2 1022 74 10000 5.1 230 19:20 30.03.2020
511 Clouds -2 1022 74 10000 3.6 210 18:56 30.03.2020
512 Clouds -2 1022 74 10000 3.6 210 18:36 30.03.2020
513 Clouds -2 1022 74 10000 3.6 210 18:18 30.03.2020
514 Clouds -2 1023 68 10000 2.6 190 17:55 30.03.2020
515 Clouds -1 1023 68 10000 2.6 190 17:36 30.03.2020
516 Clouds -1 1023 68 10000 2.6 190 17:18 30.03.2020
517 Clouds 1 1023 59 10000 0.5 210 16:41 30.03.2020
518 Clouds 1 1023 59 10000 0.5 210 16:21 30.03.2020
519 Clouds 1 1023 59 10000 0.5 210 16:21 30.03.2020
520 Clouds -1 1024 63 10000 1.5 180 15:56 30.03.2020
521 Clouds -1 1024 63 10000 1.5 180 15:38 30.03.2020
522 Clouds -1 1024 63 10000 1.5 180 15:20 30.03.2020
523 Clouds -2 1025 74 10000 1.44 95 14:58 30.03.2020
524 Clouds -2 1025 74 10000 1.44 95 14:38 30.03.2020
525 Clouds -2 1025 74 10000 1.49 112 14:19 30.03.2020
526 Clouds -2 1025 74 10000 1.49 112 14:19 30.03.2020
527 Clouds -3 1026 73 10000 1 180 13:58 30.03.2020
528 Clouds -3 1026 73 10000 1 180 13:39 30.03.2020
529 Clouds -3 1026 73 10000 1 180 13:20 30.03.2020
530 Clouds -3 1026 79 10000 1.5 240 12:45 30.03.2020
531 Clouds -3 1026 79 10000 1.5 240 12:22 30.03.2020
532 Clouds -4 1027 79 10000 2.1 210 11:59 30.03.2020
533 Clouds -4 1027 79 10000 2.1 210 11:41 30.03.2020
534 Clouds -4 1027 79 10000 2.1 210 11:22 30.03.2020
535 Snow -4 1027 79 0 2.6 220 10:57 30.03.2020
536 Snow -4 1027 79 0 2.6 220 10:37 30.03.2020
537 Snow -4 1027 79 0 2.6 220 10:19 30.03.2020
538 Snow -4 1027 85 0 3.6 220 09:41 30.03.2020
539 Snow -4 1027 85 0 3.6 220 09:41 30.03.2020
540 Snow -4 1027 85 0 3.6 220 09:20 30.03.2020
541 Snow -4 1026 85 0 4.6 210 08:58 30.03.2020
542 Snow -4 1026 85 0 4.6 210 08:38 30.03.2020
543 Snow -4 1026 85 0 4.6 210 08:20 30.03.2020
544 Snow -4 1026 85 0 6.7 220 07:44 30.03.2020
545 Snow -4 1026 85 0 6.7 220 07:23 30.03.2020
546 Snow -4 1026 85 0 6.7 220 06:47 30.03.2020
547 Snow -4 1026 85 0 6.7 220 06:27 30.03.2020
548 Snow -3 1025 79 0 8.7 200 05:44 30.03.2020
549 Snow -3 1024 86 0 10.3 200 04:37 30.03.2020
550 Snow -3 1024 86 0 10.3 200 04:18 30.03.2020
551 Snow -3 1021 92 0 11.8 210 02:45 30.03.2020
552 Snow -3 1019 86 0 13.4 200 01:58 30.03.2020
553 Snow -2 1019 86 0 13.4 200 01:18 30.03.2020
554 Mist -2 1018 92 0 12.9 190 00:29 30.03.2020
555 Mist -2 1016 100 0 13.4 190 23:57 29.03.2020
556 Mist -2 1016 100 0 13.4 190 23:57 29.03.2020
557 Mist -2 1016 100 0 13.4 190 23:39 29.03.2020
558 Mist -2 1016 100 0 13.4 190 23:20 29.03.2020
559 Snow -1 1015 100 0 12.3 190 22:55 29.03.2020
560 Snow -1 1015 100 0 12.3 190 22:37 29.03.2020
561 Snow -1 1015 100 0 12.3 190 22:18 29.03.2020
562 Snow -1 1013 100 0 11.8 190 21:40 29.03.2020
563 Snow -1 1013 100 0 11.8 190 21:21 29.03.2020
564 Snow 1 1011 100 0 19 170 20:56 29.03.2020
565 Snow 1 1011 100 0 19 170 20:37 29.03.2020
566 Snow 1 1011 100 0 19 170 20:19 29.03.2020
567 Snow 0 1010 96 0 20.1 160 19:59 29.03.2020
568 Snow 0 1010 96 0 20.1 160 19:41 29.03.2020
569 Snow 0 1010 96 0 20.1 160 19:23 29.03.2020
570 Snow 0 1009 96 0 19 170 18:57 29.03.2020
571 Snow 0 1009 96 0 19 170 18:39 29.03.2020
572 Snow 0 1009 95 0 19 170 18:20 29.03.2020
573 Snow 1 1009 100 0 18.5 170 17:56 29.03.2020
574 Snow 1 1009 100 0 18.5 170 17:38 29.03.2020
575 Snow 1 1009 100 0 18.5 170 17:20 29.03.2020
576 Snow 1 1010 95 0 15.4 170 16:57 29.03.2020
577 Snow 1 1010 95 0 15.4 170 16:39 29.03.2020
578 Snow 1 1010 95 0 15.4 170 16:20 29.03.2020
579 Snow 0 1010 95 0 11.3 170 15:43 29.03.2020
580 Snow 0 1010 95 0 11.3 170 15:25 29.03.2020
581 Snow 0 1009 95 0 11.8 180 14:59 29.03.2020
582 Snow 0 1009 95 0 11.8 180 14:40 29.03.2020
583 Snow 0 1009 95 0 11.8 180 14:21 29.03.2020
584 Snow 0 1009 100 0 14.4 170 13:59 29.03.2020
585 Snow 1 1009 100 0 14.4 170 13:41 29.03.2020
586 Snow 1 1009 100 0 14.4 170 13:21 29.03.2020
587 Snow 1 1008 100 0 14.9 170 12:57 29.03.2020
588 Snow 1 1008 100 0 14.9 170 12:38 29.03.2020
589 Snow 1 1008 100 0 14.9 170 12:19 29.03.2020
590 Snow 1 1009 100 0 13.4 170 11:57 29.03.2020
591 Snow 1 1009 100 0 13.4 170 11:57 29.03.2020
592 Snow 1 1009 100 0 13.4 170 11:37 29.03.2020
593 Snow 1 1009 100 0 13.4 170 11:19 29.03.2020
594 Snow 1 1008 100 0 15.4 170 10:39 29.03.2020
595 Snow 1 1008 100 0 15.4 170 10:20 29.03.2020
596 Snow 1 1007 100 0 21.1 160 09:55 29.03.2020
597 Snow 1 1007 100 0 21.1 160 09:37 29.03.2020
598 Snow 1 1007 100 0 21.1 160 09:18 29.03.2020
599 Snow 2 1007 100 0 18 170 08:43 29.03.2020
600 Snow 2 1007 100 0 18 170 08:24 29.03.2020
601 Snow 3 1007 93 0 14.4 160 07:47 29.03.2020
602 Snow 3 1007 93 0 14.4 160 07:23 29.03.2020
603 Snow 3 1007 100 0 17 160 06:34 29.03.2020
604 Rain 6 1008 70 0 11.3 160 04:56 29.03.2020
605 Rain 4 1010 80 0 4.6 180 03:41 29.03.2020
606 Rain 4 1010 80 0 4.6 180 03:20 29.03.2020
607 Rain 5 1009 80 0 5.1 180 01:43 29.03.2020
608 Rain 5 1009 80 0 5.1 180 01:22 29.03.2020
609 Rain 4 1009 80 0 9.3 180 00:45 29.03.2020
610 Rain 4 1009 80 0 9.3 180 00:27 29.03.2020
611 Rain 6 1009 87 0 13.9 160 23:41 28.03.2020
612 Rain 6 1009 87 0 13.9 160 23:22 28.03.2020
613 Snow 5 1009 86 0 12.3 160 22:46 28.03.2020
614 Snow 5 1009 86 0 12.3 160 22:23 28.03.2020
615 Snow 4 1010 100 0 2.6 0 21:59 28.03.2020
616 Snow 3 1010 100 0 2.6 0 21:40 28.03.2020
617 Snow 3 1010 100 0 2.6 0 21:21 28.03.2020
618 Snow 2 1010 90 800 3.1 360 20:57 28.03.2020
619 Snow 1 1010 90 800 3.1 360 20:38 28.03.2020
620 Snow 1 1010 92 800 3.1 360 20:20 28.03.2020
621 Snow 2 1011 93 700 0.5 0 19:56 28.03.2020
622 Snow 2 1011 93 700 0.5 0 19:36 28.03.2020
623 Snow 2 1011 93 700 0.5 0 19:36 28.03.2020
624 Snow 2 1011 93 700 0.5 0 19:18 28.03.2020
625 Snow 2 1011 93 3500 0.5 150 18:42 28.03.2020
626 Snow 2 1011 93 3500 0.5 150 18:21 28.03.2020
627 Rain 1 1012 93 1500 3.1 170 17:56 28.03.2020
628 Rain 1 1012 93 1500 3.1 170 17:36 28.03.2020
629 Rain 1 1012 96 1500 3.1 170 17:18 28.03.2020
630 Snow 1 1012 86 4000 4.1 70 16:42 28.03.2020
631 Snow 1 1012 86 4000 4.1 70 16:20 28.03.2020
632 Snow 1 1013 86 4000 7.2 60 15:55 28.03.2020
633 Snow 1 1013 86 4000 7.2 60 15:37 28.03.2020
634 Snow 1 1013 86 4000 7.2 60 15:18 28.03.2020
635 Snow 0 1014 96 1300 8.7 80 14:42 28.03.2020
636 Snow 0 1014 98 1300 8.7 80 14:22 28.03.2020
637 Snow 0 1015 92 1100 7.7 70 13:55 28.03.2020
638 Snow -1 1015 92 1100 7.7 70 13:36 28.03.2020
639 Snow -1 1015 92 1100 7.7 70 13:18 28.03.2020
640 Snow -1 1016 92 1200 8.2 50 12:37 28.03.2020
641 Snow -1 1016 92 1200 8.2 50 12:19 28.03.2020
642 Snow -1 1017 92 1000 9.8 60 11:42 28.03.2020
643 Snow -1 1017 92 1000 9.8 60 11:42 28.03.2020
644 Snow -1 1017 92 1000 9.8 60 11:21 28.03.2020
645 Snow -2 1018 100 1200 9.3 70 10:43 28.03.2020
646 Snow -2 1018 100 1200 9.3 70 10:24 28.03.2020
647 Snow -2 1020 92 0 7.7 70 09:59 28.03.2020
648 Snow -2 1020 92 0 7.7 70 09:40 28.03.2020
649 Snow -2 1020 92 0 7.7 70 09:21 28.03.2020
650 Snow 0 1021 98 0 8.2 130 08:43 28.03.2020
651 Snow 0 1021 97 0 8.2 130 08:24 28.03.2020
652 Snow -1 1023 68 0 1.5 90 07:53 28.03.2020
653 Snow -1 1023 68 0 1.5 90 07:35 28.03.2020
654 Snow -1 1023 74 0 3.1 170 06:52 28.03.2020
655 Snow -1 1023 74 0 3.1 170 06:23 28.03.2020
656 Snow 0 1024 94 0 7.2 180 05:30 28.03.2020
657 Snow 0 1024 94 0 7.2 180 05:30 28.03.2020
658 Snow 0 1024 97 0 8.2 170 04:58 28.03.2020
659 Snow 0 1024 97 0 8.2 170 04:39 28.03.2020
660 Snow -2 1024 79 0 12.9 150 02:51 28.03.2020
661 Snow -1 1023 92 0 17.5 150 01:47 28.03.2020
662 Snow -1 1023 92 0 17.5 150 01:23 28.03.2020
663 Snow -1 1021 86 0 22.6 160 00:51 28.03.2020
664 Snow -1 1021 86 0 22.6 160 00:25 28.03.2020
665 Snow 0 1020 98 0 21.6 160 23:44 27.03.2020
666 Snow 0 1020 98 0 21.6 160 23:26 27.03.2020
667 Snow 0 1019 98 0 22.6 160 22:57 27.03.2020
668 Snow 0 1019 98 0 22.6 160 22:39 27.03.2020
669 Snow 0 1019 98 0 22.6 160 22:20 27.03.2020
670 Snow 0 1018 98 0 23.7 160 21:58 27.03.2020
671 Snow 0 1018 98 0 23.7 160 21:40 27.03.2020
672 Snow 0 1018 98 0 23.7 160 21:22 27.03.2020
673 Snow 0 1017 98 0 24.2 150 20:56 27.03.2020
674 Snow 0 1017 98 0 24.2 150 20:38 27.03.2020
675 Snow 0 1017 97 0 24.2 150 20:19 27.03.2020
676 Snow 0 1016 97 0 25.7 150 19:54 27.03.2020
677 Snow 0 1016 97 0 25.7 150 19:54 27.03.2020
678 Snow 0 1016 97 0 25.7 150 19:36 27.03.2020
679 Snow 0 1016 97 0 25.7 150 19:18 27.03.2020
680 Snow 0 1015 97 0 26.2 150 18:42 27.03.2020
681 Snow 0 1015 97 0 26.2 150 18:22 27.03.2020
682 Snow 0 1014 97 0 26.2 150 17:54 27.03.2020
683 Snow 0 1014 97 0 26.2 150 17:36 27.03.2020
684 Snow 0 1014 96 0 26.2 150 17:18 27.03.2020
685 Snow 0 1014 96 0 27.3 150 16:42 27.03.2020
686 Snow 0 1014 96 0 27.3 150 16:23 27.03.2020
687 Snow 0 1014 96 0 27.3 150 15:44 27.03.2020
688 Snow 0 1014 96 0 27.3 150 15:26 27.03.2020
689 Snow 0 1013 96 0 21.1 150 14:56 27.03.2020
690 Snow 0 1013 96 0 21.1 150 14:36 27.03.2020
691 Snow 0 1013 95 0 21.1 150 14:18 27.03.2020
692 Snow 0 1012 95 0 25.7 150 13:42 27.03.2020
693 Snow 0 1012 95 0 25.7 150 13:22 27.03.2020
694 Snow 0 1011 92 0 19 150 12:58 27.03.2020
695 Snow -1 1011 92 0 19 150 12:39 27.03.2020
696 Snow -1 1011 92 0 19 150 12:19 27.03.2020
697 Snow -1 1012 92 0 18 150 11:42 27.03.2020
698 Snow -1 1012 92 0 18 150 11:24 27.03.2020
699 Snow -1 1010 92 0 18 150 10:56 27.03.2020
700 Snow -1 1010 92 0 18 150 10:38 27.03.2020
701 Snow -1 1010 92 0 18 150 10:20 27.03.2020
702 Snow -1 1011 86 0 19.5 150 09:58 27.03.2020
703 Snow -1 1011 86 0 19.5 150 09:38 27.03.2020
704 Snow -1 1011 86 0 19.5 150 09:20 27.03.2020
705 Snow -1 1011 86 0 16.5 150 08:57 27.03.2020
706 Snow -1 1011 86 0 16.5 150 08:38 27.03.2020
707 Snow -1 1011 86 0 16.5 150 08:20 27.03.2020
708 Snow -1 1012 74 0 14.9 150 07:52 27.03.2020
709 Snow -1 1012 74 0 14.9 150 07:26 27.03.2020
710 Snow -2 1012 92 0 13.9 150 06:55 27.03.2020
711 Snow -2 1012 92 0 13.9 150 06:37 27.03.2020
712 Snow -2 1014 86 0 13.4 150 05:28 27.03.2020
713 Snow -4 1016 73 0 5.1 130 02:49 27.03.2020
714 Snow -5 1017 73 0 6.7 130 01:36 27.03.2020
715 Clouds -6 1017 53 0 6.2 90 00:53 27.03.2020
716 Clouds -6 1017 53 0 6.2 90 00:32 27.03.2020
717 Clouds -8 1019 57 0 6.7 80 23:44 26.03.2020
718 Clouds -8 1019 57 0 6.7 80 23:24 26.03.2020
719 Clouds -8 1020 52 10000 6.2 100 22:59 26.03.2020
720 Clouds -8 1020 52 10000 6.2 100 22:59 26.03.2020
721 Clouds -8 1020 52 10000 6.2 100 22:39 26.03.2020
722 Clouds -8 1020 52 10000 6.2 100 22:20 26.03.2020
723 Clouds -8 1020 48 10000 6.2 100 21:58 26.03.2020
724 Clouds -8 1020 48 10000 6.2 100 21:39 26.03.2020
725 Clouds -8 1020 48 10000 6.2 100 21:21 26.03.2020
726 Clouds -8 1021 48 10000 6.2 90 20:58 26.03.2020
727 Clouds -7 1021 48 10000 6.2 90 20:38 26.03.2020
728 Clouds -7 1021 48 10000 6.2 90 20:20 26.03.2020
729 Clouds -7 1021 44 10000 6.7 100 19:56 26.03.2020
730 Clouds -6 1021 44 10000 6.7 100 19:38 26.03.2020
731 Clouds -6 1021 44 10000 6.7 100 19:38 26.03.2020
732 Clouds -6 1021 44 10000 6.7 100 19:20 26.03.2020
733 Clouds -5 1022 41 10000 5.7 120 18:55 26.03.2020
734 Clouds -5 1022 41 10000 5.7 120 18:55 26.03.2020
735 Clouds -4 1022 41 10000 5.7 120 18:37 26.03.2020
736 Clouds -4 1022 41 10000 5.7 120 18:18 26.03.2020
737 Clouds -5 1022 38 10000 4.6 110 17:42 26.03.2020
738 Clouds -5 1022 38 10000 4.6 110 17:19 26.03.2020
739 Clouds -5 1023 41 10000 4.6 110 16:45 26.03.2020
740 Clouds -5 1023 41 10000 4.6 110 16:27 26.03.2020
741 Clouds -4 1023 38 10000 3.1 120 15:59 26.03.2020
742 Clouds -4 1023 38 10000 3.1 120 15:40 26.03.2020
743 Clouds -4 1023 38 10000 3.1 120 15:21 26.03.2020
744 Clouds -7 1023 44 10000 3.6 110 14:58 26.03.2020
745 Clouds -7 1023 44 10000 3.6 110 14:38 26.03.2020
746 Clouds -7 1023 44 10000 3.6 110 14:38 26.03.2020
747 Clouds -7 1023 44 10000 3.6 110 14:19 26.03.2020
748 Rain -8 1023 57 10000 3.6 100 13:43 26.03.2020
749 Rain -8 1023 57 10000 3.6 100 13:23 26.03.2020
750 Clouds -13 1023 78 10000 4.1 100 12:57 26.03.2020
751 Clouds -13 1023 78 10000 4.1 100 12:38 26.03.2020
752 Clouds -13 1023 78 10000 4.1 100 12:19 26.03.2020
753 Snow -12 1022 85 6000 2.6 80 11:45 26.03.2020
754 Snow -12 1022 85 6000 2.6 80 11:22 26.03.2020
755 Snow -12 1022 78 0 1.5 40 10:56 26.03.2020
756 Snow -11 1022 78 0 1.5 40 10:37 26.03.2020
757 Snow -11 1022 78 0 1.5 40 10:37 26.03.2020
758 Snow -11 1022 78 0 1.5 40 10:19 26.03.2020
759 Snow -12 1022 85 0 3.26 144 09:43 26.03.2020
760 Snow -12 1022 85 0 3.26 144 09:20 26.03.2020
761 Snow -11 1021 78 0 1 0 08:55 26.03.2020
762 Snow -11 1021 78 0 1 0 08:37 26.03.2020
763 Snow -11 1021 78 0 1 0 08:18 26.03.2020
764 Snow -12 1020 85 0 3.6 270 07:41 26.03.2020
765 Snow -12 1020 85 0 3.6 270 07:21 26.03.2020
766 Snow -12 1020 92 0 3.6 280 06:48 26.03.2020
767 Snow -11 1019 66 0 3.1 240 05:57 26.03.2020
768 Snow -11 1018 66 0 5.1 250 04:25 26.03.2020
769 Snow -11 1017 78 0 5.7 260 03:41 26.03.2020
770 Snow -11 1017 72 0 6.7 260 02:54 26.03.2020
771 Snow -11 1016 78 0 5.7 240 01:50 26.03.2020
772 Snow -11 1015 85 0 8.2 250 00:52 26.03.2020
773 Snow -10 1014 66 0 6.7 240 23:59 25.03.2020
774 Snow -10 1014 66 0 6.7 240 23:40 25.03.2020
775 Snow -10 1014 66 0 6.7 240 23:20 25.03.2020
776 Snow -10 1012 72 0 6.2 250 22:40 25.03.2020
777 Snow -10 1012 72 0 6.2 250 22:21 25.03.2020
778 Snow -9 1011 78 0 8.2 260 21:56 25.03.2020
779 Snow -9 1011 78 0 8.2 260 21:37 25.03.2020
780 Snow -9 1011 78 0 8.2 260 21:19 25.03.2020
781 Snow -7 1010 67 10000 8.7 250 20:55 25.03.2020
782 Snow -7 1010 67 10000 8.7 250 20:37 25.03.2020
783 Snow -7 1010 67 10000 8.7 250 20:18 25.03.2020
784 Snow -8 1009 78 1600 6.7 250 19:42 25.03.2020
785 Snow -8 1009 78 1600 6.7 250 19:22 25.03.2020
786 Snow -8 1008 78 10000 5.1 240 18:57 25.03.2020
787 Snow -8 1008 78 10000 5.1 240 18:39 25.03.2020
788 Snow -8 1008 78 10000 5.1 240 18:21 25.03.2020
789 Snow -8 1007 78 5000 5.1 250 17:55 25.03.2020
790 Snow -8 1007 78 5000 5.1 250 17:37 25.03.2020
791 Snow -8 1007 78 5000 5.1 250 17:18 25.03.2020
792 Rain -8 1006 67 10000 7.2 250 16:43 25.03.2020
793 Rain -8 1006 67 10000 7.2 250 16:24 25.03.2020
794 Rain -8 1005 78 10000 7.7 240 15:59 25.03.2020
795 Rain -8 1005 78 10000 7.7 240 15:40 25.03.2020
796 Rain -8 1005 78 10000 7.7 240 15:19 25.03.2020
797 Snow -9 1006 92 0 7.64 256 14:42 25.03.2020
798 Snow -9 1006 92 0 6.86 256 14:22 25.03.2020
799 Snow -7 1001 92 1300 0.5 270 13:59 25.03.2020
800 Snow -7 1001 92 1300 0.5 270 13:41 25.03.2020
801 Snow -7 1001 92 1300 0.5 270 13:22 25.03.2020
802 Clouds -5 999 85 10000 0.5 240 12:38 25.03.2020
803 Clouds -5 999 85 10000 0.5 240 12:19 25.03.2020
804 Snow -4 998 92 10000 0.5 240 11:55 25.03.2020
805 Snow -4 998 92 10000 0.5 240 11:36 25.03.2020
806 Snow -4 998 92 10000 0.5 240 11:18 25.03.2020
807 Snow -4 997 92 1500 0.5 200 10:56 25.03.2020
808 Snow -4 997 92 1500 0.5 200 10:37 25.03.2020
809 Snow -4 997 92 1500 0.5 200 10:18 25.03.2020
810 Snow -4 996 92 0 4.6 160 09:42 25.03.2020
811 Snow -4 996 92 0 4.6 160 09:23 25.03.2020
812 Snow -5 996 100 0 5.1 160 08:56 25.03.2020
813 Snow -5 996 100 0 5.1 160 08:38 25.03.2020
814 Snow -5 996 100 0 5.1 160 08:19 25.03.2020
815 Snow -5 995 100 0 6.2 160 07:41 25.03.2020
816 Snow -5 995 100 0 6.2 160 07:20 25.03.2020
817 Snow -4 995 85 0 6.7 150 06:48 25.03.2020
818 Snow -4 995 85 0 6.7 150 06:28 25.03.2020
819 Snow -4 995 85 0 6.2 150 05:56 25.03.2020
820 Snow -4 995 85 0 6.2 150 05:30 25.03.2020
821 Snow -4 995 79 0 6.7 150 04:39 25.03.2020
822 Snow -4 995 79 0 6.2 150 03:36 25.03.2020
823 Snow -4 995 85 0 6.2 150 02:31 25.03.2020
824 Snow -4 995 85 2000 12.9 150 01:21 25.03.2020
825 Snow -4 995 92 600 6.7 160 00:48 25.03.2020
826 Snow -4 995 92 600 6.7 160 00:23 25.03.2020
827 Snow -4 995 92 300 7.7 160 23:45 24.03.2020
828 Snow -4 995 92 300 7.7 160 23:26 24.03.2020
829 Snow -4 995 92 400 8.7 160 22:57 24.03.2020
830 Snow -4 995 92 400 8.7 160 22:38 24.03.2020
831 Snow -4 995 92 400 8.7 160 22:19 24.03.2020
832 Snow -4 996 85 1600 9.8 160 21:56 24.03.2020
833 Snow -4 996 85 1600 9.8 160 21:37 24.03.2020
834 Snow -4 996 85 1600 9.8 160 21:18 24.03.2020
835 Snow -4 996 85 400 12.9 150 20:56 24.03.2020
836 Snow -4 996 85 400 12.9 150 20:38 24.03.2020
837 Snow -4 996 85 400 12.9 150 20:20 24.03.2020
838 Rain -3 996 73 10000 11.8 160 19:44 24.03.2020
839 Rain -3 996 73 10000 11.8 160 19:19 24.03.2020
840 Snow -3 996 73 3000 12.3 150 18:56 24.03.2020
841 Snow -3 996 73 3000 12.3 150 18:37 24.03.2020
842 Snow -3 996 73 3000 12.3 150 18:18 24.03.2020
843 Snow -3 997 97 0 9.11 180 17:42 24.03.2020
844 Snow -3 997 97 0 9.11 180 17:42 24.03.2020
845 Snow -3 997 97 0 9.11 180 17:24 24.03.2020
846 Clouds -3 996 73 10000 12.3 150 16:59 24.03.2020
847 Clouds -3 996 73 10000 12.3 150 16:41 24.03.2020
848 Clouds -3 996 73 10000 12.3 150 16:23 24.03.2020
849 Clouds -3 996 73 10000 12.3 150 16:23 24.03.2020
850 Snow -4 997 73 800 11.8 160 15:59 24.03.2020
851 Snow -4 997 73 800 11.8 160 15:39 24.03.2020
852 Snow -4 997 73 800 11.8 160 15:21 24.03.2020
853 Snow -4 997 73 800 11.8 160 15:21 24.03.2020
854 Snow -5 997 79 4100 12.3 160 14:43 24.03.2020
855 Snow -5 997 79 4100 12.3 160 14:22 24.03.2020
856 Snow -5 997 73 10000 10.8 160 13:55 24.03.2020
857 Snow -5 997 73 10000 10.8 160 13:36 24.03.2020
858 Snow -5 997 73 10000 10.8 160 13:18 24.03.2020
859 Snow -6 997 85 1200 9.8 160 12:41 24.03.2020
860 Snow -6 997 85 1200 9.8 160 12:23 24.03.2020
861 Rain -6 997 79 10000 10.3 160 11:41 24.03.2020
862 Rain -6 997 79 10000 10.3 160 11:20 24.03.2020
863 Snow -6 997 79 0 11.8 150 10:57 24.03.2020
864 Snow -6 997 79 0 11.8 150 10:38 24.03.2020
865 Snow -6 997 79 0 11.8 150 10:18 24.03.2020
866 Snow -6 997 79 0 9.8 150 09:43 24.03.2020
867 Snow -6 997 79 0 9.8 150 09:25 24.03.2020
868 Snow -6 998 79 0 9.3 160 08:40 24.03.2020
869 Snow -6 998 79 0 9.3 160 08:21 24.03.2020
870 Snow -6 998 79 0 7.7 150 07:59 24.03.2020
871 Snow -6 998 79 0 7.7 150 07:41 24.03.2020
872 Snow -6 998 79 0 7.7 150 07:21 24.03.2020
873 Snow -6 998 67 0 5.7 160 06:35 24.03.2020
874 Snow -7 999 73 0 7.2 160 05:36 24.03.2020
875 Snow -8 999 78 0 5.7 140 04:51 24.03.2020
876 Snow -8 1000 72 0 5.1 180 03:21 24.03.2020
877 Snow -8 1000 72 0 4.6 150 02:37 24.03.2020
878 Snow -8 1000 72 0 1.5 120 00:54 24.03.2020
879 Snow -8 1000 72 0 1.5 120 00:27 24.03.2020
880 Snow -8 1000 61 0 2.6 90 23:56 23.03.2020
881 Snow -8 1000 61 0 2.6 90 23:37 23.03.2020
882 Clouds -8 1000 61 0 2.6 90 23:19 23.03.2020
883 Clouds -8 1000 57 0 1 100 22:44 23.03.2020
884 Clouds -8 1000 57 0 1 100 22:23 23.03.2020
885 Clouds -7 999 48 0 1.5 90 21:55 23.03.2020
886 Clouds -6 999 48 0 1.5 90 21:37 23.03.2020
887 Clouds -6 999 48 0 1.5 90 21:18 23.03.2020
888 Clouds -6 999 48 0 1.5 90 21:18 23.03.2020
889 Clouds -6 999 48 10000 3.6 90 20:44 23.03.2020
890 Clouds -6 999 48 10000 3.6 90 20:26 23.03.2020
891 Clouds -4 999 45 10000 1.5 50 19:59 23.03.2020
892 Clouds -4 999 45 10000 1.5 50 19:41 23.03.2020
893 Clouds -4 999 45 10000 1.5 50 19:22 23.03.2020
894 Clouds -5 998 45 10000 3.1 80 18:56 23.03.2020
895 Clouds -5 998 45 10000 3.1 80 18:38 23.03.2020
896 Clouds -5 998 45 10000 3.1 80 18:18 23.03.2020
897 Clouds -5 998 45 10000 5.1 30 17:41 23.03.2020
898 Clouds -5 998 45 10000 5.1 30 17:20 23.03.2020
899 Clouds -6 998 48 10000 4.6 20 16:55 23.03.2020
900 Clouds -6 998 48 10000 4.6 20 16:36 23.03.2020
901 Clouds -6 998 48 10000 4.6 20 16:18 23.03.2020
902 Clouds -7 997 57 10000 5.1 10 15:40 23.03.2020
903 Clouds -7 997 57 10000 5.1 10 15:19 23.03.2020
904 Clouds -8 997 57 10000 5.1 10 14:38 23.03.2020
905 Clouds -8 997 57 10000 5.1 10 14:19 23.03.2020
906 Clouds -8 997 57 10000 5.1 20 13:57 23.03.2020
907 Clouds -8 997 57 10000 5.1 20 13:39 23.03.2020
908 Clouds -8 997 57 10000 5.1 20 13:20 23.03.2020
909 Clouds -9 996 56 10000 5.1 20 12:44 23.03.2020
910 Clouds -9 996 56 10000 5.1 20 12:25 23.03.2020
911 Clouds -9 995 56 10000 4.6 30 11:58 23.03.2020
912 Clouds -9 995 56 10000 4.6 30 11:38 23.03.2020
913 Clouds -9 995 56 10000 4.6 30 11:19 23.03.2020
914 Clear -9 994 56 0 5.7 60 10:56 23.03.2020
915 Clear -9 994 56 0 5.7 60 10:37 23.03.2020
916 Clear -9 994 56 0 5.7 60 10:19 23.03.2020
917 Clear -9 994 66 0 4.6 30 09:44 23.03.2020
918 Clear -9 994 66 0 4.6 30 09:21 23.03.2020
919 Clear -9 993 66 0 4.6 50 08:56 23.03.2020
920 Clear -9 993 66 0 4.6 50 08:36 23.03.2020
921 Clouds -9 993 66 0 4.6 50 08:18 23.03.2020
922 Clouds -9 992 66 0 4.6 60 07:42 23.03.2020
923 Clouds -9 992 66 0 4.6 60 07:21 23.03.2020
924 Clouds -9 991 66 0 5.7 30 06:49 23.03.2020
925 Clouds -9 990 72 0 5.1 350 05:54 23.03.2020
926 Snow -8 989 67 0 4.6 10 04:58 23.03.2020
927 Snow -7 988 62 0 5.7 20 03:28 23.03.2020
928 Snow -8 986 78 0 2.6 330 01:51 23.03.2020
929 Snow -8 986 78 0 2.6 330 01:32 23.03.2020
930 Snow -8 986 78 0 1.5 360 00:36 23.03.2020
931 Snow -8 985 72 0 3.1 300 23:47 22.03.2020
932 Snow -8 985 72 0 3.1 300 23:26 22.03.2020
933 Clouds -7 984 52 0 2.1 350 22:45 22.03.2020
934 Clouds -7 984 52 0 2.1 350 22:24 22.03.2020
935 Clouds -7 983 48 0 1.5 20 21:56 22.03.2020
936 Clouds -7 983 48 0 1.5 20 21:37 22.03.2020
937 Clouds -7 983 48 0 1.5 20 21:19 22.03.2020
938 Clouds -6 982 44 0 4.1 60 20:46 22.03.2020
939 Clouds -6 982 44 0 4.1 60 20:25 22.03.2020
940 Clouds -6 981 44 0 3.6 40 19:58 22.03.2020
941 Clouds -6 981 44 0 3.6 40 19:40 22.03.2020
942 Clouds -6 981 44 0 3.6 40 19:20 22.03.2020
943 Clouds -6 981 44 0 3.6 40 19:20 22.03.2020
944 Clouds -5 981 41 10000 4.1 360 18:59 22.03.2020
945 Clouds -5 981 41 10000 4.1 360 18:41 22.03.2020
946 Clouds -5 981 41 10000 4.1 360 18:41 22.03.2020
947 Clouds -5 981 41 10000 4.1 360 18:22 22.03.2020
948 Clouds -5 980 41 10000 4.1 30 17:59 22.03.2020
949 Clouds -5 980 41 10000 4.1 30 17:39 22.03.2020
950 Clouds -5 980 41 10000 4.1 30 17:21 22.03.2020
951 Clouds -6 980 41 10000 4.1 20 16:58 22.03.2020
952 Clouds -6 980 41 10000 4.1 20 16:40 22.03.2020
953 Clouds -6 980 41 10000 4.1 20 16:21 22.03.2020
954 Clouds -7 980 44 10000 5.7 30 15:57 22.03.2020
955 Clouds -7 980 44 10000 5.7 30 15:39 22.03.2020
956 Clear -8 980 57 0 6.2 20 14:47 22.03.2020
957 Clouds -8 980 57 0 6.2 20 14:19 22.03.2020
958 Clouds -9 980 52 0 7.2 10 13:56 22.03.2020
959 Clouds -9 980 52 0 7.2 10 13:37 22.03.2020
960 Clouds -9 980 52 0 7.2 10 13:19 22.03.2020
961 Clouds -10 980 56 10000 6.7 30 12:44 22.03.2020
962 Clouds -10 980 56 10000 6.7 30 12:20 22.03.2020
963 Clouds -10 980 61 10000 6.7 30 11:56 22.03.2020
964 Clouds -10 980 61 10000 6.7 30 11:38 22.03.2020
965 Clouds -10 980 61 10000 6.7 30 11:19 22.03.2020
966 Clouds -10 980 61 0 9.3 20 10:43 22.03.2020
967 Clouds -10 980 61 0 9.3 20 10:24 22.03.2020
968 Clouds -10 980 61 0 9.3 20 10:24 22.03.2020
969 Clouds -10 980 56 0 9.3 10 09:49 22.03.2020
970 Clouds -10 980 56 0 9.3 10 09:30 22.03.2020
971 Clouds -10 981 61 0 8.2 10 08:55 22.03.2020
972 Clouds -10 981 61 0 8.2 10 08:36 22.03.2020
973 Clouds -10 981 61 0 8.2 10 08:18 22.03.2020
974 Clouds -9 981 56 0 8.7 10 07:49 22.03.2020
975 Clouds -9 981 56 0 8.7 10 07:18 22.03.2020
976 Clouds -10 983 66 0 9.3 350 05:55 22.03.2020
977 Clouds -9 985 61 0 8.7 350 04:58 22.03.2020
978 Clouds -7 988 62 0 10.3 20 02:50 22.03.2020
979 Clouds -6 989 67 0 9.3 10 01:22 22.03.2020
980 Clouds -6 991 67 0 9.3 20 00:39 22.03.2020
981 Clouds -6 991 67 0 9.3 20 00:21 22.03.2020
982 Clouds -6 992 62 0 8.7 10 23:41 21.03.2020
983 Clouds -6 992 62 0 8.7 10 23:19 21.03.2020
984 Clouds -6 994 57 0 7.7 40 22:38 21.03.2020
985 Clouds -6 994 57 0 7.7 40 22:20 21.03.2020
986 Clouds -5 996 49 0 5.7 40 21:59 21.03.2020
987 Clouds -5 996 49 0 5.7 40 21:40 21.03.2020
988 Clouds -5 996 49 0 5.7 40 21:22 21.03.2020
989 Clouds -5 997 45 0 8.2 60 20:46 21.03.2020
990 Clouds -5 997 45 0 8.2 60 20:23 21.03.2020
991 Clear -4 999 45 0 5.7 70 19:57 21.03.2020
992 Clear -3 999 45 0 5.7 70 19:39 21.03.2020
993 Clear -3 999 45 0 5.7 70 19:21 21.03.2020
994 Clear -3 1000 45 0 6.2 70 18:55 21.03.2020
995 Clear -3 1000 45 0 6.2 70 18:37 21.03.2020
996 Clear -3 1000 45 0 6.2 70 18:19 21.03.2020
997 Clear -3 1001 45 0 5.7 70 17:43 21.03.2020
998 Clear -3 1001 45 0 5.7 70 17:43 21.03.2020
999 Clouds -3 1001 45 0 5.7 70 17:24 21.03.2020
1000 Clouds -4 1002 53 10000 6.2 80 16:57 21.03.2020
1001 Clouds -4 1002 53 10000 6.2 80 16:39 21.03.2020
1002 Clouds -4 1002 53 10000 6.2 80 16:19 21.03.2020
1003 Clouds -5 1003 57 10000 7.2 80 15:55 21.03.2020
1004 Clouds -5 1003 57 10000 7.2 80 15:36 21.03.2020
1005 Clouds -5 1003 57 10000 7.2 80 15:18 21.03.2020
1006 Clouds -5 1004 53 10000 5.1 80 14:54 21.03.2020
1007 Clouds -4 1004 53 10000 5.1 80 14:36 21.03.2020
1008 Clouds -4 1004 53 10000 5.1 80 14:36 21.03.2020
1009 Clouds -4 1004 53 10000 5.1 80 14:18 21.03.2020
1010 Clouds -5 1005 57 10000 3.6 70 13:54 21.03.2020
1011 Clouds -5 1005 57 10000 3.6 70 13:36 21.03.2020
1012 Clouds -5 1005 57 10000 3.6 70 13:18 21.03.2020
1013 Clouds -6 1006 67 10000 1 10 12:39 21.03.2020
1014 Clouds -6 1006 67 10000 1 10 12:19 21.03.2020
1015 Clouds -6 1006 62 10000 0.5 120 11:57 21.03.2020
1016 Clouds -6 1006 62 10000 0.5 120 11:38 21.03.2020
1017 Clouds -6 1006 62 10000 0.5 120 11:38 21.03.2020
1018 Clouds -6 1006 62 10000 0.5 120 11:19 21.03.2020
1019 Clouds -6 1007 57 10000 1.5 100 10:57 21.03.2020
1020 Clouds -6 1007 57 10000 1.5 100 10:38 21.03.2020
1021 Clouds -6 1007 57 10000 1.5 100 10:20 21.03.2020
1022 Snow -6 1007 57 0 3.1 220 09:57 21.03.2020
1023 Snow -6 1007 57 0 3.1 220 09:37 21.03.2020
1024 Snow -6 1007 57 0 3.1 220 09:19 21.03.2020
1025 Snow -6 1007 57 0 2.6 190 08:44 21.03.2020
1026 Snow -6 1007 57 0 2.6 190 08:25 21.03.2020
1027 Snow -6 1007 53 0 5.7 180 07:52 21.03.2020
1028 Snow -6 1007 53 0 5.7 180 07:32 21.03.2020
1029 Snow -6 1007 53 0 6.7 170 06:48 21.03.2020
1030 Snow -6 1007 53 0 6.7 170 06:29 21.03.2020
1031 Snow -5 1006 49 0 5.7 150 05:48 21.03.2020
1032 Snow -5 1006 49 0 5.7 150 05:18 21.03.2020
1033 Clouds -6 1006 53 10000 6.7 150 03:26 21.03.2020
1034 Snow -5 1006 49 10000 6.7 170 02:34 21.03.2020
1035 Snow -6 1006 57 10000 6.7 160 01:40 21.03.2020
1036 Snow -6 1006 57 10000 6.7 160 01:20 21.03.2020
1037 Snow -5 1006 49 10000 5.7 150 00:38 21.03.2020
1038 Clouds -5 1006 53 10000 8.7 140 23:59 20.03.2020
1039 Clouds -5 1006 53 10000 8.7 140 23:40 20.03.2020
1040 Clouds -5 1006 53 10000 8.7 140 23:18 20.03.2020
1041 Clouds -5 1005 53 10000 8.7 160 22:42 20.03.2020
1042 Clouds -5 1005 53 10000 8.7 160 22:24 20.03.2020
1043 Clouds -5 1005 57 10000 8.7 160 21:57 20.03.2020
1044 Clouds -5 1005 57 10000 8.7 160 21:39 20.03.2020
1045 Clouds -5 1005 57 10000 8.7 160 21:19 20.03.2020
1046 Clouds -5 1004 57 10000 10.3 150 20:57 20.03.2020
1047 Clouds -5 1004 57 10000 10.3 150 20:39 20.03.2020
1048 Clouds -5 1004 57 10000 10.3 150 20:18 20.03.2020
1049 Clouds -4 1004 49 10000 9.3 150 19:46 20.03.2020
1050 Clouds -4 1004 49 10000 9.3 150 19:19 20.03.2020
1051 Clouds -4 1004 53 10000 7.7 160 18:56 20.03.2020
1052 Clouds -4 1004 53 10000 7.7 160 18:37 20.03.2020
1053 Clouds -4 1004 53 10000 7.7 160 18:19 20.03.2020
1054 Rain -3 1003 45 10000 9.3 140 17:41 20.03.2020
1055 Rain -3 1003 45 10000 9.3 140 17:22 20.03.2020
1056 Clouds -4 1003 58 10000 9.8 150 16:59 20.03.2020
1057 Clouds -4 1003 58 10000 9.8 150 16:41 20.03.2020
1058 Clouds -4 1003 58 10000 9.8 150 16:20 20.03.2020
1059 Clouds -5 1003 57 10000 10.3 160 15:44 20.03.2020
1060 Clouds -5 1003 57 10000 10.3 160 15:23 20.03.2020
1061 Snow -6 1002 62 10000 9.8 160 14:58 20.03.2020
1062 Snow -6 1002 62 10000 9.8 160 14:40 20.03.2020
1063 Snow -6 1002 62 10000 9.8 160 14:20 20.03.2020
1064 Snow -6 1002 79 10000 10.8 150 13:48 20.03.2020
1065 Snow -6 1002 79 10000 10.8 150 13:21 20.03.2020
1066 Clouds -6 1001 67 10000 11.8 160 12:58 20.03.2020
1067 Clouds -6 1001 67 10000 11.8 160 12:38 20.03.2020
1068 Clouds -6 1001 67 10000 11.8 160 12:19 20.03.2020
1069 Clouds -6 1001 67 10000 11.3 160 11:39 20.03.2020
1070 Clouds -6 1001 67 10000 11.3 160 11:20 20.03.2020
1071 Clouds -6 1000 67 10000 11.8 160 10:55 20.03.2020
1072 Clouds -6 1000 67 10000 11.8 160 10:37 20.03.2020
1073 Clouds -6 1000 67 10000 11.8 160 10:18 20.03.2020
1074 Clouds -6 1000 67 10000 11.8 160 10:18 20.03.2020
1075 Snow -6 1000 73 0 9.3 190 09:45 20.03.2020
1076 Snow -6 1000 73 0 9.3 190 09:21 20.03.2020
1077 Snow -6 1000 79 0 8.2 200 08:57 20.03.2020
1078 Snow -6 1000 79 0 8.2 200 08:38 20.03.2020
1079 Snow -6 1000 79 0 8.2 200 08:18 20.03.2020
1080 Snow -6 999 79 0 6.7 190 07:41 20.03.2020
1081 Snow -6 999 79 0 6.7 190 07:23 20.03.2020
1082 Snow -6 998 73 0 9.8 200 06:42 20.03.2020
1083 Snow -6 998 73 0 9.8 200 06:42 20.03.2020
1084 Snow -6 998 73 0 9.8 200 06:22 20.03.2020
1085 Snow -5 998 67 0 8.2 210 04:39 20.03.2020
1086 Snow -5 998 73 0 8.7 200 02:51 20.03.2020
1087 Snow -4 997 73 0 7.7 210 01:50 20.03.2020
1088 Snow -5 997 79 0 8.7 210 00:45 20.03.2020
1089 Snow -5 997 79 0 8.7 210 00:24 20.03.2020
1090 Snow -5 996 92 0 9.8 210 23:42 19.03.2020
1091 Snow -5 996 92 0 9.8 210 23:23 19.03.2020
1092 Snow -4 995 92 800 10.3 200 22:54 19.03.2020
1093 Snow -4 995 92 800 10.3 200 22:36 19.03.2020
1094 Snow -4 995 92 800 10.3 200 22:18 19.03.2020
1095 Snow -4 994 92 10000 11.3 200 21:39 19.03.2020
1096 Snow -4 994 92 10000 11.3 200 21:20 19.03.2020
1097 Rain -2 991 86 10000 12.3 200 20:55 19.03.2020
1098 Rain -2 991 86 10000 12.3 200 20:37 19.03.2020
1099 Rain -2 991 86 10000 12.3 200 20:19 19.03.2020
1100 Clouds -1 990 86 10000 10.8 160 19:54 19.03.2020
1101 Clouds -1 990 86 10000 10.8 160 19:36 19.03.2020
1102 Clouds -1 990 86 10000 10.8 160 19:18 19.03.2020
1103 Clouds 3 988 44 10000 6.7 120 18:41 19.03.2020
1104 Clouds 3 988 44 10000 6.7 120 18:22 19.03.2020
1105 Clouds 3 988 44 10000 7.7 110 17:56 19.03.2020
1106 Clouds 3 988 44 10000 7.7 110 17:37 19.03.2020
1107 Clouds 3 988 44 10000 7.7 110 17:18 19.03.2020
1108 Clouds 2 989 55 10000 5.7 80 16:43 19.03.2020
1109 Clouds 2 989 55 10000 5.7 80 16:22 19.03.2020
1110 Snow 1 989 64 10000 5.7 80 15:44 19.03.2020
1111 Snow 1 989 64 10000 5.7 80 15:25 19.03.2020
1112 Snow 0 990 62 1600 8.2 120 14:54 19.03.2020
1113 Snow 0 990 62 1600 8.2 120 14:36 19.03.2020
1114 Snow 0 990 71 1600 8.2 120 14:18 19.03.2020
1115 Snow 0 991 71 2100 7.2 130 13:39 19.03.2020
1116 Snow 0 991 71 2100 7.2 130 13:18 19.03.2020
1117 Clouds 1 991 47 10000 7.7 100 12:42 19.03.2020
1118 Clouds 1 991 47 10000 7.7 100 12:24 19.03.2020
1119 Clouds 1 991 47 10000 7.2 100 11:59 19.03.2020
1120 Clouds 1 991 47 10000 7.2 100 11:41 19.03.2020
1121 Clouds 1 991 47 10000 7.2 100 11:22 19.03.2020
1122 Snow 1 992 43 0 6.2 100 10:44 19.03.2020
1123 Snow 1 992 43 0 6.2 100 10:22 19.03.2020
1124 Snow 2 993 40 0 4.6 90 09:59 19.03.2020
1125 Snow 2 993 40 0 4.6 90 09:40 19.03.2020
1126 Snow 2 993 40 0 4.6 90 09:22 19.03.2020
1127 Snow 1 994 43 0 3.6 100 08:47 19.03.2020
1128 Snow 1 994 43 0 3.6 100 08:23 19.03.2020
1129 Snow 1 995 43 0 7.2 90 07:49 19.03.2020
1130 Snow 1 995 43 0 7.2 90 07:31 19.03.2020
1131 Snow 0 996 72 0 4.6 100 06:55 19.03.2020
1132 Snow 0 996 72 0 4.6 100 06:23 19.03.2020
1133 Snow 0 997 72 0 9.3 120 05:24 19.03.2020
1134 Rain 0 998 69 0 7.2 100 04:46 19.03.2020
1135 Clouds 0 1000 69 0 6.7 100 03:44 19.03.2020
1136 Clouds 0 1002 71 10000 8.7 110 01:45 19.03.2020
1137 Clouds -1 1002 54 10000 8.2 100 00:42 19.03.2020
1138 Clouds -1 1002 54 10000 8.2 100 00:19 19.03.2020
1139 Clouds -1 1003 54 10000 7.7 120 23:42 18.03.2020
1140 Clouds -1 1003 54 10000 7.7 120 23:22 18.03.2020
1141 Clouds -1 1004 58 10000 6.2 110 22:43 18.03.2020
1142 Clouds -1 1004 58 10000 6.2 110 22:23 18.03.2020
1143 Snow -1 1004 58 10000 6.7 120 21:55 18.03.2020
1144 Snow -1 1004 58 10000 6.7 120 21:37 18.03.2020
1145 Snow -1 1004 58 10000 6.7 120 21:19 18.03.2020
1146 Clouds -1 1005 72 10000 8.7 110 20:55 18.03.2020
1147 Clouds 0 1005 72 10000 8.7 110 20:37 18.03.2020
1148 Clouds 0 1005 76 10000 8.7 110 20:18 18.03.2020
1149 Clouds 0 1005 76 10000 8.7 110 19:40 18.03.2020
1150 Clouds 0 1005 76 10000 8.7 110 19:21 18.03.2020
1151 Clouds 0 1005 76 10000 8.7 110 19:21 18.03.2020
1152 Clouds 0 1006 76 10000 6.7 120 18:57 18.03.2020
1153 Clouds 0 1006 76 10000 6.7 120 18:38 18.03.2020
1154 Clouds 0 1006 76 10000 6.7 120 18:19 18.03.2020
1155 Clouds 0 1007 76 10000 7.2 110 17:55 18.03.2020
1156 Clouds 0 1007 76 10000 7.2 110 17:37 18.03.2020
1157 Clouds 0 1007 81 10000 7.2 110 17:18 18.03.2020
1158 Clouds 0 1007 81 10000 6.7 140 16:42 18.03.2020
1159 Clouds 0 1007 81 10000 6.7 140 16:20 18.03.2020
1160 Clouds 0 1007 81 10000 6.7 140 16:20 18.03.2020
1161 Clouds 0 1007 81 10000 6.7 140 16:20 18.03.2020
1162 Clouds -1 1008 54 10000 5.7 0 15:57 18.03.2020
1163 Clouds -1 1008 54 10000 5.7 0 15:38 18.03.2020
1164 Clouds -1 1008 54 10000 5.7 0 15:19 18.03.2020
1165 Rain -2 1009 58 10000 6.7 120 14:42 18.03.2020
1166 Snow -2 1009 58 10000 10.3 140 14:21 18.03.2020
1167 Clouds -3 1009 63 10000 7.2 120 13:41 18.03.2020
1168 Clouds -3 1009 63 10000 7.2 120 13:19 18.03.2020
1169 Rain -4 1009 68 10000 7.2 130 12:55 18.03.2020
1170 Rain -4 1009 68 10000 7.2 130 12:37 18.03.2020
1171 Rain -4 1009 68 10000 7.2 130 12:18 18.03.2020
1172 Snow -4 1010 73 0 10.3 110 11:38 18.03.2020
1173 Snow -4 1010 73 0 10.3 110 11:19 18.03.2020
1174 Snow -4 1009 68 0 9.3 110 10:57 18.03.2020
1175 Snow -4 1009 68 0 9.3 110 10:37 18.03.2020
1176 Snow -4 1009 68 0 9.3 110 10:19 18.03.2020
1177 Clouds -4 1010 58 0 8.7 140 09:43 18.03.2020
1178 Clouds -4 1010 58 0 8.7 140 09:23 18.03.2020
1179 Snow -4 1010 53 0 8.2 120 08:55 18.03.2020
1180 Snow -4 1010 53 0 8.2 120 08:37 18.03.2020
1181 Snow -4 1010 53 0 8.2 120 08:19 18.03.2020
1182 Clouds -5 1010 53 0 10.8 110 07:43 18.03.2020
1183 Clouds -5 1010 53 0 10.8 110 07:25 18.03.2020
1184 Clouds -5 1011 57 0 9.8 120 06:44 18.03.2020
1185 Clouds -5 1011 57 0 9.8 120 06:18 18.03.2020
1186 Clouds -6 1011 53 0 8.2 130 05:34 18.03.2020
1187 Clouds -6 1011 44 0 7.7 120 04:24 18.03.2020
1188 Clouds -7 1012 48 0 6.2 120 02:42 18.03.2020
1189 Clouds -7 1012 48 10000 5.7 120 01:48 18.03.2020
1190 Clouds -7 1012 48 10000 5.7 120 01:26 18.03.2020
1191 Clouds -7 1012 48 10000 8.2 120 00:24 18.03.2020
1192 Clouds -8 1012 52 10000 7.7 120 23:47 17.03.2020
1193 Clouds -8 1012 52 10000 7.7 120 23:27 17.03.2020
1194 Clouds -8 1012 48 10000 8.2 110 22:55 17.03.2020
1195 Clouds -7 1012 48 10000 8.2 110 22:37 17.03.2020
1196 Clouds -7 1012 48 10000 8.2 110 22:18 17.03.2020
1197 Clouds -7 1012 48 10000 7.2 130 21:39 17.03.2020
1198 Clouds -7 1012 48 10000 7.2 130 21:21 17.03.2020
1199 Clouds -7 1012 48 10000 7.2 130 21:21 17.03.2020
1200 Clouds -6 1012 48 10000 8.2 140 20:40 17.03.2020
1201 Clouds -6 1012 48 10000 8.2 140 20:21 17.03.2020
1202 Clouds -6 1011 45 10000 8.2 150 19:58 17.03.2020
1203 Clouds -5 1011 45 10000 8.2 150 19:39 17.03.2020
1204 Clouds -5 1011 45 10000 8.2 150 19:18 17.03.2020
1205 Clouds -6 1011 48 10000 9.8 120 18:56 17.03.2020
1206 Clouds -6 1011 48 10000 9.8 120 18:37 17.03.2020
1207 Clouds -6 1011 48 10000 9.8 120 18:19 17.03.2020
1208 Clouds -6 1010 41 10000 10.8 120 17:40 17.03.2020
1209 Clouds -6 1010 41 10000 10.8 120 17:21 17.03.2020
1210 Clouds -9 1010 52 10000 9.8 110 16:55 17.03.2020
1211 Clouds -9 1010 52 10000 9.8 110 16:37 17.03.2020
1212 Clouds -9 1010 52 10000 9.8 110 16:18 17.03.2020
1213 Clouds -9 1011 52 10000 7.7 120 15:43 17.03.2020
1214 Clouds -9 1011 52 10000 7.7 120 15:19 17.03.2020
1215 Clouds -8 1011 48 10000 3.6 0 14:42 17.03.2020
1216 Clouds -8 1011 48 10000 3.6 0 14:21 17.03.2020
1217 Clouds -11 1010 51 10000 5.7 100 13:44 17.03.2020
1218 Clouds -11 1010 51 10000 5.7 100 13:26 17.03.2020
1219 Clouds -12 1010 55 10000 3.6 0 12:58 17.03.2020
1220 Clouds -12 1010 55 10000 3.6 0 12:40 17.03.2020
1221 Clouds -12 1010 55 10000 3.6 0 12:21 17.03.2020
1222 Clouds -13 1010 60 10000 4.6 120 11:46 17.03.2020
1223 Clouds -13 1010 60 10000 4.6 120 11:28 17.03.2020
1224 Clouds -13 1009 55 0 7.7 110 10:58 17.03.2020
1225 Clouds -13 1009 55 0 7.7 110 10:38 17.03.2020
1226 Clouds -13 1009 55 0 7.7 110 10:20 17.03.2020
1227 Clouds -14 1009 55 0 4.1 100 09:55 17.03.2020
1228 Clouds -14 1009 55 0 4.1 100 09:55 17.03.2020
1229 Clouds -14 1009 55 0 4.1 100 09:36 17.03.2020
1230 Clouds -14 1009 55 0 4.1 100 09:18 17.03.2020
1231 Clouds -13 1009 50 0 7.7 110 08:42 17.03.2020
1232 Clouds -13 1009 50 0 7.7 110 08:21 17.03.2020
1233 Clear -14 1008 46 0 6.2 110 07:50 17.03.2020
1234 Clear -14 1008 46 0 6.2 110 07:25 17.03.2020
1235 Clear -15 1008 42 0 8.2 110 06:58 17.03.2020
1236 Clear -15 1008 42 0 8.2 110 06:33 17.03.2020
1237 Clear -15 1008 42 0 7.2 80 05:46 17.03.2020
1238 Clear -15 1007 50 0 6.2 80 03:40 17.03.2020
1239 Clear -16 1007 59 0 8.7 80 02:45 17.03.2020
1240 Clear -16 1006 59 0 7.7 80 01:42 17.03.2020
1241 Clear -16 1006 59 0 7.7 80 01:24 17.03.2020
1242 Clear -16 1006 59 0 7.2 80 00:25 17.03.2020
1243 Clouds -16 1006 59 10000 6.7 70 23:45 16.03.2020
1244 Clouds -16 1006 59 10000 6.7 70 23:25 16.03.2020
1245 Clear -15 1005 65 0 5.81 80 22:40 16.03.2020
1246 Clear -15 1005 65 0 5.81 80 22:22 16.03.2020
1247 Clouds -15 1005 65 10000 6.2 80 21:57 16.03.2020
1248 Clouds -15 1005 65 10000 6.2 80 21:57 16.03.2020
1249 Clouds -15 1005 65 10000 6.2 80 21:38 16.03.2020
1250 Clouds -15 1005 65 10000 6.2 80 21:20 16.03.2020
1251 Clouds -15 1004 60 10000 7.7 80 20:55 16.03.2020
1252 Clouds -14 1004 60 10000 7.7 80 20:37 16.03.2020
1253 Clouds -14 1004 60 10000 7.7 80 20:18 16.03.2020
1254 Clouds -13 1004 55 10000 5.7 80 19:40 16.03.2020
1255 Clouds -13 1004 55 10000 5.7 80 19:20 16.03.2020
1256 Clouds -12 1004 55 10000 4.6 70 18:43 16.03.2020
1257 Clouds -12 1004 55 10000 4.6 70 18:21 16.03.2020
1258 Clouds -11 1003 51 10000 4.6 80 17:55 16.03.2020
1259 Clouds -11 1003 51 10000 4.6 80 17:36 16.03.2020
1260 Clouds -11 1003 51 10000 4.6 80 17:18 16.03.2020
1261 Clouds -12 1003 51 10000 4.1 80 16:42 16.03.2020
1262 Clouds -12 1003 51 10000 4.1 80 16:24 16.03.2020
1263 Clouds -13 1003 50 10000 4.6 80 15:44 16.03.2020
1264 Clouds -13 1003 50 10000 4.6 80 15:26 16.03.2020
1265 Clouds -14 1002 55 10000 5.7 80 14:49 16.03.2020
1266 Clouds -14 1002 55 10000 5.7 80 14:27 16.03.2020
1267 Clouds -16 1002 65 10000 6.2 80 13:57 16.03.2020
1268 Clouds -16 1002 65 10000 6.2 80 13:38 16.03.2020
1269 Clouds -16 1002 65 10000 6.2 80 13:20 16.03.2020
1270 Clouds -17 1001 70 10000 6.7 80 12:44 16.03.2020
1271 Clouds -17 1001 70 10000 6.7 80 12:23 16.03.2020
1272 Clouds -17 1000 70 10000 6.7 70 11:46 16.03.2020
1273 Clouds -17 1000 70 10000 6.7 70 11:27 16.03.2020
1274 Clouds -17 1000 70 10000 6.7 70 11:27 16.03.2020
1275 Clear -17 1000 64 0 6.7 60 10:56 16.03.2020
1276 Clear -17 1000 64 0 6.7 60 10:37 16.03.2020
1277 Clear -17 1000 64 0 6.7 60 10:18 16.03.2020
1278 Clear -17 999 64 0 6.7 60 09:42 16.03.2020
1279 Clear -17 999 64 0 6.7 60 09:21 16.03.2020
1280 Clear -18 999 54 0 6.2 40 08:50 16.03.2020
1281 Clear -18 999 54 0 6.2 40 08:25 16.03.2020
1282 Clear -17 998 49 0 6.2 40 07:45 16.03.2020
1283 Clear -17 998 49 0 6.2 40 07:25 16.03.2020
1284 Clear -17 998 49 0 7.2 30 06:52 16.03.2020
1285 Clear -17 998 49 0 7.2 30 06:24 16.03.2020
1286 Clear -17 997 59 0 6.7 40 04:54 16.03.2020
1287 Clear -17 997 54 0 6.7 40 02:41 16.03.2020
1288 Clouds -17 996 64 10000 8.2 30 00:52 16.03.2020
1289 Clouds -17 996 64 10000 8.2 30 00:33 16.03.2020
1290 Clouds -16 996 54 10000 8.7 40 23:46 15.03.2020
1291 Clouds -16 996 54 10000 8.7 40 23:20 15.03.2020
1292 Clouds -16 995 65 10000 8.7 40 22:42 15.03.2020
1293 Clouds -16 995 65 10000 8.7 40 22:23 15.03.2020
1294 Clouds -16 995 65 10000 8.7 40 22:23 15.03.2020
1295 Clouds -16 995 65 10000 10.3 10 21:58 15.03.2020
1296 Clouds -16 995 65 10000 10.3 10 21:38 15.03.2020
1297 Clouds -16 995 65 10000 10.3 10 21:18 15.03.2020
1298 Clouds -15 995 65 10000 8.7 10 20:42 15.03.2020
1299 Clouds -15 995 65 10000 8.7 10 20:20 15.03.2020
1300 Clouds -15 995 60 10000 9.8 360 19:58 15.03.2020
1301 Clouds -15 995 60 10000 9.8 360 19:39 15.03.2020
1302 Clouds -15 995 60 10000 9.8 360 19:20 15.03.2020
1303 Clouds -15 995 60 10000 9.8 360 19:20 15.03.2020
1304 Clouds -15 995 71 10000 8.7 10 18:55 15.03.2020
1305 Clouds -15 995 71 10000 8.7 10 18:37 15.03.2020
1306 Clouds -15 995 71 10000 8.7 10 18:19 15.03.2020
1307 Clouds -15 995 60 10000 9.8 20 17:41 15.03.2020
1308 Clouds -15 995 60 10000 9.8 20 17:21 15.03.2020
1309 Clouds -16 996 71 10000 8.7 10 16:58 15.03.2020
1310 Clouds -16 996 71 10000 8.7 10 16:40 15.03.2020
1311 Clouds -16 996 71 10000 8.7 10 16:21 15.03.2020
1312 Clouds -17 997 84 10000 7.7 20 15:54 15.03.2020
1313 Clouds -17 997 84 10000 7.7 20 15:36 15.03.2020
1314 Clouds -17 997 84 10000 7.7 20 15:18 15.03.2020
1315 Clouds -18 997 84 10000 10.3 350 14:39 15.03.2020
1316 Clouds -18 997 84 10000 10.3 350 14:21 15.03.2020
1317 Clouds -18 998 84 10000 8.7 350 13:55 15.03.2020
1318 Clouds -18 998 84 10000 8.7 350 13:37 15.03.2020
1319 Clouds -18 998 84 10000 8.7 350 13:18 15.03.2020
1320 Clouds -18 998 84 10000 8.7 350 13:18 15.03.2020
1321 Clouds -18 998 84 10000 8.7 350 12:40 15.03.2020
1322 Clouds -18 998 84 10000 8.7 350 12:22 15.03.2020
1323 Clouds -17 999 84 10000 8.2 340 11:44 15.03.2020
1324 Clouds -17 999 84 10000 8.2 340 11:25 15.03.2020
1325 Fog -17 1000 84 10000 7.7 350 10:59 15.03.2020
1326 Fog -17 1000 84 10000 7.7 350 10:40 15.03.2020
1327 Fog -17 1000 84 10000 7.7 350 10:21 15.03.2020
1328 Clouds -18 1001 91 0 8.2 340 09:59 15.03.2020
1329 Clouds -18 1001 91 0 8.2 340 09:38 15.03.2020
1330 Clouds -18 1001 91 0 8.2 340 09:19 15.03.2020
1331 Clouds -17 1002 84 0 8.2 340 08:41 15.03.2020
1332 Clouds -17 1002 84 0 8.2 340 08:19 15.03.2020
1333 Clouds -17 1003 84 0 8.2 340 07:48 15.03.2020
1334 Clouds -17 1003 84 0 8.2 340 07:22 15.03.2020
1335 Clouds -17 1005 77 0 7.7 330 06:44 15.03.2020
1336 Clouds -16 1007 71 0 6.2 20 05:48 15.03.2020
1337 Clouds -16 1008 65 0 5.7 30 04:57 15.03.2020
1338 Clouds -15 1008 65 0 5.7 30 04:39 15.03.2020
1339 Clouds -15 1008 65 0 5.7 30 04:20 15.03.2020
1340 Clouds -15 1010 60 0 6.7 10 03:19 15.03.2020
1341 Clouds -15 1012 54 0 7.7 360 02:23 15.03.2020
1342 Clouds -14 1014 55 0 8.2 350 00:59 15.03.2020
1343 Clouds -14 1014 55 0 8.2 350 00:41 15.03.2020
1344 Clouds -14 1014 55 0 8.2 350 00:19 15.03.2020
1345 Clouds -14 1015 65 10000 5.7 350 23:40 14.03.2020
1346 Clouds -14 1015 65 10000 5.7 350 23:20 14.03.2020
1347 Clouds -14 1016 65 10000 6.7 340 22:56 14.03.2020
1348 Clouds -14 1016 65 10000 6.7 340 22:38 14.03.2020
1349 Clouds -14 1016 65 10000 6.7 340 22:20 14.03.2020
1350 Clouds -13 1016 55 10000 6.2 340 21:55 14.03.2020
1351 Clouds -13 1016 55 10000 6.2 340 21:36 14.03.2020
1352 Clouds -13 1016 55 10000 6.2 340 21:18 14.03.2020
1353 Clouds -13 1016 55 0 5.81 340 20:58 14.03.2020
1354 Clouds -12 1017 60 0 5.36 330 20:39 14.03.2020
1355 Clouds -12 1017 60 10000 5.7 330 20:18 14.03.2020
1356 Clouds -12 1017 60 10000 5.7 330 19:42 14.03.2020
1357 Clouds -12 1017 60 10000 5.7 330 19:24 14.03.2020
1358 Clouds -12 1018 51 10000 3.6 360 18:41 14.03.2020
1359 Clouds -12 1018 51 10000 3.6 360 18:22 14.03.2020
1360 Rain -12 1019 55 10000 4.1 340 17:55 14.03.2020
1361 Rain -12 1019 55 10000 4.1 340 17:37 14.03.2020
1362 Rain -12 1019 55 10000 4.1 340 17:18 14.03.2020
1363 Rain -12 1020 60 10000 3.6 350 16:40 14.03.2020
1364 Rain -12 1020 60 10000 3.6 350 16:21 14.03.2020
1365 Rain -11 1020 56 10000 2.6 340 15:52 14.03.2020
1366 Rain -11 1020 56 10000 2.6 340 15:25 14.03.2020
1367 Rain -11 1020 56 10000 2.1 310 14:46 14.03.2020
1368 Rain -11 1020 56 10000 2.1 310 14:23 14.03.2020
1369 Rain -12 1020 60 10000 3.6 330 13:58 14.03.2020
1370 Rain -13 1020 60 10000 3.6 330 13:39 14.03.2020
1371 Rain -13 1020 60 10000 3.6 330 13:21 14.03.2020
1372 Rain -13 1020 71 10000 4.1 300 12:46 14.03.2020
1373 Rain -13 1020 71 10000 4.1 300 12:27 14.03.2020
1374 Snow -14 1021 84 5000 4.1 330 11:56 14.03.2020
1375 Snow -14 1021 84 5000 4.1 330 11:38 14.03.2020
1376 Snow -14 1021 84 5000 4.1 330 11:19 14.03.2020
1377 Snow -13 1020 71 0 2.6 300 10:44 14.03.2020
1378 Snow -13 1020 71 0 2.6 300 10:25 14.03.2020
1379 Snow -13 1020 65 0 3.6 290 09:57 14.03.2020
1380 Snow -13 1020 65 0 3.6 290 09:39 14.03.2020
1381 Snow -13 1020 65 0 3.6 290 09:19 14.03.2020
1382 Snow -13 1020 71 0 4.6 310 08:42 14.03.2020
1383 Snow -13 1020 71 0 4.6 310 08:21 14.03.2020
1384 Snow -13 1021 71 0 5.1 300 07:39 14.03.2020
1385 Snow -13 1021 71 0 5.1 300 07:20 14.03.2020
1386 Snow -12 1021 72 0 6.2 280 06:41 14.03.2020
1387 Snow -12 1020 72 0 5.7 290 05:49 14.03.2020
1388 Snow -12 1020 72 0 6.2 290 04:43 14.03.2020
1389 Snow -12 1020 72 0 7.2 300 03:24 14.03.2020
1390 Snow -11 1020 72 0 5.7 300 02:28 14.03.2020
1391 Snow -11 1020 78 0 7.2 300 01:20 14.03.2020
1392 Snow -11 1019 85 3500 7.2 300 23:56 13.03.2020
1393 Snow -11 1019 85 3500 7.2 300 23:31 13.03.2020
1394 Rain -10 1019 78 6000 7.2 300 22:57 13.03.2020
1395 Rain -10 1019 78 6000 7.2 300 22:38 13.03.2020
1396 Rain -10 1019 78 6000 7.2 300 22:19 13.03.2020
1397 Rain -10 1018 78 10000 7.2 300 21:39 13.03.2020
1398 Rain -10 1018 78 10000 7.2 300 21:18 13.03.2020
1399 Clouds -8 1017 67 10000 6.7 300 20:41 13.03.2020
1400 Clouds -8 1017 67 10000 6.7 300 20:22 13.03.2020
1401 Clouds -8 1017 67 10000 7.7 300 19:51 13.03.2020
1402 Clouds -8 1017 67 10000 7.7 300 19:31 13.03.2020
1403 Rain -9 1017 78 10000 7.7 310 18:59 13.03.2020
1404 Rain -9 1017 78 10000 7.7 310 18:39 13.03.2020
1405 Rain -9 1017 78 10000 7.7 310 18:21 13.03.2020
1406 Rain -8 1017 72 10000 6.7 320 17:42 13.03.2020
1407 Rain -8 1017 72 10000 6.7 320 17:21 13.03.2020
1408 Clouds -8 1017 72 10000 7.2 310 16:56 13.03.2020
1409 Clouds -8 1017 72 10000 7.2 310 16:38 13.03.2020
1410 Clouds -8 1017 72 10000 7.2 310 16:19 13.03.2020
1411 Clouds -8 1017 67 10000 7.7 330 15:42 13.03.2020
1412 Clouds -8 1017 67 10000 7.7 330 15:21 13.03.2020
1413 Clouds -9 1016 72 10000 8.7 320 14:55 13.03.2020
1414 Clouds -9 1016 72 10000 8.7 320 14:36 13.03.2020
1415 Clouds -9 1016 72 10000 8.7 320 14:18 13.03.2020
1416 Clouds -9 1016 72 10000 7.2 320 13:42 13.03.2020
1417 Clouds -9 1016 72 10000 7.2 320 13:21 13.03.2020
1418 Clouds -9 1016 72 10000 7.7 330 12:57 13.03.2020
1419 Clouds -9 1016 72 10000 7.7 330 12:38 13.03.2020
1420 Clouds -9 1016 72 10000 7.7 330 12:19 13.03.2020
1421 Clouds -9 1016 72 10000 7.7 330 11:55 13.03.2020
1422 Clouds -9 1016 72 10000 7.7 330 11:36 13.03.2020
1423 Clouds -9 1016 72 10000 7.7 330 11:18 13.03.2020
1424 Snow -9 1015 72 10000 8.2 320 10:42 13.03.2020
1425 Snow -9 1015 72 10000 8.2 320 10:24 13.03.2020
1426 Clouds -9 1015 85 10000 8.7 330 09:46 13.03.2020
1427 Clouds -9 1015 78 0 7.2 320 09:27 13.03.2020
1428 Clouds -9 1015 78 0 4.1 330 08:57 13.03.2020
1429 Clouds -9 1015 78 0 4.1 330 08:38 13.03.2020
1430 Clouds -9 1015 78 0 4.1 330 08:19 13.03.2020
1431 Clouds -9 1015 72 0 3.1 360 07:44 13.03.2020
1432 Clouds -9 1015 72 0 3.1 360 07:23 13.03.2020
1433 Snow -9 1015 78 0 5.7 300 06:46 13.03.2020
1434 Snow -9 1015 78 0 5.7 300 06:21 13.03.2020
1435 Clouds -9 1015 72 0 4.6 310 05:44 13.03.2020
1436 Clouds -9 1015 72 0 6.2 300 04:39 13.03.2020
1437 Clouds -9 1015 66 10000 7.2 310 03:51 13.03.2020
1438 Snow -9 1015 72 10000 5.7 340 02:42 13.03.2020
1439 Snow -9 1015 72 10000 5.7 350 01:37 13.03.2020
1440 Snow -9 1015 72 10000 5.7 350 01:18 13.03.2020
1441 Clouds -9 1015 78 10000 5.1 330 00:39 13.03.2020
1442 Clouds -9 1015 78 10000 5.1 330 00:19 13.03.2020
1443 Clouds -9 1015 66 10000 3.6 300 23:38 12.03.2020
1444 Clouds -9 1015 66 10000 3.6 300 23:19 12.03.2020
1445 Clouds -9 1014 66 10000 5.1 330 22:46 12.03.2020
1446 Clouds -9 1014 66 10000 5.1 330 22:27 12.03.2020
1447 Clouds -9 1014 61 10000 3.6 330 21:56 12.03.2020
1448 Clouds -8 1014 61 10000 3.6 330 21:38 12.03.2020
1449 Clouds -8 1014 61 10000 3.6 330 21:20 12.03.2020
1450 Clouds -8 1014 61 10000 5.1 330 20:42 12.03.2020
1451 Clouds -8 1014 61 10000 5.1 330 20:20 12.03.2020
1452 Rain -8 1014 57 10000 4.6 340 19:56 12.03.2020
1453 Rain -7 1014 57 10000 4.6 340 19:37 12.03.2020
1454 Rain -7 1014 57 10000 4.6 340 19:18 12.03.2020
1455 Clouds -7 1014 62 10000 4.6 330 18:41 12.03.2020
1456 Clouds -7 1014 62 10000 4.6 330 18:22 12.03.2020
1457 Clouds -7 1014 62 10000 4.1 340 17:56 12.03.2020
1458 Clouds -7 1014 62 10000 4.1 340 17:37 12.03.2020
1459 Clouds -7 1014 62 10000 4.1 340 17:18 12.03.2020
1460 Clouds -6 1014 67 10000 3.6 310 16:41 12.03.2020
1461 Clouds -6 1014 67 10000 3.6 310 16:22 12.03.2020
1462 Clouds -7 1013 67 10000 4.1 320 15:49 12.03.2020
1463 Clouds -7 1013 67 10000 4.1 320 15:28 12.03.2020
1464 Clouds -8 1013 67 10000 3.6 320 14:56 12.03.2020
1465 Clouds -8 1013 67 10000 3.6 320 14:38 12.03.2020
1466 Clouds -8 1013 67 10000 3.6 320 14:18 12.03.2020
1467 Clouds -8 1013 72 10000 4.6 310 13:40 12.03.2020
1468 Clouds -8 1013 72 10000 4.6 310 13:21 12.03.2020
1469 Clouds -9 1013 72 10000 6.2 320 12:55 12.03.2020
1470 Clouds -9 1013 72 10000 6.2 320 12:37 12.03.2020
1471 Clouds -9 1013 72 10000 6.2 320 12:18 12.03.2020
1472 Clouds -9 1012 72 10000 6.2 330 11:56 12.03.2020
1473 Clouds -9 1012 72 10000 6.2 330 11:37 12.03.2020
1474 Clouds -9 1012 72 10000 6.2 330 11:18 12.03.2020
1475 Clouds -9 1012 72 10000 4.6 330 10:43 12.03.2020
1476 Clouds -9 1012 72 10000 4.6 330 10:24 12.03.2020
1477 Snow -9 1012 78 0 6.2 320 09:59 12.03.2020
1478 Snow -9 1012 78 0 6.2 320 09:41 12.03.2020
1479 Snow -9 1012 78 0 6.2 320 09:23 12.03.2020
1480 Snow -8 1011 61 0 5.1 320 08:39 12.03.2020
1481 Snow -8 1011 61 0 5.1 320 08:19 12.03.2020
1482 Snow -8 1011 61 0 5.1 300 07:48 12.03.2020
1483 Snow -8 1011 61 0 5.1 300 07:23 12.03.2020
1484 Snow -8 1011 67 0 7.2 300 06:33 12.03.2020
1485 Snow -8 1011 72 0 7.2 300 05:36 12.03.2020
1486 Snow -8 1010 78 0 8.7 300 03:54 12.03.2020
1487 Snow -8 1010 78 0 8.2 300 02:21 12.03.2020
1488 Snow -7 1009 73 0 8.7 300 01:29 12.03.2020
1489 Snow -7 1009 79 0 7.7 300 00:42 12.03.2020
1490 Snow -7 1008 85 10000 8.2 300 23:59 11.03.2020
1491 Snow -7 1008 85 10000 8.2 300 23:37 11.03.2020
1492 Snow -7 1008 85 10000 8.2 300 23:18 11.03.2020
1493 Snow -7 1008 85 10000 7.7 300 22:42 11.03.2020
1494 Snow -7 1008 85 10000 7.7 300 22:23 11.03.2020
1495 Snow -7 1007 79 10000 6.7 300 21:58 11.03.2020
1496 Snow -6 1007 79 10000 6.7 300 21:40 11.03.2020
1497 Snow -6 1007 79 10000 6.7 300 21:22 11.03.2020
1498 Snow -6 1006 73 10000 5.1 300 20:57 11.03.2020
1499 Snow -6 1006 73 10000 5.1 300 20:38 11.03.2020
1500 Snow -6 1006 73 10000 5.1 300 20:19 11.03.2020
1501 Snow -5 1005 67 10000 5.7 330 19:43 11.03.2020
1502 Snow -5 1005 67 10000 5.7 330 19:25 11.03.2020
1503 Snow -3 1004 63 10000 2.1 260 18:57 11.03.2020
1504 Snow -3 1004 63 10000 2.1 260 18:38 11.03.2020
1505 Snow -3 1004 63 10000 2.1 260 18:20 11.03.2020
1506 Snow -4 1004 62 10000 2.1 280 17:56 11.03.2020
1507 Snow -4 1004 62 10000 2.1 280 17:37 11.03.2020
1508 Snow -4 1004 62 10000 2.1 280 17:19 11.03.2020
1509 Snow -5 1004 62 10000 3.6 310 16:45 11.03.2020
1510 Snow -5 1004 62 10000 3.6 310 16:21 11.03.2020
1511 Clouds -4 1003 58 10000 2.1 300 15:44 11.03.2020
1512 Clouds -4 1003 58 10000 2.1 300 15:24 11.03.2020
1513 Clouds -5 1002 73 10000 1 220 14:58 11.03.2020
1514 Clouds -5 1002 73 10000 1 220 14:40 11.03.2020
1515 Clouds -5 1002 73 10000 1 220 14:21 11.03.2020
1516 Clouds -5 1002 67 10000 2.1 170 13:44 11.03.2020
1517 Clouds -5 1002 67 10000 2.1 170 13:26 11.03.2020
1518 Clouds -6 1001 73 10000 2.1 140 12:58 11.03.2020
1519 Clouds -7 1001 73 10000 2.1 140 12:39 11.03.2020
1520 Clouds -7 1001 73 10000 2.1 140 12:19 11.03.2020
1521 Clouds -8 1000 72 10000 1.5 180 11:42 11.03.2020
1522 Clouds -8 1000 72 10000 1.5 180 11:24 11.03.2020
1523 Clouds -8 999 72 0 2.1 110 10:57 11.03.2020
1524 Clouds -8 999 72 0 2.1 110 10:39 11.03.2020
1525 Clouds -8 999 72 0 2.1 110 10:18 11.03.2020
1526 Clouds -8 999 78 0 2.1 110 09:42 11.03.2020
1527 Clouds -8 999 78 0 2.1 110 09:24 11.03.2020
1528 Clouds -8 998 78 0 2.1 90 08:45 11.03.2020
1529 Clouds -8 998 78 0 2.1 90 08:27 11.03.2020
1530 Clouds -8 997 85 0 1.5 60 07:58 11.03.2020
1531 Clouds -8 997 85 0 1.5 60 07:38 11.03.2020
1532 Clouds -8 997 85 0 1.5 60 07:18 11.03.2020
1533 Clouds -7 997 79 0 2.1 20 06:37 11.03.2020
1534 Clouds -7 996 85 0 2.1 70 05:34 11.03.2020
1535 Clouds -7 995 85 10000 2.6 20 03:59 11.03.2020
1536 Clouds -7 994 62 10000 2.6 10 01:59 11.03.2020
1537 Clouds -7 994 62 10000 2.6 10 01:26 11.03.2020
1538 Clouds -6 994 67 10000 3.6 50 00:45 11.03.2020
1539 Clouds -6 993 67 10000 2.6 30 23:57 10.03.2020
1540 Clouds -5 993 67 10000 2.6 30 23:39 10.03.2020
1541 Clouds -5 993 67 10000 2.6 30 23:20 10.03.2020
1542 Clouds -5 993 67 10000 3.1 20 22:38 10.03.2020
1543 Clouds -5 993 67 10000 3.1 20 22:19 10.03.2020
1544 Clouds -5 993 67 0 2.68 20 21:56 10.03.2020
1545 Clouds -5 994 62 0 4.24 354 21:38 10.03.2020
1546 Clouds -5 994 62 0 4.24 354 21:38 10.03.2020
1547 Clouds -1 991 54 10000 2.6 40 21:20 10.03.2020
1548 Clouds -1 991 54 10000 2.6 40 20:58 10.03.2020
1549 Clouds -1 991 54 10000 2.6 40 20:40 10.03.2020
1550 Clouds -1 991 54 10000 2.6 40 20:18 10.03.2020
1551 Clouds -2 991 58 10000 2.6 60 19:56 10.03.2020
1552 Clouds -2 991 58 10000 2.6 60 19:37 10.03.2020
1553 Clouds -2 991 58 10000 2.6 60 19:18 10.03.2020
1554 Clouds -2 990 58 10000 4.6 10 18:44 10.03.2020
1555 Clouds -2 990 58 10000 4.6 10 18:25 10.03.2020
1556 Clouds -3 990 58 10000 4.6 20 17:57 10.03.2020
1557 Clouds -3 990 58 10000 4.6 20 17:38 10.03.2020
1558 Clouds -3 990 58 10000 4.6 20 17:20 10.03.2020
1559 Clouds -2 989 54 10000 5.1 70 16:39 10.03.2020
1560 Clouds -2 989 54 10000 5.1 70 16:19 10.03.2020
1561 Clouds -2 989 54 10000 5.1 40 15:55 10.03.2020
1562 Clouds -2 989 54 10000 5.1 40 15:55 10.03.2020
1563 Clouds -2 989 54 10000 5.1 40 15:37 10.03.2020
1564 Clouds -2 989 54 10000 5.1 40 15:18 10.03.2020
1565 Clouds -4 989 62 10000 5.7 60 14:41 10.03.2020
1566 Clouds -4 989 62 10000 5.7 60 14:20 10.03.2020
1567 Clouds -5 988 67 10000 6.2 60 13:57 10.03.2020
1568 Clouds -5 988 67 10000 6.2 60 13:38 10.03.2020
1569 Clouds -5 988 67 10000 6.2 60 13:19 10.03.2020
1570 Clouds -4 988 68 10000 5.7 50 12:41 10.03.2020
1571 Clouds -4 988 68 10000 5.7 50 12:19 10.03.2020
1572 Clouds -5 988 67 10000 4.6 30 11:58 10.03.2020
1573 Clouds -6 988 67 10000 4.6 30 11:40 10.03.2020
1574 Clouds -6 988 67 10000 4.6 30 11:22 10.03.2020
1575 Clouds -5 988 67 0 5.1 80 10:42 10.03.2020
1576 Clouds -5 988 67 0 5.1 80 10:23 10.03.2020
1577 Clouds -5 988 57 0 5.7 80 09:57 10.03.2020
1578 Clouds -5 988 57 0 5.7 80 09:39 10.03.2020
1579 Clouds -5 988 57 0 5.7 80 09:19 10.03.2020
1580 Clouds -6 988 73 0 4.1 50 08:51 10.03.2020
1581 Clouds -6 988 73 0 4.1 50 08:32 10.03.2020
1582 Clouds -6 988 57 0 4.1 50 07:50 10.03.2020
1583 Clouds -6 988 57 0 4.1 50 07:31 10.03.2020
1584 Clouds -4 988 49 0 5.1 80 06:47 10.03.2020
1585 Clouds -4 988 49 0 5.1 80 06:28 10.03.2020
1586 Clouds -4 988 49 0 6.2 70 05:41 10.03.2020
1587 Clouds -4 988 45 0 6.2 90 04:49 10.03.2020
1588 Clouds -4 988 45 0 6.2 90 04:20 10.03.2020
1589 Clouds -3 988 42 0 5.7 70 02:41 10.03.2020
1590 Clouds -3 988 42 0 6.7 100 01:30 10.03.2020
1591 Clouds -2 987 39 10000 5.7 100 00:44 10.03.2020
1592 Clouds -2 987 39 10000 5.7 100 00:26 10.03.2020
1593 Clouds -2 987 42 10000 8.2 110 23:41 09.03.2020
1594 Clouds -2 987 42 10000 8.2 110 23:22 09.03.2020
1595 Clouds -2 986 42 10000 7.7 100 22:55 09.03.2020
1596 Clouds -2 986 42 10000 7.7 100 22:36 09.03.2020
1597 Clouds -2 986 42 10000 7.7 100 22:18 09.03.2020
1598 Clouds -1 986 39 10000 5.7 100 21:41 09.03.2020
1599 Clouds -1 986 39 10000 5.7 100 21:21 09.03.2020
1600 Clouds -1 985 60 10000 6.7 80 20:58 09.03.2020
1601 Clouds 0 985 60 10000 6.7 80 20:39 09.03.2020
1602 Clouds 0 985 56 10000 6.7 80 20:20 09.03.2020
1603 Clouds 0 985 56 10000 6.7 80 20:20 09.03.2020
1604 Clouds 0 985 56 10000 6.7 100 19:45 09.03.2020
1605 Clouds 0 985 56 10000 6.7 100 19:26 09.03.2020
1606 Clouds 0 985 56 10000 8.7 90 18:59 09.03.2020
1607 Clouds 0 985 56 10000 8.7 90 18:40 09.03.2020
1608 Clouds 0 985 56 10000 8.7 90 18:20 09.03.2020
1609 Clouds 0 985 56 10000 6.2 90 17:58 09.03.2020
1610 Clouds 0 985 56 10000 6.2 90 17:38 09.03.2020
1611 Clouds 0 985 49 10000 6.2 90 17:20 09.03.2020
1612 Clouds -1 985 46 10000 5.7 70 16:58 09.03.2020
1613 Clouds -1 985 46 10000 5.7 70 16:40 09.03.2020
1614 Clouds -1 985 46 10000 5.7 70 16:22 09.03.2020
1615 Clouds -3 985 49 10000 6.2 60 15:58 09.03.2020
1616 Clouds -3 985 49 10000 6.2 60 15:39 09.03.2020
1617 Clouds -3 985 49 10000 6.2 60 15:21 09.03.2020
1618 Clouds -5 985 57 10000 1.5 120 14:57 09.03.2020
1619 Clouds -5 985 57 10000 1.5 120 14:37 09.03.2020
1620 Clouds -5 985 57 10000 1.5 120 14:19 09.03.2020
1621 Clouds -6 985 67 10000 5.7 40 13:57 09.03.2020
1622 Clouds -6 985 67 10000 5.7 40 13:38 09.03.2020
1623 Clouds -6 985 67 10000 5.7 40 13:18 09.03.2020
1624 Clouds -7 985 67 10000 6.2 40 12:43 09.03.2020
1625 Clouds -7 985 67 10000 6.2 40 12:22 09.03.2020
1626 Clouds -8 985 52 10000 5.1 60 11:55 09.03.2020
1627 Clouds -8 985 52 10000 5.1 60 11:37 09.03.2020
1628 Clouds -8 985 52 10000 5.1 60 11:19 09.03.2020
1629 Clouds -8 986 67 10000 6.2 60 10:55 09.03.2020
1630 Clouds -8 986 67 10000 6.2 60 10:36 09.03.2020
1631 Clouds -8 986 67 10000 6.2 60 10:18 09.03.2020
1632 Clouds -8 986 61 0 6.2 70 09:40 09.03.2020
1633 Clouds -8 986 61 0 6.2 70 09:21 09.03.2020
1634 Clouds -8 986 52 0 6.7 60 08:44 09.03.2020
1635 Clouds -8 986 52 0 6.7 60 08:26 09.03.2020
1636 Clouds -9 986 56 0 6.2 50 07:42 09.03.2020
1637 Clouds -9 986 56 0 6.2 50 07:22 09.03.2020
1638 Clouds -9 987 56 0 7.7 60 06:46 09.03.2020
1639 Clouds -9 987 56 0 7.7 60 06:28 09.03.2020
1640 Clouds -9 988 61 0 8.7 60 05:58 09.03.2020
1641 Clouds -9 988 61 0 8.7 60 05:40 09.03.2020
1642 Clouds -9 989 47 0 5.1 60 04:46 09.03.2020
1643 Clouds -9 989 47 0 5.1 60 04:23 09.03.2020
1644 Clouds -9 990 52 0 5.1 60 03:29 09.03.2020
1645 Clear -10 991 56 0 2.6 0 01:58 09.03.2020
1646 Clear -10 992 51 0 1.5 0 00:42 09.03.2020
1647 Clear -10 992 51 0 1.5 0 00:24 09.03.2020
1648 Clear -11 993 51 0 2.1 140 23:55 08.03.2020
1649 Clear -11 993 51 0 2.1 140 23:29 08.03.2020
1650 Clear -11 994 61 0 2.1 120 22:59 08.03.2020
1651 Clear -11 994 61 0 2.1 120 22:40 08.03.2020
1652 Clear -11 994 61 0 2.1 120 22:21 08.03.2020
1653 Clear -10 994 52 0 1 0 21:57 08.03.2020
1654 Clear -9 994 52 0 1 0 21:39 08.03.2020
1655 Clear -9 994 52 0 1 0 21:19 08.03.2020
1656 Clear -8 995 48 0 1 150 20:56 08.03.2020
1657 Clear -7 995 48 0 1 150 20:37 08.03.2020
1658 Clear -7 995 48 0 1 150 20:19 08.03.2020
1659 Clear -7 996 52 0 2.1 50 19:38 08.03.2020
1660 Clear -7 996 52 0 2.1 50 19:19 08.03.2020
1661 Clear -6 997 48 0 1.5 120 18:43 08.03.2020
1662 Clear -6 997 48 0 1.5 120 18:24 08.03.2020
1663 Clear -6 997 48 0 1.5 120 18:24 08.03.2020
1664 Clear -6 997 48 0 1 120 17:58 08.03.2020
1665 Clear -6 997 48 0 1 120 17:39 08.03.2020
1666 Clear -6 997 48 0 1 120 17:20 08.03.2020
1667 Clear -7 998 52 0 3.1 70 16:55 08.03.2020
1668 Clear -7 998 52 0 3.1 70 16:36 08.03.2020
1669 Clear -7 998 52 0 3.1 70 16:18 08.03.2020
1670 Clear -9 999 56 0 4.1 70 15:41 08.03.2020
1671 Clear -9 999 56 0 4.1 70 15:21 08.03.2020
1672 Clear -10 999 66 0 5.7 80 14:56 08.03.2020
1673 Clear -10 999 66 0 5.7 80 14:37 08.03.2020
1674 Clear -10 999 66 0 5.7 80 14:19 08.03.2020
1675 Clear -11 1000 72 0 6.7 70 13:41 08.03.2020
1676 Clear -11 1000 72 0 6.7 70 13:20 08.03.2020
1677 Clear -11 1001 72 0 4.1 60 12:43 08.03.2020
1678 Clear -11 1001 72 0 4.1 60 12:25 08.03.2020
1679 Clear -11 1002 72 0 5.1 10 11:58 08.03.2020
1680 Clear -11 1002 72 0 5.1 10 11:39 08.03.2020
1681 Clear -11 1002 72 0 5.1 10 11:21 08.03.2020
1682 Clear -11 1002 78 0 6.7 340 10:42 08.03.2020
1683 Clear -11 1002 78 0 6.7 340 10:23 08.03.2020
1684 Clear -11 1003 72 0 4.1 30 09:59 08.03.2020
1685 Clear -11 1003 72 0 4.1 30 09:37 08.03.2020
1686 Clear -11 1003 72 0 4.1 30 09:19 08.03.2020
1687 Clear -10 1004 66 0 4.1 20 08:42 08.03.2020
1688 Clear -10 1004 66 0 4.1 20 08:20 08.03.2020
1689 Clear -11 1004 78 0 6.2 350 07:45 08.03.2020
1690 Clear -11 1004 78 0 6.2 350 07:25 08.03.2020
1691 Clear -11 1005 78 0 6.2 330 06:43 08.03.2020
1692 Clear -11 1005 78 0 6.2 330 06:24 08.03.2020
1693 Clear -11 1005 78 0 5.7 330 05:43 08.03.2020
1694 Clear -11 1005 78 0 5.7 330 05:43 08.03.2020
1695 Clouds -11 1006 66 0 4.1 340 03:52 08.03.2020
1696 Clouds -11 1007 72 0 5.1 330 02:40 08.03.2020
1697 Clouds -11 1007 72 0 5.1 330 01:37 08.03.2020
1698 Clouds -11 1007 72 0 5.1 330 01:18 08.03.2020
1699 Clouds -11 1007 72 0 6.2 320 00:30 08.03.2020
1700 Clouds -11 1007 66 10000 6.2 320 23:49 07.03.2020
1701 Clouds -11 1007 66 10000 6.2 320 23:27 07.03.2020
1702 Clouds -11 1007 66 10000 5.7 320 22:58 07.03.2020
1703 Clouds -11 1007 66 10000 5.7 320 22:37 07.03.2020
1704 Clouds -11 1007 66 10000 5.7 320 22:19 07.03.2020
1705 Clouds -11 1006 72 10000 7.2 320 21:43 07.03.2020
1706 Clouds -11 1006 72 10000 7.2 320 21:43 07.03.2020
1707 Clouds -11 1006 72 10000 7.2 320 21:22 07.03.2020
1708 Clouds -10 1006 66 10000 7.2 320 20:41 07.03.2020
1709 Clouds -10 1006 66 10000 7.2 320 20:21 07.03.2020
1710 Rain -10 1005 72 10000 6.7 320 19:42 07.03.2020
1711 Rain -10 1005 72 10000 6.7 320 19:23 07.03.2020
1712 Rain -10 1005 72 10000 6.7 320 18:59 07.03.2020
1713 Rain -10 1005 72 10000 6.7 320 18:39 07.03.2020
1714 Rain -10 1005 72 10000 6.7 320 18:21 07.03.2020
1715 Rain -9 1004 66 10000 6.2 320 17:42 07.03.2020
1716 Rain -9 1004 66 10000 6.2 320 17:20 07.03.2020
1717 Rain -9 1004 61 10000 7.2 320 16:57 07.03.2020
1718 Rain -9 1004 61 10000 7.2 320 16:39 07.03.2020
1719 Rain -9 1004 61 10000 7.2 320 16:21 07.03.2020
1720 Rain -10 1003 72 10000 6.7 310 15:55 07.03.2020
1721 Rain -10 1003 72 10000 6.7 310 15:37 07.03.2020
1722 Rain -10 1003 72 10000 6.7 310 15:37 07.03.2020
1723 Rain -10 1003 72 10000 6.7 310 15:19 07.03.2020
1724 Rain -9 1002 78 10000 7.2 320 14:44 07.03.2020
1725 Rain -9 1002 78 10000 7.2 320 14:23 07.03.2020
1726 Rain -10 1002 78 10000 8.2 320 13:55 07.03.2020
1727 Rain -10 1002 78 10000 8.2 320 13:37 07.03.2020
1728 Rain -10 1002 78 10000 8.2 320 13:18 07.03.2020
1729 Rain -9 1001 78 10000 9.8 300 12:39 07.03.2020
1730 Rain -9 1001 78 10000 9.8 300 12:19 07.03.2020
1731 Snow -9 1000 85 0 10.3 300 11:56 07.03.2020
1732 Snow -9 1000 85 0 10.3 300 11:37 07.03.2020
1733 Snow -9 1000 85 0 10.3 300 11:37 07.03.2020
1734 Snow -9 1000 85 0 10.3 300 11:19 07.03.2020
1735 Snow -9 1000 85 0 8.2 310 10:39 07.03.2020
1736 Snow -9 1000 85 0 8.2 310 10:20 07.03.2020
1737 Snow -9 999 78 0 8.2 310 09:56 07.03.2020
1738 Snow -8 999 78 0 8.2 310 09:37 07.03.2020
1739 Snow -8 999 78 0 8.2 310 09:18 07.03.2020
1740 Snow -8 999 78 0 6.7 320 08:43 07.03.2020
1741 -273 0 0 0 0 0 08:21 07.03.2020
1742 Snow -8 998 85 0 7.2 330 07:49 07.03.2020
1743 Snow -8 998 85 0 7.2 330 07:22 07.03.2020
1744 Snow -8 998 85 0 7.2 330 06:54 07.03.2020
1745 Snow -10 998 88 0 6.83 343 06:29 07.03.2020
1746 Snow -7 997 85 0 7.2 320 05:50 07.03.2020
1747 Snow -7 997 85 0 5.7 330 04:40 07.03.2020
1748 Snow -7 997 85 0 5.1 360 02:46 07.03.2020
1749 Snow -7 997 85 0 5.1 360 02:24 07.03.2020
1750 Clouds -7 997 85 0 3.6 350 01:26 07.03.2020
1751 Clouds -7 997 79 0 4.6 340 00:38 07.03.2020
1752 Clouds -7 997 79 0 4.6 340 00:19 07.03.2020
1753 Clouds -7 996 79 10000 4.6 340 23:43 06.03.2020
1754 Clouds -7 996 79 10000 4.6 340 23:25 06.03.2020
1755 Clouds -8 996 72 10000 2.6 20 22:47 06.03.2020
1756 Clouds -8 996 72 10000 2.6 20 22:21 06.03.2020
1757 Clouds -7 995 67 10000 2.6 20 21:55 06.03.2020
1758 Clouds -7 995 67 10000 2.6 20 21:37 06.03.2020
1759 Clouds -7 995 67 10000 2.6 20 21:18 06.03.2020
1760 Clouds -5 995 57 10000 3.6 20 20:37 06.03.2020
1761 Clouds -5 995 57 10000 3.6 20 20:19 06.03.2020
1762 Clouds -4 994 53 10000 3.1 40 19:45 06.03.2020
1763 Clouds -4 994 53 10000 3.1 40 19:26 06.03.2020
1764 Clouds -4 994 53 10000 5.1 360 18:44 06.03.2020
1765 Clouds -4 994 53 10000 5.1 360 18:22 06.03.2020
1766 Clouds -4 994 63 10000 4.1 360 17:59 06.03.2020
1767 Clouds -3 994 63 10000 4.1 360 17:41 06.03.2020
1768 Clouds -3 994 63 10000 4.1 360 17:22 06.03.2020
1769 Clouds -4 994 68 10000 4.1 360 16:58 06.03.2020
1770 Clouds -4 994 68 10000 4.1 360 16:40 06.03.2020
1771 Clouds -4 994 68 10000 4.1 360 16:19 06.03.2020
1772 Clouds -5 994 67 10000 4.1 50 15:44 06.03.2020
1773 Clouds -5 994 67 10000 4.1 50 15:24 06.03.2020
1774 Clouds -6 995 67 0 3.58 50 14:45 06.03.2020
1775 Clouds -6 995 67 0 3.58 50 14:25 06.03.2020
1776 Clouds -6 995 67 10000 3.6 50 13:59 06.03.2020
1777 Clouds -6 995 67 10000 3.6 50 13:41 06.03.2020
1778 Clouds -6 995 67 10000 3.6 50 13:21 06.03.2020
1779 Clouds -6 994 73 10000 4.6 40 12:56 06.03.2020
1780 Clouds -6 994 73 10000 4.6 40 12:37 06.03.2020
1781 Clouds -6 994 73 10000 4.6 40 12:18 06.03.2020
1782 Clouds -6 995 79 10000 4.1 10 11:56 06.03.2020
1783 Clouds -6 995 79 10000 4.1 10 11:38 06.03.2020
1784 Clouds -6 995 79 10000 4.1 10 11:19 06.03.2020
1785 Clouds -7 995 85 10000 4.6 20 10:38 06.03.2020
1786 Clouds -7 995 85 10000 4.6 20 10:20 06.03.2020
1787 Clouds -7 995 85 0 3.6 30 09:54 06.03.2020
1788 Clouds -7 995 85 0 3.6 30 09:36 06.03.2020
1789 Clouds -7 995 85 0 3.6 30 09:18 06.03.2020
1790 Clouds -7 995 67 0 5.1 50 08:41 06.03.2020
1791 Clouds -7 995 67 0 5.1 50 08:23 06.03.2020
1792 Clouds -6 995 62 0 5.1 40 07:47 06.03.2020
1793 Clouds -6 995 62 0 5.1 40 07:26 06.03.2020
1794 Clouds -6 995 57 0 4.1 50 06:53 06.03.2020
1795 Clouds -6 995 57 0 4.1 50 06:53 06.03.2020
1796 Clouds -6 995 57 0 4.1 50 06:34 06.03.2020
1797 Clouds -7 995 62 0 5.1 50 05:42 06.03.2020
1798 Clouds -7 995 62 0 5.1 50 05:21 06.03.2020
1799 Clouds -7 996 73 0 7.7 50 04:53 06.03.2020
1800 Clouds -7 997 52 10000 3.6 80 01:58 06.03.2020
1801 Clouds -7 997 52 10000 3.6 80 01:38 06.03.2020
1802 Clouds -7 997 52 10000 3.6 80 01:19 06.03.2020
1803 Clouds -8 998 52 10000 1 80 00:32 06.03.2020
1804 Clouds -8 998 57 10000 3.6 60 23:50 05.03.2020
1805 Clouds -8 998 57 10000 3.6 60 23:30 05.03.2020
1806 Clouds -8 998 67 10000 6.2 50 22:58 05.03.2020
1807 Clouds -8 998 67 10000 6.2 50 22:39 05.03.2020
1808 Clouds -8 998 67 10000 6.2 50 22:21 05.03.2020
1809 Clouds -8 999 52 10000 2.1 100 21:57 05.03.2020
1810 Clouds -7 999 52 10000 2.1 100 21:38 05.03.2020
1811 Clouds -7 999 52 10000 2.1 100 21:20 05.03.2020
1812 Clouds -7 999 57 10000 3.6 40 20:57 05.03.2020
1813 Clouds -7 999 57 10000 3.6 40 20:38 05.03.2020
1814 Clouds -7 999 57 10000 3.6 40 20:19 05.03.2020
1815 Clouds -6 1000 45 10000 0.5 100 19:56 05.03.2020
1816 Clouds -5 1000 45 10000 0.5 100 19:38 05.03.2020
1817 Clouds -5 1000 45 10000 0.5 100 19:18 05.03.2020
1818 Clouds -3 1000 38 10000 1.5 120 18:54 05.03.2020
1819 Clouds -3 1000 38 10000 1.5 120 18:36 05.03.2020
1820 Clouds -3 1000 38 10000 1.5 120 18:18 05.03.2020
1821 Clouds -4 1001 41 10000 2.6 90 17:41 05.03.2020
1822 Clouds -4 1001 41 10000 2.6 90 17:22 05.03.2020
1823 Clouds -5 1001 48 10000 4.1 50 16:55 05.03.2020
1824 Clouds -6 1001 48 10000 4.1 50 16:37 05.03.2020
1825 Clouds -6 1001 48 10000 4.1 50 16:19 05.03.2020
1826 Clouds -6 1001 44 10000 2.1 100 15:44 05.03.2020
1827 Clouds -6 1001 44 10000 2.1 100 15:22 05.03.2020
1828 Clouds -7 1002 48 10000 2.1 120 14:58 05.03.2020
1829 Clouds -7 1002 48 10000 2.1 120 14:39 05.03.2020
1830 Clouds -7 1002 48 10000 2.1 120 14:21 05.03.2020
1831 Clouds -9 1002 56 10000 1.5 0 13:55 05.03.2020
1832 Clouds -9 1002 56 10000 1.5 0 13:36 05.03.2020
1833 Clouds -9 1002 56 10000 1.5 0 13:36 05.03.2020
1834 Clouds -9 1002 56 10000 1.5 0 13:18 05.03.2020
1835 Clouds -10 1002 61 10000 1 80 12:41 05.03.2020
1836 Clouds -10 1002 61 10000 1 80 12:20 05.03.2020
1837 Clouds -10 1002 61 10000 0.5 0 11:57 05.03.2020
1838 Clouds -10 1002 61 10000 0.5 0 11:37 05.03.2020
1839 Clouds -10 1002 61 10000 0.5 0 11:19 05.03.2020
1840 Clouds -10 1002 61 10000 0.5 0 11:19 05.03.2020
1841 Clouds -9 1002 56 10000 3.1 80 10:57 05.03.2020
1842 Clouds -9 1002 56 10000 3.1 80 10:39 05.03.2020
1843 Clouds -9 1002 56 10000 3.1 80 10:21 05.03.2020
1844 Clouds -10 1002 66 10000 5.1 70 09:46 05.03.2020
1845 Clouds -10 1002 66 10000 5.1 70 09:28 05.03.2020
1846 Clouds -9 1003 61 10000 4.6 80 08:49 05.03.2020
1847 Clouds -9 1003 61 10000 4.6 80 08:31 05.03.2020
1848 Clear -9 1003 61 0 4.6 60 07:56 05.03.2020
1849 Clear -9 1003 61 0 4.6 60 07:36 05.03.2020
1850 Clear -9 1003 61 0 4.6 60 07:18 05.03.2020
1851 Clear -9 1003 72 0 6.7 60 06:43 05.03.2020
1852 Clear -9 1003 72 0 6.7 60 06:19 05.03.2020
1853 Clear -9 1003 66 0 7.7 60 05:33 05.03.2020
1854 Clear -9 1003 66 0 7.7 60 05:33 05.03.2020
1855 Clear -10 1004 66 0 5.1 60 04:23 05.03.2020
1856 Clear -9 1004 66 0 7.2 60 03:58 05.03.2020
1857 Clear -10 1004 72 0 7.2 60 02:32 05.03.2020
1858 Clear -10 1004 72 0 5.1 40 01:26 05.03.2020
1859 Clouds -10 1004 85 10000 6.2 20 00:44 05.03.2020
1860 Clear -9 1006 49 0 4.49 30 23:57 04.03.2020
1861 Clear -9 1006 49 0 4.49 30 23:57 04.03.2020
1862 Clear -9 1006 49 0 4.49 30 23:39 04.03.2020
1863 Clouds -10 1003 72 10000 6.7 50 23:21 04.03.2020
1864 Clouds -10 1003 72 10000 6.7 50 22:55 04.03.2020
1865 Clouds -10 1003 72 10000 6.7 50 22:36 04.03.2020
1866 Clouds -10 1003 72 10000 6.7 50 22:18 04.03.2020
1867 Clear -10 1003 72 10000 7.7 50 21:42 04.03.2020
1868 Clear -10 1003 72 10000 7.7 50 21:22 04.03.2020
1869 Clear -9 1003 66 10000 7.2 50 20:59 04.03.2020
1870 Clear -9 1003 66 10000 7.2 50 20:40 04.03.2020
1871 Clear -9 1003 66 10000 7.2 50 20:21 04.03.2020
1872 Clouds -9 1003 66 10000 6.7 50 19:56 04.03.2020
1873 Clouds -9 1003 66 10000 6.7 50 19:38 04.03.2020
1874 Clouds -9 1003 66 10000 6.7 50 19:20 04.03.2020
1875 Clouds -9 1003 61 10000 7.7 50 18:41 04.03.2020
1876 Clouds -9 1003 61 10000 7.7 50 18:23 04.03.2020
1877 Clouds -9 1002 56 10000 6.2 60 17:59 04.03.2020
1878 Clouds -9 1002 56 10000 6.2 60 17:39 04.03.2020
1879 Clouds -9 1002 56 10000 6.2 60 17:20 04.03.2020
1880 Clouds -10 1002 56 10000 7.2 70 16:55 04.03.2020
1881 Clouds -10 1002 56 10000 7.2 70 16:55 04.03.2020
1882 Clouds -10 1002 56 10000 7.2 70 16:36 04.03.2020
1883 Clouds -10 1002 56 10000 7.2 70 16:18 04.03.2020
1884 Clouds -11 1002 66 10000 7.2 60 15:42 04.03.2020
1885 Clouds -11 1002 66 10000 7.2 60 15:24 04.03.2020
1886 Clouds -12 1002 66 10000 7.7 60 14:57 04.03.2020
1887 Clouds -12 1002 66 10000 7.7 60 14:38 04.03.2020
1888 Clouds -12 1002 66 10000 7.7 60 14:19 04.03.2020
1889 Clouds -13 1002 65 10000 8.2 50 13:58 04.03.2020
1890 Clouds -13 1002 65 10000 8.2 50 13:39 04.03.2020
1891 Clouds -13 1002 65 10000 8.2 50 13:39 04.03.2020
1892 Clouds -13 1002 65 10000 8.2 50 13:20 04.03.2020
1893 Clouds -14 1002 65 10000 8.2 60 12:55 04.03.2020
1894 Clouds -14 1002 65 10000 8.2 60 12:37 04.03.2020
1895 Clouds -14 1002 65 10000 8.2 60 12:19 04.03.2020
1896 Clouds -14 1001 71 10000 8.7 60 11:42 04.03.2020
1897 Clouds -14 1001 71 10000 8.7 60 11:23 04.03.2020
1898 Clear -14 1001 71 0 9.3 60 10:58 04.03.2020
1899 Clear -14 1001 71 0 9.3 60 10:40 04.03.2020
1900 Clear -14 1001 71 0 9.3 60 10:19 04.03.2020
1901 Clear -14 1001 71 0 8.2 60 09:43 04.03.2020
1902 Clear -14 1001 71 0 8.2 60 09:21 04.03.2020
1903 Clear -14 1001 71 0 8.7 60 08:48 04.03.2020
1904 Clear -14 1001 71 0 8.7 60 08:28 04.03.2020
1905 Clear -15 1001 77 0 9.8 60 07:57 04.03.2020
1906 Clear -15 1001 77 0 9.8 60 07:39 04.03.2020
1907 Clear -15 1001 77 0 9.8 60 07:20 04.03.2020
1908 Clear -15 1001 77 0 9.8 60 06:44 04.03.2020
1909 Clear -15 1001 77 0 9.8 60 06:23 04.03.2020
1910 Clear -15 1001 84 0 7.2 40 05:50 04.03.2020
1911 Clear -15 1002 71 0 6.7 20 04:34 04.03.2020
1912 Clouds -15 1002 77 10000 7.7 60 03:44 04.03.2020
1913 Clouds -15 1002 77 10000 7.7 60 03:25 04.03.2020
1914 Clouds -15 1002 77 10000 6.2 50 02:55 04.03.2020
1915 Clouds -15 1002 77 10000 6.2 50 02:21 04.03.2020
1916 Clouds -16 1003 77 10000 6.7 60 01:55 04.03.2020
1917 Clouds -15 1003 77 10000 7.7 60 00:53 04.03.2020
1918 Clouds -15 1003 77 10000 7.7 60 00:53 04.03.2020
1919 Clouds -15 1003 77 10000 7.7 60 00:27 04.03.2020
1920 Clouds -16 1003 77 10000 8.2 60 23:59 03.03.2020
1921 Clouds -16 1003 77 10000 8.2 60 23:40 03.03.2020
1922 Clouds -16 1003 77 10000 8.2 60 23:22 03.03.2020
1923 Clouds -16 1003 77 10000 7.7 60 22:41 03.03.2020
1924 Clouds -16 1003 77 10000 7.7 60 22:20 03.03.2020
1925 Clouds -15 1003 71 10000 8.2 50 21:58 03.03.2020
1926 Clouds -15 1003 71 10000 8.2 50 21:40 03.03.2020
1927 Clouds -15 1003 71 10000 8.2 50 21:20 03.03.2020
1928 Clouds -15 1003 71 10000 8.7 40 20:56 03.03.2020
1929 Clouds -15 1003 71 10000 8.7 40 20:38 03.03.2020
1930 Clouds -15 1003 71 10000 8.7 40 20:18 03.03.2020
1931 Clouds -14 1003 55 10000 7.7 20 19:55 03.03.2020
1932 Clouds -14 1003 55 10000 7.7 20 19:36 03.03.2020
1933 Clouds -14 1003 55 10000 7.7 20 19:18 03.03.2020
1934 Clouds -14 1003 60 10000 8.2 20 18:55 03.03.2020
1935 Clouds -14 1003 60 10000 8.2 20 18:37 03.03.2020
1936 Clouds -14 1003 60 10000 8.2 20 18:18 03.03.2020
1937 Clouds -14 1003 65 10000 6.2 20 17:40 03.03.2020
1938 Clouds -14 1003 65 10000 6.2 20 17:22 03.03.2020
1939 Clouds -14 1003 71 10000 7.2 20 16:59 03.03.2020
1940 Clouds -14 1003 71 10000 7.2 20 16:38 03.03.2020
1941 Clouds -14 1003 71 10000 7.2 20 16:20 03.03.2020
1942 Clouds -14 1003 71 10000 7.2 20 16:20 03.03.2020
1943 Clouds -15 1004 65 10000 6.2 30 15:58 03.03.2020
1944 Clouds -15 1004 65 10000 6.2 30 15:40 03.03.2020
1945 Clouds -15 1004 65 10000 6.2 30 15:20 03.03.2020
1946 Clouds -16 1004 65 10000 6.2 40 14:43 03.03.2020
1947 Clouds -16 1004 65 10000 6.2 40 14:20 03.03.2020
1948 Clouds -17 1003 77 10000 6.7 40 13:58 03.03.2020
1949 Clouds -17 1003 77 10000 6.7 40 13:40 03.03.2020
1950 Clouds -17 1003 77 10000 6.7 40 13:21 03.03.2020
1951 Clouds -17 1004 70 10000 5.7 50 12:48 03.03.2020
1952 Clouds -17 1004 70 10000 5.7 50 12:27 03.03.2020
1953 Clouds -17 1004 64 10000 5.1 50 11:59 03.03.2020
1954 Clouds -17 1004 64 10000 5.1 50 11:38 03.03.2020
1955 Clouds -17 1004 64 10000 5.1 50 11:19 03.03.2020
1956 Clear -17 1003 70 0 6.7 30 10:56 03.03.2020
1957 Clear -17 1003 70 0 6.7 30 10:38 03.03.2020
1958 Clear -17 1003 70 0 6.7 30 10:19 03.03.2020
1959 Clear -17 1003 77 0 7.7 20 09:45 03.03.2020
1960 Clear -17 1003 77 0 7.7 20 09:23 03.03.2020
1961 Clear -17 1003 77 0 8.2 10 08:59 03.03.2020
1962 Clear -17 1003 77 0 8.2 10 08:39 03.03.2020
1963 Clear -17 1003 77 0 8.2 10 08:21 03.03.2020
1964 Clear -17 1003 70 0 8.2 360 07:44 03.03.2020
1965 Clear -17 1003 70 0 8.2 360 07:23 03.03.2020
1966 Clear -17 1003 70 0 8.2 20 06:53 03.03.2020
1967 Clear -17 1003 70 0 8.2 20 06:26 03.03.2020
1968 Clear -17 1003 77 0 8.2 20 05:48 03.03.2020
1969 Clear -17 1003 77 0 8.2 20 05:29 03.03.2020
1970 Clear -17 1003 77 0 9.3 10 04:37 03.03.2020
1971 Snow -16 1003 59 0 10.8 20 01:41 03.03.2020
1972 Snow -16 1003 77 0 10.8 360 00:59 03.03.2020
1973 Snow -16 1003 77 0 10.8 360 00:37 03.03.2020
1974 Snow -16 1003 77 0 10.8 360 00:18 03.03.2020
1975 Clouds -16 1003 71 10000 10.3 10 23:42 02.03.2020
1976 Clouds -16 1003 71 10000 10.3 10 23:23 02.03.2020
1977 Clouds -16 1003 71 10000 11.3 10 22:56 02.03.2020
1978 Clouds -16 1003 71 10000 11.3 10 22:37 02.03.2020
1979 Clouds -16 1003 71 10000 11.3 10 22:19 02.03.2020
1980 Clouds -16 1002 71 10000 10.8 360 21:42 02.03.2020
1981 Clouds -16 1002 71 10000 10.8 360 21:24 02.03.2020
1982 Clouds -16 1002 65 10000 9.8 360 20:59 02.03.2020
1983 Clouds -16 1002 65 10000 9.8 360 20:41 02.03.2020
1984 Clouds -16 1002 65 10000 9.8 360 20:21 02.03.2020
1985 Clouds -16 1002 71 10000 9.3 10 19:57 02.03.2020
1986 Clouds -16 1002 71 10000 9.3 10 19:39 02.03.2020
1987 Clouds -16 1002 71 10000 9.3 10 19:20 02.03.2020
1988 Clouds -16 1002 71 10000 10.3 10 18:55 02.03.2020
1989 Clouds -16 1002 71 10000 10.3 10 18:37 02.03.2020
1990 Clouds -16 1002 71 10000 10.3 10 18:18 02.03.2020
1991 Clouds -16 1002 59 10000 9.8 10 17:55 02.03.2020
1992 Clouds -16 1002 59 10000 9.8 10 17:37 02.03.2020
1993 Clouds -16 1002 59 10000 9.8 10 17:19 02.03.2020
1994 Clouds -16 1002 59 10000 8.7 10 16:41 02.03.2020
1995 Clouds -16 1002 59 10000 8.7 10 16:23 02.03.2020
1996 Clouds -17 1003 70 10000 11.3 20 15:54 02.03.2020
1997 Clouds -17 1003 70 10000 11.3 20 15:36 02.03.2020
1998 Clouds -17 1003 70 10000 11.3 20 15:18 02.03.2020
1999 Clouds -17 1003 64 10000 9.8 30 14:37 02.03.2020
2000 Clouds -17 1003 64 10000 9.8 30 14:19 02.03.2020
2001 Clouds -18 1002 70 10000 9.3 40 13:44 02.03.2020
2002 Clouds -18 1002 70 10000 9.3 40 13:20 02.03.2020
2003 Clouds -17 1002 77 10000 11.3 10 12:59 02.03.2020
2004 Clouds -17 1002 77 10000 11.3 10 12:41 02.03.2020
2005 Clouds -17 1002 77 10000 11.3 10 12:19 02.03.2020
2006 Clouds -17 1002 59 10000 9.8 20 11:39 02.03.2020
2007 Clouds -17 1002 59 10000 9.8 20 11:19 02.03.2020
2008 Clouds -17 1002 77 10000 9.3 360 10:56 02.03.2020
2009 Clouds -17 1002 77 10000 9.3 360 10:37 02.03.2020
2010 Clouds -17 1002 77 10000 9.3 360 10:18 02.03.2020
2011 Clear -17 1001 70 0 9.3 360 09:49 02.03.2020
2012 Clear -17 1001 70 0 9.3 360 09:49 02.03.2020
2013 Clear -17 1001 70 0 9.3 360 09:30 02.03.2020
2014 Snow -17 1001 77 0 9.8 10 08:49 02.03.2020
2015 Snow -17 1001 77 0 9.8 10 08:23 02.03.2020
2016 Snow -17 1001 70 0 9.8 20 07:51 02.03.2020
2017 Snow -17 1001 70 0 9.8 20 07:31 02.03.2020
2018 Snow -17 1001 64 0 9.8 20 06:51 02.03.2020
2019 Snow -17 1001 64 0 9.8 20 06:26 02.03.2020
2020 Snow -17 1001 70 0 8.2 30 05:25 02.03.2020
2021 Clear -17 1001 70 0 7.7 20 03:57 02.03.2020
2022 Clear -17 1001 70 0 7.7 360 02:57 02.03.2020
2023 Clear -17 1001 70 0 7.7 360 02:30 02.03.2020
2024 Clear -16 1001 77 0 7.2 10 01:37 02.03.2020
2025 Clear -16 1001 77 0 7.2 10 01:19 02.03.2020
2026 Clear -16 1001 71 0 6.2 360 00:22 02.03.2020
2027 Clear -16 1001 71 0 5.7 10 23:56 01.03.2020
2028 Clear -16 1001 71 0 5.7 10 23:37 01.03.2020
2029 Clear -16 1001 71 0 5.7 10 23:18 01.03.2020
2030 Clear -16 1001 65 0 5.7 20 22:36 01.03.2020
2031 Clear -16 1001 65 0 5.7 20 22:18 01.03.2020
2032 Clear -16 1001 71 0 5.1 360 21:42 01.03.2020
2033 Clear -16 1001 71 0 5.1 360 21:24 01.03.2020
2034 Clear -14 1001 55 0 4.6 360 20:59 01.03.2020
2035 Clear -14 1001 55 0 4.6 360 20:41 01.03.2020
2036 Clear -14 1001 55 0 4.6 360 20:22 01.03.2020
2037 Clear -13 1001 55 0 5.1 360 19:42 01.03.2020
2038 Clear -13 1001 55 0 5.1 360 19:23 01.03.2020
2039 Clear -13 1001 55 0 5.1 10 18:59 01.03.2020
2040 Clear -13 1001 55 0 5.1 10 18:40 01.03.2020
2041 Clear -13 1001 55 0 5.1 10 18:19 01.03.2020
2042 Clear -13 1001 55 0 5.7 20 17:57 01.03.2020
2043 Clear -13 1001 55 0 5.7 20 17:39 01.03.2020
2044 Clear -13 1001 55 0 5.7 20 17:20 01.03.2020
2045 Clear -13 1001 60 0 5.7 30 16:57 01.03.2020
2046 Clear -13 1001 60 0 5.7 30 16:38 01.03.2020
2047 Clear -13 1001 60 0 5.7 30 16:18 01.03.2020
2048 Clear -14 1002 71 0 4.6 20 15:56 01.03.2020
2049 Clear -14 1002 71 0 4.6 20 15:37 01.03.2020
2050 Clear -14 1002 71 0 4.6 20 15:19 01.03.2020
2051 Clear -15 1002 71 0 4.6 20 14:56 01.03.2020
2052 Clear -15 1002 71 0 4.6 20 14:38 01.03.2020
2053 Clouds -15 1002 71 0 4.6 20 14:19 01.03.2020
2054 Clouds -15 1002 71 0 5.1 10 13:54 01.03.2020
2055 Clouds -15 1002 71 0 5.1 10 13:54 01.03.2020
2056 Clouds -15 1002 71 0 5.1 10 13:36 01.03.2020
2057 Clouds -15 1002 71 0 5.1 10 13:18 01.03.2020
2058 Clear -15 1002 65 0 5.1 10 12:41 01.03.2020
2059 Clouds -15 1002 65 0 5.1 10 12:21 01.03.2020
2060 Clouds -14 1002 60 0 5.7 20 11:42 01.03.2020
2061 Clouds -14 1002 60 0 5.7 20 11:24 01.03.2020
2062 Clouds -15 1002 65 0 5.1 40 10:57 01.03.2020
2063 Clouds -15 1002 65 0 5.1 40 10:38 01.03.2020
2064 Clouds -15 1002 65 0 5.1 40 10:20 01.03.2020
2065 Clouds -15 1002 60 0 4.6 50 09:57 01.03.2020
2066 Clouds -15 1002 60 0 4.6 50 09:39 01.03.2020
2067 Clouds -15 1002 60 0 4.6 50 09:21 01.03.2020
2068 Clouds -16 1002 65 0 5.1 60 08:41 01.03.2020
2069 Clouds -16 1002 65 0 5.1 60 08:21 01.03.2020
2070 Clouds -15 1002 65 0 5.7 20 07:43 01.03.2020
2071 Clouds -15 1002 65 0 5.7 20 07:24 01.03.2020
2072 Clouds -16 1002 65 0 4.6 60 06:58 01.03.2020
2073 Clouds -16 1002 65 0 4.6 60 06:38 01.03.2020
2074 Clear -15 1003 65 0 4.1 20 04:27 01.03.2020
2075 Clear -15 1004 71 0 3.6 40 02:55 01.03.2020
2076 Clear -15 1004 77 0 5.1 10 01:54 01.03.2020
2077 Clear -15 1004 77 0 5.1 10 01:33 01.03.2020
2078 Clear -15 1004 65 0 4.1 30 00:46 01.03.2020
2079 Clear -15 1004 65 0 4.1 30 00:22 01.03.2020
2080 Clouds -16 1004 65 10000 4.1 70 23:54 29.02.2020
2081 Clouds -16 1004 65 10000 4.1 70 23:34 29.02.2020
2082 Clouds -15 1004 60 10000 5.1 10 22:45 29.02.2020
2083 Clear -16 1007 62 0 5.92 17 22:26 29.02.2020
2084 Clouds -15 1004 65 10000 6.2 360 21:47 29.02.2020
2085 Clouds -15 1004 65 10000 6.2 360 21:26 29.02.2020
2086 Clouds -14 1004 55 10000 6.7 10 20:58 29.02.2020
2087 Clouds -14 1004 55 10000 6.7 10 20:40 29.02.2020
2088 Clouds -14 1004 55 10000 6.7 10 20:19 29.02.2020
2089 Clouds -14 1004 46 10000 6.2 10 19:41 29.02.2020
2090 Clouds -14 1004 46 10000 6.2 10 19:22 29.02.2020
2091 Clouds -13 1004 46 10000 7.7 10 18:57 29.02.2020
2092 Clouds -13 1004 46 10000 7.7 10 18:39 29.02.2020
2093 Clouds -13 1004 46 10000 7.7 10 18:19 29.02.2020
2094 Clear -15 1006 62 0 6.42 2 17:55 29.02.2020
2095 Clear -15 1006 62 0 6.42 2 17:36 29.02.2020
2096 Clear -15 1006 62 0 6.42 2 17:36 29.02.2020
2097 Clouds -14 1004 60 10000 7.2 360 17:18 29.02.2020
2098 Clouds -14 1004 60 10000 7.2 360 16:42 29.02.2020
2099 Clouds -14 1004 60 10000 7.2 360 16:19 29.02.2020
2100 Clouds -13 1004 65 10000 7.7 10 15:54 29.02.2020
2101 Clouds -13 1004 65 10000 7.7 10 15:36 29.02.2020
2102 Clouds -13 1004 65 10000 7.7 10 15:18 29.02.2020
2103 Clouds -15 1004 71 10000 6.7 10 14:39 29.02.2020
2104 Clouds -15 1004 71 10000 6.7 10 14:21 29.02.2020
2105 Clouds -15 1004 77 10000 8.2 10 13:44 29.02.2020
2106 Clouds -15 1004 77 10000 8.2 10 13:26 29.02.2020
2107 Clouds -16 1004 84 10000 8.2 10 12:55 29.02.2020
2108 Clouds -16 1004 84 10000 8.2 10 12:36 29.02.2020
2109 Clouds -16 1004 84 10000 8.2 10 12:18 29.02.2020
2110 Clouds -16 1004 84 10000 7.2 10 11:44 29.02.2020
2111 Clouds -16 1004 84 10000 7.2 10 11:25 29.02.2020
2112 Clear -15 1004 77 0 6.7 10 10:50 29.02.2020
2113 Clear -15 1004 77 0 6.7 10 10:29 29.02.2020
2114 Clear -16 1004 84 0 5.1 10 09:52 29.02.2020
2115 Clear -16 1004 84 0 5.1 10 09:28 29.02.2020
2116 Clear -15 1004 65 0 6.2 10 08:58 29.02.2020
2117 Clear -15 1004 65 0 6.2 10 08:39 29.02.2020
2118 Clear -15 1004 65 0 6.2 10 08:20 29.02.2020
2119 Mist -15 1004 84 0 7.7 350 07:47 29.02.2020
2120 Mist -15 1004 84 0 7.7 350 07:22 29.02.2020
2121 Clear -15 1004 77 0 5.1 20 06:54 29.02.2020
2122 Clear -15 1004 77 0 5.1 20 06:28 29.02.2020
2123 Clear -15 1005 71 0 4.6 10 05:49 29.02.2020
2124 Clear -15 1005 71 0 4.6 10 05:30 29.02.2020
2125 Clear -14 1006 71 0 5.1 20 03:55 29.02.2020
2126 Clear -14 1006 71 0 5.1 20 03:24 29.02.2020
2127 Clear -14 1006 77 0 5.1 30 02:52 29.02.2020
2128 Clear -14 1006 71 0 6.2 20 01:55 29.02.2020
2129 Clear -14 1006 71 0 5.7 40 00:51 29.02.2020
2130 Clear -14 1006 71 0 5.7 40 00:27 29.02.2020
2131 Clouds -14 1007 71 10000 6.2 10 23:41 28.02.2020
2132 Clouds -14 1007 71 10000 6.2 10 23:22 28.02.2020
2133 Snow -14 1007 71 10000 5.1 20 22:43 28.02.2020
2134 Snow -14 1007 71 10000 5.1 20 22:22 28.02.2020
2135 Snow -14 1007 71 10000 5.7 10 21:42 28.02.2020
2136 Snow -14 1007 71 10000 5.7 10 21:22 28.02.2020
2137 Snow -13 1007 65 10000 5.1 10 20:58 28.02.2020
2138 Snow -13 1007 65 10000 5.1 10 20:39 28.02.2020
2139 Snow -13 1007 65 10000 5.1 10 20:20 28.02.2020
2140 Snow -13 1007 71 10000 4.1 360 19:57 28.02.2020
2141 Snow -13 1007 71 10000 4.1 360 19:38 28.02.2020
2142 Snow -13 1007 71 10000 4.1 360 19:20 28.02.2020
2143 Snow -12 1007 66 10000 4.6 20 18:47 28.02.2020
2144 Snow -12 1007 66 10000 4.6 20 18:47 28.02.2020
2145 Snow -12 1007 66 10000 4.6 20 18:27 28.02.2020
2146 Snow -12 1007 66 10000 4.6 20 17:58 28.02.2020
2147 Snow -12 1007 66 10000 4.6 20 17:39 28.02.2020
2148 Snow -12 1007 66 10000 4.6 20 17:20 28.02.2020
2149 Clouds -12 1008 66 10000 4.6 40 16:43 28.02.2020
2150 Clouds -12 1008 66 10000 4.6 40 16:20 28.02.2020
2151 Clouds -13 1008 65 10000 4.6 40 15:57 28.02.2020
2152 Clouds -13 1008 65 10000 4.6 40 15:39 28.02.2020
2153 Clouds -13 1008 65 10000 4.6 40 15:19 28.02.2020
2154 Clouds -13 1009 65 10000 5.1 60 14:55 28.02.2020
2155 Clouds -13 1009 65 10000 5.1 60 14:37 28.02.2020
2156 Clouds -13 1009 65 10000 5.1 60 14:18 28.02.2020
2157 Clouds -14 1009 71 10000 4.6 60 13:41 28.02.2020
2158 Clouds -14 1009 71 10000 4.6 60 13:20 28.02.2020
2159 Clouds -15 1009 71 10000 5.7 50 12:56 28.02.2020
2160 Clouds -15 1009 71 10000 5.7 50 12:37 28.02.2020
2161 Clouds -15 1009 71 10000 5.7 50 12:18 28.02.2020
2162 Clouds -16 1009 77 10000 6.2 80 11:41 28.02.2020
2163 Clouds -16 1009 77 10000 6.2 80 11:22 28.02.2020
2164 Clouds -15 1009 77 10000 5.7 70 10:54 28.02.2020
2165 Clouds -15 1009 77 10000 5.7 70 10:36 28.02.2020
2166 Clouds -15 1009 77 10000 5.7 70 10:18 28.02.2020
2167 Clear -15 1010 71 0 6.2 70 09:40 28.02.2020
2168 Clear -15 1010 71 0 6.2 70 09:20 28.02.2020
2169 Clear -15 1010 77 0 5.7 70 08:42 28.02.2020
2170 Clear -15 1010 77 0 5.7 70 08:21 28.02.2020
2171 Clear -15 1010 77 0 6.7 70 07:47 28.02.2020
2172 Clear -15 1010 77 0 6.7 70 07:27 28.02.2020
2173 Clear -15 1010 77 0 6.2 70 06:59 28.02.2020
2174 Clear -15 1010 77 0 6.2 70 06:38 28.02.2020
2175 Clear -15 1011 71 0 5.1 70 05:37 28.02.2020
2176 Clear -16 1011 77 0 4.6 70 04:32 28.02.2020
2177 Clear -15 1011 71 0 4.1 60 03:34 28.02.2020
2178 Clouds -15 1012 71 10000 4.6 70 02:41 28.02.2020
2179 Clouds -15 1012 71 10000 4.6 70 02:18 28.02.2020
2180 Clouds -14 1012 71 10000 6.2 360 00:35 28.02.2020
2181 Clouds -15 1012 71 10000 5.1 20 23:57 27.02.2020
2182 Clouds -15 1012 71 10000 5.1 20 23:38 27.02.2020
2183 Clouds -15 1012 71 10000 5.1 20 23:18 27.02.2020
2184 Clouds -14 1012 77 10000 5.7 10 22:40 27.02.2020
2185 Clouds -14 1012 77 10000 5.7 10 22:22 27.02.2020
2186 Clouds -14 1011 60 10000 5.1 20 21:55 27.02.2020
2187 Clouds -14 1011 60 10000 5.1 20 21:37 27.02.2020
2188 Clouds -14 1011 60 10000 5.1 20 21:18 27.02.2020
2189 Clouds -13 1011 50 10000 5.7 10 20:42 27.02.2020
2190 Clouds -13 1011 50 10000 5.7 10 20:23 27.02.2020
2191 Clouds -13 1011 60 10000 6.2 10 19:59 27.02.2020
2192 Clouds -13 1011 60 10000 6.2 10 19:41 27.02.2020
2193 Clouds -13 1011 60 10000 6.2 10 19:23 27.02.2020
2194 Clouds -12 1011 46 10000 5.7 360 18:57 27.02.2020
2195 Clouds -12 1011 46 10000 5.7 360 18:39 27.02.2020
2196 Clouds -12 1011 46 10000 5.7 360 18:20 27.02.2020
2197 Clouds -12 1011 60 10000 6.2 360 17:56 27.02.2020
2198 Clouds -12 1011 60 10000 6.2 360 17:37 27.02.2020
2199 Clouds -12 1011 60 10000 6.2 360 17:18 27.02.2020
2200 Clouds -13 1010 65 10000 7.2 20 16:54 27.02.2020
2201 Clouds -13 1010 65 10000 7.2 20 16:36 27.02.2020
2202 Clouds -13 1010 65 10000 7.2 20 16:18 27.02.2020
2203 Clouds -13 1011 55 10000 6.2 10 15:40 27.02.2020
2204 Clouds -13 1011 55 10000 6.2 10 15:21 27.02.2020
2205 Clouds -14 1010 77 10000 6.7 20 14:59 27.02.2020
2206 Clouds -14 1010 77 10000 6.7 20 14:39 27.02.2020
2207 Clouds -14 1010 77 10000 6.7 20 14:21 27.02.2020
2208 Clouds -15 1010 77 10000 5.7 360 13:55 27.02.2020
2209 Clouds -15 1010 77 10000 5.7 360 13:37 27.02.2020
2210 Clouds -15 1010 77 10000 5.7 360 13:19 27.02.2020
2211 Clouds -14 1009 77 10000 5.7 10 12:43 27.02.2020
2212 Clouds -14 1009 77 10000 5.7 10 12:19 27.02.2020
2213 Clouds -14 1009 77 10000 5.1 10 11:46 27.02.2020
2214 Clouds -14 1009 77 10000 5.1 10 11:23 27.02.2020
2215 Clear -14 1009 77 0 6.2 20 10:56 27.02.2020
2216 Clear -14 1009 77 0 6.2 20 10:37 27.02.2020
2217 Clear -14 1009 77 0 6.2 20 10:19 27.02.2020
2218 Clear -14 1008 77 0 6.2 10 09:41 27.02.2020
2219 Clear -14 1008 77 0 6.2 10 09:23 27.02.2020
2220 Clear -15 1008 92 0 6.2 350 08:44 27.02.2020
2221 Clear -15 1008 92 0 6.2 350 08:26 27.02.2020
2222 Clear -14 1008 92 0 6.7 350 07:59 27.02.2020
2223 Clear -14 1008 92 0 6.7 350 07:39 27.02.2020
2224 Clear -14 1008 92 0 6.7 350 07:19 27.02.2020
2225 Clear -13 1007 78 0 5.7 360 06:20 27.02.2020
2226 Clear -14 1007 84 0 5.1 350 04:24 27.02.2020
2227 Clear -16 1007 65 0 2.6 360 02:58 27.02.2020
2228 Clear -14 1007 50 0 2.6 350 01:28 27.02.2020
2229 Clear -13 1007 55 0 3.6 10 00:41 27.02.2020
2230 Clear -13 1007 55 0 3.6 10 00:41 27.02.2020
2231 Clouds -14 1007 55 10000 3.6 10 23:41 26.02.2020
2232 Clouds -14 1007 55 10000 3.6 10 23:23 26.02.2020
2233 Clouds -13 1007 55 10000 3.6 10 22:59 26.02.2020
2234 Clouds -13 1007 55 10000 3.6 10 22:41 26.02.2020
2235 Clouds -13 1007 55 10000 3.6 10 22:22 26.02.2020
2236 Clouds -12 1007 60 10000 5.1 350 21:59 26.02.2020
2237 Clouds -12 1007 60 10000 5.1 350 21:39 26.02.2020
2238 Clouds -12 1007 60 10000 5.1 350 21:20 26.02.2020
2239 Clouds -10 1007 51 10000 1.5 0 20:56 26.02.2020
2240 Clouds -10 1007 51 10000 1.5 0 20:38 26.02.2020
2241 Clouds -10 1007 51 10000 1.5 0 20:19 26.02.2020
2242 Clouds -11 1006 56 10000 2.1 90 19:56 26.02.2020
2243 Clouds -11 1006 56 10000 2.1 90 19:37 26.02.2020
2244 Clouds -11 1006 56 10000 2.1 90 19:18 26.02.2020
2245 Clouds -9 1007 47 10000 3.1 360 18:56 26.02.2020
2246 Clouds -9 1007 47 10000 3.1 360 18:37 26.02.2020
2247 Clouds -9 1007 47 10000 3.1 360 18:18 26.02.2020
2248 Clouds -9 1007 56 10000 4.1 360 17:41 26.02.2020
2249 Clouds -9 1007 56 10000 4.1 360 17:19 26.02.2020
2250 Rain -6 1006 41 10000 1.5 0 16:56 26.02.2020
2251 Rain -6 1006 41 10000 1.5 0 16:56 26.02.2020
2252 Rain -6 1006 41 10000 1.5 0 16:38 26.02.2020
2253 Rain -6 1006 41 10000 1.5 0 16:38 26.02.2020
2254 Rain -6 1006 41 10000 1.5 0 16:20 26.02.2020
2255 Clouds -11 1007 51 10000 3.1 60 15:44 26.02.2020
2256 Clouds -11 1007 51 10000 3.1 60 15:44 26.02.2020
2257 Clouds -11 1007 51 10000 3.1 60 15:26 26.02.2020
2258 Clouds -13 1007 60 10000 3.1 60 14:43 26.02.2020
2259 Clouds -13 1007 60 10000 3.1 60 14:24 26.02.2020
2260 Clouds -13 1007 51 10000 4.6 40 13:57 26.02.2020
2261 Clouds -13 1007 51 10000 4.6 40 13:57 26.02.2020
2262 Clouds -12 1007 51 10000 4.6 40 13:39 26.02.2020
2263 Clouds -12 1007 51 10000 4.6 40 13:18 26.02.2020
2264 Clouds -12 1007 66 10000 5.1 10 12:39 26.02.2020
2265 Clouds -12 1007 66 10000 5.1 10 12:19 26.02.2020
2266 Clouds -13 1007 65 10000 4.1 80 11:55 26.02.2020
2267 Clouds -13 1007 65 10000 4.1 80 11:55 26.02.2020
2268 Clouds -13 1007 65 10000 4.1 80 11:37 26.02.2020
2269 Clouds -13 1007 65 10000 4.1 80 11:18 26.02.2020
2270 Clouds -13 1007 60 0 4.1 60 10:41 26.02.2020
2271 Clouds -13 1007 60 0 4.1 60 10:22 26.02.2020
2272 Clouds -13 1007 60 0 6.2 30 09:56 26.02.2020
2273 Clouds -12 1007 60 0 6.2 30 09:38 26.02.2020
2274 Clouds -12 1007 60 0 6.2 30 09:18 26.02.2020
2275 Clouds -12 1007 78 0 6.7 350 08:38 26.02.2020
2276 Clouds -12 1007 78 0 6.7 350 08:19 26.02.2020
2277 Clouds -12 1007 85 0 6.7 10 07:50 26.02.2020
2278 Clouds -12 1007 85 0 6.7 10 07:29 26.02.2020
2279 Clouds -11 1007 85 0 4.6 20 06:54 26.02.2020
2280 Clouds -11 1007 85 0 4.6 20 06:36 26.02.2020
2281 Clouds -11 1007 85 0 4.6 20 06:18 26.02.2020
2282 Clouds -11 1007 72 0 4.6 40 05:43 26.02.2020
2283 Clouds -11 1008 72 0 5.1 60 04:49 26.02.2020
2284 Clouds -11 1008 61 10000 5.1 80 02:54 26.02.2020
2285 Clouds -11 1008 66 10000 5.7 80 01:51 26.02.2020
2286 Clouds -11 1008 66 10000 5.7 80 01:21 26.02.2020
2287 Clouds -11 1009 56 10000 5.1 80 00:28 26.02.2020
2288 Clouds -11 1009 56 10000 5.1 80 00:28 26.02.2020
2289 Clouds -11 1009 61 10000 4.1 80 23:59 25.02.2020
2290 Clouds -11 1009 61 10000 4.1 80 23:39 25.02.2020
2291 Clouds -11 1009 61 10000 4.1 80 23:21 25.02.2020
2292 Rain -11 1009 61 10000 5.1 110 22:43 25.02.2020
2293 Rain -11 1009 61 10000 5.1 110 22:20 25.02.2020
2294 Rain -11 1009 61 10000 7.2 110 21:58 25.02.2020
2295 Rain -11 1009 61 10000 7.2 110 21:37 25.02.2020
2296 Rain -11 1009 61 10000 7.2 110 21:19 25.02.2020
2297 Rain -10 1010 61 10000 7.2 110 20:56 25.02.2020
2298 Rain -10 1010 61 10000 7.2 110 20:37 25.02.2020
2299 Rain -10 1010 61 10000 7.2 110 20:19 25.02.2020
2300 Snow -9 1010 61 10000 3.6 100 19:43 25.02.2020
2301 Snow -9 1010 61 10000 3.6 100 19:22 25.02.2020
2302 Snow -10 1010 72 4200 5.7 100 18:58 25.02.2020
2303 Snow -10 1010 72 4200 5.7 100 18:39 25.02.2020
2304 Snow -10 1010 72 4200 5.7 100 18:20 25.02.2020
2305 Clouds -8 1011 52 10000 5.7 90 17:55 25.02.2020
2306 Clouds -8 1011 52 10000 5.7 90 17:36 25.02.2020
2307 Clouds -8 1011 52 10000 5.7 90 17:18 25.02.2020
2308 Clouds -8 1011 57 10000 5.1 70 16:55 25.02.2020
2309 Clouds -8 1011 57 10000 5.1 70 16:36 25.02.2020
2310 Clouds -8 1011 57 10000 5.1 70 16:18 25.02.2020
2311 Clouds -10 1012 56 10000 5.7 80 15:44 25.02.2020
2312 Clouds -10 1012 56 10000 5.7 80 15:20 25.02.2020
2313 Clouds -10 1012 61 10000 6.2 90 14:58 25.02.2020
2314 Clouds -11 1012 61 10000 6.2 90 14:39 25.02.2020
2315 Clouds -11 1012 61 10000 6.2 90 14:18 25.02.2020
2316 Clouds -12 1012 60 10000 6.7 90 13:58 25.02.2020
2317 Clouds -12 1012 60 10000 6.7 90 13:39 25.02.2020
2318 Clouds -12 1012 60 10000 6.7 90 13:20 25.02.2020
2319 Clouds -12 1012 60 10000 4.6 80 12:56 25.02.2020
2320 Clouds -12 1012 60 10000 4.6 80 12:37 25.02.2020
2321 Clouds -12 1012 60 10000 4.6 80 12:19 25.02.2020
2322 Clouds -13 1013 71 10000 5.7 80 11:55 25.02.2020
2323 Clouds -13 1013 71 10000 5.7 80 11:37 25.02.2020
2324 Clouds -13 1013 71 10000 5.7 80 11:18 25.02.2020
2325 Snow -13 1013 65 0 4.1 80 10:41 25.02.2020
2326 Snow -13 1013 65 0 4.1 80 10:41 25.02.2020
2327 Snow -13 1013 65 0 4.1 80 10:23 25.02.2020
2328 Snow -13 1013 65 0 2.6 100 09:42 25.02.2020
2329 Snow -13 1013 65 0 2.6 100 09:23 25.02.2020
2330 Snow -13 1014 78 0 2.6 80 08:58 25.02.2020
2331 Snow -13 1014 78 0 2.6 80 08:39 25.02.2020
2332 Snow -13 1014 78 0 2.6 80 08:21 25.02.2020
2333 Snow -12 1014 78 0 3.1 70 07:48 25.02.2020
2334 Snow -12 1014 78 0 3.1 70 07:21 25.02.2020
2335 Snow -13 1014 84 0 2.1 70 06:51 25.02.2020
2336 Snow -13 1014 84 0 2.1 70 06:51 25.02.2020
2337 Snow -13 1014 71 0 0.88 188 05:41 25.02.2020
2338 Snow -12 1014 72 0 3.6 280 03:54 25.02.2020
2339 Snow -12 1013 66 0 4.6 280 02:31 25.02.2020
2340 Snow -12 1012 72 0 5.1 280 00:57 25.02.2020
2341 Snow -12 1012 72 0 5.1 280 00:30 25.02.2020
2342 Snow -12 1011 72 8000 4.6 270 23:46 24.02.2020
2343 Snow -12 1011 72 8000 4.6 270 23:28 24.02.2020
2344 Rain -12 1010 72 10000 3.6 280 22:56 24.02.2020
2345 Rain -12 1010 72 10000 3.6 280 22:36 24.02.2020
2346 Rain -12 1010 72 10000 3.6 280 22:18 24.02.2020
2347 Snow -11 1009 72 10000 5.7 280 21:54 24.02.2020
2348 Snow -11 1009 72 10000 5.7 280 21:36 24.02.2020
2349 Snow -11 1009 72 10000 5.7 280 21:18 24.02.2020
2350 Snow -11 1008 78 8000 6.7 280 20:41 24.02.2020
2351 Snow -11 1008 78 8000 6.7 280 20:20 24.02.2020
2352 Snow -10 1007 72 10000 7.2 290 19:59 24.02.2020
2353 Snow -10 1007 72 10000 7.2 290 19:40 24.02.2020
2354 Snow -10 1007 72 10000 7.2 290 19:22 24.02.2020
2355 Clouds -9 1006 66 10000 6.2 290 18:58 24.02.2020
2356 Clouds -9 1006 66 10000 6.2 290 18:39 24.02.2020
2357 Clouds -9 1006 66 10000 6.2 290 18:21 24.02.2020
2358 Clouds -9 1005 66 10000 7.2 300 17:42 24.02.2020
2359 -273 0 0 0 0 0 17:21 24.02.2020
2360 -273 0 0 0 0 0 17:21 24.02.2020
2361 Clouds -9 1004 72 10000 7.2 300 16:59 24.02.2020
2362 Clouds -9 1004 72 10000 7.2 300 16:40 24.02.2020
2363 Clouds -9 1004 72 10000 7.2 300 16:21 24.02.2020
2364 Clouds -9 1004 72 10000 7.2 300 16:21 24.02.2020
2365 Snow -10 1003 92 2600 7.2 300 15:59 24.02.2020
2366 Snow -10 1003 92 2600 7.2 300 15:40 24.02.2020
2367 Snow -10 1003 92 2600 7.2 300 15:21 24.02.2020
2368 Snow -10 1002 92 5000 7.2 320 14:59 24.02.2020
2369 Snow -10 1002 92 5000 7.2 320 14:40 24.02.2020
2370 Snow -10 1002 92 5000 7.2 320 14:19 24.02.2020
2371 Snow -10 1001 92 400 6.7 310 13:57 24.02.2020
2372 Snow -10 1001 92 400 6.7 310 13:37 24.02.2020
2373 Snow -10 1001 92 400 6.7 310 13:19 24.02.2020
2374 Rain -10 1000 92 100 6.2 260 12:56 24.02.2020
2375 Rain -10 1000 92 100 6.2 260 12:38 24.02.2020
2376 Rain -10 1000 92 100 6.2 260 12:19 24.02.2020
2377 Clouds -10 998 66 10000 4.6 180 11:44 24.02.2020
2378 Clouds -10 998 66 10000 4.6 180 11:26 24.02.2020
2379 Clouds -9 997 66 10000 5.7 160 10:45 24.02.2020
2380 Clouds -9 997 66 10000 5.7 160 10:26 24.02.2020
2381 Clouds -10 997 61 0 5.1 160 09:54 24.02.2020
2382 Clouds -10 997 61 0 5.1 160 09:36 24.02.2020
2383 Clouds -10 997 61 0 5.1 160 09:18 24.02.2020
2384 Clouds -10 996 61 0 5.1 160 08:45 24.02.2020
2385 Clouds -10 996 61 0 5.1 160 08:27 24.02.2020
2386 Snow -10 995 61 0 5.7 200 07:45 24.02.2020
2387 Snow -10 995 61 0 5.7 200 07:27 24.02.2020
2388 Snow -10 995 47 0 4.6 200 06:36 24.02.2020
2389 Snow -10 995 47 0 4.6 200 06:18 24.02.2020
2390 Snow -11 995 47 0 2.1 230 05:29 24.02.2020
2391 Snow -9 995 43 0 3.1 280 04:25 24.02.2020
2392 Snow -9 994 66 0 5.7 290 02:55 24.02.2020
2393 Snow -9 994 78 0 1.5 0 01:46 24.02.2020
2394 Snow -9 993 72 0 4.6 300 00:59 24.02.2020
2395 Snow -9 993 72 0 4.6 300 00:28 24.02.2020
2396 Snow -9 993 78 0 3.6 280 23:59 23.02.2020
2397 Snow -9 993 78 0 3.6 280 23:41 23.02.2020
2398 Snow -9 993 78 0 3.6 280 23:20 23.02.2020
2399 Snow -9 992 85 0 5.1 300 22:57 23.02.2020
2400 Snow -9 992 85 0 5.1 300 22:39 23.02.2020
2401 Snow -9 992 85 0 5.1 300 22:19 23.02.2020
2402 Snow -9 992 92 0 6.7 290 21:45 23.02.2020
2403 Snow -9 992 92 0 6.7 290 21:20 23.02.2020
2404 Snow -8 990 85 0 4.1 300 20:57 23.02.2020
2405 Snow -8 990 85 0 4.1 300 20:39 23.02.2020
2406 Snow -8 990 85 0 4.1 300 20:20 23.02.2020
2407 Snow -8 989 79 0 6.7 150 19:57 23.02.2020
2408 Snow -7 989 79 0 6.7 150 19:38 23.02.2020
2409 Snow -7 989 79 0 6.7 150 19:18 23.02.2020
2410 Snow -7 989 79 0 6.7 150 19:18 23.02.2020
2411 Snow -7 989 79 0 1.5 0 18:56 23.02.2020
2412 Snow -7 989 79 0 1.5 0 18:37 23.02.2020
2413 Snow -7 989 79 0 1.5 0 18:18 23.02.2020
2414 Snow -7 989 79 0 0.5 120 17:56 23.02.2020
2415 Snow -7 989 79 0 0.5 120 17:37 23.02.2020
2416 Snow -7 989 79 0 0.5 120 17:19 23.02.2020
2417 Clouds -7 989 62 0 1 110 16:46 23.02.2020
2418 Clouds -7 989 62 0 1 110 16:27 23.02.2020
2419 Clouds -8 989 67 0 2.1 100 15:58 23.02.2020
2420 Clouds -8 989 67 0 2.1 100 15:38 23.02.2020
2421 Clouds -8 989 67 0 2.1 100 15:20 23.02.2020
2422 Clouds -8 988 61 0 2.1 100 14:57 23.02.2020
2423 Clouds -8 988 61 0 2.1 100 14:38 23.02.2020
2424 Snow -8 988 61 0 2.1 100 14:20 23.02.2020
2425 Snow -9 988 72 0 1.5 120 13:57 23.02.2020
2426 Snow -9 988 72 0 1.5 120 13:38 23.02.2020
2427 Snow -9 988 72 0 1.5 120 13:20 23.02.2020
2428 Snow -9 987 72 0 2.1 60 12:42 23.02.2020
2429 Snow -9 987 72 0 2.1 60 12:21 23.02.2020
2430 Snow -9 987 78 0 3.1 80 11:56 23.02.2020
2431 Snow -9 987 78 0 3.1 80 11:37 23.02.2020
2432 Snow -9 987 78 0 3.1 80 11:18 23.02.2020
2433 Snow -9 986 85 0 3.6 10 10:42 23.02.2020
2434 Snow -9 986 85 0 3.6 10 10:24 23.02.2020
2435 Snow -10 986 92 0 6.2 330 10:00 23.02.2020
2436 Snow -10 986 92 0 6.2 330 09:39 23.02.2020
2437 Snow -10 986 92 0 6.2 330 09:21 23.02.2020
2438 Snow -9 985 92 0 4.6 360 08:56 23.02.2020
2439 Snow -9 985 92 0 4.6 360 08:36 23.02.2020
2440 Snow -9 985 92 0 4.6 360 08:18 23.02.2020
2441 Snow -8 985 92 0 4.6 60 07:40 23.02.2020
2442 Snow -8 985 85 0 6.2 70 06:39 23.02.2020
2443 Snow -9 986 85 0 7.7 80 05:48 23.02.2020
2444 Snow -9 986 72 0 8.2 80 04:42 23.02.2020
2445 Snow -9 986 72 0 8.2 80 04:42 23.02.2020
2446 Clouds -9 987 66 0 7.7 80 03:21 23.02.2020
2447 Clouds -9 988 61 0 7.7 80 02:27 23.02.2020
2448 Snow -9 989 66 0 3.1 90 01:25 23.02.2020
2449 Snow -10 990 72 0 5.7 90 00:48 23.02.2020
2450 Snow -10 990 72 0 5.7 90 00:26 23.02.2020
2451 Rain -10 990 72 10000 5.1 110 23:47 22.02.2020
2452 Rain -10 990 72 10000 5.1 110 23:29 22.02.2020
2453 Rain -10 990 72 7000 7.2 110 22:59 22.02.2020
2454 Rain -10 990 72 7000 7.2 110 22:39 22.02.2020
2455 Rain -10 990 72 7000 7.2 110 22:18 22.02.2020
2456 Snow -10 991 72 5000 6.2 120 21:41 22.02.2020
2457 Snow -10 991 72 5000 6.2 120 21:23 22.02.2020
2458 Snow -10 991 72 10000 5.1 110 20:46 22.02.2020
2459 Snow -10 991 72 10000 5.1 110 20:46 22.02.2020
2460 Snow -10 991 72 10000 5.1 110 20:24 22.02.2020
2461 Rain -9 992 61 10000 0.5 0 19:58 22.02.2020
2462 Rain -9 992 61 10000 0.5 0 19:39 22.02.2020
2463 Rain -9 992 61 10000 0.5 0 19:20 22.02.2020
2464 Snow -9 992 61 10000 2.6 100 18:40 22.02.2020
2465 Snow -9 992 61 10000 2.6 100 18:22 22.02.2020
2466 Rain -10 992 66 10000 3.1 100 17:58 22.02.2020
2467 Rain -10 992 66 10000 3.1 100 17:39 22.02.2020
2468 Rain -9 993 61 10000 3.1 100 17:21 22.02.2020
2469 Snow -9 993 61 10000 1 60 16:57 22.02.2020
2470 Snow -9 993 61 10000 1 60 16:39 22.02.2020
2471 Snow -9 993 61 10000 1 60 16:20 22.02.2020
2472 Rain -10 993 72 10000 1.5 80 15:44 22.02.2020
2473 Rain -10 993 72 10000 1.5 80 15:25 22.02.2020
2474 Snow -11 993 78 10000 2.6 60 14:55 22.02.2020
2475 Snow -11 993 78 10000 2.6 60 14:37 22.02.2020
2476 Snow -11 993 78 10000 2.6 60 14:18 22.02.2020
2477 Snow -12 993 78 8000 1.5 80 13:41 22.02.2020
2478 Snow -12 993 78 8000 1.5 80 13:19 22.02.2020
2479 Snow -13 993 84 6000 1.5 100 12:46 22.02.2020
2480 Snow -13 993 84 6000 1.5 100 12:24 22.02.2020
2481 Snow -12 993 78 0 1 170 11:56 22.02.2020
2482 Snow -12 993 78 0 1 170 11:36 22.02.2020
2483 Snow -12 993 78 0 1 170 11:18 22.02.2020
2484 Snow -12 993 72 0 3.1 260 10:40 22.02.2020
2485 Snow -12 993 72 0 3.1 260 10:20 22.02.2020
2486 Snow -11 993 72 0 4.1 250 09:59 22.02.2020
2487 Snow -11 993 72 0 4.1 250 09:39 22.02.2020
2488 Snow -11 993 72 0 4.1 250 09:21 22.02.2020
2489 Snow -11 993 85 0 6.21 265 08:50 22.02.2020
2490 Snow -11 993 85 0 6.21 265 08:28 22.02.2020
2491 Snow -11 992 85 0 3.6 300 07:52 22.02.2020
2492 Snow -11 992 85 0 3.6 300 07:20 22.02.2020
2493 Snow -11 992 92 0 3.6 310 06:50 22.02.2020
2494 Snow -11 992 92 0 3.6 310 06:32 22.02.2020
2495 Snow -10 991 85 0 5.1 290 04:38 22.02.2020
2496 Clouds -9 990 78 0 4.1 300 03:33 22.02.2020
2497 Snow -10 990 85 0 1 230 02:33 22.02.2020
2498 Clouds -10 989 72 0 0.32 140 01:46 22.02.2020
2499 Clouds -10 989 72 0 0.32 140 01:27 22.02.2020
2500 Clouds -10 989 72 10000 1 320 00:45 22.02.2020
2501 Clouds -10 989 72 10000 1 320 00:27 22.02.2020
2502 Snow -10 989 72 10000 2.1 60 23:48 21.02.2020
2503 Snow -10 989 72 10000 2.1 60 23:24 21.02.2020
2504 Clouds -10 988 72 10000 4.1 20 22:57 21.02.2020
2505 Clouds -10 988 72 10000 4.1 20 22:39 21.02.2020
2506 Clouds -10 988 72 10000 4.1 20 22:20 21.02.2020
2507 Clouds -10 987 72 10000 4.1 10 21:42 21.02.2020
2508 Clouds -10 987 72 10000 4.1 10 21:42 21.02.2020
2509 Clouds -10 987 72 10000 4.1 10 21:24 21.02.2020
2510 Clouds -10 987 72 10000 4.1 10 21:24 21.02.2020
2511 Clouds -11 987 72 10000 3.1 40 20:50 21.02.2020
2512 Clouds -11 987 72 10000 3.1 40 20:31 21.02.2020
2513 Clouds -9 986 61 10000 3.1 30 19:59 21.02.2020
2514 Clouds -9 986 61 10000 3.1 30 19:59 21.02.2020
2515 Clouds -9 986 61 10000 3.1 30 19:38 21.02.2020
2516 Clouds -9 986 61 10000 3.1 30 19:18 21.02.2020
2517 Clouds -9 986 56 10000 3.6 60 18:40 21.02.2020
2518 Clouds -9 986 56 10000 3.6 60 18:22 21.02.2020
2519 Clouds -10 986 61 10000 3.1 360 17:55 21.02.2020
2520 Clouds -10 986 61 10000 3.1 360 17:36 21.02.2020
2521 Clouds -10 986 61 10000 3.1 360 17:18 21.02.2020
2522 Clouds -10 985 66 10000 4.1 10 16:41 21.02.2020
2523 Clouds -10 985 66 10000 4.1 10 16:21 21.02.2020
2524 Clouds -10 984 72 10000 3.6 360 15:57 21.02.2020
2525 Clouds -10 984 72 10000 3.6 360 15:38 21.02.2020
2526 Clouds -10 984 72 10000 3.6 360 15:18 21.02.2020
2527 Clouds -11 984 66 10000 5.1 10 14:42 21.02.2020
2528 Clouds -11 984 66 10000 5.1 10 14:21 21.02.2020
2529 Clouds -11 983 72 10000 5.1 10 13:45 21.02.2020
2530 Clouds -11 983 72 10000 5.1 10 13:24 21.02.2020
2531 Clouds -11 983 78 10000 4.6 360 12:59 21.02.2020
2532 Clouds -11 983 78 10000 4.6 360 12:40 21.02.2020
2533 Clouds -11 983 78 10000 4.6 360 12:22 21.02.2020
2534 Clouds -11 982 78 10000 5.1 360 11:55 21.02.2020
2535 Clouds -11 982 78 10000 5.1 360 11:36 21.02.2020
2536 Clouds -11 982 78 10000 5.1 360 11:18 21.02.2020
2537 Clouds -11 982 85 10000 4.6 360 10:41 21.02.2020
2538 Clouds -11 982 85 10000 4.6 360 10:20 21.02.2020
2539 Clouds -12 981 85 0 3.6 50 09:58 21.02.2020
2540 Clouds -12 981 85 0 3.6 50 09:38 21.02.2020
2541 Clouds -12 981 85 0 3.6 50 09:20 21.02.2020
2542 Clouds -13 981 84 0 3.6 60 08:45 21.02.2020
2543 Clouds -13 981 84 0 3.6 60 08:23 21.02.2020
2544 Clouds -13 980 78 0 3.6 70 07:59 21.02.2020
2545 Clouds -13 980 78 0 3.6 70 07:41 21.02.2020
2546 Clouds -13 980 78 0 3.6 70 07:20 21.02.2020
2547 Clouds -13 980 78 0 4.6 60 06:55 21.02.2020
2548 Clouds -12 980 78 0 4.6 60 06:31 21.02.2020
2549 Clouds -12 980 66 0 5.7 80 05:55 21.02.2020
2550 Clouds -13 980 84 0 4.6 70 04:50 21.02.2020
2551 Clouds -13 980 84 0 4.6 70 04:25 21.02.2020
2552 Clouds -12 980 78 10000 4.6 70 03:46 21.02.2020
2553 Clouds -13 979 84 10000 4.6 70 02:58 21.02.2020
2554 Clouds -13 979 78 10000 4.6 80 01:32 21.02.2020
2555 Clouds -14 979 77 10000 3.1 70 00:46 21.02.2020
2556 Clouds -14 979 77 10000 3.1 70 00:24 21.02.2020
2557 Clouds -14 979 71 10000 3.1 70 23:58 20.02.2020
2558 Clouds -14 979 71 10000 3.1 70 23:39 20.02.2020
2559 Clouds -14 979 71 10000 3.1 70 23:21 20.02.2020
2560 Clouds -14 979 77 10000 4.1 90 22:40 20.02.2020
2561 Clouds -14 979 77 10000 4.1 90 22:21 20.02.2020
2562 Clouds -14 978 78 10000 3.6 70 21:57 20.02.2020
2563 Clouds -13 978 78 10000 3.6 70 21:39 20.02.2020
2564 Clouds -13 978 78 10000 3.6 70 21:39 20.02.2020
2565 Clouds -13 978 78 10000 3.6 70 21:19 20.02.2020
2566 Clouds -13 978 78 10000 3.6 70 21:19 20.02.2020
2567 Clouds -13 978 71 10000 4.1 60 20:56 20.02.2020
2568 Clouds -13 978 71 10000 4.1 60 20:38 20.02.2020
2569 Clouds -13 978 71 10000 4.1 60 20:19 20.02.2020
2570 Clouds -13 978 71 10000 4.1 60 20:19 20.02.2020
2571 Clouds -12 978 72 10000 4.6 70 19:58 20.02.2020
2572 Clouds -12 978 72 10000 4.6 70 19:40 20.02.2020
2573 Clouds -12 978 72 10000 4.6 70 19:22 20.02.2020
2574 Clouds -11 978 66 10000 4.1 50 18:55 20.02.2020
2575 Clouds -11 978 66 10000 4.1 50 18:36 20.02.2020
2576 Clouds -10 979 61 10000 3.6 20 18:18 20.02.2020
2577 Clouds -10 979 61 10000 3.6 20 17:39 20.02.2020
2578 Clouds -10 979 61 10000 3.6 20 17:19 20.02.2020
2579 Clouds -11 979 72 10000 5.7 30 16:56 20.02.2020
2580 Clouds -11 979 72 10000 5.7 30 16:38 20.02.2020
2581 Clouds -11 979 72 10000 5.7 30 16:19 20.02.2020
2582 Clouds -12 980 72 10000 5.7 30 15:43 20.02.2020
2583 Clouds -12 980 72 10000 5.7 30 15:24 20.02.2020
2584 Clouds -12 981 72 10000 5.7 10 14:59 20.02.2020
2585 Clouds -12 981 72 10000 5.7 10 14:41 20.02.2020
2586 Clouds -12 981 72 10000 5.7 10 14:22 20.02.2020
2587 Clouds -12 981 72 10000 5.7 10 14:22 20.02.2020
2588 Clouds -13 982 84 10000 7.2 20 13:56 20.02.2020
2589 Clouds -13 982 84 10000 7.2 20 13:38 20.02.2020
2590 Clouds -13 982 84 10000 7.2 20 13:19 20.02.2020
2591 Clouds -13 983 84 10000 8.2 20 12:42 20.02.2020
2592 Clouds -13 983 84 10000 8.2 20 12:21 20.02.2020
2593 Clouds -13 984 78 10000 7.2 30 11:58 20.02.2020
2594 Clouds -13 984 78 10000 7.2 30 11:39 20.02.2020
2595 Clouds -13 984 78 10000 7.2 30 11:21 20.02.2020
2596 Clouds -13 985 78 0 6.7 20 10:56 20.02.2020
2597 Clouds -13 985 78 0 6.7 20 10:38 20.02.2020
2598 Clouds -13 985 78 0 6.7 20 10:19 20.02.2020
2599 Clouds -13 986 71 0 7.2 30 09:39 20.02.2020
2600 Clouds -13 986 71 0 7.2 30 09:39 20.02.2020
2601 Clouds -13 986 71 0 7.2 30 09:21 20.02.2020
2602 Clouds -13 988 78 0 7.2 20 08:44 20.02.2020
2603 Clouds -13 988 78 0 7.2 20 08:24 20.02.2020
2604 Clouds -13 989 78 0 6.7 20 07:56 20.02.2020
2605 Clouds -13 989 78 0 6.7 20 07:38 20.02.2020
2606 Clouds -13 989 78 0 6.7 20 07:19 20.02.2020
2607 Clouds -13 991 78 0 7.7 20 06:43 20.02.2020
2608 Clouds -13 991 78 0 7.7 20 06:19 20.02.2020
2609 Clouds -13 992 71 0 6.7 40 05:42 20.02.2020
2610 Clouds -13 993 78 0 8.2 40 04:49 20.02.2020
2611 Clouds -13 994 71 0 6.7 40 03:47 20.02.2020
2612 Clouds -12 996 66 0 5.7 40 02:48 20.02.2020
2613 Clouds -12 997 66 0 6.2 70 01:34 20.02.2020
2614 Clouds -11 998 66 10000 5.1 20 00:54 20.02.2020
2615 Clouds -11 998 66 10000 5.1 20 00:25 20.02.2020
2616 Clouds -11 999 61 10000 4.6 20 23:48 19.02.2020
2617 Clouds -11 999 61 10000 4.6 20 23:21 19.02.2020
2618 Clouds -11 1000 72 10000 5.7 340 22:44 19.02.2020
2619 Clouds -11 1000 72 10000 5.7 340 22:25 19.02.2020
2620 Clouds -11 1000 72 10000 5.1 340 21:59 19.02.2020
2621 Clouds -11 1000 72 10000 5.1 340 21:40 19.02.2020
2622 Clouds -11 1000 72 10000 5.1 340 21:19 19.02.2020
2623 Clouds -11 1001 72 10000 4.6 340 20:58 19.02.2020
2624 Clouds -11 1001 72 10000 4.6 340 20:39 19.02.2020
2625 Clouds -11 1001 72 10000 4.6 340 20:20 19.02.2020
2626 Clouds -11 1001 66 10000 3.6 360 19:58 19.02.2020
2627 Clouds -11 1001 66 10000 3.6 360 19:38 19.02.2020
2628 Clouds -11 1001 66 10000 3.6 360 19:38 19.02.2020
2629 Clouds -11 1001 66 10000 3.6 360 19:20 19.02.2020
2630 Clouds -11 1001 78 10000 5.1 350 18:58 19.02.2020
2631 Clouds -11 1001 78 10000 5.1 350 18:40 19.02.2020
2632 Clouds -11 1001 78 10000 5.1 350 18:22 19.02.2020
2633 Clouds -11 1002 72 10000 4.6 350 17:57 19.02.2020
2634 Clouds -11 1002 72 10000 4.6 350 17:39 19.02.2020
2635 Clouds -11 1002 72 10000 4.6 350 17:18 19.02.2020
2636 Clouds -11 1002 72 10000 4.6 350 16:43 19.02.2020
2637 Clouds -11 1002 72 10000 4.6 350 16:43 19.02.2020
2638 Clouds -11 1002 72 10000 4.6 350 16:19 19.02.2020
2639 Clouds -11 1002 72 10000 3.1 360 15:57 19.02.2020
2640 Clouds -11 1002 72 10000 3.1 360 15:38 19.02.2020
2641 Clouds -11 1002 72 10000 3.1 360 15:19 19.02.2020
2642 Rain -11 1002 66 10000 3.6 360 14:41 19.02.2020
2643 Rain -11 1002 66 10000 3.6 360 14:23 19.02.2020
2644 Snow -12 1002 78 10000 3.1 350 13:55 19.02.2020
2645 Snow -12 1002 78 10000 3.1 350 13:36 19.02.2020
2646 Snow -12 1002 78 10000 3.1 350 13:18 19.02.2020
2647 Snow -12 1002 78 8000 3.1 350 12:38 19.02.2020
2648 Snow -12 1002 78 8000 3.1 350 12:19 19.02.2020
2649 Snow -12 1002 78 8000 3.1 350 12:19 19.02.2020
2650 Snow -11 1001 72 0 3.1 350 11:54 19.02.2020
2651 Snow -11 1001 72 0 3.1 350 11:36 19.02.2020
2652 Snow -11 1001 72 0 3.1 350 11:18 19.02.2020
2653 Snow -11 1001 72 0 3.1 10 10:54 19.02.2020
2654 Snow -11 1001 72 0 3.1 10 10:36 19.02.2020
2655 Snow -11 1001 72 0 3.1 10 10:18 19.02.2020
2656 Snow -11 1001 72 0 3.1 10 10:18 19.02.2020
2657 Snow -11 1001 72 0 4.1 10 09:41 19.02.2020
2658 Snow -11 1001 72 0 4.1 10 09:20 19.02.2020
2659 Snow -12 1001 78 0 4.6 330 08:55 19.02.2020
2660 Snow -12 1001 78 0 4.6 330 08:37 19.02.2020
2661 Snow -12 1001 78 0 4.6 330 08:18 19.02.2020
2662 Snow -11 1000 72 0 5.1 350 07:40 19.02.2020
2663 Snow -11 1000 72 0 5.1 350 07:20 19.02.2020
2664 Snow -11 1000 61 0 4.6 350 06:46 19.02.2020
2665 Snow -11 999 72 0 6.2 350 05:32 19.02.2020
2666 Clouds -11 999 78 0 5.7 10 03:53 19.02.2020
2667 Snow -11 999 78 10000 5.1 350 02:45 19.02.2020
2668 Snow -11 999 78 10000 4.1 30 01:53 19.02.2020
2669 Snow -11 999 78 10000 4.1 30 01:23 19.02.2020
2670 Clouds -11 1000 78 10000 4.1 20 00:42 19.02.2020
2671 Clouds -11 1000 78 10000 4.1 20 00:22 19.02.2020
2672 Clouds -11 1000 78 10000 5.7 360 23:41 18.02.2020
2673 Clouds -11 1000 78 10000 5.7 360 23:20 18.02.2020
2674 Snow -11 1000 78 10000 6.2 360 22:55 18.02.2020
2675 Snow -11 1000 78 10000 6.2 360 22:37 18.02.2020
2676 Snow -11 1000 78 10000 6.2 360 22:19 18.02.2020
2677 Snow -11 1000 85 10000 5.7 360 21:55 18.02.2020
2678 Snow -11 1000 85 10000 5.7 360 21:36 18.02.2020
2679 Snow -11 1000 85 10000 5.7 360 21:18 18.02.2020
2680 Snow -10 1000 78 3300 5.1 360 20:54 18.02.2020
2681 Snow -10 1000 78 3300 5.1 360 20:36 18.02.2020
2682 Snow -10 1000 78 3300 5.1 360 20:18 18.02.2020
2683 Snow -10 1000 78 3300 5.1 360 20:18 18.02.2020
2684 Snow -10 999 72 10000 5.1 10 19:42 18.02.2020
2685 Snow -10 999 72 10000 5.1 10 19:19 18.02.2020
2686 Snow -10 999 78 10000 6.7 350 18:58 18.02.2020
2687 Snow -9 999 78 10000 6.7 350 18:40 18.02.2020
2688 Snow -9 999 78 10000 6.7 350 18:19 18.02.2020
2689 Rain -9 999 72 10000 6.2 360 17:42 18.02.2020
2690 Rain -9 999 72 10000 6.2 360 17:20 18.02.2020
2691 Clouds -10 999 78 10000 4.6 360 16:41 18.02.2020
2692 Clouds -10 999 78 10000 4.6 360 16:22 18.02.2020
2693 Clouds -10 1000 85 10000 4.1 350 15:58 18.02.2020
2694 Clouds -10 1000 85 10000 4.1 350 15:39 18.02.2020
2695 Clouds -10 1000 85 10000 4.1 350 15:19 18.02.2020
2696 Snow -9 1000 85 10000 5.1 360 14:56 18.02.2020
2697 Snow -9 1000 85 10000 5.1 360 14:38 18.02.2020
2698 Snow -9 1000 85 10000 5.1 360 14:19 18.02.2020
2699 Snow -10 999 85 3500 2.6 80 13:41 18.02.2020
2700 Snow -10 999 85 3500 2.6 80 13:22 18.02.2020
2701 Snow -10 999 85 3500 2.6 80 13:22 18.02.2020
2702 Snow -10 999 78 10000 1.5 70 12:56 18.02.2020
2703 Snow -10 999 78 10000 1.5 70 12:38 18.02.2020
2704 Snow -10 999 78 10000 1.5 70 12:19 18.02.2020
2705 Snow -10 999 78 10000 1.5 180 11:43 18.02.2020
2706 Snow -10 999 78 10000 1.5 180 11:43 18.02.2020
2707 Snow -10 999 78 10000 1.5 180 11:25 18.02.2020
2708 Snow -10 999 78 0 1 140 10:57 18.02.2020
2709 Snow -10 999 78 0 1 140 10:38 18.02.2020
2710 Snow -10 999 78 0 1 140 10:18 18.02.2020
2711 Clouds -10 999 78 0 2.6 90 09:56 18.02.2020
2712 Clouds -10 999 78 0 2.6 90 09:37 18.02.2020
2713 Clouds -10 999 78 0 2.6 90 09:18 18.02.2020
2714 Snow -10 999 78 0 2.6 70 08:43 18.02.2020
2715 Snow -10 999 78 0 2.6 70 08:21 18.02.2020
2716 Snow -10 999 72 0 3.1 60 07:56 18.02.2020
2717 Snow -10 999 72 0 3.1 60 07:32 18.02.2020
2718 Clouds -10 999 72 0 4.6 80 06:57 18.02.2020
2719 Clouds -10 999 72 0 4.6 80 06:39 18.02.2020
2720 Clouds -10 999 72 0 4.6 80 06:19 18.02.2020
2721 Clouds -9 999 66 0 4.1 80 05:33 18.02.2020
2722 Clouds -10 999 72 0 7.2 90 04:26 18.02.2020
2723 Clouds -10 999 78 0 5.7 20 03:31 18.02.2020
2724 Clouds -10 998 66 0 6.2 80 01:59 18.02.2020
2725 Clouds -11 998 72 0 7.2 70 00:56 18.02.2020
2726 Clouds -11 998 72 0 7.2 70 00:22 18.02.2020
2727 Clouds -11 997 72 10000 8.7 80 23:56 17.02.2020
2728 Clouds -11 997 72 10000 8.7 80 23:37 17.02.2020
2729 Clouds -11 997 72 10000 8.7 80 23:19 17.02.2020
2730 Clouds -11 997 72 10000 7.7 80 22:41 17.02.2020
2731 Clouds -11 997 72 10000 7.7 80 22:21 17.02.2020
2732 Clouds -11 996 72 10000 7.2 80 21:59 17.02.2020
2733 Clouds -11 996 72 10000 7.2 80 21:38 17.02.2020
2734 Clouds -11 996 72 10000 7.2 80 21:18 17.02.2020
2735 Clouds -10 995 72 10000 7.2 70 20:42 17.02.2020
2736 Clouds -10 995 72 10000 7.2 70 20:21 17.02.2020
2737 Clouds -10 995 72 10000 7.2 70 20:21 17.02.2020
2738 Clouds -10 995 72 10000 7.2 80 19:58 17.02.2020
2739 Clouds -10 995 72 10000 7.2 80 19:39 17.02.2020
2740 Clouds -10 995 72 10000 7.2 80 19:20 17.02.2020
2741 Clouds -9 994 61 10000 6.7 80 18:38 17.02.2020
2742 Clouds -9 994 61 10000 6.7 80 18:38 17.02.2020
2743 Clouds -9 994 61 10000 6.7 80 18:20 17.02.2020
2744 Clouds -9 994 61 10000 5.1 70 17:58 17.02.2020
2745 Clouds -9 994 61 10000 5.1 70 17:58 17.02.2020
2746 Clouds -9 994 61 10000 5.1 70 17:38 17.02.2020
2747 Clouds -9 994 61 10000 5.1 70 17:37 17.02.2020
2748 Clouds -9 994 61 10000 5.1 70 17:19 17.02.2020
2749 Clouds -9 994 61 10000 5.1 70 17:19 17.02.2020
2750 Clouds -10 993 66 10000 6.7 80 16:55 17.02.2020
2751 Clouds -10 993 66 10000 6.7 80 16:37 17.02.2020
2752 Clouds -10 993 66 10000 6.7 80 16:18 17.02.2020
2753 Clouds -10 993 66 10000 7.7 70 15:44 17.02.2020
2754 Clouds -10 993 66 10000 7.7 70 15:44 17.02.2020
2755 Clouds -10 993 66 10000 7.7 70 15:26 17.02.2020
2756 Clouds -11 992 66 10000 7.7 70 14:55 17.02.2020
2757 Clouds -11 992 66 10000 7.7 70 14:37 17.02.2020
2758 Clouds -11 992 66 10000 7.7 70 14:19 17.02.2020
2759 Clouds -11 992 66 10000 7.7 70 14:19 17.02.2020
2760 Clouds -11 992 66 10000 8.2 80 13:40 17.02.2020
2761 Clouds -11 992 66 10000 8.2 80 13:40 17.02.2020
2762 Clouds -11 992 66 10000 8.2 80 13:20 17.02.2020
2763 Clouds -11 992 66 10000 8.2 80 12:57 17.02.2020
2764 Clouds -11 992 66 10000 8.2 80 12:39 17.02.2020
2765 Clouds -11 992 66 10000 8.2 80 12:21 17.02.2020
2766 Clouds -11 991 66 10000 8.7 80 11:46 17.02.2020
2767 Clouds -11 991 66 10000 8.7 80 11:27 17.02.2020
2768 Clouds -11 991 61 10000 8.2 70 10:58 17.02.2020
2769 Clouds -11 991 61 10000 8.2 70 10:39 17.02.2020
2770 Clouds -11 991 61 10000 8.2 70 10:20 17.02.2020
2771 Clouds -11 990 66 0 8.7 80 09:57 17.02.2020
2772 Clouds -11 990 66 0 8.7 80 09:39 17.02.2020
2773 Clouds -11 990 66 0 8.7 80 09:19 17.02.2020
2774 Clouds -11 990 66 0 9.3 80 08:45 17.02.2020
2775 Clear -11 990 66 0 9.3 80 08:23 17.02.2020
2776 Snow -11 990 61 0 8.2 80 07:59 17.02.2020
2777 Snow -11 990 61 0 8.2 80 07:39 17.02.2020
2778 Snow -11 990 61 0 8.2 80 07:21 17.02.2020
2779 Snow -11 990 66 0 8.7 80 06:46 17.02.2020
2780 Snow -11 990 66 0 8.7 80 06:27 17.02.2020
2781 Clouds -11 990 66 0 8.7 80 05:40 17.02.2020
2782 Clouds -11 990 61 0 6.7 80 04:39 17.02.2020
2783 Clouds -11 990 56 0 5.7 100 03:18 17.02.2020
2784 Snow -10 990 61 0 4.6 90 01:25 17.02.2020
2785 Snow -10 990 56 0 3.6 100 00:39 17.02.2020
2786 Snow -10 990 56 0 3.6 100 00:39 17.02.2020
2787 Snow -10 990 56 0 3.6 100 00:19 17.02.2020
2788 Snow -11 990 56 0 3.1 100 23:52 16.02.2020
2789 Snow -11 990 56 0 3.1 100 23:27 16.02.2020
2790 Clouds -11 990 66 0 2.6 100 22:56 16.02.2020
2791 Clouds -11 990 66 0 2.6 100 22:38 16.02.2020
2792 Clouds -11 990 66 0 2.6 100 22:20 16.02.2020
2793 Rain -11 990 72 10000 1.5 100 21:55 16.02.2020
2794 Rain -11 990 72 10000 1.5 100 21:37 16.02.2020
2795 Rain -11 990 72 10000 1.5 100 21:18 16.02.2020
2796 Rain -10 990 66 10000 0.5 170 20:55 16.02.2020
2797 Rain -10 990 66 10000 0.5 170 20:36 16.02.2020
2798 Rain -10 990 66 10000 0.5 170 20:18 16.02.2020
2799 Rain -8 989 61 10000 0.92 230 19:56 16.02.2020
2800 Rain -8 989 61 10000 0.92 230 19:36 16.02.2020
2801 Rain -8 989 61 10000 0.92 230 19:18 16.02.2020
2802 Rain -8 989 57 10000 0.92 230 18:41 16.02.2020
2803 Rain -8 989 57 10000 0.92 230 18:23 16.02.2020
2804 Rain -9 989 61 10000 1.5 140 17:45 16.02.2020
2805 Rain -9 989 61 10000 1.5 140 17:21 16.02.2020
2806 Rain -9 989 61 10000 2.1 100 16:58 16.02.2020
2807 Rain -9 989 61 10000 2.1 100 16:39 16.02.2020
2808 Rain -9 989 61 10000 2.1 100 16:21 16.02.2020
2809 Rain -9 989 61 10000 2.1 100 16:21 16.02.2020
2810 Rain -9 989 61 10000 2.1 100 16:21 16.02.2020
2811 Clouds -9 989 56 10000 0.5 30 15:58 16.02.2020
2812 Clouds -9 989 56 10000 0.5 30 15:38 16.02.2020
2813 Clouds -9 989 56 10000 0.5 30 15:20 16.02.2020
2814 Clouds -10 989 61 10000 2.6 270 14:41 16.02.2020
2815 Clouds -10 989 61 10000 2.6 270 14:23 16.02.2020
2816 Clouds -10 988 66 10000 3.1 280 13:48 16.02.2020
2817 Clouds -10 988 66 10000 3.1 280 13:48 16.02.2020
2818 Clouds -10 988 66 10000 3.1 280 13:25 16.02.2020
2819 Clouds -10 988 66 10000 3.1 280 13:25 16.02.2020
2820 Snow -10 988 72 0 3.1 290 12:58 16.02.2020
2821 Snow -10 988 72 0 3.1 290 12:38 16.02.2020
2822 Snow -10 988 72 0 3.1 290 12:19 16.02.2020
2823 Snow -10 988 72 0 5.1 310 11:40 16.02.2020
2824 Snow -10 988 72 0 5.1 310 11:19 16.02.2020
2825 Snow -10 987 72 0 4.6 300 10:58 16.02.2020
2826 Snow -10 987 72 0 4.6 300 10:58 16.02.2020
2827 Snow -10 987 72 0 4.6 300 10:39 16.02.2020
2828 Snow -10 987 72 0 4.6 300 10:21 16.02.2020
2829 Snow -10 987 72 0 4.6 300 10:21 16.02.2020
2830 Snow -10 987 72 0 3.6 320 09:58 16.02.2020
2831 Snow -10 987 72 0 3.6 320 09:37 16.02.2020
2832 Snow -10 987 72 0 3.6 320 09:37 16.02.2020
2833 Snow -10 987 72 0 3.6 320 09:37 16.02.2020
2834 Snow -10 987 72 0 3.6 320 09:19 16.02.2020
2835 Snow -10 986 85 0 4.1 320 08:49 16.02.2020
2836 Snow -10 986 85 0 4.1 320 08:22 16.02.2020
2837 Snow -10 986 85 0 4.6 330 07:59 16.02.2020
2838 Snow -10 986 85 0 4.6 330 07:39 16.02.2020
2839 Snow -10 985 85 0 6.2 330 06:39 16.02.2020
2840 Snow -10 984 85 0 4.6 300 05:43 16.02.2020
2841 Snow -9 983 85 0 5.7 310 04:35 16.02.2020
2842 Snow -9 983 85 0 5.1 290 03:18 16.02.2020
2843 Snow -9 981 85 0 8.2 300 01:57 16.02.2020
2844 Snow -9 981 85 0 8.2 300 01:37 16.02.2020
2845 Snow -9 981 85 0 8.2 300 01:19 16.02.2020
2846 Snow -8 980 78 10000 7.7 300 00:41 16.02.2020
2847 Snow -8 980 78 10000 7.7 300 00:22 16.02.2020
2848 Snow -8 979 85 4000 7.7 300 23:43 15.02.2020
2849 Snow -8 979 85 4000 7.7 300 23:25 15.02.2020
2850 Snow -8 978 92 5000 9.3 300 22:57 15.02.2020
2851 Snow -8 978 92 5000 9.3 300 22:57 15.02.2020
2852 Snow -8 978 92 5000 9.3 300 22:39 15.02.2020
2853 Snow -8 978 92 5000 9.3 300 22:19 15.02.2020
2854 Clouds -8 977 85 10000 10.8 300 21:55 15.02.2020
2855 Clouds -7 977 85 10000 10.8 300 21:37 15.02.2020
2856 Clouds -7 977 85 10000 10.8 300 21:19 15.02.2020
2857 Snow -7 976 92 10000 9.8 310 20:38 15.02.2020
2858 Snow -7 976 92 10000 9.8 310 20:20 15.02.2020
2859 Snow -6 975 85 10000 9.3 300 19:43 15.02.2020
2860 Snow -6 975 85 10000 9.3 300 19:22 15.02.2020
2861 Snow -6 973 85 10000 9.3 310 18:43 15.02.2020
2862 Snow -6 973 85 10000 9.3 310 18:22 15.02.2020
2863 Clouds -5 972 79 10000 9.3 300 17:57 15.02.2020
2864 Clouds -5 972 79 10000 9.3 300 17:57 15.02.2020
2865 Clouds -5 972 79 10000 9.3 300 17:38 15.02.2020
2866 Clouds -5 972 79 10000 9.3 300 17:19 15.02.2020
2867 Clouds -5 972 85 10000 8.2 310 16:43 15.02.2020
2868 Clouds -5 972 85 10000 8.2 310 16:24 15.02.2020
2869 Clouds -5 972 79 10000 6.7 310 15:58 15.02.2020
2870 Clouds -5 972 79 10000 6.7 310 15:40 15.02.2020
2871 Clouds -5 972 79 10000 6.7 310 15:21 15.02.2020
2872 Clouds -6 971 85 10000 5.1 320 14:44 15.02.2020
2873 Clouds -6 971 85 10000 5.1 320 14:19 15.02.2020
2874 Clouds -6 971 85 10000 3.1 350 13:54 15.02.2020
2875 Clouds -6 971 85 10000 3.1 350 13:36 15.02.2020
2876 Clouds -6 971 85 10000 3.1 350 13:18 15.02.2020
2877 Clouds -6 970 85 10000 7.2 330 12:42 15.02.2020
2878 Clouds -6 970 85 10000 7.2 330 12:23 15.02.2020
2879 Clouds -6 970 92 0 9.3 330 11:49 15.02.2020
2880 Clouds -6 970 92 0 9.3 330 11:31 15.02.2020
2881 Clouds -6 970 85 0 9.8 330 10:57 15.02.2020
2882 Clouds -6 970 85 0 9.8 330 10:38 15.02.2020
2883 Clouds -6 970 85 0 9.8 330 10:19 15.02.2020
2884 Clouds -6 969 85 0 8.2 320 09:43 15.02.2020
2885 Clouds -6 969 85 0 8.2 320 09:25 15.02.2020
2886 Clouds -6 969 85 0 7.2 330 08:45 15.02.2020
2887 Clouds -6 969 85 0 7.2 330 08:26 15.02.2020
2888 Clouds -6 969 85 0 8.7 330 07:59 15.02.2020
2889 Clouds -6 969 85 0 8.7 330 07:39 15.02.2020
2890 Clouds -6 969 85 0 8.7 330 07:20 15.02.2020
2891 Clouds -6 969 85 0 9.8 320 06:37 15.02.2020
2892 Clouds -6 969 85 0 9.8 330 05:55 15.02.2020
2893 Clouds -6 969 85 0 8.2 340 04:49 15.02.2020
2894 Clouds -6 969 85 0 8.2 330 03:58 15.02.2020
2895 Clouds -6 969 85 0 9.8 340 02:58 15.02.2020
2896 Clouds -6 969 85 0 9.8 340 02:24 15.02.2020
2897 Clouds -6 969 92 0 9.8 340 01:45 15.02.2020
2898 Clouds -6 969 92 0 9.3 340 00:58 15.02.2020
2899 Clouds -6 969 92 0 9.3 340 00:28 15.02.2020
2900 Clouds -6 969 85 10000 6.7 360 23:45 14.02.2020
2901 Clouds -6 969 85 10000 6.7 360 23:21 14.02.2020
2902 Clouds -6 969 85 10000 3.6 20 22:56 14.02.2020
2903 Clouds -6 969 85 10000 3.6 20 22:37 14.02.2020
2904 Clouds -6 969 85 10000 3.6 20 22:19 14.02.2020
2905 Clouds -7 969 67 10000 4.1 20 21:49 14.02.2020
2906 Clouds -7 969 67 10000 4.1 20 21:30 14.02.2020
2907 Clouds -7 969 67 10000 3.1 30 20:46 14.02.2020
2908 Clouds -7 969 67 10000 3.1 30 20:20 14.02.2020
2909 Clouds -7 969 73 10000 3.6 60 19:59 14.02.2020
2910 Clouds -7 969 73 10000 3.6 60 19:40 14.02.2020
2911 Clouds -7 969 73 10000 3.6 60 19:22 14.02.2020
2912 Clouds -8 969 72 10000 3.6 30 18:56 14.02.2020
2913 Clouds -8 969 72 10000 3.6 30 18:38 14.02.2020
2914 Clouds -8 969 72 10000 3.6 30 18:19 14.02.2020
2915 Clouds -8 969 67 10000 4.6 50 17:44 14.02.2020
2916 Clouds -8 969 67 10000 4.6 50 17:21 14.02.2020
2917 Clouds -8 970 67 10000 4.6 30 16:59 14.02.2020
2918 Clouds -8 970 67 10000 4.6 30 16:40 14.02.2020
2919 Clouds -8 970 67 10000 4.6 30 16:22 14.02.2020
2920 Clouds -8 970 57 10000 4.1 30 15:56 14.02.2020
2921 Clouds -8 970 57 10000 4.1 30 15:37 14.02.2020
2922 Clouds -8 970 57 10000 4.1 30 15:19 14.02.2020
2923 Clouds -9 970 61 10000 3.6 40 14:58 14.02.2020
2924 Clouds -10 970 61 10000 3.6 40 14:40 14.02.2020
2925 Clouds -10 970 61 10000 3.6 40 14:21 14.02.2020
2926 Clouds -11 971 66 10000 3.1 60 13:54 14.02.2020
2927 Clouds -11 971 66 10000 3.1 60 13:36 14.02.2020
2928 Clouds -11 971 66 10000 3.1 60 13:18 14.02.2020
2929 Clouds -11 972 61 10000 3.1 20 12:54 14.02.2020
2930 Clouds -11 972 61 10000 3.1 20 12:36 14.02.2020
2931 Clouds -11 972 61 10000 3.1 20 12:18 14.02.2020
2932 Clouds -10 972 66 10000 3.6 10 11:41 14.02.2020
2933 Clouds -10 972 66 10000 3.6 10 11:21 14.02.2020
2934 Clouds -11 972 66 10000 3.6 50 10:56 14.02.2020
2935 Clouds -11 972 66 10000 3.6 50 10:38 14.02.2020
2936 Clouds -11 972 66 10000 3.6 50 10:20 14.02.2020
2937 Clouds -12 972 60 0 4.1 60 09:43 14.02.2020
2938 Clouds -12 972 60 0 4.1 60 09:22 14.02.2020
2939 Clouds -12 973 60 0 4.1 70 08:56 14.02.2020
2940 Clouds -12 973 60 0 4.1 70 08:37 14.02.2020
2941 Clouds -12 973 60 0 4.1 70 08:18 14.02.2020
2942 Clouds -12 974 46 0 1 0 07:44 14.02.2020
2943 Clouds -12 974 46 0 1 0 07:24 14.02.2020
2944 Clouds -13 974 50 0 0.5 0 06:32 14.02.2020
2945 Clouds -13 975 65 0 4.1 80 05:59 14.02.2020
2946 Clouds -13 975 65 0 4.1 80 05:27 14.02.2020
2947 Clouds -13 976 71 0 1.5 70 03:31 14.02.2020
2948 Clouds -11 976 39 0 2.63 142 02:52 14.02.2020
2949 Clouds -12 978 66 10000 5.1 10 01:54 14.02.2020
2950 Clouds -12 979 66 10000 6.7 360 00:44 14.02.2020
2951 Clouds -12 979 66 10000 6.7 360 00:25 14.02.2020
2952 Clouds -11 981 66 10000 5.7 50 23:52 13.02.2020
2953 Clouds -11 981 66 10000 5.7 50 23:23 13.02.2020
2954 Clouds -11 981 61 10000 7.2 70 22:59 13.02.2020
2955 Clouds -11 981 61 10000 7.2 70 22:38 13.02.2020
2956 Clouds -11 981 61 10000 7.2 70 22:19 13.02.2020
2957 Clouds -11 982 51 10000 8.2 60 21:43 13.02.2020
2958 Clouds -11 982 51 10000 8.2 60 21:24 13.02.2020
2959 Clouds -11 983 61 10000 8.7 70 20:59 13.02.2020
2960 Clouds -11 983 61 10000 8.7 70 20:40 13.02.2020
2961 Clouds -11 983 61 10000 8.7 70 20:22 13.02.2020
2962 Clouds -11 983 51 10000 10.3 70 19:57 13.02.2020
2963 Clouds -11 983 51 10000 10.3 70 19:37 13.02.2020
2964 Clouds -11 983 51 10000 10.3 70 19:19 13.02.2020
2965 Clouds -11 984 51 10000 12.3 60 18:56 13.02.2020
2966 Clouds -11 984 51 10000 12.3 60 18:37 13.02.2020
2967 Clouds -11 984 51 10000 12.3 60 18:19 13.02.2020
2968 Clouds -11 985 51 10000 13.4 60 17:54 13.02.2020
2969 Clouds -11 985 51 10000 13.4 60 17:36 13.02.2020
2970 Clouds -11 985 51 10000 13.4 60 17:18 13.02.2020
2971 Clouds -11 986 51 10000 11.3 70 16:41 13.02.2020
2972 Clouds -11 986 51 10000 11.3 70 16:20 13.02.2020
2973 Clouds -12 987 51 10000 11.8 70 15:57 13.02.2020
2974 Clouds -12 987 51 10000 11.8 70 15:39 13.02.2020
2975 Clouds -12 987 51 10000 11.8 70 15:19 13.02.2020
2976 Clouds -13 987 55 10000 11.3 70 14:58 13.02.2020
2977 Clouds -13 987 55 10000 11.3 70 14:39 13.02.2020
2978 Clouds -13 987 55 10000 11.3 70 14:21 13.02.2020
2979 Clouds -13 988 50 10000 10.3 70 13:48 13.02.2020
2980 Clouds -13 988 50 10000 10.3 70 13:19 13.02.2020
2981 Clouds -13 989 46 10000 10.3 70 12:58 13.02.2020
2982 Clouds -13 989 46 10000 10.3 70 12:40 13.02.2020
2983 Clouds -13 989 46 10000 10.3 70 12:22 13.02.2020
2984 Clouds -13 990 46 10000 9.3 70 11:55 13.02.2020
2985 Clouds -13 990 46 10000 9.3 70 11:37 13.02.2020
2986 Clouds -13 990 46 10000 9.3 70 11:18 13.02.2020
2987 Clouds -13 990 46 10000 10.3 70 10:41 13.02.2020
2988 -273 0 0 0 0 0 10:22 13.02.2020
2989 Snow -13 991 46 0 9.3 60 09:44 13.02.2020
2990 Snow -13 991 46 0 9.3 60 09:23 13.02.2020
2991 Clouds -13 991 46 0 9.8 70 08:47 13.02.2020
2992 Clouds -13 991 46 0 9.8 70 08:20 13.02.2020
2993 Clouds -13 992 46 0 11.3 80 07:44 13.02.2020
2994 Clouds -13 992 46 0 11.3 80 07:44 13.02.2020
2995 Clouds -13 992 46 0 11.3 80 07:24 13.02.2020
2996 Clouds -13 992 46 0 11.3 80 07:24 13.02.2020
2997 Mist -13 993 46 0 10.8 80 06:54 13.02.2020
2998 Mist -13 993 46 0 10.8 80 06:36 13.02.2020
2999 Snow -12 994 46 0 9.8 90 05:52 13.02.2020
3000 Snow -13 994 50 0 10.3 80 04:50 13.02.2020
3001 Snow -13 994 50 0 10.3 80 04:24 13.02.2020
3002 Clouds -12 995 46 0 8.2 80 03:41 13.02.2020
3003 Clouds -12 995 46 0 7.7 80 02:59 13.02.2020
3004 Clear -12 995 46 0 7.7 80 02:20 13.02.2020
3005 Clear -12 996 46 0 7.7 80 01:54 13.02.2020
3006 Clear -12 996 46 0 7.7 80 01:25 13.02.2020
3007 Clear -12 996 51 0 6.7 80 00:32 13.02.2020
3008 Clouds -12 996 55 10000 8.2 80 23:57 12.02.2020
3009 Clouds -12 996 55 10000 8.2 80 23:37 12.02.2020
3010 Clouds -12 996 55 10000 8.2 80 23:18 12.02.2020
3011 Clouds -13 996 60 10000 9.3 80 22:43 12.02.2020
3012 Clouds -13 996 60 10000 9.3 80 22:43 12.02.2020
3013 Clouds -13 996 60 10000 9.3 80 22:24 12.02.2020
3014 Clouds -13 996 60 10000 7.2 90 21:56 12.02.2020
3015 Clouds -13 996 60 10000 7.2 90 21:37 12.02.2020
3016 Clouds -13 996 60 10000 7.2 90 21:37 12.02.2020
3017 Clouds -13 996 60 10000 7.2 90 21:37 12.02.2020
3018 Clouds -13 996 60 10000 7.2 90 21:18 12.02.2020
3019 Clouds -12 996 60 10000 6.2 80 20:55 12.02.2020
3020 Clouds -12 996 60 10000 6.2 80 20:36 12.02.2020
3021 Clouds -12 996 60 10000 6.2 80 20:18 12.02.2020
3022 Clouds -12 996 55 10000 3.6 100 19:43 12.02.2020
3023 Clouds -12 996 55 10000 3.6 100 19:23 12.02.2020
3024 Clouds -12 996 51 10000 4.6 80 18:54 12.02.2020
3025 Clouds -11 996 51 10000 4.6 80 18:36 12.02.2020
3026 Clouds -11 996 51 10000 4.6 80 18:18 12.02.2020
3027 Clouds -11 996 56 10000 4.6 80 17:41 12.02.2020
3028 Clouds -11 996 56 10000 4.6 80 17:19 12.02.2020
3029 Clouds -11 996 56 10000 3.1 80 16:57 12.02.2020
3030 Clouds -11 996 56 10000 3.1 80 16:37 12.02.2020
3031 Clouds -11 996 56 10000 3.1 80 16:18 12.02.2020
3032 Clouds -13 996 60 10000 2.1 100 15:40 12.02.2020
3033 Clouds -13 996 60 10000 2.1 100 15:20 12.02.2020
3034 Clouds -13 995 65 10000 6.2 80 14:54 12.02.2020
3035 Clouds -13 995 65 10000 6.2 80 14:36 12.02.2020
3036 Clouds -13 995 65 10000 6.2 80 14:18 12.02.2020
3037 Clouds -13 995 65 10000 6.7 70 13:55 12.02.2020
3038 Clouds -13 995 65 10000 6.7 70 13:37 12.02.2020
3039 Clouds -13 995 65 10000 6.7 70 13:18 12.02.2020
3040 Clouds -13 994 71 10000 6.7 80 12:55 12.02.2020
3041 Clouds -13 994 71 10000 6.7 80 12:36 12.02.2020
3042 Clouds -13 994 71 10000 6.7 80 12:18 12.02.2020
3043 Clouds -13 994 71 10000 6.7 80 11:42 12.02.2020
3044 Clouds -13 994 71 10000 6.7 80 11:21 12.02.2020
3045 Clouds -13 994 71 0 6.7 80 10:59 12.02.2020
3046 Clouds -13 994 71 0 6.7 80 10:41 12.02.2020
3047 Clouds -13 994 71 0 6.7 80 10:21 12.02.2020
3048 Clouds -13 994 71 0 6.7 80 09:57 12.02.2020
3049 Clouds -13 994 71 0 6.7 80 09:39 12.02.2020
3050 Clouds -13 994 71 0 6.7 80 09:19 12.02.2020
3051 Clouds -13 994 71 0 5.7 80 08:55 12.02.2020
3052 Clouds -13 994 71 0 5.7 80 08:37 12.02.2020
3053 Clouds -13 994 71 0 5.7 80 08:19 12.02.2020
3054 Clouds -12 994 72 0 5.7 80 07:43 12.02.2020
3055 Clouds -12 994 72 0 5.7 80 07:22 12.02.2020
3056 Clouds -13 994 71 0 5.7 90 06:52 12.02.2020
3057 Clouds -13 994 71 0 5.7 90 06:20 12.02.2020
3058 Clouds -12 994 72 0 5.1 80 05:36 12.02.2020
3059 Snow -12 994 66 0 5.7 90 04:56 12.02.2020
3060 Snow -12 994 66 0 5.7 90 04:38 12.02.2020
3061 Snow -11 994 66 0 4.1 70 03:31 12.02.2020
3062 Clouds -12 994 66 10000 4.6 80 02:58 12.02.2020
3063 Clouds -12 994 66 10000 4.6 80 02:28 12.02.2020
3064 Clouds -12 994 66 10000 4.6 80 01:49 12.02.2020
3065 Clouds -12 994 60 10000 4.6 80 00:45 12.02.2020
3066 Clouds -12 994 60 10000 4.6 80 00:25 12.02.2020
3067 Clouds -13 994 65 10000 6.7 80 23:55 11.02.2020
3068 Clouds -13 994 65 10000 6.7 80 23:55 11.02.2020
3069 Clouds -13 994 65 10000 6.7 80 23:37 11.02.2020
3070 Clouds -13 994 65 10000 6.7 80 23:18 11.02.2020
3071 Clouds -13 994 55 10000 6.2 90 22:55 11.02.2020
3072 Clouds -12 994 55 10000 6.2 90 22:36 11.02.2020
3073 Clouds -12 994 55 10000 6.2 90 22:18 11.02.2020
3074 Clouds -13 994 55 10000 3.1 90 21:55 11.02.2020
3075 Clouds -13 994 55 10000 3.1 90 21:36 11.02.2020
3076 Clouds -13 994 55 10000 3.1 90 21:18 11.02.2020
3077 Clouds -11 993 51 10000 3.1 120 20:39 11.02.2020
3078 Clouds -11 993 56 10000 6.7 70 20:20 11.02.2020
3079 Clouds -11 993 56 10000 6.7 70 19:59 11.02.2020
3080 Clouds -11 993 56 10000 6.7 70 19:41 11.02.2020
3081 Clouds -11 993 56 10000 6.7 70 19:23 11.02.2020
3082 Clouds -12 993 60 10000 4.6 100 18:56 11.02.2020
3083 Clouds -12 993 60 10000 4.6 100 18:37 11.02.2020
3084 Clouds -12 993 60 10000 4.6 100 18:19 11.02.2020
3085 Clouds -11 994 56 10000 2.6 90 17:55 11.02.2020
3086 Clouds -10 994 56 10000 2.6 90 17:36 11.02.2020
3087 Clouds -10 994 56 10000 2.6 90 17:18 11.02.2020
3088 Clouds -10 994 56 10000 3.1 90 16:55 11.02.2020
3089 Clouds -10 994 56 10000 3.1 90 16:55 11.02.2020
3090 Clouds -11 994 56 10000 3.1 90 16:36 11.02.2020
3091 Clouds -11 994 56 10000 3.1 90 16:18 11.02.2020
3092 Rain -10 994 61 10000 1.5 100 15:43 11.02.2020
3093 Rain -10 994 61 10000 1.5 100 15:23 11.02.2020
3094 Snow -10 994 61 10000 1 50 14:54 11.02.2020
3095 Snow -10 994 61 10000 1 50 14:36 11.02.2020
3096 Snow -10 994 61 10000 1 50 14:18 11.02.2020
3097 Snow -10 994 61 10000 1 160 13:41 11.02.2020
3098 Snow -10 994 61 10000 1 160 13:21 11.02.2020
3099 Snow -11 993 72 10000 1.5 70 12:58 11.02.2020
3100 Snow -11 993 72 10000 1.5 70 12:39 11.02.2020
3101 Snow -11 993 72 10000 1.5 70 12:20 11.02.2020
3102 Snow -11 993 78 8000 4.94 119 11:41 11.02.2020
3103 Snow -11 993 78 8000 4.48 132 11:21 11.02.2020
3104 Snow -11 993 72 0 6.2 120 10:58 11.02.2020
3105 Snow -10 993 72 0 6.2 120 10:39 11.02.2020
3106 Snow -10 993 72 0 6.2 120 10:20 11.02.2020
3107 Snow -11 993 78 0 1.5 150 09:56 11.02.2020
3108 Snow -11 993 78 0 1.5 150 09:38 11.02.2020
3109 Snow -11 993 78 0 1.5 150 09:19 11.02.2020
3110 Clouds -11 993 56 0 1.5 100 08:46 11.02.2020
3111 Clouds -11 993 56 0 1.5 100 08:24 11.02.2020
3112 Clouds -11 993 56 0 1.5 0 07:48 11.02.2020
3113 Clouds -11 993 56 0 1.5 0 07:26 11.02.2020
3114 Clouds -11 993 61 0 7.7 110 06:44 11.02.2020
3115 Clouds -11 993 61 0 7.7 110 06:23 11.02.2020
3116 Clouds -11 993 56 0 6.2 120 05:58 11.02.2020
3117 Clouds -11 993 56 0 6.2 120 05:26 11.02.2020
3118 Snow -11 993 51 0 6.2 80 04:53 11.02.2020
3119 Snow -12 993 60 0 5.1 90 03:26 11.02.2020
3120 Snow -12 993 60 0 4.1 110 02:33 11.02.2020
3121 Snow -11 993 61 0 6.2 110 01:39 11.02.2020
3122 Snow -11 993 56 0 7.2 100 00:50 11.02.2020
3123 Snow -11 993 56 0 7.2 100 00:22 11.02.2020
3124 Snow -12 993 66 10000 6.2 120 23:40 10.02.2020
3125 Snow -12 993 66 10000 6.2 120 23:20 10.02.2020
3126 Snow -11 993 66 6000 4.6 110 22:43 10.02.2020
3127 Snow -11 993 66 6000 4.6 110 22:21 10.02.2020
3128 Snow -11 993 66 6000 4.6 110 22:21 10.02.2020
3129 Snow -11 993 66 10000 6.7 110 21:58 10.02.2020
3130 Snow -11 993 66 10000 6.7 110 21:40 10.02.2020
3131 Snow -11 993 66 10000 6.7 110 21:22 10.02.2020
3132 Rain -11 993 61 10000 7.2 90 20:55 10.02.2020
3133 Rain -11 993 61 10000 7.2 90 20:37 10.02.2020
3134 Rain -11 993 61 10000 7.2 90 20:19 10.02.2020
3135 Clouds -11 993 56 10000 7.2 100 19:57 10.02.2020
3136 Clouds -11 993 56 10000 7.2 100 19:36 10.02.2020
3137 Clouds -11 993 56 10000 7.2 100 19:18 10.02.2020
3138 Clouds -11 993 61 10000 7.7 100 18:55 10.02.2020
3139 Clouds -11 993 61 10000 7.7 100 18:37 10.02.2020
3140 Clouds -11 993 61 10000 7.7 100 18:18 10.02.2020
3141 Clouds -11 993 51 10000 8.2 100 17:54 10.02.2020
3142 Clouds -11 993 51 10000 8.2 100 17:36 10.02.2020
3143 Clouds -11 993 51 10000 8.2 100 17:18 10.02.2020
3144 Clouds -11 993 51 10000 6.7 90 16:41 10.02.2020
3145 Clouds -11 993 51 10000 6.7 90 16:20 10.02.2020
3146 Clouds -11 993 51 10000 6.7 90 16:20 10.02.2020
3147 Clouds -11 993 51 10000 6.7 90 16:20 10.02.2020
3148 Clouds -12 992 55 10000 5.7 110 15:59 10.02.2020
3149 Clouds -12 992 55 10000 5.7 110 15:59 10.02.2020
3150 Clouds -12 992 55 10000 5.7 110 15:41 10.02.2020
3151 Clouds -12 992 55 10000 5.7 110 15:22 10.02.2020
3152 Clouds -13 992 55 10000 7.2 110 14:58 10.02.2020
3153 Clouds -13 992 55 10000 7.2 110 14:39 10.02.2020
3154 Clouds -13 992 55 10000 7.2 110 14:19 10.02.2020
3155 Clouds -13 992 55 10000 7.2 100 13:55 10.02.2020
3156 Clouds -13 992 55 10000 7.2 100 13:37 10.02.2020
3157 Clouds -13 992 55 10000 7.2 100 13:18 10.02.2020
3158 Clouds -13 992 55 10000 6.2 90 12:42 10.02.2020
3159 Clouds -13 992 55 10000 6.2 90 12:24 10.02.2020
3160 Clouds -14 992 65 10000 6.2 80 11:54 10.02.2020
3161 Clouds -14 992 65 10000 6.2 80 11:54 10.02.2020
3162 Clouds -14 992 65 10000 6.2 80 11:36 10.02.2020
3163 Clouds -14 992 65 10000 6.2 80 11:18 10.02.2020
3164 Clouds -14 993 60 10000 5.1 90 10:42 10.02.2020
3165 Clouds -14 993 60 10000 5.1 90 10:23 10.02.2020
3166 Clear -15 993 65 0 3.1 80 09:44 10.02.2020
3167 Clear -15 993 65 0 3.1 80 09:23 10.02.2020
3168 Clear -14 993 65 0 3.6 80 08:41 10.02.2020
3169 Clear -14 993 65 0 3.6 80 08:22 10.02.2020
3170 Clouds -15 992 71 0 1.5 80 07:57 10.02.2020
3171 Clouds -15 992 71 0 1.5 80 07:35 10.02.2020
3172 Clouds -15 992 71 0 1.5 110 06:58 10.02.2020
3173 Clouds -13 992 65 0 0.5 130 05:41 10.02.2020
3174 Snow -13 992 65 0 2.1 300 04:23 10.02.2020
3175 Snow -13 992 71 0 3.1 300 03:28 10.02.2020
3176 Snow -12 991 72 0 4.6 310 02:53 10.02.2020
3177 Snow -12 990 78 0 6.2 300 01:36 10.02.2020
3178 Snow -12 990 72 0 4.6 320 00:48 10.02.2020
3179 Snow -12 990 72 0 4.6 320 00:28 10.02.2020
3180 Snow -12 989 72 0 5.1 310 23:45 09.02.2020
3181 Snow -12 989 72 0 5.1 310 23:26 09.02.2020
3182 Rain -12 989 72 10000 3.1 310 22:58 09.02.2020
3183 Rain -12 989 72 10000 3.1 310 22:38 09.02.2020
3184 Rain -12 989 72 10000 3.1 310 22:38 09.02.2020
3185 Rain -12 989 72 10000 3.1 310 22:19 09.02.2020
3186 Snow -12 988 72 10000 4.1 320 21:41 09.02.2020
3187 Snow -12 988 72 10000 4.1 320 21:22 09.02.2020
3188 Snow -12 988 72 10000 4.1 320 21:22 09.02.2020
3189 Snow -12 987 78 9000 4.6 340 20:48 09.02.2020
3190 Snow -12 987 78 9000 4.6 340 20:23 09.02.2020
3191 Snow -12 986 72 5000 5.1 320 19:58 09.02.2020
3192 Snow -12 986 72 5000 5.1 320 19:39 09.02.2020
3193 Snow -12 986 72 5000 5.1 320 19:20 09.02.2020
3194 Snow -12 985 78 10000 6.2 320 18:54 09.02.2020
3195 Snow -12 985 78 10000 6.2 320 18:36 09.02.2020
3196 Snow -12 985 78 10000 6.2 320 18:18 09.02.2020
3197 Rain -12 985 78 10000 5.7 320 17:40 09.02.2020
3198 Rain -12 985 78 10000 5.7 320 17:22 09.02.2020
3199 Rain -12 985 78 10000 5.7 320 17:21 09.02.2020
3200 Rain -12 984 85 10000 9.3 320 16:44 09.02.2020
3201 Rain -12 984 85 10000 9.3 320 16:25 09.02.2020
3202 Snow -12 983 92 10000 9.3 320 15:59 09.02.2020
3203 Snow -12 983 92 10000 9.3 320 15:41 09.02.2020
3204 Snow -12 983 92 10000 9.3 320 15:22 09.02.2020
3205 Snow -12 982 92 4000 9.8 320 14:57 09.02.2020
3206 Snow -12 982 92 4000 9.8 320 14:39 09.02.2020
3207 Snow -12 982 92 4000 9.8 320 14:39 09.02.2020
3208 Snow -12 982 92 4000 9.8 320 14:21 09.02.2020
3209 Snow -12 981 92 3400 9.3 320 13:44 09.02.2020
3210 Snow -12 981 92 3400 9.3 320 13:26 09.02.2020
3211 Snow -12 980 92 3300 7.7 310 12:57 09.02.2020
3212 Snow -12 980 92 3300 7.7 310 12:38 09.02.2020
3213 Snow -12 980 92 3300 7.7 310 12:19 09.02.2020
3214 Snow -12 980 92 3300 7.7 310 12:19 09.02.2020
3215 Snow -12 980 92 3300 7.7 310 12:19 09.02.2020
3216 Snow -12 979 92 0 9.3 310 11:42 09.02.2020
3217 Snow -12 979 92 0 9.3 310 11:22 09.02.2020
3218 Snow -12 978 92 0 9.3 310 10:59 09.02.2020
3219 Snow -12 978 92 0 9.3 310 10:41 09.02.2020
3220 Snow -12 978 92 0 9.3 310 10:22 09.02.2020
3221 Snow -11 976 92 0 10.3 310 09:47 09.02.2020
3222 Snow -11 976 92 0 10.3 310 09:28 09.02.2020
3223 Snow -11 975 85 0 9.3 320 08:55 09.02.2020
3224 Snow -11 975 85 0 9.3 320 08:37 09.02.2020
3225 Snow -11 975 85 0 9.3 320 08:19 09.02.2020
3226 Snow -11 974 85 0 6.7 320 07:49 09.02.2020
3227 Snow -11 973 92 0 7.7 320 06:54 09.02.2020
3228 Snow -11 973 92 0 7.7 320 06:36 09.02.2020
3229 Snow -11 973 78 0 3.6 330 05:49 09.02.2020
3230 Snow -11 973 78 0 3.6 330 05:31 09.02.2020
3231 Clouds -11 971 66 0 4.6 20 03:58 09.02.2020
3232 Clouds -11 971 66 0 5.1 10 02:49 09.02.2020
3233 Clouds -11 971 66 0 5.1 10 02:30 09.02.2020
3234 Clouds -11 970 66 0 7.2 350 01:36 09.02.2020
3235 Clouds -12 970 66 10000 7.2 350 00:55 09.02.2020
3236 Clouds -12 970 66 10000 7.2 350 00:29 09.02.2020
3237 Clouds -11 970 66 10000 7.2 30 23:48 08.02.2020
3238 Clouds -11 970 66 10000 7.2 30 23:24 08.02.2020
3239 Clouds -11 969 61 10000 7.7 360 22:58 08.02.2020
3240 Clouds -11 969 61 10000 7.7 360 22:39 08.02.2020
3241 Clouds -11 969 61 10000 7.7 360 22:20 08.02.2020
3242 Clouds -11 969 61 10000 8.7 20 21:45 08.02.2020
3243 Clouds -11 969 61 10000 8.7 20 21:26 08.02.2020
3244 Clouds -11 969 66 10000 7.7 40 20:59 08.02.2020
3245 Clouds -11 969 66 10000 7.7 40 20:40 08.02.2020
3246 Clouds -11 969 66 10000 7.7 40 20:19 08.02.2020
3247 Clouds -11 969 61 10000 8.7 10 19:56 08.02.2020
3248 Clouds -10 969 61 10000 8.7 10 19:38 08.02.2020
3249 Clouds -10 969 61 10000 8.7 10 19:19 08.02.2020
3250 Clouds -10 969 61 10000 8.7 10 19:19 08.02.2020
3251 Rain -10 969 66 10000 6.2 40 18:56 08.02.2020
3252 Rain -10 969 66 10000 6.2 40 18:37 08.02.2020
3253 Rain -10 969 66 10000 6.2 40 18:19 08.02.2020
3254 Snow -10 970 72 6000 6.2 40 17:41 08.02.2020
3255 Snow -10 970 72 6000 6.2 40 17:19 08.02.2020
3256 Snow -10 970 72 6000 6.7 40 16:41 08.02.2020
3257 Snow -10 970 72 6000 6.7 40 16:23 08.02.2020
3258 Snow -10 970 72 6000 6.7 40 16:23 08.02.2020
3259 Snow -9 971 66 5000 5.1 20 15:58 08.02.2020
3260 Snow -9 971 66 5000 5.1 20 15:39 08.02.2020
3261 Snow -9 971 66 5000 5.1 20 15:18 08.02.2020
3262 Snow -9 971 66 5000 5.1 20 15:18 08.02.2020
3263 Snow -10 972 85 6000 6.2 10 14:45 08.02.2020
3264 Snow -10 972 85 6000 6.2 10 14:22 08.02.2020
3265 Snow -10 973 78 10000 6.2 360 13:58 08.02.2020
3266 Snow -10 973 78 10000 6.2 360 13:58 08.02.2020
3267 Snow -10 973 78 10000 6.2 360 13:40 08.02.2020
3268 Snow -10 973 78 10000 6.2 360 13:21 08.02.2020
3269 Clouds -10 974 66 10000 6.2 360 12:41 08.02.2020
3270 Clouds -10 974 66 10000 6.2 360 12:23 08.02.2020
3271 Clouds -9 974 61 10000 5.7 10 11:56 08.02.2020
3272 Clouds -9 974 61 10000 5.7 10 11:38 08.02.2020
3273 Clouds -9 974 61 10000 5.7 10 11:20 08.02.2020
3274 Clouds -9 975 56 0 6.2 20 10:42 08.02.2020
3275 Clouds -9 975 56 0 6.2 20 10:22 08.02.2020
3276 Clouds -9 975 56 0 6.2 20 10:22 08.02.2020
3277 Clouds -9 975 56 0 6.2 20 10:22 08.02.2020
3278 Clouds -9 976 56 0 7.2 40 09:53 08.02.2020
3279 Clouds -9 976 56 0 7.2 40 09:28 08.02.2020
3280 Clouds -9 976 61 0 7.7 20 08:55 08.02.2020
3281 Clouds -9 976 61 0 7.7 20 08:37 08.02.2020
3282 Clouds -9 976 61 0 7.7 20 08:19 08.02.2020
3283 Clouds -9 977 61 0 8.2 20 07:45 08.02.2020
3284 Clouds -9 977 61 0 8.2 20 07:45 08.02.2020
3285 Clouds -9 977 61 0 8.2 20 07:23 08.02.2020
3286 Clouds -10 977 78 0 9.3 360 06:29 08.02.2020
3287 Clouds -11 978 78 0 8.2 350 05:48 08.02.2020
3288 Clouds -11 978 78 0 8.2 350 05:30 08.02.2020
3289 Clouds -9 979 72 0 6.7 350 04:49 08.02.2020
3290 Clouds -8 979 67 0 8.2 10 03:52 08.02.2020
3291 Clouds -8 979 85 0 4.6 360 02:52 08.02.2020
3292 Snow -8 981 85 0 8.2 320 01:55 08.02.2020
3293 Snow -8 981 85 0 8.2 320 01:26 08.02.2020
3294 Snow -8 981 85 0 8.2 320 00:43 08.02.2020
3295 Snow -8 981 85 0 8.2 320 00:22 08.02.2020
3296 Snow -8 982 85 10000 8.7 320 23:55 07.02.2020
3297 Snow -8 982 85 10000 8.7 320 23:37 07.02.2020
3298 Snow -8 982 85 10000 8.7 320 23:18 07.02.2020
3299 Snow -9 983 85 10000 8.7 320 22:39 07.02.2020
3300 Snow -9 983 85 10000 8.7 320 22:19 07.02.2020
3301 Snow -8 983 85 10000 9.8 320 21:44 07.02.2020
3302 Snow -8 983 85 10000 9.8 320 21:23 07.02.2020
3303 Snow -8 983 92 7000 10.8 320 20:58 07.02.2020
3304 Snow -8 983 92 7000 10.8 320 20:38 07.02.2020
3305 Snow -8 983 92 7000 10.8 320 20:18 07.02.2020
3306 Snow -8 983 92 7000 10.8 320 20:18 07.02.2020
3307 Snow -8 983 92 4500 11.3 320 19:43 07.02.2020
3308 Snow -8 983 92 4500 11.3 320 19:22 07.02.2020
3309 Snow -7 983 85 9000 9.8 310 18:59 07.02.2020
3310 Snow -7 983 85 9000 9.8 310 18:59 07.02.2020
3311 Snow -7 983 85 9000 9.8 310 18:41 07.02.2020
3312 Snow -7 983 85 9000 9.8 310 18:22 07.02.2020
3313 Snow -7 984 85 10000 8.2 310 17:43 07.02.2020
3314 Snow -7 984 85 10000 8.2 310 17:22 07.02.2020
3315 Snow -7 984 85 10000 8.2 310 17:22 07.02.2020
3316 Clouds -7 984 85 10000 8.7 310 16:58 07.02.2020
3317 Clouds -7 984 85 10000 8.7 310 16:39 07.02.2020
3318 Clouds -7 984 85 10000 8.7 310 16:21 07.02.2020
3319 Clouds -7 984 85 10000 7.7 320 15:52 07.02.2020
3320 Clouds -7 984 85 10000 7.7 320 15:28 07.02.2020
3321 Clouds -7 984 85 10000 6.2 320 14:55 07.02.2020
3322 Clouds -7 984 85 10000 6.2 320 14:37 07.02.2020
3323 Clouds -7 984 85 10000 6.2 320 14:19 07.02.2020
3324 Clouds -7 984 79 10000 5.7 330 13:56 07.02.2020
3325 Clouds -7 984 79 10000 5.7 330 13:37 07.02.2020
3326 Clouds -7 984 79 10000 5.7 330 13:18 07.02.2020
3327 Clouds -8 984 85 10000 3.1 310 12:41 07.02.2020
3328 Clouds -8 984 85 10000 3.1 310 12:22 07.02.2020
3329 Clouds -8 984 85 10000 4.6 330 11:45 07.02.2020
3330 Clouds -8 984 85 10000 4.6 330 11:22 07.02.2020
3331 Snow -8 984 92 3000 3.1 300 10:57 07.02.2020
3332 Snow -8 984 92 3000 3.1 300 10:38 07.02.2020
3333 Snow -8 984 92 3000 3.1 300 10:19 07.02.2020
3334 Snow -8 984 85 0 1 350 09:41 07.02.2020
3335 Snow -8 984 85 0 1 350 09:22 07.02.2020
3336 Snow -9 984 85 0 1 100 08:45 07.02.2020
3337 Snow -9 984 85 0 1 100 08:21 07.02.2020
3338 Snow -9 984 85 0 1 100 08:21 07.02.2020
3339 Snow -9 983 85 0 1 120 07:54 07.02.2020
3340 Snow -9 983 85 0 1 120 07:32 07.02.2020
3341 Snow -9 983 85 0 4.32 343 06:59 07.02.2020
3342 Snow -9 983 85 0 4.32 343 06:39 07.02.2020
3343 Snow -9 983 85 0 4.32 343 06:19 07.02.2020
3344 Snow -9 983 92 0 2.1 280 05:37 07.02.2020
3345 Snow -8 981 78 0 4.92 280 03:51 07.02.2020
3346 Clouds -8 980 78 10000 4.1 280 01:57 07.02.2020
3347 Clouds -8 980 78 10000 4.1 280 01:21 07.02.2020
3348 Snow -8 979 85 10000 6.2 300 00:28 07.02.2020
3349 Snow -7 978 79 10000 4.6 290 23:39 06.02.2020
3350 Snow -7 978 79 10000 4.6 290 23:39 06.02.2020
3351 Snow -7 978 79 10000 4.6 290 23:19 06.02.2020
3352 Snow -7 977 79 10000 5.1 300 22:48 06.02.2020
3353 Snow -7 977 79 10000 5.1 300 22:27 06.02.2020
3354 Clouds -7 976 85 10000 5.7 300 21:59 06.02.2020
3355 Clouds -7 976 85 10000 5.7 300 21:37 06.02.2020
3356 Clouds -7 976 85 10000 5.7 300 21:19 06.02.2020
3357 Clouds -7 975 85 10000 4.6 290 20:55 06.02.2020
3358 Clouds -7 975 85 10000 4.6 290 20:37 06.02.2020
3359 Clouds -7 975 85 10000 4.6 290 20:18 06.02.2020
3360 Clouds -7 974 92 10000 4.6 320 19:57 06.02.2020
3361 Clouds -7 974 92 10000 4.6 320 19:37 06.02.2020
3362 Clouds -7 974 92 10000 4.6 320 19:19 06.02.2020
3363 Clouds -6 973 85 10000 5.1 320 18:43 06.02.2020
3364 Clouds -6 973 85 10000 5.1 320 18:25 06.02.2020
3365 Clouds -6 972 92 10000 5.7 320 17:59 06.02.2020
3366 Clouds -6 972 92 10000 5.7 320 17:41 06.02.2020
3367 Clouds -6 972 92 10000 5.7 320 17:20 06.02.2020
3368 Clouds -6 972 92 5000 6.7 310 16:43 06.02.2020
3369 Clouds -6 972 92 5000 6.7 310 16:25 06.02.2020
3370 Clouds -5 972 85 10000 4.6 330 15:54 06.02.2020
3371 Clouds -5 972 85 10000 4.6 330 15:36 06.02.2020
3372 Clouds -5 972 85 10000 4.6 330 15:18 06.02.2020
3373 Clouds -6 971 92 10000 5.7 330 14:42 06.02.2020
3374 Clouds -6 971 92 10000 5.7 330 14:24 06.02.2020
3375 Rain -5 971 85 10000 5.7 340 13:46 06.02.2020
3376 Rain -5 971 85 10000 5.7 340 13:27 06.02.2020
3377 Clouds -5 971 92 10000 6.2 350 12:56 06.02.2020
3378 Clouds -6 971 92 10000 6.2 350 12:37 06.02.2020
3379 Clouds -6 971 92 10000 6.2 350 12:18 06.02.2020
3380 Clouds -6 971 92 10000 6.2 350 11:55 06.02.2020
3381 Clouds -6 971 92 10000 6.2 350 11:37 06.02.2020
3382 Clouds -6 971 92 10000 6.2 350 11:37 06.02.2020
3383 Clouds -6 971 92 10000 6.2 350 11:18 06.02.2020
3384 Clouds -6 970 92 0 4.6 10 10:41 06.02.2020
3385 Clouds -6 970 92 0 4.6 10 10:22 06.02.2020
3386 Clouds -6 970 92 0 2.6 30 09:59 06.02.2020
3387 Clouds -6 970 92 0 2.6 30 09:41 06.02.2020
3388 Clouds -6 970 92 0 2.6 30 09:20 06.02.2020
3389 Clouds -5 970 79 0 4.6 360 08:45 06.02.2020
3390 Clouds -5 970 79 0 4.6 360 08:24 06.02.2020
3391 Clouds -5 970 79 0 3.1 20 07:56 06.02.2020
3392 Clouds -5 970 79 0 3.1 20 07:33 06.02.2020
3393 Clouds -5 971 85 0 4.1 20 06:53 06.02.2020
3394 Clouds -5 971 85 0 4.1 20 06:19 06.02.2020
3395 Clouds -4 972 79 0 3.6 20 05:40 06.02.2020
3396 Clouds -4 972 85 0 3.6 20 04:18 06.02.2020
3397 Clouds -3 973 86 0 4.6 40 03:18 06.02.2020
3398 Clouds -3 973 86 0 4.6 40 03:18 06.02.2020
3399 Clouds -4 974 92 0 4.6 40 02:20 06.02.2020
3400 Clouds -3 975 86 0 4.6 50 01:24 06.02.2020
3401 Snow -1 976 74 0 6.2 70 00:41 06.02.2020
3402 Snow -1 976 74 0 6.2 70 00:19 06.02.2020
3403 Clouds -1 976 80 10000 6.2 70 23:42 05.02.2020
3404 Clouds -1 976 80 10000 6.2 70 23:23 05.02.2020
3405 Clouds -2 977 86 10000 5.1 40 22:56 05.02.2020
3406 Clouds -3 977 86 10000 5.1 40 22:37 05.02.2020
3407 Clouds -3 977 86 10000 5.1 40 22:19 05.02.2020
3408 Clouds -3 977 79 10000 3.1 10 21:41 05.02.2020
3409 Clouds -3 977 79 10000 3.1 10 21:22 05.02.2020
3410 Clouds -3 977 79 10000 0.5 340 20:55 05.02.2020
3411 Clouds -3 977 79 10000 0.5 340 20:37 05.02.2020
3412 Clouds -3 977 79 10000 0.5 340 20:18 05.02.2020
3413 Clouds -2 977 58 10000 2.1 190 19:55 05.02.2020
3414 Clouds -2 977 58 10000 2.1 190 19:36 05.02.2020
3415 Clouds -2 977 58 10000 2.1 190 19:18 05.02.2020
3416 Clouds -1 977 63 10000 1.5 170 18:43 05.02.2020
3417 Clouds -1 977 63 10000 1.5 170 18:20 05.02.2020
3418 Clouds -2 978 58 10000 1 0 17:58 05.02.2020
3419 Clouds -2 978 58 10000 1 0 17:37 05.02.2020
3420 Clouds -2 978 58 10000 1 0 17:18 05.02.2020
3421 Clouds -3 978 63 10000 1 0 16:43 05.02.2020
3422 Clouds -3 978 63 10000 1 0 16:25 05.02.2020
3423 Clouds -3 979 58 10000 2.1 100 15:58 05.02.2020
3424 Clouds -3 979 58 10000 2.1 100 15:38 05.02.2020
3425 Clouds -3 979 58 10000 2.1 100 15:18 05.02.2020
3426 Clouds -4 979 68 10000 4.6 50 14:43 05.02.2020
3427 Clouds -4 979 68 10000 4.6 50 14:24 05.02.2020
3428 Clouds -3 980 58 10000 5.7 80 13:58 05.02.2020
3429 Clouds -2 980 58 10000 5.7 80 13:38 05.02.2020
3430 Clouds -2 980 58 10000 5.7 80 13:19 05.02.2020
3431 Clouds -3 980 58 10000 5.1 60 12:43 05.02.2020
3432 Clouds -3 980 58 10000 5.1 60 12:23 05.02.2020
3433 Clouds -3 980 58 0 0.5 130 11:55 05.02.2020
3434 Clouds -3 980 58 0 0.5 130 11:36 05.02.2020
3435 Clouds -3 980 58 0 0.5 130 11:18 05.02.2020
3436 Clouds -3 981 63 0 1.5 140 10:42 05.02.2020
3437 Clouds -3 981 63 0 1.5 140 10:24 05.02.2020
3438 Clouds -3 981 63 0 1 100 09:57 05.02.2020
3439 Clouds -4 981 63 0 1 100 09:37 05.02.2020
3440 Clouds -4 981 63 0 1 100 09:19 05.02.2020
3441 Clouds -5 981 73 0 1 140 08:41 05.02.2020
3442 Clouds -5 981 73 0 1 140 08:23 05.02.2020
3443 Clouds -4 982 68 0 2.6 90 07:48 05.02.2020
3444 Clouds -4 982 68 0 2.6 90 07:29 05.02.2020
3445 Clouds -3 982 68 0 2.6 80 06:46 05.02.2020
3446 Clouds -3 982 68 0 2.6 80 06:23 05.02.2020
3447 Clouds -3 982 73 0 4.6 70 05:51 05.02.2020
3448 Clouds -3 982 73 0 4.6 70 05:18 05.02.2020
3449 Clouds -3 982 79 0 6.2 70 04:45 05.02.2020
3450 Clouds -2 983 79 10000 8.2 80 03:48 05.02.2020
3451 Clouds -2 983 86 10000 7.2 60 02:25 05.02.2020
3452 Clouds -2 983 86 10000 7.7 70 01:37 05.02.2020
3453 Clouds -2 983 86 10000 7.7 70 01:37 05.02.2020
3454 Clouds -2 984 86 10000 7.7 60 00:42 05.02.2020
3455 Clouds -2 984 86 10000 6.7 70 23:57 04.02.2020
3456 Clouds -2 984 86 10000 6.7 70 23:37 04.02.2020
3457 Clouds -2 984 86 10000 6.7 70 23:18 04.02.2020
3458 Clouds -3 984 86 10000 6.7 60 22:42 04.02.2020
3459 Clouds -3 984 86 10000 6.7 60 22:42 04.02.2020
3460 Clouds -3 984 86 10000 6.7 60 22:22 04.02.2020
3461 Clouds -3 984 86 10000 6.2 60 22:00 04.02.2020
3462 Clouds -2 984 86 10000 6.2 60 21:41 04.02.2020
3463 Clouds -2 984 86 10000 6.2 60 21:19 04.02.2020
3464 Clouds -2 984 79 10000 6.2 70 20:59 04.02.2020
3465 Clouds -2 984 79 10000 6.2 70 20:39 04.02.2020
3466 Clouds -2 984 79 10000 6.2 70 20:20 04.02.2020
3467 Clouds 0 984 75 10000 5.7 80 19:57 04.02.2020
3468 Clouds 0 984 75 10000 5.7 80 19:39 04.02.2020
3469 Clouds 0 984 75 10000 5.7 80 19:21 04.02.2020
3470 Clouds 0 984 75 10000 3.6 90 18:55 04.02.2020
3471 Clouds 0 984 75 10000 3.6 90 18:37 04.02.2020
3472 Clouds 0 984 75 10000 3.6 90 18:18 04.02.2020
3473 Rain -2 985 92 10000 2.1 50 17:42 04.02.2020
3474 Rain -2 985 92 10000 2.1 50 17:21 04.02.2020
3475 Snow -2 985 86 3000 2.1 0 16:55 04.02.2020
3476 Snow -2 985 86 3000 2.1 0 16:36 04.02.2020
3477 Snow -2 985 86 3000 2.1 0 16:18 04.02.2020
3478 Snow -2 985 86 10000 1 0 15:55 04.02.2020
3479 Snow -3 985 86 10000 1 0 15:37 04.02.2020
3480 Snow -3 985 86 10000 1 0 15:18 04.02.2020
3481 Snow -3 985 92 4000 2.1 0 14:42 04.02.2020
3482 Snow -3 985 92 4000 2.1 0 14:23 04.02.2020
3483 Snow -4 985 92 2000 1.5 210 13:57 04.02.2020
3484 Snow -4 985 92 2000 1.5 210 13:39 04.02.2020
3485 Snow -4 985 92 2000 1.5 210 13:19 04.02.2020
3486 Snow -4 985 85 10000 0.5 0 12:43 04.02.2020
3487 Snow -4 985 85 10000 0.5 0 12:43 04.02.2020
3488 Snow -4 985 85 10000 0.5 0 12:25 04.02.2020
3489 Snow -5 985 73 5000 4.1 170 11:58 04.02.2020
3490 Snow -5 985 73 5000 4.1 170 11:39 04.02.2020
3491 Snow -5 985 73 5000 4.1 170 11:20 04.02.2020
3492 Snow -5 984 73 0 4.6 50 10:50 04.02.2020
3493 Snow -5 984 73 0 4.6 50 10:30 04.02.2020
3494 Snow -5 984 73 0 3.6 40 09:58 04.02.2020
3495 Snow -5 984 73 0 3.6 40 09:40 04.02.2020
3496 Snow -5 984 73 0 3.6 40 09:21 04.02.2020
3497 Snow -5 984 67 0 2.6 40 08:50 04.02.2020
3498 Snow -5 984 67 0 2.6 40 08:50 04.02.2020
3499 Snow -5 984 67 0 2.6 40 08:28 04.02.2020
3500 Clouds -7 984 67 0 3.1 50 07:57 04.02.2020
3501 Clouds -7 984 67 0 3.1 50 07:39 04.02.2020
3502 Clouds -7 984 67 0 3.1 50 07:21 04.02.2020
3503 Clouds -6 984 62 0 5.7 60 06:42 04.02.2020
3504 Clouds -6 984 67 0 8.7 60 05:40 04.02.2020
3505 Clouds -6 985 73 0 6.7 50 04:55 04.02.2020
3506 Clouds -5 986 67 0 9.8 50 03:49 04.02.2020
3507 Clouds -5 986 67 0 9.8 50 03:31 04.02.2020
3508 Clouds -5 987 73 0 8.2 50 02:51 04.02.2020
3509 Clouds -5 987 73 0 8.2 50 02:28 04.02.2020
3510 Snow -6 988 85 0 9.3 30 01:50 04.02.2020
3511 Snow -6 988 85 0 9.3 30 01:32 04.02.2020
3512 Snow -5 990 79 0 8.2 50 00:27 04.02.2020
3513 Clouds -5 992 73 10000 9.3 70 23:57 03.02.2020
3514 Clouds -5 992 73 10000 9.3 70 23:57 03.02.2020
3515 Clouds -5 992 73 10000 9.3 70 23:38 03.02.2020
3516 Clouds -5 992 73 10000 9.3 70 23:19 03.02.2020
3517 Clouds -5 993 85 10000 9.8 60 22:39 03.02.2020
3518 Clouds -5 993 85 10000 9.8 60 22:20 03.02.2020
3519 Clouds -6 994 79 10000 7.2 60 21:43 03.02.2020
3520 Clouds -6 994 79 10000 7.2 60 21:20 03.02.2020
3521 Clouds -5 996 73 10000 8.2 70 20:59 03.02.2020
3522 Clouds -5 996 73 10000 8.2 70 20:40 03.02.2020
3523 Clouds -5 996 73 10000 8.2 70 20:19 03.02.2020
3524 Clouds -5 997 73 10000 8.2 80 19:56 03.02.2020
3525 Clouds -5 997 73 10000 8.2 80 19:38 03.02.2020
3526 Clouds -5 997 73 10000 8.2 80 19:19 03.02.2020
3527 Clouds -5 998 73 10000 8.2 60 18:43 03.02.2020
3528 Clouds -5 998 73 10000 8.2 60 18:24 03.02.2020
3529 Clouds -4 999 68 10000 6.7 80 17:59 03.02.2020
3530 Clouds -4 999 68 10000 6.7 80 17:59 03.02.2020
3531 Clouds -4 999 68 10000 6.7 80 17:39 03.02.2020
3532 Clouds -4 999 68 10000 6.7 80 17:20 03.02.2020
3533 Clouds -4 999 68 10000 6.7 80 17:20 03.02.2020
3534 Clouds -4 1000 68 10000 7.7 80 16:58 03.02.2020
3535 Clouds -4 1000 68 10000 7.7 80 16:58 03.02.2020
3536 Clouds -4 1000 68 10000 7.7 80 16:38 03.02.2020
3537 Clouds -4 1000 68 10000 7.7 80 16:20 03.02.2020
3538 Clouds -5 1000 73 10000 7.2 60 15:54 03.02.2020
3539 Clouds -5 1000 73 10000 7.2 60 15:36 03.02.2020
3540 Clouds -5 1000 73 10000 7.2 60 15:18 03.02.2020
3541 Clouds -5 1001 79 10000 4.1 80 14:41 03.02.2020
3542 Clouds -5 1001 79 10000 4.1 80 14:22 03.02.2020
3543 Clouds -5 1001 79 7000 4.1 90 13:55 03.02.2020
3544 Clouds -5 1001 79 7000 4.1 90 13:37 03.02.2020
3545 Clouds -5 1001 79 7000 4.1 90 13:19 03.02.2020
3546 Snow -5 1001 79 5000 1 0 12:41 03.02.2020
3547 Snow -5 1001 79 5000 1 0 12:23 03.02.2020
3548 Snow -6 1001 85 4000 3.6 50 11:59 03.02.2020
3549 Snow -6 1001 85 4000 3.6 50 11:38 03.02.2020
3550 Snow -6 1001 85 4000 3.6 50 11:19 03.02.2020
3551 Snow -6 1001 85 3500 4.1 50 10:55 03.02.2020
3552 Snow -6 1001 85 3500 4.1 50 10:37 03.02.2020
3553 Snow -6 1001 85 3500 4.1 50 10:18 03.02.2020
3554 Snow -6 1001 85 0 1 0 09:38 03.02.2020
3555 Snow -6 1001 85 0 1 0 09:19 03.02.2020
3556 Snow -7 1001 85 0 6.2 40 08:41 03.02.2020
3557 Snow -7 1001 85 0 6.2 40 08:22 03.02.2020
3558 Snow -7 1001 85 0 7.7 60 07:43 03.02.2020
3559 Snow -7 1001 85 0 7.7 60 07:23 03.02.2020
3560 Snow -7 1001 79 0 3.1 0 06:57 03.02.2020
3561 Snow -7 1001 79 0 3.1 0 06:31 03.02.2020
3562 Snow -7 1001 73 0 0.5 0 05:58 03.02.2020
3563 Snow -7 1001 73 0 0.5 0 05:34 03.02.2020
3564 Snow -8 1001 78 0 0.5 0 04:47 03.02.2020
3565 Snow -8 1000 78 4000 1.5 180 02:53 03.02.2020
3566 Snow -8 1000 78 4000 1.5 180 02:32 03.02.2020
3567 Snow -9 1000 66 10000 1 100 00:55 03.02.2020
3568 Snow -9 1000 66 10000 1 100 00:36 03.02.2020
3569 Snow -9 1000 66 10000 1 100 00:18 03.02.2020
3570 Clouds -10 1000 66 0 3.13 110 23:37 02.02.2020
3571 Clouds -10 1000 66 0 2.65 126 23:18 02.02.2020
3572 Clouds -11 1000 72 0 2.1 100 22:40 02.02.2020
3573 Clouds -11 1000 72 0 2.1 100 22:22 02.02.2020
3574 Clouds -11 1000 72 0 3.1 50 21:58 02.02.2020
3575 Clouds -11 1000 72 0 3.1 50 21:39 02.02.2020
3576 Clouds -11 1000 72 0 3.1 50 21:21 02.02.2020
3577 Clouds -11 999 72 0 2.6 60 20:58 02.02.2020
3578 Clouds -10 999 72 0 2.6 60 20:39 02.02.2020
3579 Clouds -10 999 72 0 2.6 60 20:20 02.02.2020
3580 Clouds -10 999 72 0 4.6 60 19:59 02.02.2020
3581 Clouds -10 999 72 0 4.6 60 19:59 02.02.2020
3582 Clouds -10 999 72 0 4.6 60 19:41 02.02.2020
3583 Clouds -10 999 72 0 4.6 60 19:22 02.02.2020
3584 Clouds -10 999 72 10000 3.6 60 18:57 02.02.2020
3585 Clouds -10 999 72 10000 3.6 60 18:38 02.02.2020
3586 Clouds -10 999 72 10000 3.6 60 18:38 02.02.2020
3587 Clouds -10 999 72 10000 3.6 60 18:20 02.02.2020
3588 Clouds -10 998 72 10000 7.7 70 17:57 02.02.2020
3589 Clouds -10 998 72 10000 7.7 70 17:38 02.02.2020
3590 Clouds -10 998 72 10000 7.7 70 17:18 02.02.2020
3591 Clouds -10 999 72 10000 6.7 80 16:58 02.02.2020
3592 Clouds -10 999 72 10000 6.7 80 16:38 02.02.2020
3593 Clouds -10 999 72 10000 6.7 80 16:19 02.02.2020
3594 Clouds -10 999 72 10000 5.7 80 15:57 02.02.2020
3595 Clouds -10 999 72 10000 5.7 80 15:38 02.02.2020
3596 Clouds -10 999 72 10000 5.7 80 15:19 02.02.2020
3597 Clouds -10 999 72 10000 5.1 100 14:44 02.02.2020
3598 Clouds -10 999 72 10000 5.1 100 14:20 02.02.2020
3599 Snow -10 998 72 0 6.2 100 13:59 02.02.2020
3600 Snow -10 998 72 0 6.2 100 13:41 02.02.2020
3601 Snow -10 998 72 0 6.2 100 13:22 02.02.2020
3602 Snow -10 998 72 0 5.7 100 12:57 02.02.2020
3603 Snow -10 998 72 0 5.7 100 12:39 02.02.2020
3604 Snow -10 998 72 0 5.7 100 12:21 02.02.2020
3605 Clouds -10 998 78 0 5.7 90 11:54 02.02.2020
3606 Clouds -10 998 78 0 5.7 90 11:36 02.02.2020
3607 Clouds -10 998 78 0 5.7 90 11:18 02.02.2020
3608 Clouds -10 998 72 0 5.7 100 10:54 02.02.2020
3609 Clouds -10 998 72 0 5.7 100 10:36 02.02.2020
3610 Clouds -10 998 72 0 5.7 100 10:18 02.02.2020
3611 Clouds -10 998 72 0 5.7 90 09:40 02.02.2020
3612 Clouds -10 998 72 0 5.7 90 09:21 02.02.2020
3613 Clouds -10 997 72 0 5.1 80 08:56 02.02.2020
3614 Clouds -10 997 72 0 5.1 80 08:37 02.02.2020
3615 Clear -10 997 72 0 5.1 80 08:18 02.02.2020
3616 Clear -10 997 72 0 4.1 100 07:42 02.02.2020
3617 Clear -10 997 72 0 4.1 100 07:42 02.02.2020
3618 Clear -10 997 72 0 4.1 100 07:24 02.02.2020
3619 Clear -10 998 66 0 3.6 70 06:38 02.02.2020
3620 Clear -10 998 66 0 3.6 70 06:18 02.02.2020
3621 Clear -10 998 72 0 3.1 50 05:20 02.02.2020
3622 Snow -10 998 72 0 2.6 10 04:30 02.02.2020
3623 Clear -10 998 78 0 2.1 320 03:24 02.02.2020
3624 Snow -10 998 72 0 3.6 40 02:22 02.02.2020
3625 Clear -10 998 72 0 4.1 70 01:50 02.02.2020
3626 Clear -10 998 72 0 5.1 80 00:56 02.02.2020
3627 Clear -10 998 72 0 5.1 80 00:37 02.02.2020
3628 Clear -10 998 72 0 5.1 80 00:18 02.02.2020
3629 Clear -10 997 78 0 4.6 70 23:41 01.02.2020
3630 Clear -10 997 78 0 4.6 70 23:21 01.02.2020
3631 Clouds -10 997 72 10000 4.1 50 22:44 01.02.2020
3632 Clouds -10 997 72 10000 4.1 50 22:19 01.02.2020
3633 Snow -10 997 78 10000 4.6 40 21:42 01.02.2020
3634 Snow -10 997 78 10000 4.6 40 21:19 01.02.2020
3635 Snow -10 997 78 10000 4.1 40 20:57 01.02.2020
3636 Snow -10 997 78 10000 4.1 40 20:38 01.02.2020
3637 Snow -10 997 78 10000 4.1 40 20:19 01.02.2020
3638 Snow -10 996 78 10000 5.7 60 19:56 01.02.2020
3639 Snow -10 996 78 10000 5.7 60 19:37 01.02.2020
3640 Snow -10 996 78 10000 5.7 60 19:19 01.02.2020
3641 Snow -10 996 78 10000 5.7 60 19:19 01.02.2020
3642 Snow -10 996 72 10000 4.1 50 18:56 01.02.2020
3643 Snow -9 996 72 10000 4.1 50 18:37 01.02.2020
3644 Snow -9 996 72 10000 4.1 50 18:19 01.02.2020
3645 Snow -9 997 78 7000 3.6 40 17:55 01.02.2020
3646 Snow -9 997 78 7000 3.6 40 17:37 01.02.2020
3647 Snow -9 997 78 7000 3.6 40 17:18 01.02.2020
3648 Snow -9 997 78 3000 4.1 60 16:41 01.02.2020
3649 Snow -9 997 78 3000 4.1 60 16:21 01.02.2020
3650 Snow -10 997 78 5000 5.1 70 15:47 01.02.2020
3651 Snow -10 997 78 5000 5.1 70 15:29 01.02.2020
3652 Snow -10 997 78 10000 4.1 70 15:00 01.02.2020
3653 Snow -10 997 78 10000 4.1 70 14:40 01.02.2020
3654 Snow -10 997 78 10000 4.1 70 14:20 01.02.2020
3655 Snow -11 996 78 10000 4.6 10 13:45 01.02.2020
3656 Snow -11 996 78 10000 4.6 10 13:24 01.02.2020
3657 Clear -11 996 78 0 4.47 10 12:56 01.02.2020
3658 Clear -10 996 78 0 3.58 340 12:38 01.02.2020
3659 Snow -10 996 78 10000 3.6 340 12:20 01.02.2020
3660 Snow -10 996 78 10000 3.6 340 11:40 01.02.2020
3661 Snow -10 996 78 10000 3.6 340 11:21 01.02.2020
3662 Snow -10 995 78 0 3.6 20 10:58 01.02.2020
3663 Snow -10 995 78 0 3.6 20 10:39 01.02.2020
3664 Snow -10 995 78 0 3.6 20 10:21 01.02.2020
3665 Clear -10 995 78 0 3.6 40 09:58 01.02.2020
3666 Clear -10 995 78 0 3.6 40 09:40 01.02.2020
3667 Clear -10 995 78 0 3.6 40 09:20 01.02.2020
3668 Clear -11 995 85 0 4.6 50 08:48 01.02.2020
3669 Clouds -11 995 78 0 5.1 20 07:51 01.02.2020
3670 Clouds -11 995 78 0 5.1 20 07:28 01.02.2020
3671 Clouds -11 995 78 0 5.1 20 07:28 01.02.2020
3672 Clouds -11 995 78 0 5.1 20 07:28 01.02.2020
3673 Clouds -11 995 85 0 5.1 360 06:59 01.02.2020
3674 Clouds -11 995 85 0 5.1 360 06:40 01.02.2020
3675 Snow -11 995 78 0 5.1 70 05:53 01.02.2020
3676 Snow -11 995 78 0 4.6 20 04:21 01.02.2020
3677 Snow -11 995 85 0 4.6 40 03:23 01.02.2020
3678 Snow -11 995 78 0 6.2 70 02:48 01.02.2020
3679 Snow -11 995 78 0 6.2 70 02:30 01.02.2020
3680 Clouds -12 995 78 0 4.1 20 01:55 01.02.2020
3681 Clouds -12 995 78 0 4.1 20 01:37 01.02.2020
3682 Snow -11 995 78 0 5.7 350 00:38 01.02.2020
3683 Snow -11 995 78 0 5.7 350 00:19 01.02.2020
3684 Clouds -11 994 78 10000 5.1 360 23:38 31.01.2020
3685 Clouds -11 994 78 10000 5.1 360 23:18 31.01.2020
3686 Clouds -11 994 78 10000 6.2 80 22:54 31.01.2020
3687 Clouds -11 994 78 10000 6.2 80 22:36 31.01.2020
3688 Clouds -11 994 78 10000 6.2 80 22:18 31.01.2020
3689 Clouds -11 994 85 10000 3.6 20 21:39 31.01.2020
3690 Clouds -11 994 85 10000 3.6 20 21:21 31.01.2020
3691 Clouds -11 993 85 10000 5.7 10 20:57 31.01.2020
3692 Clouds -11 993 85 10000 5.7 10 20:39 31.01.2020
3693 Clouds -11 993 85 10000 5.7 10 20:20 31.01.2020
3694 Clouds -11 993 78 10000 4.6 50 19:56 31.01.2020
3695 Clouds -11 993 78 10000 4.6 50 19:38 31.01.2020
3696 Clouds -11 993 78 10000 4.6 50 19:38 31.01.2020
3697 Clouds -11 993 78 10000 4.6 50 19:19 31.01.2020
3698 Clouds -11 993 78 10000 4.6 50 19:19 31.01.2020
3699 Clouds -11 993 78 10000 5.7 60 18:54 31.01.2020
3700 Clouds -11 993 78 10000 5.7 60 18:36 31.01.2020
3701 Clouds -11 993 78 10000 5.7 60 18:18 31.01.2020
3702 Clouds -11 993 72 10000 4.1 60 17:40 31.01.2020
3703 Clouds -11 993 72 10000 4.1 60 17:21 31.01.2020
3704 Clouds -11 993 78 10000 4.6 60 16:56 31.01.2020
3705 Clouds -11 993 78 10000 4.6 60 16:38 31.01.2020
3706 Clouds -11 993 78 10000 4.6 60 16:18 31.01.2020
3707 Clouds -11 993 72 10000 6.2 80 15:56 31.01.2020
3708 Clouds -11 993 72 10000 6.2 80 15:38 31.01.2020
3709 Clouds -11 993 72 10000 6.2 80 15:19 31.01.2020
3710 Clear -11 993 78 0 3.58 20 14:42 31.01.2020
3711 Clear -11 993 78 0 3.58 20 14:42 31.01.2020
3712 Snow -11 993 78 5000 3.6 20 14:23 31.01.2020
3713 Snow -11 993 78 5000 3.6 20 13:52 31.01.2020
3714 Snow -11 993 78 5000 3.6 20 13:32 31.01.2020
3715 Snow -12 993 78 4000 4.6 70 12:56 31.01.2020
3716 Snow -12 993 78 4000 4.6 70 12:38 31.01.2020
3717 Snow -12 993 78 4000 4.6 70 12:20 31.01.2020
3718 Snow -12 992 78 10000 4.6 70 11:42 31.01.2020
3719 Snow -12 992 78 10000 4.6 70 11:23 31.01.2020
3720 Clouds -12 992 78 10000 5.1 60 10:58 31.01.2020
3721 Clouds -12 992 78 10000 5.1 60 10:58 31.01.2020
3722 Clouds -12 992 78 10000 5.1 60 10:39 31.01.2020
3723 Clouds -12 992 78 10000 5.1 60 10:20 31.01.2020
3724 Snow -12 992 78 0 4.6 360 09:56 31.01.2020
3725 Snow -12 992 78 0 4.6 360 09:38 31.01.2020
3726 Snow -12 992 78 0 4.6 360 09:18 31.01.2020
3727 Clear -13 992 78 0 4.6 70 08:50 31.01.2020
3728 Clear -13 992 78 0 4.6 70 08:25 31.01.2020
3729 Snow -13 992 78 0 4.6 60 07:52 31.01.2020
3730 Snow -13 992 78 0 4.6 60 07:24 31.01.2020
3731 Snow -13 992 78 0 4.6 60 07:24 31.01.2020
3732 Clear -13 992 78 0 5.1 60 06:42 31.01.2020
3733 Clear -13 992 71 0 4.1 60 05:58 31.01.2020
3734 Clear -13 992 71 0 4.1 60 05:40 31.01.2020
3735 Clear -14 992 77 0 4.6 60 04:47 31.01.2020
3736 Clouds -14 993 71 10000 4.1 50 02:58 31.01.2020
3737 Clouds -15 993 77 10000 4.6 70 01:33 31.01.2020
3738 Clouds -14 994 77 10000 4.6 70 00:44 31.01.2020
3739 Clouds -14 994 77 10000 4.6 70 00:25 31.01.2020
3740 Clouds -15 994 77 10000 5.1 80 23:53 30.01.2020
3741 Clouds -15 994 77 10000 5.1 80 23:24 30.01.2020
3742 Clouds -15 994 71 10000 3.6 60 22:56 30.01.2020
3743 Clouds -14 994 71 10000 3.6 60 22:36 30.01.2020
3744 Clouds -14 994 71 10000 3.6 60 22:18 30.01.2020
3745 Clouds -14 994 77 10000 4.6 60 21:55 30.01.2020
3746 Clouds -14 994 77 10000 4.6 60 21:36 30.01.2020
3747 Clouds -14 994 77 10000 4.6 60 21:18 30.01.2020
3748 Clouds -13 994 65 10000 4.6 40 20:40 30.01.2020
3749 Clouds -13 994 65 10000 4.6 40 20:21 30.01.2020
3750 Clouds -14 994 71 10000 5.7 70 19:56 30.01.2020
3751 Clouds -14 994 71 10000 5.7 70 19:38 30.01.2020
3752 Clouds -14 994 71 10000 5.7 70 19:18 30.01.2020
3753 Clouds -13 994 65 10000 5.7 70 18:41 30.01.2020
3754 Clouds -13 994 65 10000 5.7 70 18:21 30.01.2020
3755 Clouds -14 995 71 10000 6.2 80 17:56 30.01.2020
3756 Clouds -14 995 71 10000 6.2 80 17:37 30.01.2020
3757 Clouds -14 995 71 10000 6.2 80 17:18 30.01.2020
3758 Clouds -14 995 71 10000 5.7 80 16:56 30.01.2020
3759 Clouds -14 995 71 10000 5.7 80 16:37 30.01.2020
3760 Clouds -14 995 71 10000 5.7 80 16:19 30.01.2020
3761 Clouds -15 996 77 10000 5.1 90 15:43 30.01.2020
3762 Clouds -15 996 77 10000 5.1 90 15:19 30.01.2020
3763 Clouds -15 996 77 10000 5.1 80 14:50 30.01.2020
3764 Clouds -15 996 77 10000 5.1 80 14:50 30.01.2020
3765 Clouds -15 996 77 10000 5.1 80 14:27 30.01.2020
3766 Clouds -15 996 77 10000 5.1 80 14:27 30.01.2020
3767 Clouds -15 996 77 10000 5.1 80 13:56 30.01.2020
3768 Clouds -15 996 77 10000 5.1 80 13:36 30.01.2020
3769 Clouds -15 996 77 10000 5.1 80 13:18 30.01.2020
3770 Clouds -14 996 77 10000 4.6 80 12:42 30.01.2020
3771 Clouds -14 996 77 10000 4.6 80 12:24 30.01.2020
3772 Clouds -14 997 71 10000 4.1 80 11:57 30.01.2020
3773 Clouds -14 997 71 10000 4.1 80 11:39 30.01.2020
3774 Clouds -14 997 71 10000 4.1 80 11:21 30.01.2020
3775 Clear -15 997 77 0 4.6 90 10:42 30.01.2020
3776 Clear -15 997 77 0 4.6 90 10:24 30.01.2020
3777 Clear -15 998 84 0 4.6 80 09:49 30.01.2020
3778 Clear -15 998 84 0 4.6 80 09:49 30.01.2020
3779 Clear -15 998 84 0 4.6 80 09:30 30.01.2020
3780 Clear -15 998 77 0 3.6 90 08:59 30.01.2020
3781 Clear -14 998 77 0 3.6 90 08:41 30.01.2020
3782 Clear -14 998 77 0 3.6 90 08:20 30.01.2020
3783 Clear -14 998 77 0 3.1 80 07:52 30.01.2020
3784 Clear -14 998 77 0 3.1 80 07:32 30.01.2020
3785 Clear -14 998 77 0 4.1 80 06:47 30.01.2020
3786 Clear -14 998 77 0 4.1 80 06:29 30.01.2020
3787 Clear -14 998 77 0 4.1 70 05:47 30.01.2020
3788 Clear -14 998 77 0 4.1 70 05:24 30.01.2020
3789 Clear -14 999 71 0 4.1 70 03:55 30.01.2020
3790 Clear -14 999 71 0 4.1 70 03:37 30.01.2020
3791 Clear -15 999 71 0 5.1 80 02:48 30.01.2020
3792 Clear -15 1000 71 0 3.6 70 00:53 30.01.2020
3793 Clear -15 1000 71 0 3.6 70 00:21 30.01.2020
3794 Clouds -14 1000 65 10000 3.1 70 23:47 29.01.2020
3795 Clouds -14 1000 65 10000 3.1 70 23:22 29.01.2020
3796 Clouds -14 1000 71 10000 4.6 10 22:58 29.01.2020
3797 Clouds -13 1000 71 10000 4.6 10 22:39 29.01.2020
3798 Clouds -13 1000 71 10000 4.6 10 22:19 29.01.2020
3799 Clouds -13 1000 71 10000 4.6 30 21:58 29.01.2020
3800 Clouds -13 1000 71 10000 4.6 30 21:39 29.01.2020
3801 Clouds -13 1000 71 10000 4.6 30 21:39 29.01.2020
3802 Clouds -13 1000 71 10000 4.6 30 21:19 29.01.2020
3803 Clouds -13 1000 71 10000 4.1 30 20:58 29.01.2020
3804 Clouds -13 1000 71 10000 4.1 30 20:39 29.01.2020
3805 Clouds -13 1000 71 10000 4.1 30 20:21 29.01.2020
3806 Clouds -13 1000 65 10000 4.1 40 19:57 29.01.2020
3807 Clouds -13 1000 65 10000 4.1 40 19:37 29.01.2020
3808 Clouds -13 1000 65 10000 4.1 40 19:19 29.01.2020
3809 Clouds -13 1000 55 10000 4.1 40 18:54 29.01.2020
3810 Clouds -12 1000 55 10000 4.1 40 18:36 29.01.2020
3811 Clouds -12 1000 55 10000 4.1 40 18:18 29.01.2020
3812 Clouds -13 1000 55 10000 4.6 60 17:39 29.01.2020
3813 Clouds -13 1000 55 10000 4.6 60 17:39 29.01.2020
3814 Clouds -13 1000 55 10000 4.6 60 17:21 29.01.2020
3815 Clear -13 1000 55 10000 6.2 70 16:42 29.01.2020
3816 Clear -13 1000 55 10000 6.2 70 16:23 29.01.2020
3817 Clear -13 1000 50 10000 6.7 70 15:56 29.01.2020
3818 Clear -13 1000 50 10000 6.7 70 15:56 29.01.2020
3819 Clear -13 1000 50 10000 6.7 70 15:37 29.01.2020
3820 Clear -13 1000 50 10000 6.7 70 15:19 29.01.2020
3821 Clouds -13 1000 50 10000 7.2 60 14:44 29.01.2020
3822 Clouds -13 1000 50 10000 7.2 60 14:21 29.01.2020
3823 Clear -13 1000 60 10000 5.1 60 13:56 29.01.2020
3824 Clear -13 1000 60 10000 5.1 60 13:38 29.01.2020
3825 Clear -13 1000 60 10000 5.1 60 13:19 29.01.2020
3826 Clouds -13 1000 65 10000 4.1 50 12:56 29.01.2020
3827 Clouds -13 1000 65 10000 4.1 50 12:37 29.01.2020
3828 Clouds -13 1000 65 10000 4.1 50 12:19 29.01.2020
3829 Clouds -14 1000 71 10000 4.6 60 11:45 29.01.2020
3830 Clouds -14 1000 71 10000 4.6 60 11:21 29.01.2020
3831 Clear -13 999 71 0 5.1 20 10:47 29.01.2020
3832 Clear -13 999 71 0 5.1 20 10:26 29.01.2020
3833 Clear -13 999 65 0 5.1 20 09:58 29.01.2020
3834 Clear -13 999 65 0 5.1 20 09:40 29.01.2020
3835 Clear -13 999 65 0 5.1 20 09:20 29.01.2020
3836 Clear -13 999 65 0 5.1 20 09:20 29.01.2020
3837 Clear -13 999 71 0 4.6 20 08:56 29.01.2020
3838 Clear -13 999 71 0 4.6 20 08:38 29.01.2020
3839 Clouds -13 999 71 0 4.6 20 08:18 29.01.2020
3840 Clouds -13 999 65 0 4.6 60 07:43 29.01.2020
3841 Clouds -13 999 65 0 4.6 60 07:23 29.01.2020
3842 Clouds -12 998 72 0 6.2 10 06:38 29.01.2020
3843 Clouds -12 998 72 0 6.2 10 06:20 29.01.2020
3844 Clouds -13 998 71 0 6.2 20 05:54 29.01.2020
3845 Clouds -13 998 71 0 6.2 20 05:35 29.01.2020
3846 Clouds -12 998 78 0 5.7 360 04:39 29.01.2020
3847 Clouds -12 998 78 0 5.7 360 04:18 29.01.2020
3848 Clouds -12 998 78 10000 5.1 40 02:40 29.01.2020
3849 Clouds -11 998 72 10000 3.6 50 01:44 29.01.2020
3850 Clouds -11 998 72 10000 4.1 60 00:41 29.01.2020
3851 Clouds -11 998 72 10000 4.1 60 00:23 29.01.2020
3852 Clouds -11 998 72 10000 4.6 60 23:41 28.01.2020
3853 Clouds -11 998 72 10000 4.6 60 23:21 28.01.2020
3854 Clouds -11 998 78 10000 5.1 70 22:57 28.01.2020
3855 Clouds -11 998 78 10000 5.1 70 22:39 28.01.2020
3856 Clouds -11 998 78 10000 5.1 70 22:20 28.01.2020
3857 Clouds -12 997 72 10000 5.7 70 21:42 28.01.2020
3858 Clouds -12 997 72 10000 5.7 70 21:20 28.01.2020
3859 Clouds -12 997 66 10000 6.7 80 20:57 28.01.2020
3860 Clouds -12 997 66 10000 6.7 80 20:39 28.01.2020
3861 Clouds -12 997 66 10000 6.7 80 20:21 28.01.2020
3862 Clouds -11 997 61 10000 6.7 80 19:39 28.01.2020
3863 Clouds -11 997 61 10000 6.7 80 19:20 28.01.2020
3864 Clouds -11 998 61 10000 6.7 80 18:58 28.01.2020
3865 Clouds -11 998 61 10000 6.7 80 18:39 28.01.2020
3866 Clouds -11 998 61 10000 6.7 80 18:21 28.01.2020
3867 Clouds -11 998 56 10000 5.1 90 17:57 28.01.2020
3868 Clouds -11 998 56 10000 5.1 90 17:37 28.01.2020
3869 Clouds -11 998 56 10000 5.1 90 17:19 28.01.2020
3870 Clouds -11 998 56 10000 5.1 90 17:19 28.01.2020
3871 Clouds -11 998 56 10000 4.6 80 16:46 28.01.2020
3872 Clouds -11 998 56 10000 4.6 80 16:27 28.01.2020
3873 Clouds -12 998 60 10000 4.6 80 15:59 28.01.2020
3874 Clouds -12 998 60 10000 4.6 80 15:41 28.01.2020
3875 Clouds -12 998 60 10000 4.6 80 15:18 28.01.2020
3876 Clouds -13 998 65 10000 4.6 90 14:45 28.01.2020
3877 Clouds -13 998 65 10000 4.6 90 14:20 28.01.2020
3878 Clouds -13 998 60 10000 4.1 90 13:58 28.01.2020
3879 Clouds -13 998 60 10000 4.1 90 13:39 28.01.2020
3880 Clouds -13 998 60 10000 4.1 90 13:20 28.01.2020
3881 Clouds -12 998 60 10000 4.6 80 12:42 28.01.2020
3882 Clouds -12 998 60 10000 4.6 80 12:23 28.01.2020
3883 Clouds -13 998 65 10000 5.7 90 11:48 28.01.2020
3884 Clouds -13 998 65 10000 5.7 90 11:23 28.01.2020
3885 Clouds -13 998 72 10000 6.7 80 10:58 28.01.2020
3886 Clouds -12 998 72 10000 6.7 80 10:39 28.01.2020
3887 Clouds -12 998 72 10000 6.7 80 10:20 28.01.2020
3888 Clouds -12 998 66 10000 4.6 80 09:43 28.01.2020
3889 Clouds -12 998 66 10000 4.6 80 09:21 28.01.2020
3890 Clouds -12 998 66 10000 4.6 80 08:58 28.01.2020
3891 Clouds -12 998 66 10000 4.6 80 08:39 28.01.2020
3892 Clouds -12 998 66 10000 4.6 80 08:19 28.01.2020
3893 Clouds -12 998 66 10000 3.1 90 07:37 28.01.2020
3894 Clouds -11 998 66 10000 2.6 360 06:50 28.01.2020
3895 Clouds -11 998 66 10000 2.6 360 06:26 28.01.2020
3896 Clouds -11 998 66 10000 2.6 110 05:54 28.01.2020
3897 Clouds -11 998 66 10000 2.6 110 05:26 28.01.2020
3898 Clouds -12 998 85 10000 3.1 0 04:28 28.01.2020
3899 Snow -11 999 78 4000 2.1 10 02:58 28.01.2020
3900 Snow -11 999 78 4000 2.1 10 02:25 28.01.2020
3901 Snow -11 999 85 7000 3.1 360 01:57 28.01.2020
3902 Snow -11 999 85 7000 3.1 360 01:57 28.01.2020
3903 Snow -11 999 85 7000 3.1 360 01:26 28.01.2020
3904 Clouds -11 998 78 10000 3.1 350 00:51 28.01.2020
3905 Clouds -11 998 78 10000 3.1 350 00:29 28.01.2020
3906 Clouds -11 998 72 10000 2.6 330 23:51 27.01.2020
3907 Clouds -11 998 72 10000 2.6 330 23:30 27.01.2020
3908 Clouds -11 998 78 10000 2.6 10 22:56 27.01.2020
3909 Clouds -11 998 78 10000 2.6 10 22:38 27.01.2020
3910 Clouds -11 998 78 10000 2.6 10 22:18 27.01.2020
3911 Clouds -11 998 72 10000 2.6 10 21:54 27.01.2020
3912 Clouds -11 998 72 10000 2.6 10 21:36 27.01.2020
3913 Clouds -11 998 72 10000 2.6 10 21:18 27.01.2020
3914 Clouds -11 997 78 10000 3.1 20 20:43 27.01.2020
3915 Clouds -11 997 78 10000 3.1 20 20:22 27.01.2020
3916 Clouds -11 997 78 10000 3.1 20 20:22 27.01.2020
3917 Clouds -11 997 78 10000 3.1 20 19:59 27.01.2020
3918 Clouds -11 997 78 10000 3.1 20 19:40 27.01.2020
3919 Clouds -11 997 78 10000 3.1 20 19:22 27.01.2020
3920 Clouds -11 997 72 10000 3.1 40 18:56 27.01.2020
3921 Clouds -11 997 72 10000 3.1 40 18:37 27.01.2020
3922 Clouds -11 997 72 10000 3.1 40 18:19 27.01.2020
3923 Snow -11 997 72 10000 2.1 70 17:39 27.01.2020
3924 Snow -11 997 72 10000 2.1 70 17:21 27.01.2020
3925 Rain -11 997 78 10000 2.6 50 16:59 27.01.2020
3926 Rain -11 997 78 10000 2.6 50 16:40 27.01.2020
3927 Rain -11 997 78 10000 2.6 50 16:22 27.01.2020
3928 Clouds -11 997 78 10000 3.6 30 15:55 27.01.2020
3929 Clouds -11 997 78 10000 3.6 30 15:55 27.01.2020
3930 Clouds -11 997 78 10000 3.6 30 15:36 27.01.2020
3931 Clouds -11 997 78 10000 3.6 30 15:36 27.01.2020
3932 Clouds -11 997 78 10000 3.6 30 15:18 27.01.2020
3933 Rain -11 997 85 10000 2.6 10 14:42 27.01.2020
3934 Rain -11 997 85 10000 2.6 10 14:22 27.01.2020
3935 Rain -11 997 85 10000 2.6 10 14:22 27.01.2020
3936 Snow -11 997 85 4500 3.1 10 13:57 27.01.2020
3937 Snow -11 997 85 4500 3.1 10 13:37 27.01.2020
3938 Snow -11 997 85 4500 3.1 10 13:18 27.01.2020
3939 Snow -11 997 78 5000 3.6 10 12:44 27.01.2020
3940 Snow -11 997 78 5000 3.6 10 12:23 27.01.2020
3941 Snow -11 997 78 5000 3.6 10 12:23 27.01.2020
3942 Clouds -11 996 72 10000 3.6 10 11:58 27.01.2020
3943 Clouds -11 996 72 10000 3.6 10 11:40 27.01.2020
3944 Clouds -11 996 72 10000 3.6 10 11:20 27.01.2020
3945 Snow -11 996 78 0 3.6 20 10:43 27.01.2020
3946 Snow -11 996 78 0 3.6 20 10:24 27.01.2020
3947 Snow -11 996 72 0 4.1 360 09:54 27.01.2020
3948 Snow -11 996 72 0 4.1 360 09:36 27.01.2020
3949 Snow -11 996 72 0 4.1 360 09:18 27.01.2020
3950 Snow -11 995 72 0 3.1 80 08:42 27.01.2020
3951 Snow -11 995 72 0 3.1 80 08:20 27.01.2020
3952 Snow -11 995 72 0 3.6 80 07:53 27.01.2020
3953 Snow -11 995 72 0 3.6 80 07:33 27.01.2020
3954 Snow -11 995 72 0 4.6 80 06:51 27.01.2020
3955 Snow -11 995 72 0 4.6 80 06:24 27.01.2020
3956 Snow -11 995 72 0 4.6 80 05:22 27.01.2020
3957 Snow -10 995 66 0 4.1 70 03:43 27.01.2020
3958 Snow -10 995 66 0 3.6 90 02:32 27.01.2020
3959 Clouds -10 995 61 0 3.1 90 01:29 27.01.2020
3960 Clouds -11 996 66 0 3.1 80 00:43 27.01.2020
3961 Clouds -11 996 66 0 3.1 80 00:23 27.01.2020
3962 Clouds -10 995 61 0 5.7 70 23:59 26.01.2020
3963 Clouds -10 995 61 0 5.7 70 23:41 26.01.2020
3964 Clouds -10 995 61 0 5.7 70 23:41 26.01.2020
3965 Clouds -10 995 61 0 5.7 70 23:41 26.01.2020
3966 Clouds -10 995 61 0 5.7 70 23:19 26.01.2020
3967 Clouds -11 995 56 0 4.6 60 22:54 26.01.2020
3968 Clouds -11 995 56 0 4.6 60 22:36 26.01.2020
3969 Clouds -11 995 56 0 4.6 60 22:18 26.01.2020
3970 Clouds -11 996 66 10000 5.7 20 21:55 26.01.2020
3971 Clouds -11 996 66 10000 5.7 20 21:37 26.01.2020
3972 Clouds -11 996 66 10000 5.7 20 21:18 26.01.2020
3973 Clouds -11 995 61 10000 5.7 30 20:55 26.01.2020
3974 Clouds -11 995 61 10000 5.7 30 20:36 26.01.2020
3975 Clouds -11 995 61 10000 5.7 30 20:18 26.01.2020
3976 Clouds -11 995 66 10000 6.2 30 19:56 26.01.2020
3977 Clouds -11 995 66 10000 6.2 30 19:36 26.01.2020
3978 Clouds -11 995 66 10000 6.2 30 19:18 26.01.2020
3979 Clouds -10 995 61 10000 7.7 10 18:41 26.01.2020
3980 Clouds -10 995 61 10000 7.7 10 18:22 26.01.2020
3981 Clouds -10 995 61 10000 6.7 20 17:58 26.01.2020
3982 Clouds -10 995 61 10000 6.7 20 17:39 26.01.2020
3983 Clouds -10 995 61 10000 6.7 20 17:19 26.01.2020
3984 Clouds -10 995 61 10000 8.2 40 16:58 26.01.2020
3985 Clouds -10 995 61 10000 8.2 40 16:39 26.01.2020
3986 Clouds -10 995 61 10000 8.2 40 16:39 26.01.2020
3987 Clouds -10 995 61 10000 8.2 40 16:39 26.01.2020
3988 Clouds -10 995 61 10000 8.2 40 16:20 26.01.2020
3989 Clouds -10 995 66 10000 5.7 30 15:57 26.01.2020
3990 Clouds -10 995 66 10000 5.7 30 15:39 26.01.2020
3991 Clouds -10 995 66 10000 5.7 30 15:18 26.01.2020
3992 Clouds -11 996 66 10000 6.2 40 14:40 26.01.2020
3993 Clouds -11 996 66 10000 6.2 40 14:40 26.01.2020
3994 Clouds -11 996 66 10000 6.2 40 14:21 26.01.2020
3995 Clouds -11 996 66 10000 6.2 40 13:55 26.01.2020
3996 Clouds -11 996 66 10000 7.2 40 13:37 26.01.2020
3997 Clouds -11 996 66 10000 7.2 40 13:18 26.01.2020
3998 Clouds -11 996 66 0 6.7 20 12:42 26.01.2020
3999 Clouds -11 996 66 0 6.7 20 12:24 26.01.2020
4000 Clouds -11 996 66 0 6.7 20 12:24 26.01.2020
4001 Clouds -11 996 78 0 5.1 360 11:58 26.01.2020
4002 Clouds -11 996 78 0 5.1 360 11:39 26.01.2020
4003 Clouds -11 996 78 0 5.1 360 11:19 26.01.2020
4004 Clouds -11 996 85 0 3.6 10 10:58 26.01.2020
4005 Clouds -11 996 85 0 3.6 10 10:38 26.01.2020
4006 Clouds -11 996 85 0 3.6 10 10:20 26.01.2020
4007 Clouds -11 996 78 0 3.6 10 09:58 26.01.2020
4008 Clouds -11 996 78 0 3.6 10 09:40 26.01.2020
4009 Clouds -11 996 78 0 3.6 10 09:21 26.01.2020
4010 Clouds -11 996 78 0 3.6 20 08:43 26.01.2020
4011 Clouds -11 996 78 0 3.6 20 08:23 26.01.2020
4012 Clouds -11 996 85 0 3.6 360 07:58 26.01.2020
4013 Clouds -11 996 85 0 3.6 360 07:39 26.01.2020
4014 Clouds -11 996 85 0 3.6 360 07:21 26.01.2020
4015 Snow -11 995 85 0 3.6 10 06:31 26.01.2020
4016 Clouds -11 995 85 0 2.6 360 05:32 26.01.2020
4017 Snow -10 996 85 0 3.6 350 04:45 26.01.2020
4018 Clouds -10 996 78 0 3.6 20 02:58 26.01.2020
4019 Clouds -11 996 78 0 3.6 60 01:57 26.01.2020
4020 Clouds -11 996 78 0 3.6 60 01:37 26.01.2020
4021 Clouds -11 996 78 0 3.6 60 01:18 26.01.2020
4022 Clouds -11 996 78 0 3.1 360 00:38 26.01.2020
4023 Clouds -11 996 78 0 3.1 360 00:20 26.01.2020
4024 Clouds -11 996 72 0 3.6 20 23:37 25.01.2020
4025 Clouds -11 996 72 0 3.6 20 23:18 25.01.2020
4026 Clouds -11 996 72 0 3.6 20 23:18 25.01.2020
4027 Clouds -10 996 61 10000 4.1 30 22:41 25.01.2020
4028 Clouds -10 996 61 10000 4.1 30 22:20 25.01.2020
4029 Clouds -10 996 66 10000 5.1 360 21:57 25.01.2020
4030 Clouds -10 996 66 10000 5.1 360 21:39 25.01.2020
4031 Clouds -9 998 71 0 4.33 14 21:21 25.01.2020
4032 Clouds -9 998 71 0 4.33 14 20:45 25.01.2020
4033 Clouds -9 998 73 0 4.02 16 20:26 25.01.2020
4034 Clouds -9 996 61 10000 5.1 70 20:26 25.01.2020
4035 Clouds -9 995 61 10000 5.1 70 19:57 25.01.2020
4036 Clouds -9 995 61 10000 5.1 70 19:38 25.01.2020
4037 Clouds -10 995 61 10000 4.6 70 19:19 25.01.2020
4038 Clouds -10 995 61 10000 4.6 70 18:56 25.01.2020
4039 Clouds -10 995 61 10000 4.6 70 18:37 25.01.2020
4040 Clouds -10 995 61 10000 4.6 70 18:19 25.01.2020
4041 Clouds -10 995 56 10000 4.6 60 17:39 25.01.2020
4042 Clouds -10 995 56 10000 4.6 60 17:19 25.01.2020
4043 Clouds -10 995 61 10000 5.1 30 16:56 25.01.2020
4044 Clouds -10 995 61 10000 5.1 30 16:38 25.01.2020
4045 Clouds -10 995 61 10000 5.1 30 16:19 25.01.2020
4046 Clouds -10 995 61 10000 4.1 40 15:46 25.01.2020
4047 Clouds -10 995 61 10000 4.1 40 15:25 25.01.2020
4048 Clouds -11 995 72 10000 4.1 50 14:57 25.01.2020
4049 Clouds -11 995 72 10000 4.1 50 14:39 25.01.2020
4050 Clouds -11 995 72 10000 4.1 50 14:18 25.01.2020
4051 Clouds -11 995 72 10000 4.1 50 13:41 25.01.2020
4052 Clouds -11 995 72 10000 4.1 50 13:22 25.01.2020
4053 Clouds -11 995 72 10000 5.1 60 12:43 25.01.2020
4054 Clouds -11 994 66 10000 6.2 80 12:23 25.01.2020
4055 Clouds -11 994 66 10000 6.2 80 11:45 25.01.2020
4056 Clouds -11 994 66 10000 6.2 80 11:22 25.01.2020
4057 Clouds -11 994 66 10000 6.2 80 11:22 25.01.2020
4058 Clouds -12 994 60 0 5.1 90 10:58 25.01.2020
4059 Clouds -12 994 60 0 5.1 90 10:40 25.01.2020
4060 Clouds -12 994 60 0 5.1 90 10:20 25.01.2020
4061 Clouds -12 993 55 0 5.1 100 09:41 25.01.2020
4062 Clouds -12 993 55 0 5.1 100 09:22 25.01.2020
4063 Clouds -12 993 55 0 6.2 110 08:44 25.01.2020
4064 Clouds -12 993 55 0 6.2 110 08:26 25.01.2020
4065 Snow -12 992 55 0 5.1 120 07:50 25.01.2020
4066 Snow -12 992 60 0 3.1 120 06:53 25.01.2020
4067 Snow -13 992 60 0 3.1 120 06:28 25.01.2020
4068 Snow -13 992 60 0 4.6 100 05:47 25.01.2020
4069 Snow -13 992 60 0 4.6 100 05:18 25.01.2020
4070 Snow -13 992 65 0 3.1 100 03:51 25.01.2020
4071 Snow -13 992 65 0 3.1 100 03:19 25.01.2020
4072 Snow -13 992 65 0 2.1 100 02:22 25.01.2020
4073 Snow -12 992 60 0 1 0 01:48 25.01.2020
4074 Clouds -11 993 56 10000 2.1 330 00:44 25.01.2020
4075 Clouds -11 993 56 10000 2.1 330 00:26 25.01.2020
4076 Clouds -11 992 56 10000 3.1 310 23:58 24.01.2020
4077 Clouds -11 992 56 10000 3.1 310 23:40 24.01.2020
4078 Clouds -11 992 56 10000 3.1 310 23:22 24.01.2020
4079 Clouds -11 992 56 10000 4.6 300 22:45 24.01.2020
4080 Clouds -11 992 56 10000 4.6 300 22:25 24.01.2020
4081 Snow -11 992 56 10000 6.2 300 21:56 24.01.2020
4082 Snow -11 992 56 10000 6.2 300 21:37 24.01.2020
4083 Snow -11 992 56 10000 6.2 300 21:18 24.01.2020
4084 Snow -11 991 78 10000 4.1 310 20:42 24.01.2020
4085 Snow -11 991 78 10000 4.1 310 20:21 24.01.2020
4086 Clouds -11 990 78 10000 4.6 310 19:57 24.01.2020
4087 Clouds -11 990 78 10000 4.6 310 19:39 24.01.2020
4088 Clouds -11 990 78 10000 4.6 310 19:21 24.01.2020
4089 Clouds -11 990 78 10000 5.1 300 18:43 24.01.2020
4090 Clouds -11 990 78 10000 5.1 300 18:43 24.01.2020
4091 Clouds -11 990 78 10000 5.1 300 18:24 24.01.2020
4092 Clouds -10 990 78 10000 5.7 300 17:56 24.01.2020
4093 Clouds -10 990 78 10000 5.7 300 17:38 24.01.2020
4094 Clouds -10 990 78 10000 5.7 300 17:18 24.01.2020
4095 Snow -10 990 78 10000 3.6 280 16:39 24.01.2020
4096 Snow -10 990 78 10000 3.6 280 16:39 24.01.2020
4097 Snow -10 990 78 10000 3.6 280 16:21 24.01.2020
4098 Snow -10 990 78 10000 3.6 280 16:21 24.01.2020
4099 Snow -10 990 72 10000 5.7 260 15:55 24.01.2020
4100 Snow -10 990 72 10000 5.7 260 15:37 24.01.2020
4101 Snow -10 990 72 10000 5.7 260 15:18 24.01.2020
4102 Rain -10 990 72 10000 6.2 250 14:41 24.01.2020
4103 Rain -10 990 72 10000 6.2 250 14:22 24.01.2020
4104 Rain -10 989 72 10000 6.2 250 13:44 24.01.2020
4105 Rain -10 989 72 10000 6.2 250 13:24 24.01.2020
4106 Snow -10 989 92 2400 8.7 230 12:45 24.01.2020
4107 Snow -10 989 92 2400 8.7 230 12:23 24.01.2020
4108 Snow -9 988 85 2500 8.7 230 11:59 24.01.2020
4109 Snow -9 988 85 2500 8.7 230 11:40 24.01.2020
4110 Snow -9 988 85 2500 8.7 230 11:18 24.01.2020
4111 Snow -9 987 92 3500 4.6 240 10:43 24.01.2020
4112 Snow -9 987 92 3500 4.6 240 10:21 24.01.2020
4113 Snow -9 986 85 4000 4.6 230 09:56 24.01.2020
4114 Snow -8 986 85 4000 4.6 230 09:37 24.01.2020
4115 Snow -8 986 85 4000 4.6 230 09:18 24.01.2020
4116 Snow -8 985 85 0 5.7 230 08:40 24.01.2020
4117 Snow -8 985 85 0 5.7 230 08:19 24.01.2020
4118 Snow -7 984 92 0 5.1 220 07:49 24.01.2020
4119 Snow -7 984 92 0 5.1 220 07:28 24.01.2020
4120 Snow -5 983 92 0 5.1 220 06:48 24.01.2020
4121 Snow -5 983 92 0 5.1 220 06:28 24.01.2020
4122 Snow -4 982 85 0 6.2 200 05:57 24.01.2020
4123 Snow -4 982 86 0 5.7 180 04:52 24.01.2020
4124 Snow -4 982 100 0 11.3 150 02:53 24.01.2020
4125 Snow -4 982 100 0 11.3 150 02:23 24.01.2020
4126 Snow -3 982 86 0 15.9 150 01:42 24.01.2020
4127 Snow -3 982 86 0 15.9 150 01:24 24.01.2020
4128 Snow -3 983 86 0 21.6 150 00:20 24.01.2020
4129 Snow -3 985 79 0 18.5 150 23:48 23.01.2020
4130 Snow -3 985 79 0 18.5 150 23:30 23.01.2020
4131 Snow -2 987 68 0 13.4 140 22:59 23.01.2020
4132 Snow -2 987 68 0 13.4 140 22:38 23.01.2020
4133 Snow -2 987 68 0 13.4 140 22:19 23.01.2020
4134 Snow -3 989 73 0 12.3 140 21:57 23.01.2020
4135 Snow -3 989 73 0 12.3 140 21:38 23.01.2020
4136 Snow -3 989 73 0 12.3 140 21:20 23.01.2020
4137 Snow -4 991 68 0 9.8 120 20:58 23.01.2020
4138 Snow -4 991 68 0 9.8 120 20:38 23.01.2020
4139 Snow -4 991 68 0 9.8 120 20:19 23.01.2020
4140 Snow -5 993 73 0 11.3 110 19:54 23.01.2020
4141 Snow -5 993 73 0 11.3 110 19:36 23.01.2020
4142 Snow -5 993 73 0 11.3 110 19:18 23.01.2020
4143 Snow -5 995 73 0 13.9 130 18:42 23.01.2020
4144 Snow -5 995 73 0 13.9 130 18:20 23.01.2020
4145 Snow -5 998 67 0 16.5 150 17:58 23.01.2020
4146 Snow -5 998 67 0 16.5 150 17:40 23.01.2020
4147 Snow -5 998 67 0 16.5 150 17:20 23.01.2020
4148 Snow -5 999 62 0 15.4 150 16:56 23.01.2020
4149 Snow -5 999 62 0 15.4 150 16:36 23.01.2020
4150 Snow -5 999 62 0 15.4 150 16:18 23.01.2020
4151 Clouds -6 1000 67 10000 14.4 150 15:54 23.01.2020
4152 Clouds -6 1000 67 10000 14.4 150 15:36 23.01.2020
4153 Clouds -6 1000 67 10000 14.4 150 15:18 23.01.2020
4154 Clouds -6 1000 67 10000 14.4 150 15:18 23.01.2020
4155 Clouds -6 1002 73 10000 13.4 140 14:54 23.01.2020
4156 Clouds -6 1002 73 10000 13.4 140 14:36 23.01.2020
4157 Clouds -6 1002 73 10000 13.4 140 14:18 23.01.2020
4158 Rain -7 1003 62 10000 11.3 150 13:39 23.01.2020
4159 Rain -7 1003 62 10000 11.3 150 13:20 23.01.2020
4160 Snow -7 1005 67 5000 9.8 150 12:47 23.01.2020
4161 Snow -7 1005 67 5000 9.8 150 12:25 23.01.2020
4162 Snow -8 1006 85 300 12.9 140 11:59 23.01.2020
4163 Snow -8 1006 85 300 12.9 140 11:39 23.01.2020
4164 Snow -8 1006 85 300 12.9 140 11:19 23.01.2020
4165 Snow -8 1007 78 0 9.8 150 10:45 23.01.2020
4166 Snow -8 1007 78 0 9.8 150 10:23 23.01.2020
4167 Snow -8 1007 78 0 9.8 160 09:59 23.01.2020
4168 Snow -8 1007 78 0 9.8 160 09:38 23.01.2020
4169 Snow -8 1007 78 0 9.8 160 09:20 23.01.2020
4170 Snow -8 1008 85 0 8.7 180 08:42 23.01.2020
4171 Snow -8 1008 85 0 8.7 180 08:24 23.01.2020
4172 Snow -8 1008 85 0 8.7 180 08:24 23.01.2020
4173 Snow -8 1008 78 0 9.3 160 07:48 23.01.2020
4174 Snow -8 1008 78 0 9.3 160 07:27 23.01.2020
4175 Snow -8 1009 85 0 7.7 190 06:54 23.01.2020
4176 Snow -8 1009 85 0 7.7 190 06:23 23.01.2020
4177 Snow -9 1009 85 0 8.2 200 05:58 23.01.2020
4178 Snow -9 1009 72 0 6.2 210 04:24 23.01.2020
4179 Mist -9 1009 61 0 8.7 210 02:35 23.01.2020
4180 Snow -9 1009 72 0 8.7 220 01:44 23.01.2020
4181 Snow -9 1008 66 5000 7.7 230 00:28 23.01.2020
4182 Clouds -9 1008 72 10000 7.7 230 23:54 22.01.2020
4183 Clouds -9 1008 72 10000 7.7 230 23:36 22.01.2020
4184 Clouds -9 1008 72 10000 7.7 230 23:18 22.01.2020
4185 Rain -9 1007 66 10000 4.6 230 22:41 22.01.2020
4186 Rain -9 1007 66 10000 4.6 230 22:23 22.01.2020
4187 Rain -10 1007 85 4000 6.7 230 21:42 22.01.2020
4188 Rain -10 1007 85 4000 6.7 230 21:22 22.01.2020
4189 Clouds -10 1006 66 10000 5.1 230 20:59 22.01.2020
4190 Clouds -9 1006 66 10000 5.1 230 20:41 22.01.2020
4191 Clouds -9 1006 66 10000 5.1 230 20:23 22.01.2020
4192 Clouds -9 1005 72 10000 5.7 240 19:58 22.01.2020
4193 Clouds -9 1005 72 10000 5.7 240 19:39 22.01.2020
4194 Clouds -9 1005 72 10000 5.7 240 19:19 22.01.2020
4195 Rain -9 1004 85 10000 4.1 240 18:57 22.01.2020
4196 Rain -9 1004 85 10000 4.1 240 18:38 22.01.2020
4197 Rain -9 1004 85 10000 4.1 240 18:20 22.01.2020
4198 Snow -8 1003 72 4200 3.6 260 17:55 22.01.2020
4199 Snow -8 1003 72 4200 3.6 260 17:37 22.01.2020
4200 Snow -8 1003 72 4200 3.6 260 17:19 22.01.2020
4201 Snow -8 1002 85 5000 7.7 250 16:43 22.01.2020
4202 Snow -8 1002 85 5000 7.7 250 16:23 22.01.2020
4203 Snow -8 1001 92 3500 6.7 270 15:59 22.01.2020
4204 Snow -8 1001 92 3500 6.7 270 15:41 22.01.2020
4205 Snow -8 1001 92 3500 6.7 270 15:22 22.01.2020
4206 Snow -8 1000 92 400 10.3 250 14:58 22.01.2020
4207 Snow -8 1000 92 400 10.3 250 14:37 22.01.2020
4208 Snow -8 1000 92 400 10.3 250 14:19 22.01.2020
4209 Snow -7 997 92 5000 8.7 280 13:55 22.01.2020
4210 Snow -6 997 92 5000 8.7 280 13:36 22.01.2020
4211 Snow -6 997 92 5000 8.7 280 13:18 22.01.2020
4212 Snow -5 995 92 6000 6.7 280 12:56 22.01.2020
4213 Snow -5 995 92 6000 6.7 280 12:37 22.01.2020
4214 Snow -5 995 92 6000 6.7 280 12:18 22.01.2020
4215 Snow -5 993 92 0 5.7 240 11:56 22.01.2020
4216 Snow -5 993 92 0 5.7 240 11:37 22.01.2020
4217 Snow -5 993 92 0 5.7 240 11:18 22.01.2020
4218 Snow -5 991 92 0 6.7 160 10:44 22.01.2020
4219 Snow -5 991 92 0 6.7 160 10:21 22.01.2020
4220 Snow -5 990 85 0 8.2 160 09:45 22.01.2020
4221 Snow -5 990 85 0 8.2 160 09:26 22.01.2020
4222 Snow -5 990 85 0 10.8 160 08:59 22.01.2020
4223 Snow -5 990 85 0 10.8 160 08:40 22.01.2020
4224 Snow -5 990 85 0 10.8 160 08:21 22.01.2020
4225 Snow -5 990 62 0 8.7 140 07:59 22.01.2020
4226 Snow -4 990 62 0 8.7 140 07:40 22.01.2020
4227 Snow -4 990 62 0 8.7 140 07:21 22.01.2020
4228 Snow -4 990 62 0 8.7 140 07:21 22.01.2020
4229 Snow -5 990 62 0 8.7 140 06:33 22.01.2020
4230 Clouds -4 990 62 0 4.1 140 05:42 22.01.2020
4231 Snow -4 991 73 4500 9.3 150 04:24 22.01.2020
4232 Snow -4 991 73 4500 9.3 150 03:26 22.01.2020
4233 Snow -4 991 73 5000 9.3 150 02:39 22.01.2020
4234 Snow -5 991 92 1300 5.7 170 00:47 22.01.2020
4235 Snow -5 991 92 1300 5.7 170 00:27 22.01.2020
4236 Rain -4 991 79 6000 4.1 170 23:55 21.01.2020
4237 Rain -4 991 79 6000 4.1 170 23:37 21.01.2020
4238 Rain -4 991 79 6000 4.1 170 23:18 21.01.2020
4239 Snow -4 991 85 700 7.2 160 22:40 21.01.2020
4240 Snow -4 991 85 700 7.2 160 22:21 21.01.2020
4241 Snow -4 990 85 1700 6.7 170 21:58 21.01.2020
4242 Snow -4 990 85 1700 6.7 170 21:38 21.01.2020
4243 Snow -4 990 85 1700 6.7 170 21:20 21.01.2020
4244 Snow -5 990 100 800 3.6 210 20:57 21.01.2020
4245 Snow -5 990 100 800 3.6 210 20:38 21.01.2020
4246 Snow -5 990 100 800 3.6 210 20:19 21.01.2020
4247 Snow -5 989 92 2000 3.6 200 19:57 21.01.2020
4248 Snow -4 989 92 2000 3.6 200 19:38 21.01.2020
4249 Snow -4 989 92 2000 3.6 200 19:20 21.01.2020
4250 Snow -4 989 85 4000 3.1 180 18:55 21.01.2020
4251 Snow -4 989 85 4000 3.1 180 18:37 21.01.2020
4252 Snow -4 989 85 4000 3.1 180 18:18 21.01.2020
4253 Snow -4 989 85 10000 3.1 180 17:45 21.01.2020
4254 Snow -4 989 85 10000 3.1 180 17:20 21.01.2020
4255 Rain -4 989 79 10000 3.6 190 16:59 21.01.2020
4256 Rain -4 989 79 10000 3.6 190 16:37 21.01.2020
4257 Rain -4 989 79 10000 3.6 190 16:19 21.01.2020
4258 Rain -4 990 79 10000 3.1 190 15:56 21.01.2020
4259 Rain -4 990 79 10000 3.1 190 15:36 21.01.2020
4260 Rain -4 990 79 10000 3.1 190 15:18 21.01.2020
4261 Rain -4 990 68 10000 2.1 170 14:38 21.01.2020
4262 Rain -4 990 68 10000 2.1 170 14:20 21.01.2020
4263 Clouds -4 990 62 10000 1.5 140 13:40 21.01.2020
4264 Clouds -4 990 62 10000 1.5 140 13:19 21.01.2020
4265 Clouds -4 990 58 10000 2.6 0 12:56 21.01.2020
4266 Clouds -4 990 58 10000 2.6 0 12:38 21.01.2020
4267 Clouds -4 990 58 10000 2.6 0 12:19 21.01.2020
4268 Clouds -5 990 62 10000 4.1 100 11:40 21.01.2020
4269 Clouds -5 990 62 10000 4.1 100 11:21 21.01.2020
4270 Clouds -5 991 53 0 6.2 110 10:59 21.01.2020
4271 Clouds -4 991 53 0 6.2 110 10:40 21.01.2020
4272 Clouds -4 991 53 0 6.2 110 10:21 21.01.2020
4273 Clouds -4 991 58 0 6.7 110 09:42 21.01.2020
4274 Clouds -4 991 58 0 6.7 110 09:23 21.01.2020
4275 Clouds -4 992 53 0 6.2 100 08:55 21.01.2020
4276 Clouds -4 992 53 0 6.2 100 08:36 21.01.2020
4277 Clouds -4 992 53 0 6.2 100 08:36 21.01.2020
4278 Snow -4 992 53 0 6.2 100 08:18 21.01.2020
4279 Snow -4 993 53 0 6.2 100 07:41 21.01.2020
4280 Snow -4 993 53 0 6.2 100 07:22 21.01.2020
4281 Snow -4 994 53 0 5.7 110 06:49 21.01.2020
4282 Snow -4 994 53 0 5.7 110 06:30 21.01.2020
4283 Snow -4 995 53 0 4.6 110 05:44 21.01.2020
4284 Clouds -4 996 49 0 3.6 110 04:41 21.01.2020
4285 Snow -5 997 73 0 2.1 130 02:58 21.01.2020
4286 Snow -5 997 73 0 2.1 130 02:19 21.01.2020
4287 Snow -4 997 58 0 4.1 140 01:28 21.01.2020
4288 Snow -5 998 73 0 5.1 150 00:40 21.01.2020
4289 Snow -5 998 85 0 5.1 150 23:59 20.01.2020
4290 Snow -5 998 85 0 5.1 150 23:41 20.01.2020
4291 Snow -5 998 85 0 5.1 150 23:19 20.01.2020
4292 Snow -5 998 85 0 5.1 150 23:19 20.01.2020
4293 Snow -5 998 92 0 5.7 150 22:59 20.01.2020
4294 Snow -5 998 92 0 5.7 150 22:39 20.01.2020
4295 Snow -5 998 92 0 5.7 150 22:21 20.01.2020
4296 Snow -6 997 100 100 6.7 160 21:58 20.01.2020
4297 Snow -6 997 100 100 6.7 160 21:38 20.01.2020
4298 Snow -6 997 100 100 6.7 160 21:19 20.01.2020
4299 Snow -6 997 100 100 6.2 150 20:58 20.01.2020
4300 Snow -6 997 100 100 6.2 150 20:39 20.01.2020
4301 Snow -6 997 100 100 6.2 150 20:19 20.01.2020
4302 Snow -6 997 100 100 6.2 150 20:19 20.01.2020
4303 Snow -6 996 100 100 6.7 160 19:57 20.01.2020
4304 Snow -6 996 100 100 6.7 160 19:38 20.01.2020
4305 Snow -6 996 100 100 6.7 160 19:19 20.01.2020
4306 Snow -6 995 92 200 7.2 150 18:45 20.01.2020
4307 Snow -6 995 92 200 7.2 150 18:23 20.01.2020
4308 Snow -6 995 92 100 9.3 150 17:59 20.01.2020
4309 Snow -6 995 92 100 9.3 150 17:37 20.01.2020
4310 Snow -6 995 92 100 9.3 150 17:18 20.01.2020
4311 Snow -6 995 92 400 9.8 150 16:44 20.01.2020
4312 Snow -6 995 92 400 9.8 150 16:25 20.01.2020
4313 Snow -6 995 92 400 9.8 150 15:58 20.01.2020
4314 Snow -6 995 92 400 9.8 150 15:40 20.01.2020
4315 Snow -6 995 92 400 9.8 150 15:21 20.01.2020
4316 Snow -6 995 92 200 12.9 150 14:55 20.01.2020
4317 Snow -6 995 92 200 12.9 150 14:36 20.01.2020
4318 Snow -6 995 92 200 12.9 150 14:18 20.01.2020
4319 Snow -6 995 79 1200 14.9 150 13:41 20.01.2020
4320 Snow -6 995 79 1200 14.9 150 13:23 20.01.2020
4321 Snow -6 995 73 1100 11.8 140 12:56 20.01.2020
4322 Snow -6 995 73 1100 11.8 140 12:38 20.01.2020
4323 Snow -6 995 73 1100 11.8 140 12:19 20.01.2020
4324 Snow -7 995 67 10000 10.8 140 11:43 20.01.2020
4325 Snow -7 995 67 10000 10.8 140 11:43 20.01.2020
4326 Snow -7 995 67 10000 10.8 140 11:24 20.01.2020
4327 Clouds -7 995 67 10000 10.3 140 10:57 20.01.2020
4328 Clouds -7 995 67 10000 10.3 140 10:39 20.01.2020
4329 Clouds -7 995 67 10000 10.3 140 10:19 20.01.2020
4330 Snow -7 995 73 0 6.2 150 09:41 20.01.2020
4331 Snow -7 995 73 0 6.2 150 09:22 20.01.2020
4332 Snow -8 995 85 0 8.7 150 08:51 20.01.2020
4333 Snow -8 995 85 0 8.7 150 08:31 20.01.2020
4334 Snow -8 995 78 0 8.7 150 07:55 20.01.2020
4335 Snow -8 995 78 0 8.7 150 07:31 20.01.2020
4336 Snow -9 995 78 0 8.2 160 06:59 20.01.2020
4337 Snow -9 995 78 0 8.2 160 06:35 20.01.2020
4338 Snow -9 995 72 0 7.2 140 05:56 20.01.2020
4339 Snow -9 995 72 0 7.2 140 05:37 20.01.2020
4340 Snow -9 995 72 0 7.2 140 05:18 20.01.2020
4341 Snow -10 995 61 0 4.6 220 03:46 20.01.2020
4342 Snow -10 994 66 0 3.6 250 01:58 20.01.2020
4343 Snow -10 994 66 0 3.6 250 01:39 20.01.2020
4344 Snow -10 993 85 0 1.5 250 00:46 20.01.2020
4345 Snow -10 993 85 0 1.5 250 00:27 20.01.2020
4346 Snow -10 993 85 0 4.1 250 23:56 19.01.2020
4347 Snow -10 993 85 0 4.1 250 23:37 19.01.2020
4348 Snow -10 993 85 0 4.1 250 23:18 19.01.2020
4349 Snow -10 993 85 0 4.1 250 23:18 19.01.2020
4350 Snow -10 992 85 0 5.1 260 22:55 19.01.2020
4351 Snow -10 992 85 0 5.1 260 22:36 19.01.2020
4352 Snow -10 992 85 0 5.1 260 22:18 19.01.2020
4353 Snow -9 991 85 0 6.7 290 21:55 19.01.2020
4354 Snow -9 991 85 0 6.7 290 21:37 19.01.2020
4355 Snow -9 991 85 0 6.7 290 21:19 19.01.2020
4356 Snow -9 990 92 0 6.2 280 20:56 19.01.2020
4357 Snow -9 990 92 0 6.2 280 20:37 19.01.2020
4358 Snow -9 990 92 0 6.2 280 20:19 19.01.2020
4359 Snow -9 989 85 0 5.1 150 19:55 19.01.2020
4360 Snow -9 989 85 0 5.1 150 19:37 19.01.2020
4361 Snow -9 989 85 0 5.1 150 19:19 19.01.2020
4362 Snow -9 988 78 0 1.5 140 18:55 19.01.2020
4363 Snow -9 988 78 0 1.5 140 18:37 19.01.2020
4364 Snow -9 988 78 0 1.5 140 18:18 19.01.2020
4365 Snow -8 987 61 0 1.5 90 17:57 19.01.2020
4366 Snow -8 987 61 0 1.5 90 17:38 19.01.2020
4367 Snow -8 987 61 0 1.5 90 17:19 19.01.2020
4368 Snow -9 987 72 0 1.5 300 16:57 19.01.2020
4369 Snow -9 987 72 0 1.5 300 16:37 19.01.2020
4370 Snow -9 987 72 0 1.5 300 16:19 19.01.2020
4371 Snow -10 986 66 0 2.6 50 15:55 19.01.2020
4372 Snow -10 986 66 0 2.6 50 15:55 19.01.2020
4373 Snow -10 986 66 0 2.6 50 15:36 19.01.2020
4374 Snow -10 986 66 0 2.6 50 15:18 19.01.2020
4375 Snow -9 985 61 0 3.6 20 14:41 19.01.2020
4376 Snow -9 985 61 0 3.6 20 14:41 19.01.2020
4377 Snow -9 985 61 0 3.6 20 14:21 19.01.2020
4378 Snow -10 984 72 0 1.5 350 13:59 19.01.2020
4379 Snow -10 984 72 0 1.5 350 13:40 19.01.2020
4380 Snow -10 984 72 0 1.5 350 13:22 19.01.2020
4381 Snow -9 982 66 0 7.7 340 12:59 19.01.2020
4382 Snow -9 982 66 0 7.7 340 12:41 19.01.2020
4383 Snow -9 982 66 0 7.7 340 12:23 19.01.2020
4384 Snow -9 980 72 0 8.2 330 11:57 19.01.2020
4385 Snow -9 980 72 0 8.2 330 11:39 19.01.2020
4386 Clouds -9 980 72 0 8.2 330 11:18 19.01.2020
4387 Snow -8 979 72 0 8.2 320 10:54 19.01.2020
4388 Snow -8 979 72 0 8.2 320 10:36 19.01.2020
4389 Snow -8 979 72 0 8.2 320 10:18 19.01.2020
4390 Clouds -8 977 72 0 9.3 330 09:41 19.01.2020
4391 Clouds -8 977 72 0 9.3 330 09:23 19.01.2020
4392 Clouds -9 976 66 0 3.6 310 08:57 19.01.2020
4393 Clouds -9 976 66 0 3.6 310 08:38 19.01.2020
4394 Clouds -9 976 66 0 3.6 310 08:20 19.01.2020
4395 Clouds -10 974 61 0 0.5 0 07:40 19.01.2020
4396 Clouds -10 974 61 0 0.5 0 07:21 19.01.2020
4397 Clouds -10 974 56 0 3.6 50 06:44 19.01.2020
4398 Clouds -10 974 61 0 4.1 20 05:21 19.01.2020
4399 Clouds -10 976 72 0 5.1 10 02:43 19.01.2020
4400 Clouds -10 976 72 0 5.1 10 02:21 19.01.2020
4401 Clouds -10 977 61 0 6.7 10 01:24 19.01.2020
4402 Clouds -11 979 66 0 6.2 360 00:45 19.01.2020
4403 Clouds -11 979 66 0 6.2 360 00:27 19.01.2020
4404 Clouds -10 981 72 0 6.2 10 23:55 18.01.2020
4405 Clouds -10 981 72 0 6.2 10 23:37 18.01.2020
4406 Clouds -10 981 72 0 6.2 10 23:18 18.01.2020
4407 Clouds -9 982 72 10000 8.7 10 22:55 18.01.2020
4408 Clouds -9 982 72 10000 8.7 10 22:36 18.01.2020
4409 Clouds -9 982 72 10000 8.7 10 22:18 18.01.2020
4410 Clouds -9 984 72 10000 6.7 30 21:56 18.01.2020
4411 Clouds -9 984 72 10000 6.7 30 21:36 18.01.2020
4412 Clouds -9 984 72 10000 6.7 30 21:18 18.01.2020
4413 Clouds -9 985 78 10000 7.2 40 20:42 18.01.2020
4414 Clouds -9 985 78 10000 7.2 40 20:20 18.01.2020
4415 Clouds -9 987 72 10000 6.2 20 19:55 18.01.2020
4416 Clouds -8 987 72 10000 6.2 20 19:37 18.01.2020
4417 Clouds -8 987 72 10000 6.2 20 19:19 18.01.2020
4418 Clouds -8 989 72 10000 7.2 50 18:41 18.01.2020
4419 Clouds -8 989 72 10000 7.2 50 18:21 18.01.2020
4420 Clouds -8 991 67 10000 7.2 80 17:41 18.01.2020
4421 Clouds -8 991 67 10000 7.2 80 17:21 18.01.2020
4422 Clouds -8 991 67 10000 7.2 80 17:21 18.01.2020
4423 Clouds -9 993 61 10000 7.7 80 16:59 18.01.2020
4424 Clouds -9 993 61 10000 7.7 80 16:41 18.01.2020
4425 Clouds -9 993 61 10000 7.7 80 16:22 18.01.2020
4426 Clouds -9 995 61 10000 6.7 80 15:58 18.01.2020
4427 Clouds -9 995 61 10000 6.7 80 15:40 18.01.2020
4428 Clouds -9 995 61 10000 6.7 80 15:22 18.01.2020
4429 Clear -9 996 61 10000 7.2 70 14:44 18.01.2020
4430 Clear -9 996 61 10000 7.2 70 14:24 18.01.2020
4431 Clear -9 997 61 10000 5.1 80 13:59 18.01.2020
4432 Clear -9 997 61 10000 5.1 80 13:41 18.01.2020
4433 Clear -9 997 61 10000 5.1 80 13:21 18.01.2020
4434 Clouds -10 997 61 10000 4.1 90 12:55 18.01.2020
4435 Clouds -10 997 61 10000 4.1 90 12:55 18.01.2020
4436 Clouds -10 997 61 10000 4.1 90 12:37 18.01.2020
4437 Clouds -10 997 61 10000 4.1 90 12:19 18.01.2020
4438 Clouds -10 997 66 10000 3.1 100 11:44 18.01.2020
4439 Clouds -10 997 66 10000 3.1 100 11:21 18.01.2020
4440 Clouds -10 997 61 0 2.1 100 10:56 18.01.2020
4441 Clouds -10 997 61 0 2.1 100 10:38 18.01.2020
4442 Clouds -10 997 61 0 2.1 100 10:18 18.01.2020
4443 Clouds -10 997 61 0 2.1 100 10:18 18.01.2020
4444 Clouds -10 997 61 0 2.1 100 09:42 18.01.2020
4445 Clouds -10 997 61 0 2.1 100 09:20 18.01.2020
4446 Clouds -10 997 61 0 2.6 100 08:55 18.01.2020
4447 Clouds -11 997 61 0 2.6 100 08:37 18.01.2020
4448 Clouds -11 997 61 0 2.6 100 08:18 18.01.2020
4449 Clouds -10 997 56 0 1.5 110 07:40 18.01.2020
4450 Clouds -10 997 56 0 1.5 110 07:21 18.01.2020
4451 Clouds -10 997 51 0 2.1 110 06:46 18.01.2020
4452 Clouds -9 997 52 0 3.1 110 05:55 18.01.2020
4453 Clouds -9 997 52 0 4.6 80 04:35 18.01.2020
4454 Clouds -9 997 56 0 2.1 110 02:50 18.01.2020
4455 Clouds -9 997 56 0 6.2 80 01:51 18.01.2020
4456 Clouds -9 997 56 0 6.2 80 01:20 18.01.2020
4457 Clouds -9 997 56 0 7.7 80 00:36 18.01.2020
4458 Clouds -9 997 56 0 7.7 80 00:18 18.01.2020
4459 Clouds -9 997 61 10000 9.8 80 23:40 17.01.2020
4460 Clouds -9 997 61 10000 9.8 80 23:19 17.01.2020
4461 Clouds -10 997 66 10000 9.3 60 22:44 17.01.2020
4462 Clouds -10 997 66 10000 9.3 60 22:21 17.01.2020
4463 Clouds -10 997 66 10000 8.2 70 21:58 17.01.2020
4464 Clouds -10 997 66 10000 8.2 70 21:40 17.01.2020
4465 Clouds -10 997 66 10000 8.2 70 21:22 17.01.2020
4466 Clouds -10 997 61 10000 8.2 70 20:57 17.01.2020
4467 Clouds -10 997 61 10000 8.2 70 20:38 17.01.2020
4468 Clouds -10 997 61 10000 8.2 70 20:20 17.01.2020
4469 Clouds -10 998 66 10000 8.2 70 19:55 17.01.2020
4470 Clouds -11 998 66 10000 8.2 70 19:37 17.01.2020
4471 Clouds -11 998 66 10000 8.2 70 19:18 17.01.2020
4472 Clouds -11 998 66 10000 9.3 70 18:47 17.01.2020
4473 Clouds -11 998 66 10000 9.3 70 18:28 17.01.2020
4474 Clouds -11 998 66 10000 6.7 70 17:56 17.01.2020
4475 Clouds -11 998 66 10000 6.7 70 17:38 17.01.2020
4476 Clouds -11 998 66 10000 6.7 70 17:20 17.01.2020
4477 Clouds -10 998 66 10000 7.7 60 16:43 17.01.2020
4478 Clouds -10 998 66 10000 7.7 60 16:20 17.01.2020
4479 Clouds -10 998 72 10000 7.2 60 15:55 17.01.2020
4480 Clouds -10 998 72 10000 7.2 60 15:37 17.01.2020
4481 Clouds -10 998 72 10000 7.2 60 15:19 17.01.2020
4482 Clouds -11 998 78 10000 8.7 50 14:43 17.01.2020
4483 Clouds -11 998 78 10000 8.7 50 14:23 17.01.2020
4484 Clouds -11 998 78 10000 8.7 40 13:42 17.01.2020
4485 Clouds -11 998 78 10000 8.7 40 13:22 17.01.2020
4486 Clouds -11 998 78 10000 6.7 50 12:47 17.01.2020
4487 Clouds -11 998 78 10000 6.7 50 12:23 17.01.2020
4488 Clouds -11 998 72 10000 6.7 60 11:43 17.01.2020
4489 Clouds -11 998 72 10000 6.7 60 11:20 17.01.2020
4490 Clouds -11 998 61 10000 5.7 30 10:57 17.01.2020
4491 Clouds -10 998 61 10000 5.7 30 10:39 17.01.2020
4492 Clouds -10 998 61 10000 5.7 30 10:20 17.01.2020
4493 Clouds -10 998 61 0 4.6 20 09:44 17.01.2020
4494 Clouds -10 998 61 0 4.6 20 09:22 17.01.2020
4495 Clouds -10 998 66 0 4.6 40 08:58 17.01.2020
4496 Clouds -11 998 66 0 4.6 40 08:40 17.01.2020
4497 Clouds -11 998 66 0 4.6 40 08:21 17.01.2020
4498 Clouds -10 997 72 0 5.7 10 07:48 17.01.2020
4499 Clouds -10 997 72 0 5.7 10 07:29 17.01.2020
4500 Snow -10 998 72 0 5.1 20 06:56 17.01.2020
4501 Snow -10 998 72 0 5.1 20 06:36 17.01.2020
4502 Clouds -10 998 78 0 6.2 360 05:19 17.01.2020
4503 Snow -11 998 72 10000 6.2 360 03:38 17.01.2020
4504 Snow -11 998 72 9000 5.7 20 02:42 17.01.2020
4505 Snow -11 998 66 10000 4.6 360 01:45 17.01.2020
4506 Snow -11 998 66 10000 4.6 360 01:27 17.01.2020
4507 Rain -11 998 66 10000 5.1 360 00:43 17.01.2020
4508 Rain -11 998 66 10000 5.1 360 00:20 17.01.2020
4509 Rain -12 998 66 10000 4.1 350 23:42 16.01.2020
4510 Rain -12 998 66 10000 4.1 350 23:24 16.01.2020
4511 Snow -12 998 66 10000 3.1 360 22:43 16.01.2020
4512 Snow -12 998 66 10000 3.1 360 22:22 16.01.2020
4513 Snow -12 998 72 10000 2.1 330 21:57 16.01.2020
4514 Snow -12 998 72 10000 2.1 330 21:39 16.01.2020
4515 Snow -12 998 72 10000 2.1 330 21:19 16.01.2020
4516 Rain -12 998 78 10000 3.1 310 20:59 16.01.2020
4517 Rain -12 998 78 10000 3.1 310 20:40 16.01.2020
4518 Rain -12 998 78 10000 3.1 310 20:20 16.01.2020
4519 Rain -12 997 66 10000 3.1 300 19:57 16.01.2020
4520 Rain -12 997 66 10000 3.1 300 19:39 16.01.2020
4521 Rain -12 997 66 10000 3.1 300 19:20 16.01.2020
4522 Snow -12 997 78 10000 3.6 260 18:56 16.01.2020
4523 Snow -12 997 78 10000 3.6 260 18:37 16.01.2020
4524 Snow -12 997 78 10000 3.6 260 18:18 16.01.2020
4525 Rain -12 997 85 4000 5.7 260 17:58 16.01.2020
4526 Rain -12 997 85 4000 5.7 260 17:39 16.01.2020
4527 Rain -12 997 85 4000 5.7 260 17:20 16.01.2020
4528 Rain -11 996 78 2500 5.1 250 16:41 16.01.2020
4529 Rain -11 996 78 2500 5.1 250 16:23 16.01.2020
4530 Snow -11 995 85 3000 6.2 260 15:58 16.01.2020
4531 Snow -11 995 85 3000 6.2 260 15:39 16.01.2020
4532 Snow -11 995 85 3000 6.2 260 15:39 16.01.2020
4533 Snow -11 995 85 3000 6.2 260 15:20 16.01.2020
4534 Snow -10 994 85 2000 6.7 250 14:44 16.01.2020
4535 Snow -10 994 85 2000 6.7 250 14:24 16.01.2020
4536 Snow -10 993 78 5000 5.1 270 13:56 16.01.2020
4537 Snow -9 993 78 5000 5.1 270 13:37 16.01.2020
4538 Snow -9 993 78 5000 5.1 270 13:19 16.01.2020
4539 Snow -9 992 85 2500 8.2 290 12:42 16.01.2020
4540 Snow -9 992 85 2500 8.2 290 12:22 16.01.2020
4541 Snow -9 991 92 1300 2.6 240 11:43 16.01.2020
4542 Snow -9 991 92 1300 2.6 240 11:24 16.01.2020
4543 Snow -9 990 92 1000 1.5 290 10:59 16.01.2020
4544 Snow -9 990 92 1000 1.5 290 10:38 16.01.2020
4545 Snow -9 989 92 2000 12.36 268 10:20 16.01.2020
4546 Snow -9 989 92 0 5.1 300 09:56 16.01.2020
4547 Snow -9 989 92 0 5.1 300 09:37 16.01.2020
4548 Snow -9 989 92 0 5.1 300 09:19 16.01.2020
4549 Snow -8 987 92 0 0.5 0 08:48 16.01.2020
4550 Snow -8 987 92 0 0.5 0 08:29 16.01.2020
4551 Snow -7 987 62 0 4.6 130 07:44 16.01.2020
4552 Snow -7 987 62 0 4.6 130 07:25 16.01.2020
4553 Snow -8 987 72 0 8.2 110 06:59 16.01.2020
4554 Snow -8 987 72 0 8.2 110 06:37 16.01.2020
4555 Snow -8 987 67 0 8.2 110 05:58 16.01.2020
4556 Snow -8 987 67 0 8.2 110 05:39 16.01.2020
4557 Snow -9 988 61 0 7.2 80 04:37 16.01.2020
4558 Snow -9 988 61 0 7.2 80 04:37 16.01.2020
4559 Snow -9 988 61 0 7.2 80 04:37 16.01.2020
4560 Snow -9 989 72 0 7.2 80 03:28 16.01.2020
4561 Snow -9 989 47 0 8.7 80 02:42 16.01.2020
4562 Clouds -10 990 61 0 9.3 100 00:53 16.01.2020
4563 Clouds -10 990 61 0 9.3 100 00:24 16.01.2020
4564 Clouds -10 991 61 10000 9.8 100 23:48 15.01.2020
4565 Clouds -10 991 61 10000 9.8 100 23:23 15.01.2020
4566 Clouds -10 991 61 10000 9.8 100 23:23 15.01.2020
4567 Clouds -10 991 61 10000 9.3 90 22:57 15.01.2020
4568 Clouds -10 991 61 10000 9.3 90 22:39 15.01.2020
4569 Clouds -10 991 61 10000 9.3 90 22:19 15.01.2020
4570 Clouds -10 991 61 10000 10.3 110 21:58 15.01.2020
4571 Clouds -10 991 61 10000 10.3 110 21:38 15.01.2020
4572 Clouds -10 991 61 10000 10.3 110 21:20 15.01.2020
4573 Clouds -11 992 61 10000 9.8 110 20:58 15.01.2020
4574 Clouds -11 992 61 10000 9.8 110 20:58 15.01.2020
4575 Clouds -11 992 61 10000 9.8 110 20:40 15.01.2020
4576 Clouds -11 992 61 10000 9.8 110 20:21 15.01.2020
4577 Clouds -11 992 61 10000 9.8 100 19:55 15.01.2020
4578 Clouds -11 992 61 10000 9.8 100 19:37 15.01.2020
4579 Clouds -11 992 61 10000 9.8 100 19:19 15.01.2020
4580 Clouds -11 993 51 10000 9.3 80 18:57 15.01.2020
4581 Clouds -11 993 51 10000 9.3 80 18:38 15.01.2020
4582 Clouds -11 993 51 10000 9.3 80 18:20 15.01.2020
4583 Clouds -11 993 51 10000 9.3 80 18:20 15.01.2020
4584 Clouds -11 993 51 10000 9.3 80 18:20 15.01.2020
4585 Clouds -11 993 61 10000 10.8 80 17:58 15.01.2020
4586 Clouds -11 993 61 10000 10.8 80 17:40 15.01.2020
4587 Clouds -11 993 61 10000 10.8 80 17:21 15.01.2020
4588 Clouds -12 994 72 10000 9.3 80 16:55 15.01.2020
4589 Clouds -12 994 72 10000 9.3 80 16:55 15.01.2020
4590 Clouds -12 994 72 10000 9.3 80 16:36 15.01.2020
4591 Clouds -12 994 72 10000 9.3 80 16:18 15.01.2020
4592 Clouds -12 995 66 10000 8.2 80 15:42 15.01.2020
4593 Clouds -12 995 66 10000 8.2 80 15:20 15.01.2020
4594 Clouds -13 996 71 10000 8.2 90 14:55 15.01.2020
4595 Clouds -13 996 71 10000 8.2 90 14:37 15.01.2020
4596 Clouds -13 996 71 10000 8.2 90 14:18 15.01.2020
4597 Clouds -13 996 71 10000 5.1 100 13:41 15.01.2020
4598 Clouds -13 996 71 10000 5.1 100 13:23 15.01.2020
4599 Snow -12 997 78 3500 4.1 110 12:55 15.01.2020
4600 Snow -12 997 78 3500 4.1 110 12:55 15.01.2020
4601 Snow -12 997 78 3500 4.1 110 12:37 15.01.2020
4602 Snow -12 997 78 3500 4.1 110 12:18 15.01.2020
4603 Snow -12 997 78 0 4.6 90 11:38 15.01.2020
4604 Snow -12 997 78 0 4.6 90 11:20 15.01.2020
4605 Snow -12 997 78 0 3.6 100 10:58 15.01.2020
4606 Snow -12 997 78 0 3.6 100 10:40 15.01.2020
4607 Snow -12 997 78 0 3.6 100 10:21 15.01.2020
4608 Snow -12 997 85 0 1.5 60 09:41 15.01.2020
4609 Snow -12 997 85 0 1.5 60 09:21 15.01.2020
4610 Snow -12 998 78 0 0.5 0 08:45 15.01.2020
4611 Snow -12 998 78 0 0.5 0 08:26 15.01.2020
4612 Snow -12 998 66 0 3.6 260 07:56 15.01.2020
4613 Snow -12 998 66 0 3.6 260 07:33 15.01.2020
4614 Snow -12 998 66 0 4.1 260 06:54 15.01.2020
4615 Snow -12 998 66 0 4.1 260 06:32 15.01.2020
4616 Snow -12 998 72 0 4.6 260 05:43 15.01.2020
4617 Snow -11 998 92 0 5.1 240 03:35 15.01.2020
4618 Snow -11 998 85 1600 0.79 101 01:49 15.01.2020
4619 Snow -11 998 85 1600 0.97 315 01:22 15.01.2020
4620 Snow -11 998 85 3900 1.5 160 00:38 15.01.2020
4621 Snow -11 998 85 3900 1.5 160 00:20 15.01.2020
4622 Snow -11 999 85 3500 1.5 160 23:47 14.01.2020
4623 Snow -11 999 85 3500 1.5 160 23:28 14.01.2020
4624 Snow -11 999 85 1500 0.5 190 22:58 14.01.2020
4625 Snow -11 999 85 1500 0.5 190 22:40 14.01.2020
4626 Snow -11 999 85 1500 0.5 190 22:19 14.01.2020
4627 Snow -11 999 78 4700 2.1 60 21:58 14.01.2020
4628 Snow -11 999 78 4700 2.1 60 21:39 14.01.2020
4629 Snow -11 999 78 4700 2.1 60 21:19 14.01.2020
4630 Rain -11 999 85 10000 1.5 50 20:56 14.01.2020
4631 Rain -11 999 85 10000 1.5 50 20:38 14.01.2020
4632 Rain -11 999 85 10000 1.5 50 20:18 14.01.2020
4633 Snow -11 999 78 10000 0.5 150 19:55 14.01.2020
4634 Snow -11 999 78 10000 0.5 150 19:37 14.01.2020
4635 Snow -11 999 78 10000 0.5 150 19:18 14.01.2020
4636 Snow -11 999 78 10000 0.5 150 19:18 14.01.2020
4637 Snow -10 999 78 10000 1.5 260 18:41 14.01.2020
4638 Snow -10 999 78 10000 1.5 260 18:20 14.01.2020
4639 Snow -10 1000 72 10000 0.5 60 17:58 14.01.2020
4640 Snow -10 1000 72 10000 0.5 60 17:37 14.01.2020
4641 Snow -10 1000 72 10000 0.5 60 17:18 14.01.2020
4642 Snow -10 1000 66 10000 2.6 90 16:43 14.01.2020
4643 Snow -10 1000 66 10000 2.6 90 16:23 14.01.2020
4644 Clouds -11 1000 66 10000 2.1 110 15:58 14.01.2020
4645 Clouds -11 1000 66 10000 2.1 110 15:40 14.01.2020
4646 Clouds -11 1000 66 10000 2.1 110 15:19 14.01.2020
4647 Rain -12 1000 66 10000 1.5 110 14:45 14.01.2020
4648 Rain -12 1000 66 10000 1.5 110 14:21 14.01.2020
4649 Clouds -13 1001 71 10000 2.6 80 13:58 14.01.2020
4650 Clouds -13 1001 71 10000 2.6 80 13:39 14.01.2020
4651 Clouds -13 1001 71 10000 2.6 80 13:19 14.01.2020
4652 Clouds -13 1001 78 10000 3.1 100 12:42 14.01.2020
4653 Clouds -13 1001 78 10000 3.1 100 12:22 14.01.2020
4654 Snow -12 1001 85 10000 1.5 140 11:56 14.01.2020
4655 Snow -11 1001 85 10000 1.5 140 11:37 14.01.2020
4656 Snow -11 1001 85 10000 1.5 140 11:37 14.01.2020
4657 Snow -11 1001 85 10000 1.5 140 11:19 14.01.2020
4658 Clouds -11 1001 66 0 3.1 90 10:55 14.01.2020
4659 Clouds -11 1001 66 0 3.1 90 10:36 14.01.2020
4660 Clouds -11 1001 66 0 3.1 90 10:18 14.01.2020
4661 Clouds -11 1001 66 0 3.1 90 10:18 14.01.2020
4662 Clouds -10 1001 66 0 3.1 100 09:42 14.01.2020
4663 Clouds -10 1001 66 0 3.1 100 09:22 14.01.2020
4664 Clouds -11 1001 66 0 1.5 130 08:58 14.01.2020
4665 Clouds -11 1001 66 0 1.5 130 08:39 14.01.2020
4666 Clouds -11 1001 66 0 1.5 130 08:20 14.01.2020
4667 Clouds -10 1001 61 0 0.93 346 07:40 14.01.2020
4668 Clouds -10 1001 61 0 0.93 346 07:18 14.01.2020
4669 Clouds -10 1001 61 0 2.1 100 06:42 14.01.2020
4670 Clouds -10 1001 61 0 5.7 120 05:56 14.01.2020
4671 Snow -10 1000 66 0 7.2 150 04:49 14.01.2020
4672 Snow -10 1001 72 0 7.2 150 03:45 14.01.2020
4673 Snow -10 1001 72 0 5.1 180 02:32 14.01.2020
4674 Snow -10 1001 78 0 5.1 180 01:19 14.01.2020
4675 Snow -10 1001 85 0 6.7 260 00:47 14.01.2020
4676 Snow -10 1001 85 0 6.7 260 00:21 14.01.2020
4677 Snow -10 1001 85 0 6.7 260 00:21 14.01.2020
4678 Snow -10 1001 85 2700 3.6 180 23:42 13.01.2020
4679 Snow -10 1001 85 2700 3.6 180 23:19 13.01.2020
4680 Rain -11 1001 66 10000 2.1 200 22:57 13.01.2020
4681 Rain -11 1001 66 10000 2.1 200 22:39 13.01.2020
4682 Rain -11 1001 66 10000 2.1 200 22:19 13.01.2020
4683 Rain -9 1001 61 10000 2.6 270 21:55 13.01.2020
4684 Rain -9 1001 61 10000 2.6 270 21:36 13.01.2020
4685 Rain -9 1001 61 10000 2.6 270 21:18 13.01.2020
4686 Rain -9 1000 61 10000 5.1 270 20:55 13.01.2020
4687 Rain -9 1000 61 10000 5.1 270 20:37 13.01.2020
4688 Rain -9 1000 61 10000 5.1 270 20:37 13.01.2020
4689 Rain -10 1000 61 10000 5.1 270 20:19 13.01.2020
4690 Rain -10 1000 61 10000 5.1 270 20:19 13.01.2020
4691 Rain -10 1000 61 10000 5.1 240 19:41 13.01.2020
4692 Rain -10 1000 61 10000 5.1 240 19:21 13.01.2020
4693 Snow -10 999 85 800 2.6 300 18:58 13.01.2020
4694 Snow -10 999 85 800 2.6 300 18:38 13.01.2020
4695 Snow -10 999 85 800 2.6 300 18:19 13.01.2020
4696 Snow -10 999 85 800 2.6 300 18:19 13.01.2020
4697 Snow -10 999 85 1100 5.1 290 17:58 13.01.2020
4698 Snow -10 999 85 1100 5.1 290 17:39 13.01.2020
4699 Snow -10 999 85 1100 5.1 290 17:20 13.01.2020
4700 Snow -10 998 78 1500 0.5 160 16:43 13.01.2020
4701 Snow -10 998 78 1500 0.5 160 16:24 13.01.2020
4702 Clouds -11 998 78 0 3.58 70 15:59 13.01.2020
4703 Clouds -11 998 78 0 3.58 70 15:41 13.01.2020
4704 Snow -11 996 85 1200 4.6 120 15:21 13.01.2020
4705 Snow -11 996 85 1200 4.6 120 14:54 13.01.2020
4706 Snow -11 996 85 1200 4.6 120 14:36 13.01.2020
4707 Snow -11 996 85 1200 4.6 120 14:18 13.01.2020
4708 Snow -11 996 78 1500 4.1 150 13:40 13.01.2020
4709 Clouds -11 996 92 0 4.47 170 13:22 13.01.2020
4710 Clouds -11 996 92 0 4.47 170 12:58 13.01.2020
4711 Clouds -11 996 92 0 4.47 170 12:40 13.01.2020
4712 Rain -13 997 71 10000 1 200 12:21 13.01.2020
4713 Rain -15 997 71 10000 1 200 11:54 13.01.2020
4714 Rain -15 997 71 10000 1 200 11:36 13.01.2020
4715 Rain -15 997 71 10000 1 200 11:18 13.01.2020
4716 Rain -15 997 71 10000 1 200 11:18 13.01.2020
4717 Rain -15 997 71 10000 1 200 11:18 13.01.2020
4718 Clouds -15 996 71 10000 1.5 100 10:55 13.01.2020
4719 Clouds -15 996 71 10000 1.5 100 10:36 13.01.2020
4720 Clouds -15 996 71 10000 1.5 100 10:18 13.01.2020
4721 Clouds -14 996 65 0 0.5 0 09:40 13.01.2020
4722 Clouds -14 996 65 0 0.5 0 09:40 13.01.2020
4723 Clouds -14 996 65 0 0.5 0 09:22 13.01.2020
4724 Clouds -14 996 55 0 3.1 100 08:42 13.01.2020
4725 Clear -14 996 55 0 3.1 100 08:21 13.01.2020
4726 Clear -14 996 60 0 2.6 100 07:54 13.01.2020
4727 Clear -14 996 60 0 2.6 100 07:35 13.01.2020
4728 Clear -15 996 60 0 2.1 140 06:51 13.01.2020
4729 Clear -15 996 60 0 2.1 140 06:22 13.01.2020
4730 Clear -15 996 71 0 2.1 100 05:36 13.01.2020
4731 Clear -15 996 71 0 4.1 90 04:25 13.01.2020
4732 Clear -14 996 71 0 2.1 120 03:31 13.01.2020
4733 Clear -14 996 65 0 4.6 70 02:47 13.01.2020
4734 Clear -14 996 65 0 4.6 70 02:29 13.01.2020
4735 Clear -14 996 71 0 6.2 70 01:23 13.01.2020
4736 Clear -14 996 71 0 4.6 70 00:42 13.01.2020
4737 Clear -14 996 71 0 4.6 70 00:24 13.01.2020
4738 Clear -14 996 77 0 4.1 70 23:56 12.01.2020
4739 Clear -14 996 77 0 4.1 70 23:37 12.01.2020
4740 Clear -14 996 77 0 4.1 70 23:19 12.01.2020
4741 Clouds -14 996 77 10000 4.1 80 22:42 12.01.2020
4742 Clouds -14 996 77 10000 4.1 80 22:24 12.01.2020
4743 Clouds -14 995 71 10000 4.1 90 21:57 12.01.2020
4744 Clouds -13 995 71 10000 4.1 90 21:39 12.01.2020
4745 Clouds -13 995 71 10000 4.1 90 21:39 12.01.2020
4746 Clouds -13 995 71 10000 4.1 90 21:20 12.01.2020
4747 Clouds -13 995 78 10000 5.1 10 20:57 12.01.2020
4748 Clouds -12 995 78 10000 5.1 10 20:39 12.01.2020
4749 Clouds -12 995 78 10000 5.1 10 20:20 12.01.2020
4750 Clouds -13 994 65 10000 4.6 80 19:56 12.01.2020
4751 Clouds -13 994 65 10000 4.6 80 19:38 12.01.2020
4752 Clouds -13 994 65 10000 4.6 80 19:19 12.01.2020
4753 Clouds -13 994 65 10000 5.7 80 18:57 12.01.2020
4754 Clouds -13 994 65 10000 5.7 80 18:57 12.01.2020
4755 Clouds -13 994 65 10000 5.7 80 18:39 12.01.2020
4756 Clouds -13 994 65 10000 5.7 80 18:21 12.01.2020
4757 Clouds -12 994 66 10000 6.7 80 17:57 12.01.2020
4758 Clouds -12 994 66 10000 6.7 80 17:38 12.01.2020
4759 Clouds -12 994 66 10000 6.7 80 17:19 12.01.2020
4760 Clouds -12 994 60 10000 6.7 70 16:55 12.01.2020
4761 Clouds -12 994 60 10000 6.7 70 16:37 12.01.2020
4762 Clouds -12 994 60 10000 6.7 70 16:18 12.01.2020
4763 Clouds -12 994 60 10000 7.2 80 15:42 12.01.2020
4764 Clouds -12 994 60 10000 7.2 80 15:24 12.01.2020
4765 Clouds -12 993 72 10000 6.7 60 14:57 12.01.2020
4766 Clouds -12 993 72 10000 6.7 60 14:38 12.01.2020
4767 Clouds -12 993 72 10000 6.7 60 14:19 12.01.2020
4768 Clouds -12 993 66 10000 7.7 80 13:43 12.01.2020
4769 Clouds -12 993 66 10000 7.7 80 13:24 12.01.2020
4770 Clouds -12 992 60 0 8.2 80 12:58 12.01.2020
4771 Clouds -12 992 60 0 8.2 80 12:39 12.01.2020
4772 Clouds -12 992 60 0 8.2 80 12:20 12.01.2020
4773 Clouds -12 992 72 0 8.2 80 11:58 12.01.2020
4774 Clouds -11 992 72 0 8.2 80 11:39 12.01.2020
4775 Clouds -11 992 72 0 8.2 80 11:20 12.01.2020
4776 Clouds -11 992 61 0 6.2 80 10:41 12.01.2020
4777 Clouds -11 992 61 0 6.2 80 10:22 12.01.2020
4778 Clouds -11 991 56 0 7.2 70 09:57 12.01.2020
4779 Clouds -11 991 56 0 7.2 70 09:39 12.01.2020
4780 Clouds -11 991 56 0 7.2 70 09:20 12.01.2020
4781 Clouds -11 991 51 0 7.7 80 08:45 12.01.2020
4782 Clouds -11 991 51 0 7.7 80 08:21 12.01.2020
4783 Clouds -11 990 61 0 6.2 100 07:42 12.01.2020
4784 Clouds -11 990 61 0 6.2 100 07:24 12.01.2020
4785 Snow -12 990 72 0 1.5 0 06:49 12.01.2020
4786 Snow -12 990 72 0 1.5 0 06:30 12.01.2020
4787 Clouds -12 990 72 0 3.6 130 05:37 12.01.2020
4788 Snow -11 990 72 0 4.6 110 04:51 12.01.2020
4789 Snow -11 990 72 0 3.6 120 03:27 12.01.2020
4790 Snow -11 989 72 0 3.6 120 02:34 12.01.2020
4791 Clouds -11 989 66 10000 1.5 200 01:58 12.01.2020
4792 Clouds -11 989 66 10000 1.5 200 01:30 12.01.2020
4793 Snow -11 989 78 3900 1.5 290 00:44 12.01.2020
4794 Snow -11 989 78 3900 1.5 290 00:21 12.01.2020
4795 Snow -11 989 72 5000 2.1 260 23:56 11.01.2020
4796 Snow -11 989 72 5000 2.1 260 23:37 11.01.2020
4797 Snow -11 989 72 5000 2.1 260 23:18 11.01.2020
4798 Snow -11 989 78 3000 2.6 210 22:55 11.01.2020
4799 Snow -11 989 78 3000 2.6 210 22:37 11.01.2020
4800 Snow -11 989 78 3000 2.6 210 22:18 11.01.2020
4801 Snow -11 988 85 600 2.6 140 21:42 11.01.2020
4802 Snow -11 988 85 600 2.6 140 21:18 11.01.2020
4803 Snow -11 988 85 1500 4.6 230 20:55 11.01.2020
4804 Snow -11 988 85 1500 4.6 230 20:37 11.01.2020
4805 Snow -11 988 85 1500 4.6 230 20:19 11.01.2020
4806 Snow -12 987 92 400 11.3 140 19:55 11.01.2020
4807 Snow -12 987 92 400 11.3 140 19:36 11.01.2020
4808 Snow -12 987 92 400 11.3 140 19:18 11.01.2020
4809 Snow -11 987 66 5000 8.2 140 18:55 11.01.2020
4810 Snow -11 987 66 5000 8.2 140 18:36 11.01.2020
4811 Snow -11 987 66 5000 8.2 140 18:18 11.01.2020
4812 Rain -11 987 66 10000 7.2 140 17:55 11.01.2020
4813 Rain -11 987 66 10000 7.2 140 17:36 11.01.2020
4814 Rain -11 987 66 10000 7.2 140 17:18 11.01.2020
4815 Rain -11 987 66 10000 7.2 140 17:18 11.01.2020
4816 Snow -11 988 72 4000 7.2 150 16:43 11.01.2020
4817 Snow -11 988 72 4000 7.2 150 16:23 11.01.2020
4818 Snow -12 989 92 200 5.1 160 15:43 11.01.2020
4819 Snow -12 989 92 200 5.1 160 15:24 11.01.2020
4820 Snow -11 989 72 1200 7.7 140 14:59 11.01.2020
4821 Snow -11 989 72 1200 7.7 140 14:41 11.01.2020
4822 Snow -11 989 72 1200 7.7 140 14:22 11.01.2020
4823 Snow -12 989 72 3500 9.3 140 13:55 11.01.2020
4824 Snow -12 989 72 3500 9.3 140 13:37 11.01.2020
4825 Snow -12 989 72 3500 9.3 140 13:19 11.01.2020
4826 Snow -12 989 72 4000 7.7 120 12:44 11.01.2020
4827 Snow -12 989 72 4000 7.7 120 12:26 11.01.2020
4828 Snow -12 989 60 3800 5.7 130 11:56 11.01.2020
4829 Snow -12 989 60 3800 5.7 130 11:37 11.01.2020
4830 Snow -12 989 60 3800 5.7 130 11:18 11.01.2020
4831 Clouds -12 990 51 0 7.7 120 10:44 11.01.2020
4832 Clouds -12 990 51 0 7.7 120 10:24 11.01.2020
4833 Snow -12 990 43 0 9.8 120 09:42 11.01.2020
4834 Snow -12 990 43 0 9.8 120 09:21 11.01.2020
4835 Clouds -13 990 50 0 5.7 100 08:43 11.01.2020
4836 Clouds -13 990 50 0 5.7 100 08:23 11.01.2020
4837 Clouds -13 990 42 0 5.1 120 07:45 11.01.2020
4838 Clouds -13 990 42 0 5.1 120 07:27 11.01.2020
4839 Clouds -13 991 50 0 7.7 100 06:57 11.01.2020
4840 Clouds -13 991 50 0 7.7 100 06:37 11.01.2020
4841 Clouds -13 991 39 0 6.7 140 05:18 11.01.2020
4842 Clouds -14 991 60 0 6.7 120 04:37 11.01.2020
4843 Clouds -14 991 60 0 6.7 120 04:19 11.01.2020
4844 Clouds -14 991 55 0 5.7 90 02:45 11.01.2020
4845 Clouds -14 991 60 0 5.1 80 01:45 11.01.2020
4846 Clouds -14 991 60 0 5.1 80 01:22 11.01.2020
4847 Clouds -14 991 65 0 5.1 90 00:51 11.01.2020
4848 Clouds -14 991 65 0 5.1 90 00:21 11.01.2020
4849 Clouds -14 990 55 10000 4.6 70 23:56 10.01.2020
4850 Clouds -14 990 55 10000 4.6 70 23:38 10.01.2020
4851 Clouds -14 990 55 10000 4.6 70 23:20 10.01.2020
4852 Clouds -13 990 65 10000 5.1 360 22:41 10.01.2020
4853 Clouds -13 990 65 10000 5.1 360 22:22 10.01.2020
4854 Clouds -14 990 71 10000 6.2 360 21:58 10.01.2020
4855 Clouds -14 990 71 10000 6.2 360 21:40 10.01.2020
4856 Clouds -14 990 71 10000 6.2 360 21:20 10.01.2020
4857 Clouds -14 988 77 10000 7.7 350 20:56 10.01.2020
4858 Clouds -14 988 77 10000 7.7 350 20:38 10.01.2020
4859 Clouds -14 988 77 10000 7.7 350 20:19 10.01.2020
4860 Clouds -14 987 77 10000 7.2 340 19:40 10.01.2020
4861 Clouds -14 987 77 10000 7.2 340 19:40 10.01.2020
4862 Clouds -14 987 77 10000 7.2 340 19:20 10.01.2020
4863 Clouds -13 987 60 10000 4.6 360 18:55 10.01.2020
4864 Clouds -13 987 60 10000 4.6 360 18:37 10.01.2020
4865 Clouds -13 987 60 10000 4.6 360 18:18 10.01.2020
4866 Clouds -13 986 65 10000 4.6 50 17:56 10.01.2020
4867 Clouds -13 986 65 10000 4.6 50 17:37 10.01.2020
4868 Clouds -13 986 65 10000 4.6 50 17:19 10.01.2020
4869 Clouds -13 986 65 10000 4.6 50 17:19 10.01.2020
4870 Clouds -13 986 71 10000 7.2 350 16:42 10.01.2020
4871 Clouds -13 986 71 10000 7.2 350 16:21 10.01.2020
4872 Clouds -12 985 60 10000 4.6 60 15:57 10.01.2020
4873 Clouds -12 985 60 10000 4.6 60 15:38 10.01.2020
4874 Clouds -12 985 60 10000 4.6 60 15:20 10.01.2020
4875 Clouds -12 985 55 10000 4.1 50 14:58 10.01.2020
4876 Clouds -12 985 55 10000 4.1 50 14:58 10.01.2020
4877 Clouds -12 985 55 10000 4.1 50 14:40 10.01.2020
4878 Clouds -12 985 55 10000 4.1 50 14:19 10.01.2020
4879 Clouds -12 984 51 10000 5.1 80 13:57 10.01.2020
4880 Clouds -12 984 51 10000 5.1 80 13:37 10.01.2020
4881 Clouds -12 984 51 10000 5.1 80 13:19 10.01.2020
4882 Clouds -12 984 51 10000 5.1 90 12:56 10.01.2020
4883 Clouds -12 984 51 10000 5.1 90 12:38 10.01.2020
4884 Clouds -12 984 51 10000 5.1 90 12:18 10.01.2020
4885 Clouds -12 984 66 10000 6.7 90 11:42 10.01.2020
4886 Clouds -12 984 66 10000 6.7 90 11:22 10.01.2020
4887 Clouds -12 984 66 10000 6.7 90 11:22 10.01.2020
4888 Clouds -12 984 72 10000 6.2 100 10:59 10.01.2020
4889 Clouds -12 984 72 10000 6.2 100 10:39 10.01.2020
4890 Clouds -12 984 72 10000 6.2 100 10:21 10.01.2020
4891 Clouds -12 984 72 0 7.2 100 09:56 10.01.2020
4892 Clouds -12 984 72 0 7.2 100 09:37 10.01.2020
4893 Clouds -12 984 72 0 7.2 100 09:19 10.01.2020
4894 Clouds -12 984 72 0 7.2 100 09:19 10.01.2020
4895 Clouds -12 985 60 0 7.7 120 08:41 10.01.2020
4896 Clouds -12 985 60 0 7.7 120 08:22 10.01.2020
4897 Clouds -12 985 60 0 6.2 110 07:44 10.01.2020
4898 Clouds -12 985 60 0 6.2 110 07:24 10.01.2020
4899 Snow -13 986 78 0 5.7 100 06:45 10.01.2020
4900 Snow -13 986 78 0 5.7 100 06:25 10.01.2020
4901 Snow -12 987 66 0 6.7 120 05:48 10.01.2020
4902 Snow -12 988 60 0 6.7 110 03:37 10.01.2020
4903 Snow -12 988 60 0 6.7 110 03:18 10.01.2020
4904 Rain -12 989 60 10000 7.2 110 02:47 10.01.2020
4905 Snow -12 990 60 10000 7.7 110 01:44 10.01.2020
4906 Snow -12 990 60 10000 7.7 110 01:26 10.01.2020
4907 Rain -12 991 66 5000 8.2 110 00:40 10.01.2020
4908 Snow -12 992 72 2000 7.2 110 23:58 09.01.2020
4909 Snow -12 992 72 2000 7.2 110 23:39 09.01.2020
4910 Snow -12 992 72 2000 7.2 110 23:20 09.01.2020
4911 Snow -12 992 72 3500 5.1 120 22:57 09.01.2020
4912 Snow -12 992 72 3500 5.1 120 22:39 09.01.2020
4913 Snow -12 993 66 10000 5.1 120 22:19 09.01.2020
4914 Snow -13 994 78 10000 4.1 90 21:57 09.01.2020
4915 Snow -13 994 78 10000 4.1 90 21:38 09.01.2020
4916 Snow -13 994 78 10000 4.1 90 21:19 09.01.2020
4917 Snow -13 995 78 10000 3.1 90 20:57 09.01.2020
4918 Snow -13 995 78 10000 3.1 90 20:39 09.01.2020
4919 Snow -13 995 78 10000 3.1 90 20:20 09.01.2020
4920 Snow -13 996 78 10000 1.5 40 19:57 09.01.2020
4921 Snow -13 996 78 10000 1.5 40 19:38 09.01.2020
4922 Snow -13 996 78 10000 1.5 40 19:19 09.01.2020
4923 Snow -13 996 78 10000 0.5 0 18:55 09.01.2020
4924 Snow -12 996 78 10000 0.5 0 18:36 09.01.2020
4925 Snow -12 996 78 10000 0.5 0 18:18 09.01.2020
4926 Clouds -12 997 66 10000 1.5 100 17:41 09.01.2020
4927 Clouds -12 997 66 10000 1.5 100 17:18 09.01.2020
4928 Rain -12 998 78 10000 2.1 0 16:55 09.01.2020
4929 Rain -12 998 78 10000 2.1 0 16:36 09.01.2020
4930 Rain -12 998 78 10000 2.1 0 16:18 09.01.2020
4931 Rain -12 998 78 10000 3.1 280 15:41 09.01.2020
4932 Rain -12 998 78 10000 3.1 280 15:19 09.01.2020
4933 Rain -12 998 78 10000 4.6 260 14:55 09.01.2020
4934 Rain -12 998 78 10000 4.6 260 14:36 09.01.2020
4935 Rain -12 998 78 10000 4.6 260 14:36 09.01.2020
4936 Rain -12 998 78 10000 4.6 260 14:18 09.01.2020
4937 Snow -12 999 78 10000 5.1 250 13:54 09.01.2020
4938 Snow -12 999 78 10000 5.1 250 13:36 09.01.2020
4939 Snow -12 999 78 10000 5.1 250 13:18 09.01.2020
4940 Clouds -13 999 65 10000 4.6 240 12:41 09.01.2020
4941 Clouds -13 999 65 10000 4.6 240 12:22 09.01.2020
4942 Clouds -13 999 78 10000 6.2 260 11:59 09.01.2020
4943 Clouds -13 999 78 10000 6.2 260 11:41 09.01.2020
4944 Clouds -13 999 78 10000 6.2 260 11:22 09.01.2020
4945 Rain -13 999 71 5000 5.7 250 10:55 09.01.2020
4946 Rain -13 999 71 5000 5.7 250 10:37 09.01.2020
4947 Snow -12 999 78 2000 6.2 260 10:19 09.01.2020
4948 Snow -13 1000 84 0 4.6 240 09:41 09.01.2020
4949 Snow -13 1000 84 0 4.6 240 09:21 09.01.2020
4950 Snow -12 999 78 0 5.7 250 08:56 09.01.2020
4951 Snow -12 999 78 0 5.7 250 08:37 09.01.2020
4952 Snow -12 999 78 0 5.7 250 08:19 09.01.2020
4953 Snow -12 999 85 0 5.1 250 07:44 09.01.2020
4954 Snow -12 999 85 0 5.1 250 07:24 09.01.2020
4955 Snow -12 999 85 0 8.2 200 06:39 09.01.2020
4956 Snow -12 999 85 0 8.2 200 06:21 09.01.2020
4957 Snow -13 999 92 0 11.8 170 05:50 09.01.2020
4958 Snow -13 998 84 0 13.4 160 04:45 09.01.2020
4959 Snow -13 998 84 0 12.9 150 03:54 09.01.2020
4960 Snow -13 998 84 0 12.9 150 03:26 09.01.2020
4961 Snow -14 1000 84 0 10.73 160 02:31 09.01.2020
4962 Snow -14 1000 84 0 10.73 160 01:40 09.01.2020
4963 Snow -14 1000 84 0 10.8 160 00:44 09.01.2020
4964 Snow -14 1000 84 0 10.8 160 00:23 09.01.2020
4965 Snow -15 1000 92 0 10.8 160 23:58 08.01.2020
4966 Snow -15 1000 92 0 10.8 160 23:38 08.01.2020
4967 Snow -15 1000 92 0 10.8 160 23:19 08.01.2020
4968 Snow -14 1001 71 7000 7.2 210 22:40 08.01.2020
4969 Snow -14 1001 71 7000 7.2 210 22:21 08.01.2020
4970 Snow -14 1001 60 7000 6.7 220 21:58 08.01.2020
4971 Snow -14 1001 60 7000 6.7 220 21:40 08.01.2020
4972 Snow -14 1001 60 7000 6.7 220 21:40 08.01.2020
4973 Snow -14 1001 60 7000 6.7 220 21:20 08.01.2020
4974 Snow -14 1000 65 6000 6.7 250 20:59 08.01.2020
4975 Snow -14 1000 65 6000 6.7 250 20:40 08.01.2020
4976 Snow -14 1000 65 6000 6.7 250 20:20 08.01.2020
4977 Snow -16 999 84 7000 6.7 240 19:58 08.01.2020
4978 Snow -16 999 84 7000 6.7 240 19:38 08.01.2020
4979 Snow -16 999 84 7000 6.7 240 19:19 08.01.2020
4980 Snow -16 999 84 400 8.2 170 18:57 08.01.2020
4981 Snow -16 999 84 400 8.2 170 18:38 08.01.2020
4982 Snow -16 999 84 400 8.2 170 18:18 08.01.2020
4983 -273 0 0 0 0 0 17:56 08.01.2020
4984 Rain -16 998 65 10000 8.7 180 17:37 08.01.2020
4985 Rain -16 998 65 10000 8.7 180 17:18 08.01.2020
4986 Rain -17 998 64 10000 5.7 180 16:55 08.01.2020
4987 Rain -17 998 64 10000 5.7 180 16:37 08.01.2020
4988 Rain -17 998 64 10000 5.7 180 16:18 08.01.2020
4989 Snow -18 998 84 900 4.1 160 15:44 08.01.2020
4990 Snow -18 998 84 900 4.1 160 15:21 08.01.2020
4991 Snow -18 997 70 4400 4.1 120 14:58 08.01.2020
4992 Snow -18 997 70 4400 4.1 120 14:39 08.01.2020
4993 Snow -18 997 70 4400 4.1 120 14:20 08.01.2020
4994 Snow -18 997 70 4400 4.1 120 14:20 08.01.2020
4995 Snow -18 997 70 4400 4.1 120 14:20 08.01.2020
4996 Snow -19 996 70 3500 2.6 300 13:41 08.01.2020
4997 Snow -19 996 70 3500 2.6 300 13:20 08.01.2020
4998 Snow -19 995 70 10000 8.7 310 12:54 08.01.2020
4999 Snow -19 995 70 10000 8.7 310 12:36 08.01.2020
5000 Snow -19 995 70 10000 8.7 310 12:18 08.01.2020
5001 Snow -19 993 70 10000 7.2 290 11:47 08.01.2020
5002 Snow -19 993 70 10000 7.2 290 11:19 08.01.2020
5003 Snow -19 991 70 0 8.2 280 10:58 08.01.2020
5004 Snow -19 991 70 0 8.2 280 10:40 08.01.2020
5005 Snow -19 991 70 0 8.2 280 10:40 08.01.2020
5006 Snow -19 991 70 0 8.2 280 10:20 08.01.2020
5007 Snow -19 989 70 0 9.3 250 09:43 08.01.2020
5008 Snow -19 989 70 0 9.3 250 09:20 08.01.2020
5009 Snow -19 988 84 0 10.3 260 08:58 08.01.2020
5010 Snow -19 988 84 0 10.3 260 08:39 08.01.2020
5011 Snow -19 988 84 0 10.3 260 08:20 08.01.2020
5012 Snow -18 987 84 0 10.3 260 07:52 08.01.2020
5013 Snow -18 987 84 0 10.3 260 07:33 08.01.2020
5014 Snow -17 986 84 0 9.3 260 06:58 08.01.2020
5015 Snow -17 986 84 0 9.3 260 06:40 08.01.2020
5016 Snow -17 986 84 0 8.7 250 05:55 08.01.2020
5017 Snow -17 986 84 0 8.7 250 05:25 08.01.2020
5018 Snow -17 986 84 0 9.8 250 04:36 08.01.2020
5019 Snow -16 986 84 5000 8.7 230 02:46 08.01.2020
5020 Snow -16 986 84 5000 8.7 230 02:28 08.01.2020
5021 Snow -17 986 84 600 6.2 230 01:55 08.01.2020
5022 Snow -17 986 84 600 6.2 230 01:30 08.01.2020
5023 Snow -17 986 77 4000 6.7 250 00:51 08.01.2020
5024 Snow -17 986 77 4000 6.7 250 00:22 08.01.2020
5025 Snow -17 987 84 700 6.7 250 23:46 07.01.2020
5026 Snow -17 987 84 700 6.7 250 23:21 07.01.2020
5027 Snow -17 987 77 4000 7.2 250 22:41 07.01.2020
5028 Snow -17 987 77 4000 7.2 250 22:21 07.01.2020
5029 Snow -17 987 77 1000 7.7 250 21:59 07.01.2020
5030 Snow -17 987 77 1000 7.7 250 21:59 07.01.2020
5031 Snow -17 987 77 1000 7.7 250 21:41 07.01.2020
5032 Snow -17 987 77 1000 7.7 250 21:21 07.01.2020
5033 Snow -17 986 77 5000 6.2 250 20:57 07.01.2020
5034 Snow -17 986 77 5000 6.2 250 20:39 07.01.2020
5035 Snow -17 986 77 5000 6.2 250 20:39 07.01.2020
5036 Snow -17 986 77 5000 6.2 250 20:21 07.01.2020
5037 Rain -17 985 77 10000 8.7 240 19:56 07.01.2020
5038 Rain -17 985 77 10000 8.7 240 19:37 07.01.2020
5039 Rain -17 985 77 10000 8.7 240 19:19 07.01.2020
5040 Rain -17 985 77 10000 8.7 240 19:19 07.01.2020
5041 Rain -17 985 77 10000 8.7 240 19:19 07.01.2020
5042 Rain -17 984 77 10000 10.3 250 18:56 07.01.2020
5043 Rain -17 984 77 10000 10.3 250 18:37 07.01.2020
5044 Rain -17 984 77 10000 10.3 250 18:18 07.01.2020
5045 Snow -17 983 84 600 10.8 250 17:42 07.01.2020
5046 Snow -17 983 84 600 10.8 250 17:23 07.01.2020
5047 Snow -16 982 84 5000 11.8 250 16:58 07.01.2020
5048 Snow -15 982 84 5000 11.8 250 16:39 07.01.2020
5049 Snow -15 982 84 5000 11.8 250 16:20 07.01.2020
5050 Snow -15 981 84 200 10.8 250 15:59 07.01.2020
5051 Snow -15 981 84 200 10.8 250 15:41 07.01.2020
5052 Snow -15 981 84 200 10.8 250 15:23 07.01.2020
5053 Snow -14 980 84 1000 10.3 240 14:58 07.01.2020
5054 Snow -14 980 84 1000 10.3 240 14:38 07.01.2020
5055 Snow -14 980 84 1000 10.3 240 14:19 07.01.2020
5056 Snow -14 980 84 1400 9.3 230 13:44 07.01.2020
5057 Snow -14 980 84 1400 9.3 230 13:20 07.01.2020
5058 Snow -15 981 84 8000 8.2 250 12:55 07.01.2020
5059 Snow -15 981 84 8000 8.2 250 12:36 07.01.2020
5060 Snow -15 981 84 8000 8.2 250 12:18 07.01.2020
5061 Snow -15 981 71 8000 8.2 240 11:41 07.01.2020
5062 Snow -15 981 71 8000 8.2 240 11:22 07.01.2020
5063 Snow -15 981 84 1100 7.7 240 10:56 07.01.2020
5064 Snow -15 981 84 1100 7.7 240 10:37 07.01.2020
5065 Snow -15 981 84 1100 7.7 240 10:19 07.01.2020
5066 Snow -15 981 77 0 8.2 240 09:39 07.01.2020
5067 Snow -15 981 77 0 8.2 240 09:21 07.01.2020
5068 Snow -15 981 77 0 7.2 250 08:57 07.01.2020
5069 Snow -15 981 77 0 7.2 250 08:37 07.01.2020
5070 Snow -15 981 77 0 7.2 250 08:18 07.01.2020
5071 Snow -15 982 54 0 6.7 240 07:42 07.01.2020
5072 Snow -15 982 54 0 6.7 240 07:18 07.01.2020
5073 Snow -16 982 77 0 4.1 240 06:36 07.01.2020
5074 Snow -16 982 59 0 5.1 240 05:59 07.01.2020
5075 Snow -16 982 59 0 5.1 240 05:40 07.01.2020
5076 Snow -17 983 77 0 6.2 260 03:46 07.01.2020
5077 Snow -17 983 77 0 6.2 260 03:25 07.01.2020
5078 Snow -17 983 70 0 4.6 250 02:19 07.01.2020
5079 Snow -17 983 77 0 2.1 220 01:40 07.01.2020
5080 Snow -17 983 64 1500 4.6 250 00:58 07.01.2020
5081 Snow -17 983 64 1500 4.6 250 00:21 07.01.2020
5082 Snow -17 983 64 1500 4.6 250 00:21 07.01.2020
5083 Snow -17 983 64 1500 4.6 250 00:21 07.01.2020
5084 Snow -18 984 84 3500 2.6 250 23:57 06.01.2020
5085 Snow -18 984 84 3500 2.6 250 23:38 06.01.2020
5086 Snow -18 984 84 3500 2.6 250 23:20 06.01.2020
5087 Rain -18 984 70 8000 4.1 280 22:44 06.01.2020
5088 Rain -18 984 70 8000 4.1 280 22:25 06.01.2020
5089 Snow -18 985 64 10000 2.1 260 21:59 06.01.2020
5090 Snow -18 985 64 10000 2.1 260 21:40 06.01.2020
5091 Snow -18 985 64 10000 2.1 260 21:20 06.01.2020
5092 Snow -18 985 59 10000 4.6 260 20:58 06.01.2020
5093 Snow -18 985 59 10000 4.6 260 20:40 06.01.2020
5094 Snow -18 985 59 10000 4.6 260 20:20 06.01.2020
5095 Snow -18 986 77 1500 4.6 240 19:57 06.01.2020
5096 Snow -18 986 77 1500 4.6 240 19:39 06.01.2020
5097 Snow -18 986 77 1500 4.6 240 19:20 06.01.2020
5098 Snow -18 986 70 4500 7.2 250 18:48 06.01.2020
5099 Snow -18 986 70 4500 7.2 250 18:25 06.01.2020
5100 Snow -18 986 84 3000 5.1 240 18:00 06.01.2020
5101 Snow -18 986 84 3000 5.1 240 17:39 06.01.2020
5102 Snow -18 986 84 3000 5.1 240 17:19 06.01.2020
5103 Snow -18 986 84 9000 7.2 240 16:55 06.01.2020
5104 Snow -18 986 84 9000 7.2 240 16:36 06.01.2020
5105 Snow -18 986 84 9000 7.2 240 16:18 06.01.2020
5106 Snow -18 986 84 5000 6.7 250 15:42 06.01.2020
5107 Snow -18 986 84 5000 6.7 250 15:20 06.01.2020
5108 Snow -18 987 84 8000 7.7 260 14:59 06.01.2020
5109 Snow -18 987 84 8000 7.7 260 14:41 06.01.2020
5110 Snow -18 987 84 8000 7.7 260 14:41 06.01.2020
5111 Snow -18 987 84 8000 7.7 260 14:21 06.01.2020
5112 Snow -18 986 84 8000 7.7 250 13:58 06.01.2020
5113 Snow -18 986 84 8000 7.7 250 13:38 06.01.2020
5114 Snow -18 986 84 8000 7.7 250 13:20 06.01.2020
5115 Snow -18 987 84 3800 7.2 260 12:44 06.01.2020
5116 Snow -18 987 84 3800 7.2 260 12:21 06.01.2020
5117 Snow -17 987 84 700 7.2 260 11:59 06.01.2020
5118 Snow -17 987 84 700 7.2 260 11:41 06.01.2020
5119 Snow -17 987 84 700 7.2 260 11:23 06.01.2020
5120 Snow -17 987 84 800 5.7 280 10:58 06.01.2020
5121 Snow -17 987 84 800 5.7 280 10:40 06.01.2020
5122 Snow -17 987 84 800 5.7 280 10:20 06.01.2020
5123 Snow -17 987 84 800 5.7 280 10:20 06.01.2020
5124 Snow -17 986 84 0 6.2 300 09:39 06.01.2020
5125 Snow -17 986 84 0 6.2 300 09:20 06.01.2020
5126 Snow -17 986 91 0 6.7 300 08:48 06.01.2020
5127 Snow -17 986 91 0 6.7 300 08:48 06.01.2020
5128 Snow -17 986 91 0 6.7 300 08:30 06.01.2020
5129 Snow -16 985 84 0 8.2 300 07:56 06.01.2020
5130 Snow -16 985 84 0 8.2 300 07:33 06.01.2020
5131 Snow -16 984 84 0 8.7 290 06:46 06.01.2020
5132 Snow -16 984 84 0 8.7 290 06:23 06.01.2020
5133 Snow -16 984 84 0 5.1 300 05:45 06.01.2020
5134 Snow -16 984 91 0 7.2 300 04:53 06.01.2020
5135 Snow -16 984 91 0 7.2 300 04:20 06.01.2020
5136 Snow -14 981 84 300 14.9 300 02:58 06.01.2020
5137 Snow -14 981 84 300 14.9 300 02:24 06.01.2020
5138 Snow -13 980 92 800 11.8 300 01:45 06.01.2020
5139 Snow -13 980 92 800 11.8 300 01:27 06.01.2020
5140 Snow -10 976 85 1500 6.7 220 00:44 06.01.2020
5141 Snow -10 976 85 1500 6.7 220 00:24 06.01.2020
5142 Snow -10 977 85 3000 8.2 250 23:43 05.01.2020
5143 Snow -10 977 85 3000 8.2 250 23:23 05.01.2020
5144 Snow -10 977 85 3000 7.7 250 22:58 05.01.2020
5145 Snow -10 977 85 3000 7.7 250 22:39 05.01.2020
5146 Snow -10 977 85 3000 7.7 250 22:20 05.01.2020
5147 Snow -9 978 78 3000 5.7 250 21:56 05.01.2020
5148 Snow -9 978 78 3000 5.7 250 21:38 05.01.2020
5149 Snow -9 978 78 3000 5.7 250 21:20 05.01.2020
5150 Snow -9 979 92 1800 5.1 280 20:56 05.01.2020
5151 Snow -9 979 92 1800 5.1 280 20:38 05.01.2020
5152 Snow -9 979 92 1800 5.1 280 20:19 05.01.2020
5153 Snow -8 979 85 2000 4.1 290 19:57 05.01.2020
5154 Snow -8 979 85 2000 4.1 290 19:38 05.01.2020
5155 Snow -8 979 85 2000 4.1 290 19:19 05.01.2020
5156 Snow -8 979 92 800 5.1 280 18:55 05.01.2020
5157 Snow -8 979 92 800 5.1 280 18:37 05.01.2020
5158 Snow -8 979 92 800 5.1 280 18:19 05.01.2020
5159 Snow -8 980 92 2000 5.1 280 17:57 05.01.2020
5160 Snow -7 980 92 2000 5.1 280 17:38 05.01.2020
5161 Snow -7 980 92 2000 5.1 280 17:19 05.01.2020
5162 Snow -7 980 85 6000 4.1 240 16:56 05.01.2020
5163 Snow -6 980 85 6000 4.1 240 16:37 05.01.2020
5164 Snow -6 980 85 6000 4.1 240 16:19 05.01.2020
5165 Snow -6 980 85 6000 4.1 240 16:19 05.01.2020
5166 Snow -7 981 92 3000 3.6 220 15:38 05.01.2020
5167 Snow -7 981 92 3000 3.6 220 15:20 05.01.2020
5168 Snow -7 982 92 2000 2.1 230 14:55 05.01.2020
5169 Snow -7 982 92 2000 2.1 230 14:37 05.01.2020
5170 Snow -7 982 92 2000 2.1 230 14:37 05.01.2020
5171 Snow -7 982 92 2000 2.1 230 14:19 05.01.2020
5172 Snow -7 983 92 300 1.5 190 13:55 05.01.2020
5173 Snow -7 983 92 300 1.5 190 13:37 05.01.2020
5174 Snow -7 983 92 300 1.5 190 13:18 05.01.2020
5175 Snow -7 983 92 300 1.5 190 13:18 05.01.2020
5176 Snow -7 983 92 300 1.5 190 13:18 05.01.2020
5177 Snow -7 983 79 0 2.6 140 12:55 05.01.2020
5178 Snow -7 983 79 0 2.6 140 12:37 05.01.2020
5179 Snow -7 983 79 0 2.6 140 12:18 05.01.2020
5180 Snow -7 983 85 0 2.1 140 11:43 05.01.2020
5181 Snow -7 983 85 0 2.1 140 11:43 05.01.2020
5182 Snow -7 983 85 0 2.1 140 11:43 05.01.2020
5183 Snow -7 983 85 0 2.1 140 11:43 05.01.2020
5184 Snow -7 983 85 0 2.1 140 11:43 05.01.2020
5185 Snow -7 983 85 0 2.1 140 11:19 05.01.2020
5186 Snow -7 984 92 0 1 210 10:58 05.01.2020
5187 Snow -7 984 92 0 1 210 10:39 05.01.2020
5188 Snow -7 984 92 0 1 210 10:39 05.01.2020
5189 Snow -7 984 92 0 1 210 10:39 05.01.2020
5190 Snow -7 984 92 0 1 210 10:39 05.01.2020
5191 Snow -7 984 92 0 1 210 10:39 05.01.2020
5192 Snow -7 984 92 0 1 210 10:19 05.01.2020
5193 Snow -7 984 85 0 1.5 250 09:42 05.01.2020
5194 Snow -7 984 85 0 1.5 250 09:22 05.01.2020
5195 Snow -7 984 85 0 1 0 08:50 05.01.2020
5196 Snow -7 984 85 0 1 0 08:30 05.01.2020
5197 Snow -6 984 85 0 3.1 300 07:57 05.01.2020
5198 Snow -6 984 85 0 3.1 300 07:38 05.01.2020
5199 Snow -6 984 85 0 3.1 300 07:20 05.01.2020
5200 Snow -7 984 85 0 1 0 06:20 05.01.2020
5201 Snow -7 985 92 0 1 0 05:33 05.01.2020
5202 Snow -7 985 92 0 1 0 05:33 05.01.2020
5203 Snow -7 985 92 0 1 0 05:33 05.01.2020
5204 Snow -6 985 79 0 0.5 0 04:44 05.01.2020
5205 Snow -6 985 79 0 0.5 0 04:18 05.01.2020
5206 Snow -6 984 79 0 4.1 350 02:46 05.01.2020
5207 Snow -6 984 79 0 4.1 350 02:24 05.01.2020
5208 Snow -5 984 79 0 3.1 330 01:48 05.01.2020
5209 Snow -5 984 79 0 3.1 330 01:19 05.01.2020
5210 Snow -5 984 79 0 3.1 310 00:54 05.01.2020
5211 Snow -5 984 79 0 3.1 310 00:36 05.01.2020
5212 Snow -5 984 79 0 3.1 310 00:36 05.01.2020
5213 Snow -5 984 79 0 3.1 310 00:18 05.01.2020
5214 Snow -5 984 85 0 4.6 300 23:40 04.01.2020
5215 Snow -5 984 85 0 4.6 300 23:20 04.01.2020
5216 Snow -5 984 85 8000 3.1 310 22:40 04.01.2020
5217 Snow -5 984 85 8000 3.1 310 22:22 04.01.2020
5218 Snow -5 984 85 8000 3.1 310 22:22 04.01.2020
5219 Clouds -5 985 85 10000 1.5 0 21:58 04.01.2020
5220 Clouds -5 985 85 10000 1.5 0 21:40 04.01.2020
5221 Clouds -5 985 85 10000 1.5 0 21:40 04.01.2020
5222 Clouds -5 985 85 10000 1.5 0 21:21 04.01.2020
5223 Clouds -5 985 85 10000 2.6 340 20:59 04.01.2020
5224 Clouds -5 985 85 10000 2.6 340 20:40 04.01.2020
5225 Clouds -5 985 85 10000 2.6 340 20:22 04.01.2020
5226 Clouds -5 984 85 10000 3.6 340 19:57 04.01.2020
5227 Clouds -5 984 85 10000 3.6 340 19:38 04.01.2020
5228 Clouds -5 984 85 10000 3.6 340 19:20 04.01.2020
5229 Clouds -5 984 85 10000 2.6 340 18:56 04.01.2020
5230 Clouds -5 984 85 10000 2.6 340 18:37 04.01.2020
5231 Clouds -5 984 85 10000 2.6 340 18:19 04.01.2020
5232 Clouds -5 985 79 10000 2.1 0 17:41 04.01.2020
5233 Clouds -5 985 79 10000 2.1 0 17:23 04.01.2020
5234 Clouds -6 985 73 10000 2.1 40 16:59 04.01.2020
5235 Clouds -6 985 73 10000 2.1 40 16:40 04.01.2020
5236 Clouds -6 985 73 10000 2.1 40 16:21 04.01.2020
5237 Clouds -6 986 73 10000 3.6 40 15:56 04.01.2020
5238 Clouds -6 986 73 10000 3.6 40 15:38 04.01.2020
5239 Clouds -6 986 73 10000 3.6 40 15:18 04.01.2020
5240 Clouds -6 986 73 10000 3.6 60 14:43 04.01.2020
5241 Clouds -6 986 73 10000 3.6 60 14:20 04.01.2020
5242 Clouds -6 987 62 10000 4.1 20 13:59 04.01.2020
5243 Clouds -6 987 62 10000 4.1 20 13:39 04.01.2020
5244 Clouds -6 987 62 10000 4.1 20 13:20 04.01.2020
5245 Clouds -7 987 72 10000 2.6 50 12:59 04.01.2020
5246 Clouds -8 987 72 10000 2.6 50 12:40 04.01.2020
5247 Clouds -8 987 72 10000 2.6 50 12:19 04.01.2020
5248 Clouds -8 988 62 10000 2.1 60 11:57 04.01.2020
5249 Clouds -7 988 62 10000 2.1 60 11:38 04.01.2020
5250 Clouds -7 988 62 10000 2.1 60 11:18 04.01.2020
5251 Clouds -7 989 79 0 2.1 30 10:41 04.01.2020
5252 Clouds -7 989 79 0 2.1 30 10:22 04.01.2020
5253 Clouds -7 990 79 0 3.6 10 09:50 04.01.2020
5254 Clouds -7 990 79 0 3.6 10 09:26 04.01.2020
5255 Clouds -8 991 78 0 3.1 30 08:57 04.01.2020
5256 Clouds -8 991 78 0 3.1 30 08:37 04.01.2020
5257 Clouds -8 991 78 0 3.1 30 08:19 04.01.2020
5258 Clouds -6 992 85 0 4.6 360 07:42 04.01.2020
5259 Clouds -6 992 85 0 6.2 10 06:52 04.01.2020
5260 Clouds -6 992 85 0 6.2 10 06:33 04.01.2020
5261 Clouds -5 993 85 0 5.7 20 05:18 04.01.2020
5262 Clouds -5 994 79 0 6.7 10 04:33 04.01.2020
5263 Clouds -5 995 79 0 6.2 40 03:43 04.01.2020
5264 Clouds -5 995 79 0 6.2 40 03:18 04.01.2020
5265 Clouds -5 995 79 0 7.2 40 02:21 04.01.2020
5266 Clouds -5 996 79 0 6.7 50 01:55 04.01.2020
5267 Clouds -5 996 79 0 6.7 50 01:31 04.01.2020
5268 Clouds -5 996 73 0 5.7 40 00:43 04.01.2020
5269 Clouds -5 996 73 0 5.7 40 00:23 04.01.2020
5270 Clouds -5 997 73 10000 5.1 40 23:44 03.01.2020
5271 Clouds -5 997 73 10000 5.1 40 23:25 03.01.2020
5272 Clouds -5 997 73 10000 4.6 50 22:41 03.01.2020
5273 Clouds -5 997 73 10000 4.6 50 22:20 03.01.2020
5274 Clouds -5 997 62 10000 3.1 70 21:59 03.01.2020
5275 Clouds -5 997 62 10000 3.1 70 21:39 03.01.2020
5276 Clouds -5 997 62 10000 3.1 70 21:19 03.01.2020
5277 Clouds -5 997 62 10000 3.1 70 21:19 03.01.2020
5278 Clouds -5 998 67 10000 5.1 50 20:59 03.01.2020
5279 Clouds -5 998 67 10000 5.1 50 20:41 03.01.2020
5280 Clouds -5 998 67 10000 5.1 50 20:41 03.01.2020
5281 Clouds -5 998 67 10000 5.1 50 20:19 03.01.2020
5282 Clouds -5 997 67 10000 5.7 50 19:57 03.01.2020
5283 Clouds -5 997 67 10000 5.7 50 19:39 03.01.2020
5284 Clouds -5 997 67 10000 5.7 50 19:21 03.01.2020
5285 Clouds -6 998 62 10000 2.1 100 18:44 03.01.2020
5286 Clouds -6 998 62 10000 2.1 100 18:44 03.01.2020
5287 Clouds -6 998 62 10000 2.1 100 18:26 03.01.2020
5288 Clouds -5 998 57 10000 4.6 50 17:57 03.01.2020
5289 Clouds -5 998 57 10000 4.6 50 17:38 03.01.2020
5290 Clouds -5 998 57 10000 4.6 50 17:19 03.01.2020
5291 Clouds -5 998 62 10000 3.6 60 16:43 03.01.2020
5292 Clouds -5 998 62 10000 3.6 60 16:24 03.01.2020
5293 Clouds -6 998 57 10000 1 140 15:58 03.01.2020
5294 Clouds -6 998 57 10000 1 140 15:40 03.01.2020
5295 Clouds -6 998 57 10000 1 140 15:18 03.01.2020
5296 Clouds -6 998 57 10000 4.1 60 14:39 03.01.2020
5297 Clouds -6 998 57 10000 4.1 60 14:20 03.01.2020
5298 Clouds -7 999 79 10000 3.6 50 13:56 03.01.2020
5299 Clouds -7 999 79 10000 3.6 50 13:37 03.01.2020
5300 Clouds -7 999 79 10000 3.6 50 13:19 03.01.2020
5301 Clouds -7 999 48 10000 1.5 90 12:40 03.01.2020
5302 Clouds -7 999 48 10000 1.5 90 12:21 03.01.2020
5303 Clouds -6 999 53 10000 2.6 100 11:49 03.01.2020
5304 Clouds -6 999 53 10000 2.6 100 11:30 03.01.2020
5305 Clouds -5 999 45 10000 5.1 60 10:48 03.01.2020
5306 Clouds -5 999 45 10000 5.1 60 10:28 03.01.2020
5307 Snow -6 998 57 0 11.3 70 09:59 03.01.2020
5308 Snow -6 998 57 0 11.3 70 09:41 03.01.2020
5309 Snow -6 998 57 0 11.3 70 09:23 03.01.2020
5310 Snow -6 999 62 0 11.8 60 08:57 03.01.2020
5311 Snow -6 999 62 0 11.8 60 08:39 03.01.2020
5312 Snow -6 999 62 0 11.8 60 08:21 03.01.2020
5313 Clouds -6 1000 67 0 10.3 70 07:42 03.01.2020
5314 Clouds -6 1000 67 0 10.3 70 07:19 03.01.2020
5315 Clouds -6 1001 67 0 11.8 60 06:56 03.01.2020
5316 Clouds -6 1001 67 0 11.8 60 06:37 03.01.2020
5317 Clouds -6 1001 67 0 11.8 60 06:18 03.01.2020
5318 Clear -6 1002 67 0 11.8 70 04:42 03.01.2020
5319 Clear -5 1003 62 10000 9.3 70 03:37 03.01.2020
5320 Clear -5 1004 62 10000 9.3 70 02:50 03.01.2020
5321 Clear -5 1004 62 10000 8.7 70 01:48 03.01.2020
5322 Clouds -5 1004 62 10000 8.7 80 00:57 03.01.2020
5323 Clouds -5 1004 62 10000 8.7 80 00:33 03.01.2020
5324 Clouds -4 1004 62 10000 10.3 90 23:58 02.01.2020
5325 Clouds -4 1004 62 10000 10.3 90 23:39 02.01.2020
5326 Clouds -4 1004 62 10000 10.3 90 23:20 02.01.2020
5327 Clouds -4 1005 62 10000 8.7 90 22:58 02.01.2020
5328 Clouds -4 1005 62 10000 8.7 90 22:39 02.01.2020
5329 Clouds -4 1005 62 10000 8.7 90 22:19 02.01.2020
5330 Clouds -4 1005 62 10000 7.2 90 21:55 02.01.2020
5331 Clouds -4 1005 62 10000 7.2 90 21:36 02.01.2020
5332 Clouds -4 1005 62 10000 7.2 90 21:18 02.01.2020
5333 Clouds -4 1005 68 10000 3.6 90 20:54 02.01.2020
5334 Clouds -4 1005 68 10000 3.6 90 20:36 02.01.2020
5335 Clouds -4 1005 68 10000 3.6 90 20:18 02.01.2020
5336 Clouds -4 1005 73 10000 4.6 120 19:54 02.01.2020
5337 Clouds -4 1005 73 10000 4.6 120 19:36 02.01.2020
5338 Clouds -4 1005 73 10000 4.6 120 19:36 02.01.2020
5339 Clouds -4 1005 73 10000 4.6 120 19:18 02.01.2020
5340 Clouds -3 1005 68 10000 2.6 340 18:42 02.01.2020
5341 Clouds -3 1005 68 10000 2.6 340 18:23 02.01.2020
5342 Clouds -4 1005 68 10000 6.2 110 17:58 02.01.2020
5343 Clouds -4 1005 68 10000 6.2 110 17:38 02.01.2020
5344 Clouds -4 1005 68 10000 6.2 110 17:19 02.01.2020
5345 Rain -4 1006 79 10000 4.1 160 16:58 02.01.2020
5346 Rain -4 1006 79 10000 4.1 160 16:40 02.01.2020
5347 Rain -4 1006 79 10000 4.1 160 16:40 02.01.2020
5348 Rain -4 1006 79 10000 4.1 160 16:20 02.01.2020
5349 Snow -4 1006 73 10000 5.7 170 15:57 02.01.2020
5350 Snow -3 1006 73 10000 5.7 170 15:39 02.01.2020
5351 Snow -3 1006 73 10000 5.7 170 15:20 02.01.2020
5352 Snow -4 1006 79 10000 5.7 170 14:56 02.01.2020
5353 Snow -4 1006 79 10000 5.7 170 14:36 02.01.2020
5354 Snow -4 1006 79 10000 5.7 170 14:18 02.01.2020
5355 Snow -4 1006 85 5000 6.2 170 13:48 02.01.2020
5356 Snow -4 1006 85 5000 6.2 170 13:30 02.01.2020
5357 Snow -4 1006 85 3000 7.7 170 12:46 02.01.2020
5358 Snow -4 1006 85 3000 7.7 170 12:25 02.01.2020
5359 Snow -4 1005 85 5000 7.7 170 11:58 02.01.2020
5360 Snow -4 1005 85 5000 7.7 170 11:40 02.01.2020
5361 Snow -4 1005 85 5000 7.7 170 11:19 02.01.2020
5362 Snow -4 1006 85 0 7.7 170 10:44 02.01.2020
5363 Snow -4 1006 85 0 7.7 170 10:25 02.01.2020
5364 Snow -4 1005 85 0 6.7 170 09:48 02.01.2020
5365 Snow -4 1005 85 0 6.7 170 09:29 02.01.2020
5366 Snow -4 1005 85 0 6.7 180 08:47 02.01.2020
5367 Snow -4 1005 85 0 6.7 180 08:27 02.01.2020
5368 Snow -4 1005 85 0 6.2 180 07:53 02.01.2020
5369 Snow -4 1005 85 0 6.2 180 07:30 02.01.2020
5370 Snow -5 1005 92 0 3.6 230 06:46 02.01.2020
5371 Snow -5 1005 92 0 3.6 230 06:27 02.01.2020
5372 Snow -5 1005 79 0 3.6 220 05:35 02.01.2020
5373 Snow -4 1006 73 0 4.6 220 04:33 02.01.2020
5374 Snow -4 1006 68 0 5.1 240 02:54 02.01.2020
5375 Snow -4 1005 68 0 6.2 230 01:59 02.01.2020
5376 Snow -4 1005 68 0 6.2 230 01:39 02.01.2020
5377 Snow -5 1005 85 0 8.2 170 00:59 02.01.2020
5378 Snow -5 1005 85 0 8.2 170 00:34 02.01.2020
5379 Rain -5 1006 85 10000 8.2 170 23:58 01.01.2020
5380 Rain -5 1006 85 10000 8.2 170 23:40 01.01.2020
5381 Rain -5 1006 85 10000 8.2 170 23:19 01.01.2020
5382 Snow -5 1006 92 9000 6.2 210 22:38 01.01.2020
5383 Snow -5 1006 92 9000 6.2 210 22:20 01.01.2020
5384 Snow -5 1006 92 9000 6.2 210 22:20 01.01.2020
5385 Snow -5 1006 92 9000 6.2 210 22:20 01.01.2020
5386 Snow -5 1005 85 3900 5.7 200 21:56 01.01.2020
5387 Snow -5 1005 85 3900 5.7 200 21:38 01.01.2020
5388 Snow -5 1005 85 3900 5.7 200 21:19 01.01.2020
5389 Rain -5 1005 79 10000 5.7 210 20:56 01.01.2020
5390 Rain -5 1005 79 10000 5.7 210 20:56 01.01.2020
5391 Rain -5 1005 79 10000 5.7 210 20:38 01.01.2020
5392 Rain -5 1005 79 10000 5.7 210 20:38 01.01.2020
5393 Rain -5 1005 79 10000 5.7 210 20:19 01.01.2020
5394 Rain -5 1005 79 10000 5.7 210 20:19 01.01.2020
5395 Rain -5 1005 85 10000 6.7 190 19:55 01.01.2020
5396 Rain -5 1005 85 10000 6.7 190 19:55 01.01.2020
5397 Rain -5 1005 85 10000 6.7 190 19:55 01.01.2020
5398 Rain -5 1005 85 10000 6.7 190 19:55 01.01.2020
5399 Rain -5 1005 85 10000 6.7 190 19:55 01.01.2020
5400 Rain -5 1005 85 10000 6.7 190 19:37 01.01.2020
5401 Rain -6 1005 85 10000 6.7 190 19:19 01.01.2020
5402 Snow -6 1005 92 0 10.3 170 18:56 01.01.2020
5403 Snow -6 1005 92 0 10.3 170 18:36 01.01.2020
5404 Snow -6 1005 92 0 10.3 170 18:18 01.01.2020
5405 Snow -6 1005 85 0 10.8 160 17:56 01.01.2020
5406 Snow -6 1005 85 0 10.8 160 17:38 01.01.2020
5407 Snow -6 1005 85 0 10.8 160 17:19 01.01.2020
5408 Snow -6 1005 85 0 11.3 160 16:42 01.01.2020
5409 Snow -6 1005 85 0 11.3 160 16:23 01.01.2020
5410 Snow -7 1006 85 0 9.3 160 15:58 01.01.2020
5411 Snow -7 1006 85 0 9.3 160 15:40 01.01.2020
5412 Snow -7 1006 85 0 9.3 160 15:21 01.01.2020
5413 Snow -7 1006 85 0 9.3 160 14:59 01.01.2020
5414 Snow -7 1006 85 0 9.3 160 14:40 01.01.2020
5415 Snow -7 1006 85 0 9.3 160 14:22 01.01.2020
5416 Snow -8 1006 92 0 8.7 170 13:56 01.01.2020
5417 Snow -8 1006 92 0 8.7 170 13:37 01.01.2020
5418 Snow -8 1006 92 0 8.7 170 13:19 01.01.2020
5419 Snow -7 1006 67 0 5.7 170 12:57 01.01.2020
5420 Snow -7 1006 67 0 5.7 170 12:39 01.01.2020
5421 Snow -7 1006 67 0 5.7 170 12:19 01.01.2020
5422 Snow -7 1007 67 0 4.6 140 11:55 01.01.2020
5423 Snow -7 1007 67 0 4.6 140 11:36 01.01.2020
5424 Clouds -7 1007 67 0 4.6 140 11:18 01.01.2020
5425 Clouds -8 1008 72 0 2.1 140 10:41 01.01.2020
5426 Clouds -8 1008 72 0 2.1 140 10:21 01.01.2020
5427 Clouds -8 1008 67 0 1.5 160 09:59 01.01.2020
5428 Clouds -8 1008 67 0 1.5 160 09:38 01.01.2020
5429 Clouds -8 1008 67 0 1.5 160 09:38 01.01.2020
5430 Clouds -8 1008 67 0 1.5 160 09:19 01.01.2020
5431 Clouds -8 1008 61 0 0.5 0 08:55 01.01.2020
5432 Clouds -8 1008 61 0 0.5 0 08:37 01.01.2020
5433 Clouds -8 1008 61 0 0.5 0 08:18 01.01.2020
5434 Clouds -8 1007 72 0 3.1 330 07:54 01.01.2020
5435 Clouds -8 1007 72 0 3.1 330 07:36 01.01.2020
5436 Clouds -9 1007 85 0 2.1 40 06:45 01.01.2020
5437 Clouds -9 1007 85 0 2.1 40 06:21 01.01.2020
5438 Clouds -8 1007 67 0 2.1 340 05:22 01.01.2020
5439 Snow -8 1007 67 0 3.6 350 03:46 01.01.2020
5440 Snow -8 1007 67 0 3.6 350 03:23 01.01.2020
5441 Clear -8 1007 67 0 7.2 340 02:57 01.01.2020
5442 Clear -8 1007 67 0 7.2 340 02:36 01.01.2020
5443 Clouds -8 1006 72 0 7.7 330 01:57 01.01.2020
5444 Clouds -8 1006 72 0 7.7 330 01:38 01.01.2020
5445 Clouds -8 1006 72 0 7.7 330 01:20 01.01.2020
5446 Clouds -8 1006 78 0 8.7 340 00:44 01.01.2020
5447 Clouds -8 1006 78 0 8.7 340 00:25 01.01.2020
5448 Clouds -8 1005 78 0 10.8 330 23:41 31.12.2019
5449 Snow -8 1005 78 0 10.8 330 23:21 31.12.2019
5450 Snow -8 1005 78 0 10.8 330 22:57 31.12.2019
5451 Snow -8 1005 78 0 10.8 330 22:39 31.12.2019
5452 Snow -8 1005 78 0 10.8 330 22:39 31.12.2019
5453 Snow -8 1005 78 0 10.8 330 22:20 31.12.2019
5454 Snow -8 1004 78 0 10.8 320 21:58 31.12.2019
5455 Snow -8 1004 78 0 10.8 320 21:40 31.12.2019
5456 Snow -8 1004 78 0 10.8 320 21:21 31.12.2019
5457 Snow -8 1004 72 0 10.3 330 20:56 31.12.2019
5458 Snow -8 1004 72 0 10.3 330 20:37 31.12.2019
5459 Snow -8 1004 72 0 10.3 330 20:19 31.12.2019
5460 Snow -7 1004 67 0 9.8 330 19:54 31.12.2019
5461 Snow -7 1004 67 0 9.8 330 19:36 31.12.2019
5462 Snow -7 1004 67 0 9.8 330 19:18 31.12.2019
5463 Snow -7 1003 67 0 8.7 330 18:54 31.12.2019
5464 Snow -7 1003 67 0 8.7 330 18:36 31.12.2019
5465 Snow -7 1003 67 0 8.7 330 18:18 31.12.2019
5466 Snow -7 1002 79 0 9.3 320 17:54 31.12.2019
5467 Snow -7 1002 79 0 9.3 320 17:36 31.12.2019
5468 Snow -7 1002 79 0 9.3 320 17:18 31.12.2019
5469 Snow -7 1002 67 0 3.6 340 16:54 31.12.2019
5470 Snow -7 1002 67 0 3.6 340 16:36 31.12.2019
5471 Snow -7 1002 67 0 3.6 340 16:18 31.12.2019
5472 Snow -7 1002 67 0 3.6 340 16:18 31.12.2019
5473 Rain -6 1002 73 10000 5.1 350 15:54 31.12.2019
5474 Rain -6 1002 73 10000 5.1 350 15:36 31.12.2019
5475 Rain -6 1002 73 10000 5.1 350 15:18 31.12.2019
5476 Snow -6 1002 85 10000 7.7 340 14:54 31.12.2019
5477 Snow -6 1002 85 10000 7.7 340 14:36 31.12.2019
5478 Snow -6 1002 85 10000 7.7 340 14:18 31.12.2019
5479 Snow -6 1000 92 0 13.4 330 13:54 31.12.2019
5480 Snow -6 1000 92 0 13.4 330 13:36 31.12.2019
5481 Snow -6 1000 92 0 13.4 330 13:18 31.12.2019
5482 Snow -5 999 92 0 3.1 250 12:40 31.12.2019
5483 Snow -5 999 92 0 3.1 250 12:40 31.12.2019
5484 Snow -5 999 92 0 3.1 250 12:20 31.12.2019
5485 Snow -5 999 92 0 3.1 250 12:20 31.12.2019
5486 Snow -5 999 92 0 1.5 230 11:57 31.12.2019
5487 Snow -5 999 92 0 1.5 230 11:39 31.12.2019
5488 Snow -5 999 92 0 1.5 230 11:20 31.12.2019
5489 Snow -5 999 92 0 4.1 210 10:58 31.12.2019
5490 Snow -5 999 92 0 4.1 210 10:39 31.12.2019
5491 Snow -5 999 92 0 4.1 210 10:20 31.12.2019
5492 Snow -5 998 85 0 3.6 180 09:59 31.12.2019
5493 Snow -5 998 85 0 3.6 180 09:40 31.12.2019
5494 Snow -5 998 85 0 3.6 180 09:22 31.12.2019
5495 Snow -5 998 85 0 5.1 170 08:59 31.12.2019
5496 Snow -5 998 85 0 5.1 170 08:41 31.12.2019
5497 Snow -5 998 85 0 5.1 170 08:20 31.12.2019
5498 Snow -6 999 92 0 2.1 0 07:44 31.12.2019
5499 Snow -6 999 92 0 2.1 0 07:22 31.12.2019
5500 Snow -5 999 85 0 3.1 170 06:51 31.12.2019
5501 Snow -5 999 85 0 3.1 170 06:23 31.12.2019
5502 Snow -5 999 85 0 3.1 170 06:23 31.12.2019
5503 Snow -5 1000 79 0 2.6 0 04:54 31.12.2019
5504 Snow -5 1000 79 0 2.6 0 04:24 31.12.2019
5505 Snow -5 1002 79 0 3.1 150 02:57 31.12.2019
5506 Clouds -5 1002 79 0 3.1 150 02:20 31.12.2019
5507 Clouds -5 1003 79 0 1 0 01:49 31.12.2019
5508 Clouds -5 1003 79 0 1 0 01:31 31.12.2019
5509 Clouds -5 1003 73 0 1 0 00:48 31.12.2019
5510 Clouds -5 1003 73 0 1 0 00:25 31.12.2019
5511 Clouds -4 1004 68 10000 5.1 120 23:58 30.12.2019
5512 Clouds -4 1004 68 10000 5.1 120 23:40 30.12.2019
5513 Clouds -4 1004 68 10000 5.1 120 23:22 30.12.2019
5514 Rain -5 1005 67 10000 3.1 120 22:59 30.12.2019
5515 Rain -5 1005 67 10000 3.1 120 22:41 30.12.2019
5516 Rain -5 1005 67 10000 3.1 120 22:21 30.12.2019
5517 Rain -5 1005 67 10000 5.7 120 21:57 30.12.2019
5518 Rain -5 1005 67 10000 5.7 120 21:57 30.12.2019
5519 Rain -5 1005 67 10000 5.7 120 21:39 30.12.2019
5520 Rain -5 1005 67 10000 5.7 120 21:20 30.12.2019
5521 Snow -5 1006 67 10000 1.5 140 20:59 30.12.2019
5522 Snow -5 1006 67 10000 1.5 140 20:40 30.12.2019
5523 Snow -5 1006 67 10000 1.5 140 20:40 30.12.2019
5524 Snow -5 1006 67 10000 1.5 140 20:20 30.12.2019
5525 Rain -6 1006 67 10000 1 110 19:58 30.12.2019
5526 Rain -6 1006 67 10000 1 110 19:39 30.12.2019
5527 Rain -6 1006 67 10000 1 110 19:19 30.12.2019
5528 Rain -5 1007 67 10000 2.6 0 18:59 30.12.2019
5529 Rain -5 1007 67 10000 2.6 0 18:41 30.12.2019
5530 Rain -5 1007 67 10000 2.6 0 18:20 30.12.2019
5531 Rain -5 1007 73 10000 1.5 100 17:57 30.12.2019
5532 Rain -5 1007 73 10000 1.5 100 17:39 30.12.2019
5533 Rain -5 1007 73 10000 1.5 100 17:19 30.12.2019
5534 Snow -5 1008 73 10000 0.5 110 16:58 30.12.2019
5535 Snow -5 1008 73 10000 0.5 110 16:37 30.12.2019
5536 Snow -6 1008 73 10000 0.5 110 16:19 30.12.2019
5537 Rain -6 1009 73 10000 2.6 90 15:56 30.12.2019
5538 Rain -6 1009 73 10000 2.6 90 15:37 30.12.2019
5539 Rain -6 1009 73 10000 2.6 90 15:19 30.12.2019
5540 Clouds -6 1009 79 10000 0.5 0 14:43 30.12.2019
5541 Clouds -6 1009 79 10000 0.5 0 14:20 30.12.2019
5542 Clouds -6 1010 79 10000 1.5 230 13:58 30.12.2019
5543 Clouds -6 1010 79 10000 1.5 230 13:40 30.12.2019
5544 Clouds -6 1010 79 10000 1.5 230 13:22 30.12.2019
5545 Clouds -6 1010 79 10000 1.5 230 13:22 30.12.2019
5546 Clouds -6 1010 85 10000 3.1 160 12:57 30.12.2019
5547 Clouds -6 1010 85 10000 3.1 160 12:37 30.12.2019
5548 Clouds -6 1010 85 10000 3.1 160 12:18 30.12.2019
5549 Snow -6 1010 92 10000 1 180 11:45 30.12.2019
5550 Snow -6 1010 92 10000 1 180 11:22 30.12.2019
5551 Snow -6 1010 92 4000 4.03 175 10:59 30.12.2019
5552 Snow -6 1010 92 4000 4.03 175 10:40 30.12.2019
5553 Snow -6 1010 92 4000 4.03 175 10:19 30.12.2019
5554 Snow -6 1010 92 0 4.03 175 09:43 30.12.2019
5555 Snow -6 1010 92 0 4.03 175 09:21 30.12.2019
5556 Snow -6 1010 92 0 1 100 08:57 30.12.2019
5557 Snow -6 1010 92 0 1 100 08:38 30.12.2019
5558 Snow -6 1010 92 0 1 100 08:19 30.12.2019
5559 Snow -7 1009 92 0 1.5 100 07:46 30.12.2019
5560 Snow -7 1009 92 0 1.5 100 07:23 30.12.2019
5561 Snow -6 1009 85 0 2.1 120 06:32 30.12.2019
5562 Snow -6 1009 92 0 1.5 110 04:31 30.12.2019
5563 Snow -7 1009 85 0 2.6 100 03:50 30.12.2019
5564 Snow -8 1009 85 0 1.5 120 02:47 30.12.2019
5565 Snow -8 1009 85 0 1.5 120 02:26 30.12.2019
5566 Snow -5 1008 92 0 1.5 160 01:29 30.12.2019
5567 Snow -7 1008 92 0 2.1 100 00:59 30.12.2019
5568 Snow -7 1008 92 0 2.1 100 00:39 30.12.2019
5569 Snow -5 1008 92 10000 1.5 120 23:55 29.12.2019
5570 Snow -5 1008 92 10000 1.5 120 23:36 29.12.2019
5571 Snow -5 1008 92 10000 1.5 120 23:18 29.12.2019
5572 Snow -5 1007 92 900 4.1 270 22:40 29.12.2019
5573 Snow -5 1007 92 900 4.1 270 22:21 29.12.2019
5574 Snow -5 1006 85 5000 1.5 100 21:56 29.12.2019
5575 Snow -5 1006 85 5000 1.5 100 21:38 29.12.2019
5576 Snow -5 1006 85 5000 1.5 100 21:19 29.12.2019
5577 Rain -5 1006 92 10000 1.5 290 20:55 29.12.2019
5578 Rain -5 1006 92 10000 1.5 290 20:37 29.12.2019
5579 Rain -5 1006 92 10000 1.5 290 20:18 29.12.2019
5580 Rain -5 1004 85 10000 2.1 130 19:56 29.12.2019
5581 Rain -5 1004 85 10000 2.1 130 19:37 29.12.2019
5582 Rain -5 1004 85 10000 2.1 130 19:19 29.12.2019
5583 Snow -5 1004 92 10000 0.5 0 18:55 29.12.2019
5584 Snow -5 1004 92 10000 0.5 0 18:37 29.12.2019
5585 Snow -5 1004 92 10000 0.5 0 18:18 29.12.2019
5586 Snow -5 1004 92 3000 1.5 140 17:56 29.12.2019
5587 Snow -5 1004 92 3000 1.5 140 17:37 29.12.2019
5588 Snow -5 1004 92 3000 1.5 140 17:19 29.12.2019
5589 Snow -5 1003 85 6000 1.5 40 16:55 29.12.2019
5590 Snow -5 1003 85 6000 1.5 40 16:36 29.12.2019
5591 Snow -5 1003 85 6000 1.5 40 16:36 29.12.2019
5592 Snow -5 1003 85 6000 1.5 40 16:18 29.12.2019
5593 Clouds -4 1003 68 10000 1 0 15:55 29.12.2019
5594 Clouds -4 1003 68 10000 1 0 15:37 29.12.2019
5595 Clouds -4 1003 68 10000 1 0 15:18 29.12.2019
5596 Clouds -5 1002 73 10000 1.5 0 14:55 29.12.2019
5597 Clouds -5 1002 73 10000 1.5 0 14:37 29.12.2019
5598 Clouds -5 1002 73 10000 1.5 0 14:18 29.12.2019
5599 Clouds -6 1001 73 10000 2.1 90 13:55 29.12.2019
5600 Clouds -6 1001 73 10000 2.1 90 13:37 29.12.2019
5601 Clouds -6 1001 73 10000 2.1 90 13:18 29.12.2019
5602 Clouds -7 1000 79 0 1.5 120 12:41 29.12.2019
5603 Clouds -7 1000 79 0 1.5 120 12:23 29.12.2019
5604 Clouds -6 1000 73 0 1 200 11:55 29.12.2019
5605 Clouds -6 1000 73 0 1 200 11:37 29.12.2019
5606 Clouds -6 1000 73 0 1 200 11:19 29.12.2019
5607 Clouds -7 999 79 0 2.1 100 10:41 29.12.2019
5608 Clouds -7 999 79 0 2.1 100 10:21 29.12.2019
5609 Clouds -6 998 73 0 2.1 0 09:54 29.12.2019
5610 Clouds -6 998 73 0 2.1 0 09:36 29.12.2019
5611 Clouds -6 998 73 0 2.1 0 09:18 29.12.2019
5612 Clouds -7 998 73 0 3.1 60 08:46 29.12.2019
5613 Clouds -7 998 73 0 3.1 60 08:24 29.12.2019
5614 Clouds -7 997 73 0 3.6 60 07:54 29.12.2019
5615 Clouds -7 997 73 0 3.6 60 07:28 29.12.2019
5616 Clouds -7 997 67 0 2.1 50 06:53 29.12.2019
5617 Clouds -7 997 67 0 2.1 50 06:24 29.12.2019
5618 Clouds -8 996 67 0 2.1 70 05:51 29.12.2019
5619 Clouds -8 996 78 0 2.6 50 04:36 29.12.2019
5620 Clouds -9 996 85 0 3.1 50 03:43 29.12.2019
5621 Clouds -9 996 85 0 3.1 50 03:19 29.12.2019
5622 Clouds -8 996 78 0 3.1 50 02:20 29.12.2019
5623 Clouds -8 996 78 0 3.1 50 02:20 29.12.2019
5624 Clouds -8 996 78 0 3.6 40 01:31 29.12.2019
5625 Clouds -7 995 79 0 4.6 10 00:57 29.12.2019
5626 Clouds -7 995 79 0 4.6 10 00:39 29.12.2019
5627 Clouds -7 995 79 0 4.6 10 00:21 29.12.2019
5628 Clouds -7 995 79 10000 4.6 10 23:42 28.12.2019
5629 Clouds -7 995 79 10000 4.6 10 23:42 28.12.2019
5630 Clouds -7 995 79 10000 4.6 10 23:18 28.12.2019
5631 Clouds -8 995 85 10000 5.1 360 22:39 28.12.2019
5632 Clouds -8 995 85 10000 5.1 360 22:39 28.12.2019
5633 Clouds -8 995 85 10000 5.1 360 22:20 28.12.2019
5634 Clouds -8 995 85 10000 4.6 20 21:58 28.12.2019
5635 Clouds -8 995 85 10000 4.6 20 21:58 28.12.2019
5636 Clouds -8 995 85 10000 4.6 20 21:39 28.12.2019
5637 Clouds -8 995 85 10000 4.6 20 21:21 28.12.2019
5638 Clouds -9 995 85 10000 4.6 50 20:57 28.12.2019
5639 Clouds -9 995 85 10000 4.6 50 20:37 28.12.2019
5640 Clouds -9 995 85 10000 4.6 50 20:37 28.12.2019
5641 Clouds -9 995 85 10000 4.6 50 20:19 28.12.2019
5642 Clouds -8 994 78 10000 4.1 50 19:57 28.12.2019
5643 Clouds -8 994 78 10000 4.1 50 19:39 28.12.2019
5644 Clouds -8 994 78 10000 4.1 50 19:20 28.12.2019
5645 Clouds -8 994 78 10000 5.7 60 18:57 28.12.2019
5646 Clouds -8 994 78 10000 5.7 60 18:39 28.12.2019
5647 Clouds -8 994 78 10000 5.7 60 18:18 28.12.2019
5648 Clouds -9 994 78 10000 5.7 60 17:54 28.12.2019
5649 Clouds -9 994 78 10000 5.7 60 17:36 28.12.2019
5650 Clouds -9 994 78 10000 5.7 60 17:18 28.12.2019
5651 Clouds -9 995 78 10000 5.1 60 16:45 28.12.2019
5652 Clouds -9 995 78 10000 5.1 60 16:24 28.12.2019
5653 Clouds -9 995 78 10000 5.1 70 15:44 28.12.2019
5654 Clouds -9 995 78 10000 5.1 70 15:24 28.12.2019
5655 Clouds -10 995 78 10000 3.6 70 14:58 28.12.2019
5656 Clouds -10 995 78 10000 3.6 70 14:38 28.12.2019
5657 Clouds -10 995 78 10000 3.6 70 14:20 28.12.2019
5658 Clouds -10 994 85 10000 4.1 70 13:43 28.12.2019
5659 Clouds -10 994 85 10000 4.1 70 13:24 28.12.2019
5660 Clouds -11 994 78 10000 2.6 110 12:59 28.12.2019
5661 Clouds -11 994 78 10000 2.6 110 12:41 28.12.2019
5662 Clouds -11 994 78 10000 2.6 110 12:23 28.12.2019
5663 Clear -11 994 85 0 3.6 90 11:56 28.12.2019
5664 Clear -11 994 85 0 3.6 90 11:37 28.12.2019
5665 Clear -11 994 85 0 3.6 90 11:18 28.12.2019
5666 Clear -11 994 85 0 2.6 60 10:43 28.12.2019
5667 Clear -11 994 85 0 2.6 60 10:21 28.12.2019
5668 Clear -11 994 85 0 3.1 80 09:57 28.12.2019
5669 Clear -11 994 85 0 3.1 80 09:39 28.12.2019
5670 Clear -11 994 85 0 3.1 80 09:19 28.12.2019
5671 Clear -10 993 78 0 3.6 70 08:44 28.12.2019
5672 Clear -10 993 78 0 3.6 70 08:26 28.12.2019
5673 Clear -11 993 85 0 3.1 100 07:53 28.12.2019
5674 Clear -11 993 85 0 3.1 100 07:30 28.12.2019
5675 Clear -11 992 78 0 2.1 100 06:27 28.12.2019
5676 Clear -11 993 78 0 3.1 100 04:51 28.12.2019
5677 Clear -11 993 78 0 2.6 100 03:47 28.12.2019
5678 Clear -11 993 78 0 2.6 100 02:48 28.12.2019
5679 Clear -11 993 85 0 2.1 100 01:59 28.12.2019
5680 Clear -11 993 85 0 2.1 100 01:30 28.12.2019
5681 Clouds -11 994 85 10000 2.1 110 00:58 28.12.2019
5682 Clouds -11 994 85 10000 2.1 110 00:40 28.12.2019
5683 Clouds -11 994 85 10000 2.1 110 00:20 28.12.2019
5684 Clouds -11 994 78 10000 2.1 110 23:44 27.12.2019
5685 Clouds -11 994 78 10000 2.1 110 23:20 27.12.2019
5686 Clouds -11 994 85 10000 3.1 90 22:58 27.12.2019
5687 Clouds -11 994 85 10000 3.1 90 22:39 27.12.2019
5688 Clouds -11 994 85 10000 3.1 90 22:20 27.12.2019
5689 Clouds -10 994 85 10000 2.1 90 21:56 27.12.2019
5690 Clouds -9 994 85 10000 2.1 90 21:37 27.12.2019
5691 Clouds -9 994 85 10000 2.1 90 21:19 27.12.2019
5692 Clouds -11 995 85 10000 2.6 90 20:42 27.12.2019
5693 Clouds -11 995 85 10000 2.6 90 20:23 27.12.2019
5694 Clouds -11 995 85 10000 2.6 100 19:54 27.12.2019
5695 Clouds -11 995 85 10000 2.6 100 19:36 27.12.2019
5696 Clouds -11 995 85 10000 2.6 100 19:18 27.12.2019
5697 Clouds -10 995 78 10000 2.1 90 18:40 27.12.2019
5698 Clouds -10 995 78 10000 2.1 90 18:22 27.12.2019
5699 Clouds -10 996 78 10000 2.1 90 17:58 27.12.2019
5700 Clouds -10 996 78 10000 2.1 90 17:40 27.12.2019
5701 Clouds -10 996 78 10000 2.1 90 17:19 27.12.2019
5702 Clouds -10 996 78 10000 3.1 90 16:59 27.12.2019
5703 Clouds -9 996 78 10000 3.1 90 16:39 27.12.2019
5704 Clouds -10 997 78 10000 2.6 60 16:20 27.12.2019
5705 Clouds -10 997 78 10000 2.6 60 15:45 27.12.2019
5706 Clouds -10 997 78 10000 2.6 60 15:23 27.12.2019
5707 Clouds -9 998 78 10000 3.6 70 14:58 27.12.2019
5708 Clouds -9 998 78 10000 3.6 70 14:40 27.12.2019
5709 Clouds -9 998 78 10000 3.6 70 14:21 27.12.2019
5710 Clouds -10 998 85 10000 2.6 90 13:58 27.12.2019
5711 Clouds -10 998 85 10000 2.6 90 13:40 27.12.2019
5712 Clouds -10 998 85 10000 2.6 90 13:21 27.12.2019
5713 Clouds -9 999 85 10000 2.1 60 12:44 27.12.2019
5714 Clouds -9 999 85 10000 2.1 60 12:26 27.12.2019
5715 Clear -10 999 85 10000 2.6 70 11:55 27.12.2019
5716 Clear -10 999 85 10000 2.6 70 11:37 27.12.2019
5717 Clear -10 999 85 10000 2.6 70 11:18 27.12.2019
5718 Clouds -10 1000 85 10000 2.1 70 10:41 27.12.2019
5719 Clouds -10 1000 85 10000 2.1 70 10:23 27.12.2019
5720 Clear -9 1000 78 0 2.6 60 09:49 27.12.2019
5721 Clear -9 1000 78 0 2.6 60 09:22 27.12.2019
5722 Clear -9 1001 72 0 3.1 60 08:59 27.12.2019
5723 Clear -9 1001 72 0 3.1 60 08:41 27.12.2019
5724 Clear -9 1001 72 0 3.1 60 08:22 27.12.2019
5725 Clear -10 1002 85 0 2.6 60 07:38 27.12.2019
5726 Clear -9 1002 85 0 3.1 30 06:59 27.12.2019
5727 Clear -9 1002 85 0 3.1 30 06:23 27.12.2019
5728 Clear -10 1004 85 0 3.1 50 04:39 27.12.2019
5729 Clear -10 1005 85 0 4.1 70 02:28 27.12.2019
5730 Clear -9 1006 85 0 3.6 40 01:45 27.12.2019
5731 Clear -9 1006 85 0 3.6 40 01:23 27.12.2019
5732 Clear -9 1007 85 0 3.1 40 00:47 27.12.2019
5733 Clear -9 1007 85 0 3.1 40 00:27 27.12.2019
5734 Clear -9 1007 85 0 3.6 30 23:56 26.12.2019
5735 Clear -9 1007 85 0 3.6 30 23:38 26.12.2019
5736 Clear -9 1007 85 0 3.6 30 23:20 26.12.2019
5737 Clear -8 1008 85 0 4.6 10 22:41 26.12.2019
5738 Clear -8 1008 85 0 4.6 10 22:19 26.12.2019
5739 Clouds -8 1008 85 10000 4.1 50 21:40 26.12.2019
5740 Clouds -8 1008 85 10000 4.1 50 21:22 26.12.2019
5741 Clouds -9 1009 78 10000 4.1 50 20:59 26.12.2019
5742 Clouds -9 1009 78 10000 4.1 50 20:40 26.12.2019
5743 Clouds -9 1009 78 10000 4.1 50 20:22 26.12.2019
5744 Clouds -10 1009 85 10000 3.1 50 19:57 26.12.2019
5745 Clouds -10 1009 85 10000 3.1 50 19:38 26.12.2019
5746 Clouds -10 1009 85 10000 3.1 50 19:20 26.12.2019
5747 Clouds -9 1010 85 10000 4.6 360 18:57 26.12.2019
5748 Clouds -8 1010 85 10000 4.6 360 18:37 26.12.2019
5749 Clouds -8 1010 85 10000 4.6 360 18:18 26.12.2019
5750 Clouds -8 1010 78 10000 3.1 40 17:42 26.12.2019
5751 Clouds -8 1010 78 10000 3.1 40 17:42 26.12.2019
5752 Clouds -8 1010 78 10000 3.1 40 17:22 26.12.2019
5753 Clouds -7 1011 85 10000 3.6 20 16:54 26.12.2019
5754 Clouds -7 1011 85 10000 3.6 20 16:36 26.12.2019
5755 Clouds -7 1011 85 10000 3.6 20 16:36 26.12.2019
5756 Clouds -7 1011 85 10000 3.6 20 16:18 26.12.2019
5757 Clouds -7 1012 85 10000 3.6 360 15:41 26.12.2019
5758 Clouds -7 1012 85 10000 3.6 360 15:20 26.12.2019
5759 Clouds -8 1012 92 10000 3.1 40 14:54 26.12.2019
5760 Clouds -8 1012 92 10000 3.1 40 14:36 26.12.2019
5761 Clouds -8 1012 92 10000 3.1 40 14:36 26.12.2019
5762 Clouds -8 1012 92 10000 3.1 40 14:18 26.12.2019
5763 Clouds -7 1012 85 10000 4.1 10 13:42 26.12.2019
5764 Clouds -7 1012 85 10000 4.1 10 13:20 26.12.2019
5765 Clear -8 1012 85 0 2.6 30 12:56 26.12.2019
5766 Clear -9 1012 85 0 2.6 30 12:37 26.12.2019
5767 Clear -9 1012 85 0 2.6 30 12:19 26.12.2019
5768 Clear -9 1013 85 0 3.1 50 11:56 26.12.2019
5769 Clear -9 1013 85 0 3.1 50 11:37 26.12.2019
5770 Clear -9 1013 85 0 3.1 50 11:37 26.12.2019
5771 Clear -9 1013 85 0 3.1 50 11:19 26.12.2019
5772 Clear -9 1013 85 0 2.6 40 10:41 26.12.2019
5773 Clear -9 1013 85 0 2.6 40 10:18 26.12.2019
5774 Clear -8 1013 85 0 2.6 30 09:43 26.12.2019
5775 Clear -8 1013 85 0 2.6 30 09:25 26.12.2019
5776 Clear -9 1013 78 0 2.1 40 08:42 26.12.2019
5777 Clear -9 1013 78 0 2.1 40 08:23 26.12.2019
5778 Clear -9 1013 85 0 4.1 60 07:52 26.12.2019
5779 Clear -9 1013 85 0 4.1 60 07:26 26.12.2019
5780 Clear -9 1013 85 0 3.6 50 06:52 26.12.2019
5781 Clear -9 1013 85 0 3.6 50 06:31 26.12.2019
5782 Clear -7 1013 85 0 3.1 40 05:45 26.12.2019
5783 Clear -8 1013 78 0 2.6 30 04:48 26.12.2019
5784 Clear -8 1013 78 0 2.6 30 04:29 26.12.2019
5785 Clear -8 1013 72 0 4.6 70 02:54 26.12.2019
5786 Clear -8 1013 72 0 4.6 70 02:34 26.12.2019
5787 Clear -8 1013 78 0 4.6 60 01:46 26.12.2019
5788 Clear -8 1013 78 0 4.6 60 01:28 26.12.2019
5789 Clear -8 1013 78 0 5.1 60 00:49 26.12.2019
5790 Clear -8 1013 78 0 5.1 60 00:27 26.12.2019
5791 Clear -8 1013 78 0 5.1 70 23:58 25.12.2019
5792 Clear -8 1013 78 0 5.1 70 23:39 25.12.2019
5793 Clear -8 1013 78 0 5.1 70 23:21 25.12.2019
5794 Clear -8 1013 78 0 5.7 70 22:59 25.12.2019
5795 Clear -8 1013 78 0 5.7 70 22:39 25.12.2019
5796 Clear -8 1013 78 0 5.7 70 22:20 25.12.2019
5797 Clear -8 1013 78 0 5.1 70 21:58 25.12.2019
5798 Clear -8 1013 78 0 5.1 70 21:39 25.12.2019
5799 Clear -8 1013 78 0 5.1 70 21:20 25.12.2019
5800 Clear -8 1013 78 0 5.7 80 20:56 25.12.2019
5801 Clear -8 1013 78 0 5.7 80 20:38 25.12.2019
5802 Clouds -8 1013 78 0 5.7 80 20:18 25.12.2019
5803 Clouds -8 1013 78 0 5.7 80 20:18 25.12.2019
5804 Clouds -8 1013 78 0 5.7 80 20:18 25.12.2019
5805 Clouds -8 1012 78 0 5.1 70 19:43 25.12.2019
5806 Clouds -8 1012 78 0 5.1 70 19:24 25.12.2019
5807 Clouds -8 1012 73 0 5.1 70 18:58 25.12.2019
5808 Clouds -7 1012 73 0 5.1 70 18:37 25.12.2019
5809 Clouds -7 1012 73 0 5.1 70 18:18 25.12.2019
5810 Clouds -7 1013 73 0 5.1 60 17:41 25.12.2019
5811 Clouds -7 1013 73 0 5.1 60 17:19 25.12.2019
5812 Clouds -7 1013 73 0 4.6 70 16:58 25.12.2019
5813 Clouds -7 1013 73 0 4.6 70 16:37 25.12.2019
5814 Clouds -7 1013 73 0 4.6 70 16:18 25.12.2019
5815 Clouds -7 1013 73 0 5.1 80 15:57 25.12.2019
5816 Clouds -7 1013 73 0 5.1 80 15:57 25.12.2019
5817 Clouds -7 1013 73 0 5.1 80 15:38 25.12.2019
5818 Clouds -7 1013 73 0 5.1 80 15:20 25.12.2019
5819 Clouds -7 1013 67 0 5.1 70 14:57 25.12.2019
5820 Clouds -7 1013 67 0 5.1 70 14:39 25.12.2019
5821 Clouds -7 1013 67 0 5.1 70 14:39 25.12.2019
5822 Clouds -7 1013 67 0 5.1 70 14:20 25.12.2019
5823 Clouds -6 1013 67 0 6.2 80 13:44 25.12.2019
5824 Clouds -6 1013 67 0 6.2 80 13:21 25.12.2019
5825 Clouds -6 1013 67 0 6.7 90 12:57 25.12.2019
5826 Clouds -6 1013 67 0 6.7 90 12:38 25.12.2019
5827 Clouds -6 1013 67 0 6.7 90 12:38 25.12.2019
5828 Clouds -6 1013 67 0 6.7 90 12:19 25.12.2019
5829 Clouds -6 1013 67 0 5.7 90 11:43 25.12.2019
5830 Clouds -6 1013 67 0 5.7 90 11:22 25.12.2019
5831 Clouds -6 1013 67 0 7.2 90 10:59 25.12.2019
5832 Clouds -6 1013 67 0 7.2 90 10:37 25.12.2019
5833 Clouds -6 1013 67 0 7.2 90 10:19 25.12.2019
5834 Clouds -6 1013 67 0 6.2 80 09:44 25.12.2019
5835 Clouds -6 1013 67 0 6.2 80 09:26 25.12.2019
5836 Clouds -6 1013 73 0 5.7 80 08:46 25.12.2019
5837 Clear -6 1013 73 0 5.7 80 08:26 25.12.2019
5838 Clear -5 1013 67 0 5.7 80 07:48 25.12.2019
5839 Clear -5 1013 67 0 5.7 80 07:29 25.12.2019
5840 Clear -5 1013 67 0 4.6 70 06:49 25.12.2019
5841 Clear -5 1013 67 0 4.6 70 06:22 25.12.2019
5842 Clear -5 1013 73 0 5.1 60 05:18 25.12.2019
5843 Clear -4 1013 62 0 5.7 70 04:38 25.12.2019
5844 Clear -4 1013 68 0 5.7 60 03:58 25.12.2019
5845 Clear -4 1013 68 0 5.7 60 03:40 25.12.2019
5846 Clear -4 1013 62 0 5.7 80 02:39 25.12.2019
5847 Clear -4 1013 62 0 6.2 70 01:59 25.12.2019
5848 Clear -4 1013 62 0 6.2 70 01:25 25.12.2019
5849 Clear -4 1014 62 0 5.1 80 00:50 25.12.2019
5850 Clear -4 1014 62 0 5.1 80 00:29 25.12.2019
5851 Clear -5 1013 67 0 5.1 70 23:56 24.12.2019
5852 Clear -5 1013 67 0 5.1 70 23:37 24.12.2019
5853 Clear -5 1013 67 0 5.1 70 23:19 24.12.2019
5854 Clear -4 1013 68 0 4.6 100 22:40 24.12.2019
5855 Clear -4 1013 68 0 4.6 100 22:21 24.12.2019
5856 Snow -4 1013 62 0 5.1 80 21:43 24.12.2019
5857 Snow -4 1013 62 0 5.1 80 21:22 24.12.2019
5858 Snow -4 1013 68 0 5.1 70 20:55 24.12.2019
5859 Snow -4 1013 68 0 5.1 70 20:36 24.12.2019
5860 Snow -4 1013 68 0 5.1 70 20:18 24.12.2019
5861 Clear -4 1013 68 0 5.7 60 19:43 24.12.2019
5862 Clear -4 1013 68 0 5.7 60 19:19 24.12.2019
5863 Snow -4 1013 68 0 6.7 70 18:43 24.12.2019
5864 Snow -4 1013 68 0 6.7 70 18:24 24.12.2019
5865 Clear -4 1012 68 0 6.2 70 17:58 24.12.2019
5866 Clear -4 1012 68 0 6.2 70 17:38 24.12.2019
5867 Clear -4 1012 68 0 6.2 70 17:20 24.12.2019
5868 Snow -4 1012 62 0 4.1 80 16:55 24.12.2019
5869 Snow -4 1012 62 0 4.1 80 16:37 24.12.2019
5870 Snow -4 1012 62 0 4.1 80 16:19 24.12.2019
5871 Snow -4 1012 62 0 4.1 80 16:19 24.12.2019
5872 Clear -4 1012 68 0 6.2 70 15:55 24.12.2019
5873 Clear -4 1012 68 0 6.2 70 15:36 24.12.2019
5874 Clear -4 1012 68 0 6.2 70 15:18 24.12.2019
5875 Clear -4 1012 62 0 4.6 80 14:55 24.12.2019
5876 Clear -4 1012 62 0 4.6 80 14:36 24.12.2019
5877 Clear -4 1012 62 0 4.6 80 14:18 24.12.2019
5878 Snow -5 1012 73 0 5.1 80 13:55 24.12.2019
5879 Snow -5 1012 73 0 5.1 80 13:37 24.12.2019
5880 Snow -5 1012 73 0 5.1 80 13:18 24.12.2019
5881 Snow -4 1011 68 0 4.6 60 12:55 24.12.2019
5882 Snow -4 1011 68 0 4.6 60 12:36 24.12.2019
5883 Snow -4 1011 68 0 4.6 60 12:18 24.12.2019
5884 Snow -5 1011 73 0 4.6 80 11:54 24.12.2019
5885 Snow -5 1011 73 0 4.6 80 11:36 24.12.2019
5886 Snow -5 1011 73 0 4.6 80 11:36 24.12.2019
5887 Snow -5 1011 73 0 4.6 80 11:18 24.12.2019
5888 Clouds -4 1011 68 0 3.6 60 10:55 24.12.2019
5889 Clouds -4 1011 68 0 3.6 60 10:36 24.12.2019
5890 Clouds -4 1011 68 0 3.6 60 10:18 24.12.2019
5891 Clouds -4 1010 68 0 1.5 80 09:54 24.12.2019
5892 Clouds -4 1010 68 0 1.5 80 09:36 24.12.2019
5893 Clouds -4 1010 68 0 1.5 80 09:18 24.12.2019
5894 Clouds -5 1010 73 0 4.6 80 08:42 24.12.2019
5895 Clouds -5 1010 73 0 4.6 80 08:19 24.12.2019
5896 Clouds -5 1009 73 0 2.1 0 07:45 24.12.2019
5897 Clouds -5 1009 73 0 2.1 0 07:24 24.12.2019
5898 Clouds -5 1009 73 0 2.1 0 07:24 24.12.2019
5899 Snow -5 1009 73 0 0.5 0 06:44 24.12.2019
5900 Snow -5 1009 73 0 0.5 0 06:22 24.12.2019
5901 Snow -5 1009 73 0 2.1 70 05:57 24.12.2019
5902 Snow -5 1009 73 0 2.1 70 05:20 24.12.2019
5903 Snow -5 1008 73 0 2.6 50 04:36 24.12.2019
5904 Clouds -5 1008 73 0 4.6 60 03:50 24.12.2019
5905 Snow -5 1008 73 0 4.6 60 02:59 24.12.2019
5906 Snow -5 1008 73 0 4.6 60 02:19 24.12.2019
5907 Clouds -5 1008 73 0 4.1 60 01:42 24.12.2019
5908 Clouds -5 1008 73 0 4.1 60 01:20 24.12.2019
5909 Clouds -5 1008 79 0 4.1 50 00:43 24.12.2019
5910 Clouds -5 1008 79 0 4.1 50 00:23 24.12.2019
5911 Clouds -5 1008 79 0 3.6 50 23:55 23.12.2019
5912 Clouds -5 1008 79 0 3.6 50 23:37 23.12.2019
5913 Clear -5 1008 79 0 3.6 50 23:19 23.12.2019
5914 Clear -5 1008 79 0 3.1 60 22:54 23.12.2019
5915 Clear -5 1008 79 0 3.1 60 22:36 23.12.2019
5916 Clear -5 1008 79 0 3.1 60 22:18 23.12.2019
5917 Clear -6 1008 85 0 3.1 60 21:55 23.12.2019
5918 Clear -6 1008 85 0 3.1 60 21:36 23.12.2019
5919 Clear -6 1008 85 0 3.1 60 21:18 23.12.2019
5920 Clouds -6 1008 79 10000 1 90 20:56 23.12.2019
5921 Clouds -6 1008 79 10000 1 90 20:38 23.12.2019
5922 Clouds -6 1008 79 10000 1 90 20:18 23.12.2019
5923 Clouds -8 1007 78 10000 2.1 100 19:54 23.12.2019
5924 Clouds -8 1007 78 10000 2.1 100 19:36 23.12.2019
5925 Clouds -8 1007 78 10000 2.1 100 19:18 23.12.2019
5926 Clouds -8 1007 85 10000 2.6 100 18:55 23.12.2019
5927 Clouds -8 1007 85 10000 2.6 100 18:36 23.12.2019
5928 Clouds -8 1007 85 10000 2.6 100 18:18 23.12.2019
5929 Clouds -8 1007 85 10000 2.1 100 17:55 23.12.2019
5930 Clouds -8 1007 85 10000 2.1 100 17:37 23.12.2019
5931 Clouds -8 1007 85 10000 2.1 100 17:18 23.12.2019
5932 Clouds -8 1007 85 10000 2.1 120 16:42 23.12.2019
5933 Clouds -8 1007 85 10000 2.1 120 16:19 23.12.2019
5934 Clouds -8 1007 85 10000 2.1 110 15:58 23.12.2019
5935 Clouds -8 1007 85 10000 2.1 110 15:38 23.12.2019
5936 Clouds -8 1007 85 10000 2.1 110 15:19 23.12.2019
5937 Clouds -8 1007 85 10000 2.1 100 14:58 23.12.2019
5938 Clouds -8 1007 85 10000 2.1 100 14:39 23.12.2019
5939 Clouds -8 1007 85 10000 2.1 100 14:21 23.12.2019
5940 Clouds -9 1007 92 10000 2.1 110 13:58 23.12.2019
5941 Clouds -9 1007 92 10000 2.1 110 13:40 23.12.2019
5942 Clouds -9 1007 92 10000 2.1 110 13:22 23.12.2019
5943 Clouds -8 1007 85 10000 2.1 110 12:56 23.12.2019
5944 Clouds -8 1007 85 10000 2.1 110 12:37 23.12.2019
5945 Clouds -8 1007 85 10000 2.1 110 12:19 23.12.2019
5946 Clear -9 1006 92 0 2.1 100 11:44 23.12.2019
5947 Clear -9 1006 92 0 2.1 100 11:25 23.12.2019
5948 Clear -8 1006 78 0 1.5 110 10:57 23.12.2019
5949 Clear -8 1006 78 0 1.5 110 10:57 23.12.2019
5950 Clear -8 1006 78 0 1.5 110 10:39 23.12.2019
5951 Clear -8 1006 78 0 1.5 110 10:20 23.12.2019
5952 Clear -8 1006 92 0 2.6 90 09:59 23.12.2019
5953 Clear -8 1006 92 0 2.6 90 09:39 23.12.2019
5954 Clear -8 1006 92 0 2.6 90 09:20 23.12.2019
5955 Clear -8 1006 85 0 2.1 110 08:56 23.12.2019
5956 Clear -8 1006 85 0 2.1 110 08:38 23.12.2019
5957 Clouds -8 1006 85 0 2.1 110 08:19 23.12.2019
5958 Clouds -7 1005 85 0 2.1 100 07:43 23.12.2019
5959 Clouds -7 1005 85 0 2.1 100 07:20 23.12.2019
5960 Clouds -7 1005 85 0 2.1 40 06:53 23.12.2019
5961 Clouds -7 1005 85 0 2.1 40 06:25 23.12.2019
5962 Clouds -7 1005 92 0 2.1 40 05:50 23.12.2019
5963 Clouds -7 1005 92 0 2.1 40 05:27 23.12.2019
5964 Clouds -7 1005 92 0 3.1 30 04:31 23.12.2019
5965 Clouds -7 1005 85 0 3.1 40 02:58 23.12.2019
5966 Clouds -7 1005 85 0 3.1 40 02:40 23.12.2019
5967 Clouds -7 1005 85 0 3.1 40 02:18 23.12.2019
5968 Clouds -7 1005 85 0 3.1 40 02:18 23.12.2019
5969 Clouds -7 1005 92 0 3.1 50 01:41 23.12.2019
5970 Clouds -7 1005 92 0 3.1 50 01:19 23.12.2019
5971 Clouds -7 1005 92 0 4.1 10 00:43 23.12.2019
5972 Clouds -7 1005 92 0 4.1 10 00:21 23.12.2019
5973 Clouds -7 1005 85 0 3.1 40 23:39 22.12.2019
5974 Clouds -7 1005 85 0 3.1 40 23:21 22.12.2019
5975 Clouds -7 1005 92 10000 3.1 40 22:58 22.12.2019
5976 Clouds -7 1005 92 10000 3.1 40 22:39 22.12.2019
5977 Clouds -7 1005 92 10000 3.1 40 22:19 22.12.2019
5978 Clouds -7 1005 85 10000 3.6 10 21:57 22.12.2019
5979 Clouds -6 1005 85 10000 3.6 10 21:39 22.12.2019
5980 Clouds -6 1005 85 10000 3.6 10 21:21 22.12.2019
5981 Clouds -7 1004 85 10000 3.6 10 20:58 22.12.2019
5982 Clouds -7 1004 85 10000 3.6 10 20:38 22.12.2019
5983 Clouds -7 1004 85 10000 3.6 10 20:18 22.12.2019
5984 Clouds -6 1004 85 10000 3.1 40 19:55 22.12.2019
5985 Clouds -6 1004 85 10000 3.1 40 19:37 22.12.2019
5986 Clouds -6 1004 85 10000 3.1 40 19:19 22.12.2019
5987 Clouds -6 1004 85 10000 4.1 50 18:40 22.12.2019
5988 Clouds -6 1004 85 10000 4.1 50 18:22 22.12.2019
5989 Clouds -6 1004 85 10000 4.6 360 17:55 22.12.2019
5990 Clouds -5 1004 85 10000 4.6 360 17:37 22.12.2019
5991 Clouds -5 1004 85 10000 4.6 360 17:18 22.12.2019
5992 Clouds -5 1004 85 10000 4.6 360 16:57 22.12.2019
5993 Clouds -5 1004 85 10000 4.6 360 16:38 22.12.2019
5994 Clouds -5 1004 85 10000 4.6 360 16:19 22.12.2019
5995 Clouds -5 1003 79 10000 5.7 30 15:56 22.12.2019
5996 Clouds -5 1003 79 10000 5.7 30 15:37 22.12.2019
5997 Clouds -5 1003 79 10000 5.7 30 15:19 22.12.2019
5998 Clouds -6 1003 85 10000 5.1 30 14:54 22.12.2019
5999 Clouds -6 1003 85 10000 5.1 30 14:36 22.12.2019
6000 Clouds -6 1003 85 10000 5.1 30 14:18 22.12.2019
6001 Clouds -6 1003 73 10000 5.1 30 13:55 22.12.2019
6002 Clouds -6 1003 73 10000 5.1 30 13:36 22.12.2019
6003 Clouds -6 1003 73 10000 5.1 30 13:18 22.12.2019
6004 Clouds -6 1003 79 0 4.1 30 12:55 22.12.2019
6005 Clouds -6 1003 79 0 4.1 30 12:37 22.12.2019
6006 Clouds -6 1003 79 0 4.1 30 12:18 22.12.2019
6007 Clouds -6 1002 85 0 4.1 30 11:54 22.12.2019
6008 Clouds -6 1002 85 0 4.1 30 11:36 22.12.2019
6009 Clouds -6 1002 85 0 4.1 30 11:18 22.12.2019
6010 Clouds -6 1002 85 0 4.1 20 10:54 22.12.2019
6011 Clouds -6 1002 85 0 4.1 20 10:36 22.12.2019
6012 Clouds -6 1002 85 0 4.1 20 10:18 22.12.2019
6013 Clouds -6 1002 73 0 4.6 30 09:41 22.12.2019
6014 Clouds -6 1002 73 0 4.6 30 09:22 22.12.2019
6015 Clouds -6 1001 73 0 5.1 50 08:59 22.12.2019
6016 Clouds -6 1001 73 0 5.1 50 08:38 22.12.2019
6017 Clouds -6 1001 73 0 5.1 50 08:20 22.12.2019
6018 Clouds -7 1001 79 0 5.7 50 07:39 22.12.2019
6019 Clouds -7 1001 79 0 5.7 50 07:20 22.12.2019
6020 Clouds -7 1000 79 0 6.7 60 06:41 22.12.2019
6021 Clouds -8 1000 78 0 6.7 70 05:54 22.12.2019
6022 Clouds -8 1000 78 0 6.7 70 05:23 22.12.2019
6023 Clouds -7 1000 73 0 6.7 20 04:30 22.12.2019
6024 Clouds -7 1001 79 10000 6.2 10 03:56 22.12.2019
6025 Clouds -7 1001 67 10000 5.1 20 02:42 22.12.2019
6026 Clouds -7 1001 67 10000 4.6 20 01:54 22.12.2019
6027 Clouds -7 1001 67 10000 4.6 20 01:30 22.12.2019
6028 Clouds -7 1001 67 10000 5.7 20 00:48 22.12.2019
6029 Clouds -7 1001 67 10000 5.7 20 00:26 22.12.2019
6030 Clouds -7 1001 73 10000 6.2 10 23:57 21.12.2019
6031 Clouds -7 1001 73 10000 6.2 10 23:38 21.12.2019
6032 Clouds -7 1001 73 10000 6.2 10 23:19 21.12.2019
6033 Clouds -7 1001 67 10000 6.7 20 22:45 21.12.2019
6034 Clouds -7 1001 67 10000 6.7 20 22:20 21.12.2019
6035 Clouds -7 1001 73 10000 5.7 360 21:58 21.12.2019
6036 Clouds -7 1001 73 10000 5.7 360 21:38 21.12.2019
6037 Clouds -7 1001 73 10000 5.7 360 21:20 21.12.2019
6038 Clouds -7 1001 79 10000 7.7 20 20:59 21.12.2019
6039 Clouds -7 1001 79 10000 7.7 20 20:40 21.12.2019
6040 Clouds -7 1001 79 10000 7.7 20 20:22 21.12.2019
6041 Clouds -7 1001 73 10000 5.7 350 19:58 21.12.2019
6042 Clouds -7 1001 73 10000 5.7 350 19:40 21.12.2019
6043 Clouds -7 1001 73 10000 5.7 350 19:19 21.12.2019
6044 Clouds -6 1001 73 10000 6.7 10 18:56 21.12.2019
6045 Clouds -6 1001 73 10000 6.7 10 18:37 21.12.2019
6046 Clouds -6 1001 73 10000 6.7 10 18:19 21.12.2019
6047 Clouds -7 1001 79 10000 5.1 360 17:55 21.12.2019
6048 Clouds -7 1001 79 10000 5.1 360 17:55 21.12.2019
6049 Clouds -7 1001 79 10000 5.1 360 17:55 21.12.2019
6050 Clouds -7 1001 79 10000 5.1 360 17:37 21.12.2019
6051 Clouds -7 1001 79 10000 5.1 360 17:18 21.12.2019
6052 Clouds -7 1001 79 10000 5.1 360 17:18 21.12.2019
6053 Clouds -6 1001 79 10000 4.6 20 16:41 21.12.2019
6054 Clouds -6 1001 79 10000 4.6 20 16:19 21.12.2019
6055 Clouds -6 1001 79 10000 4.6 20 16:19 21.12.2019
6056 Clouds -7 1001 73 10000 4.1 60 15:58 21.12.2019
6057 Clouds -7 1001 73 10000 4.1 60 15:39 21.12.2019
6058 Clouds -7 1001 73 10000 4.1 60 15:20 21.12.2019
6059 Clouds -6 1001 73 10000 4.6 70 14:59 21.12.2019
6060 Clouds -6 1001 73 10000 4.6 70 14:40 21.12.2019
6061 Clouds -6 1001 73 10000 4.6 70 14:22 21.12.2019
6062 Clouds -6 1001 73 10000 3.6 80 13:57 21.12.2019
6063 Clouds -6 1001 73 10000 3.6 80 13:38 21.12.2019
6064 Clouds -6 1001 73 10000 3.6 80 13:18 21.12.2019
6065 Clouds -7 1001 73 10000 2.1 130 12:56 21.12.2019
6066 Clouds -7 1001 73 10000 2.1 130 12:37 21.12.2019
6067 Clouds -7 1001 73 10000 2.1 130 12:19 21.12.2019
6068 Clouds -7 1001 73 10000 2.6 110 11:45 21.12.2019
6069 Clouds -7 1001 73 10000 2.6 110 11:26 21.12.2019
6070 Clouds -7 1000 73 0 2.1 100 10:57 21.12.2019
6071 Clouds -7 1000 73 0 2.1 100 10:39 21.12.2019
6072 Clouds -7 1000 73 0 2.1 100 10:21 21.12.2019
6073 Clouds -6 1000 73 0 2.6 120 09:56 21.12.2019
6074 Clouds -6 1000 73 0 2.6 120 09:56 21.12.2019
6075 Clouds -6 1000 73 0 2.6 120 09:38 21.12.2019
6076 Clouds -6 1000 73 0 2.6 120 09:19 21.12.2019
6077 Clouds -6 1000 79 0 2.1 80 08:46 21.12.2019
6078 Clouds -6 1000 79 0 2.1 80 08:26 21.12.2019
6079 Clouds -6 999 73 0 2.1 120 07:47 21.12.2019
6080 Clouds -6 999 73 0 2.1 120 07:23 21.12.2019
6081 Clouds -6 999 73 0 2.1 120 07:23 21.12.2019
6082 Clouds -7 999 73 0 2.6 0 06:46 21.12.2019
6083 Clouds -7 999 73 0 2.6 0 06:28 21.12.2019
6084 Clouds -7 1000 73 0 1 160 05:58 21.12.2019
6085 Clouds -6 1000 62 0 3.1 70 04:58 21.12.2019
6086 Clouds -6 1000 62 0 3.1 70 04:19 21.12.2019
6087 Clouds -6 1000 57 0 3.1 20 03:56 21.12.2019
6088 Clouds -4 1000 53 0 4.1 20 02:19 21.12.2019
6089 Clouds -5 1000 57 10000 4.1 60 01:41 21.12.2019
6090 Clouds -5 1000 57 10000 4.1 60 01:23 21.12.2019
6091 Clouds -5 1001 85 10000 5.1 20 00:39 21.12.2019
6092 Clouds -5 1001 85 10000 5.1 20 00:19 21.12.2019
6093 Clouds -5 1001 92 10000 1.5 160 23:38 20.12.2019
6094 Clouds -5 1001 92 10000 1.5 160 23:20 20.12.2019
6095 Snow -4 1001 85 10000 2.6 160 22:57 20.12.2019
6096 Snow -4 1001 85 10000 2.6 160 22:36 20.12.2019
6097 Snow -4 1001 85 10000 2.6 160 22:18 20.12.2019
6098 Snow -5 1001 85 10000 1.5 190 21:41 20.12.2019
6099 Snow -5 1001 85 10000 1.5 190 21:21 20.12.2019
6100 Snow -5 1001 85 10000 1.5 190 21:21 20.12.2019
6101 Snow -5 1001 85 8000 1.5 240 20:57 20.12.2019
6102 Snow -5 1001 85 8000 1.5 240 20:38 20.12.2019
6103 Snow -5 1001 85 8000 1.5 240 20:19 20.12.2019
6104 Snow -5 1001 92 5000 2.1 90 19:42 20.12.2019
6105 Snow -5 1001 92 5000 2.1 90 19:21 20.12.2019
6106 Rain -5 1002 79 10000 1.5 100 18:58 20.12.2019
6107 Rain -5 1002 79 10000 1.5 100 18:39 20.12.2019
6108 Rain -5 1002 79 10000 1.5 100 18:21 20.12.2019
6109 Rain -5 1002 85 10000 2.71 265 17:56 20.12.2019
6110 Rain -5 1002 85 10000 2.71 265 17:56 20.12.2019
6111 Rain -5 1002 85 10000 2.71 265 17:38 20.12.2019
6112 Rain -5 1002 85 10000 4.81 155 17:20 20.12.2019
6113 Rain -4 1003 85 10000 0.5 200 16:56 20.12.2019
6114 Rain -4 1003 85 10000 0.5 200 16:37 20.12.2019
6115 Rain -4 1003 85 10000 0.5 200 16:19 20.12.2019
6116 Snow -4 1004 92 2100 0.5 220 15:54 20.12.2019
6117 Snow -4 1004 92 2100 0.5 220 15:36 20.12.2019
6118 Snow -4 1004 92 2100 0.5 220 15:18 20.12.2019
6119 Snow -4 1004 92 3000 2.6 160 14:42 20.12.2019
6120 Snow -4 1004 92 3000 2.6 160 14:23 20.12.2019
6121 Snow -4 1004 85 3700 2.1 160 13:57 20.12.2019
6122 Snow -4 1004 85 3700 2.1 160 13:37 20.12.2019
6123 Snow -4 1004 85 3700 2.1 160 13:18 20.12.2019
6124 Snow -4 1004 85 3700 2.1 160 13:18 20.12.2019
6125 Snow -5 1005 92 10000 2.1 140 12:55 20.12.2019
6126 Snow -5 1005 92 10000 2.1 140 12:36 20.12.2019
6127 Snow -5 1005 92 10000 2.1 140 12:18 20.12.2019
6128 Clouds -5 1005 85 10000 1 140 11:57 20.12.2019
6129 Clouds -5 1005 85 10000 1 140 11:38 20.12.2019
6130 Clouds -5 1005 85 10000 1 140 11:18 20.12.2019
6131 Snow -4 1005 85 3500 1.5 260 10:55 20.12.2019
6132 Snow -4 1005 85 3500 1.5 260 10:37 20.12.2019
6133 Snow -4 1005 85 3500 1.5 260 10:19 20.12.2019
6134 Clouds -4 1005 79 0 2.1 160 09:42 20.12.2019
6135 Clouds -4 1005 79 0 2.1 160 09:21 20.12.2019
6136 Clouds -4 1006 79 0 1.5 160 08:54 20.12.2019
6137 Clouds -4 1006 79 0 1.5 160 08:36 20.12.2019
6138 Clouds -4 1006 79 0 1.5 160 08:18 20.12.2019
6139 Snow -4 1006 73 0 1.5 160 07:55 20.12.2019
6140 Snow -4 1006 73 0 1.5 160 07:36 20.12.2019
6141 Snow -4 1006 73 0 1.5 160 07:18 20.12.2019
6142 Clouds -6 1006 85 0 1.82 175 06:43 20.12.2019
6143 Clouds -6 1006 85 0 1.82 175 06:25 20.12.2019
6144 Snow -5 1007 92 0 2.6 10 05:47 20.12.2019
6145 Snow -5 1007 92 0 3.1 360 04:59 20.12.2019
6146 Snow -5 1007 92 0 2.1 20 03:49 20.12.2019
6147 Snow -4 1007 85 4000 1.5 310 02:55 20.12.2019
6148 Clouds -4 1008 73 10000 2.1 40 01:59 20.12.2019
6149 Clouds -4 1008 73 10000 2.1 40 01:35 20.12.2019
6150 Snow -4 1008 73 10000 2.6 50 00:55 20.12.2019
6151 Snow -4 1008 73 10000 2.6 50 00:35 20.12.2019
6152 Clouds -4 1008 62 10000 0.5 0 23:58 19.12.2019
6153 Clouds -4 1008 62 10000 0.5 0 23:40 19.12.2019
6154 Clouds -4 1008 62 10000 0.5 0 23:19 19.12.2019
6155 Clouds -4 1009 68 10000 0.5 20 22:40 19.12.2019
6156 Clouds -4 1009 68 10000 0.5 20 22:22 19.12.2019
6157 Clouds -4 1009 62 10000 1 130 21:59 19.12.2019
6158 Clouds -4 1009 62 10000 1 130 21:41 19.12.2019
6159 Clouds -4 1009 62 10000 1 130 21:19 19.12.2019
6160 Clouds -5 1009 67 10000 3.1 50 20:57 19.12.2019
6161 Clouds -5 1009 67 10000 3.1 50 20:38 19.12.2019
6162 Clouds -5 1009 67 10000 3.1 50 20:20 19.12.2019
6163 Clouds -5 1009 67 10000 3.1 50 20:20 19.12.2019
6164 Clouds -5 1009 67 10000 3.1 50 19:58 19.12.2019
6165 Clouds -5 1009 67 10000 3.1 50 19:40 19.12.2019
6166 Clouds -5 1009 67 10000 3.1 50 19:19 19.12.2019
6167 Clouds -5 1009 67 10000 3.1 50 19:19 19.12.2019
6168 Clouds -5 1009 67 10000 3.1 50 19:19 19.12.2019
6169 Clouds -5 1009 67 10000 3.1 50 19:19 19.12.2019
6170 Clouds -5 1009 67 10000 3.1 50 19:19 19.12.2019
6171 Clouds -5 1009 67 10000 3.6 40 18:58 19.12.2019
6172 Clouds -5 1009 67 10000 3.6 40 18:40 19.12.2019
6173 Clouds -5 1009 67 10000 3.6 40 18:20 19.12.2019
6174 Clouds -5 1009 67 10000 1 0 17:56 19.12.2019
6175 Clouds -5 1009 67 10000 1 0 17:38 19.12.2019
6176 Clouds -5 1009 67 10000 1 0 17:18 19.12.2019
6177 Clouds -5 1009 67 10000 1.5 80 16:56 19.12.2019
6178 Clouds -5 1009 67 10000 1.5 80 16:38 19.12.2019
6179 Clouds -5 1009 67 10000 1.5 80 16:19 19.12.2019
6180 Clouds -6 1009 67 10000 1 70 15:57 19.12.2019
6181 Clouds -6 1009 67 10000 1 70 15:38 19.12.2019
6182 Clouds -6 1009 67 10000 1 70 15:19 19.12.2019
6183 Clouds -6 1009 57 10000 1.5 80 14:57 19.12.2019
6184 Clouds -6 1009 57 10000 1.5 80 14:38 19.12.2019
6185 Clouds -6 1009 57 10000 1.5 80 14:18 19.12.2019
6186 Clouds -7 1009 62 10000 1.5 100 13:39 19.12.2019
6187 Clouds -7 1009 62 10000 1.5 100 13:20 19.12.2019
6188 Clouds -7 1009 62 10000 1.5 100 13:20 19.12.2019
6189 Clouds -7 1009 57 10000 1 120 12:58 19.12.2019
6190 Clouds -7 1009 57 10000 1 120 12:40 19.12.2019
6191 Clouds -7 1009 57 10000 1 120 12:19 19.12.2019
6192 Clouds -8 1009 67 10000 1 90 11:59 19.12.2019
6193 Clouds -8 1009 67 10000 1 90 11:41 19.12.2019
6194 Clouds -8 1009 67 10000 1 90 11:19 19.12.2019
6195 Clouds -7 1009 62 10000 2.1 120 10:59 19.12.2019
6196 Clouds -7 1009 62 10000 2.1 120 10:38 19.12.2019
6197 Clouds -7 1009 62 10000 2.1 120 10:38 19.12.2019
6198 Clouds -7 1009 62 10000 2.1 120 10:20 19.12.2019
6199 Clouds -7 1009 62 10000 2.1 120 10:20 19.12.2019
6200 Clouds -8 1009 72 0 2.6 100 09:57 19.12.2019
6201 Clouds -8 1009 72 0 2.6 100 09:37 19.12.2019
6202 Clouds -8 1009 72 0 2.6 100 09:19 19.12.2019
6203 Clouds -8 1009 67 0 2.1 110 08:55 19.12.2019
6204 Clouds -8 1009 67 0 2.1 110 08:37 19.12.2019
6205 Clear -8 1009 67 0 2.1 110 08:18 19.12.2019
6206 Clear -8 1009 72 0 2.1 110 07:54 19.12.2019
6207 Clear -8 1009 72 0 2.1 110 07:36 19.12.2019
6208 Clear -8 1009 72 0 2.1 110 07:18 19.12.2019
6209 Clear -8 1009 72 0 2.1 110 06:42 19.12.2019
6210 Clear -8 1009 72 0 2.1 110 06:23 19.12.2019
6211 Clear -8 1009 72 0 2.1 100 05:45 19.12.2019
6212 Clear -8 1009 72 0 2.1 100 05:20 19.12.2019
6213 Clear -8 1009 72 0 2.6 110 03:54 19.12.2019
6214 Clear -8 1009 72 0 2.6 100 02:30 19.12.2019
6215 Clear -8 1010 78 0 1.5 80 01:27 19.12.2019
6216 Clouds -7 1010 79 10000 3.1 50 00:59 19.12.2019
6217 Clouds -7 1010 79 10000 3.1 50 00:39 19.12.2019
6218 Clouds -7 1010 79 10000 3.1 50 00:19 19.12.2019
6219 Clouds -8 1010 92 10000 2.1 20 23:45 18.12.2019
6220 Clouds -8 1010 92 10000 2.1 20 23:45 18.12.2019
6221 Clouds -8 1010 92 10000 2.1 20 23:19 18.12.2019
6222 Clouds -7 1011 85 10000 3.1 40 22:58 18.12.2019
6223 Clouds -6 1011 85 10000 3.1 40 22:40 18.12.2019
6224 Clouds -6 1011 85 10000 3.1 40 22:22 18.12.2019
6225 Clouds -6 1011 85 10000 4.6 10 21:59 18.12.2019
6226 Clouds -6 1011 85 10000 4.6 10 21:40 18.12.2019
6227 Clouds -6 1011 85 10000 4.6 10 21:20 18.12.2019
6228 Clouds -6 1011 85 10000 3.6 10 20:57 18.12.2019
6229 Clouds -6 1011 85 10000 3.6 10 20:39 18.12.2019
6230 Clouds -7 1011 79 10000 2.1 40 20:20 18.12.2019
6231 Clouds -7 1011 79 10000 2.1 40 19:57 18.12.2019
6232 Clouds -7 1011 79 10000 2.1 40 19:39 18.12.2019
6233 Clouds -7 1011 79 10000 2.1 40 19:19 18.12.2019
6234 Clouds -7 1011 73 10000 3.1 50 18:56 18.12.2019
6235 Clouds -6 1011 73 10000 3.1 50 18:37 18.12.2019
6236 Clouds -6 1011 73 10000 3.1 50 18:18 18.12.2019
6237 Clouds -6 1011 85 10000 3.6 70 17:55 18.12.2019
6238 Clouds -6 1011 85 10000 3.6 70 17:37 18.12.2019
6239 Clouds -6 1011 85 10000 3.6 70 17:37 18.12.2019
6240 Clouds -6 1011 85 10000 3.6 70 17:18 18.12.2019
6241 Clouds -6 1012 85 10000 2.6 40 16:42 18.12.2019
6242 Clouds -6 1012 85 10000 2.6 40 16:24 18.12.2019
6243 Clouds -6 1012 79 10000 3.6 40 15:57 18.12.2019
6244 Clouds -6 1012 79 10000 3.6 40 15:39 18.12.2019
6245 Clouds -6 1012 79 10000 3.6 40 15:21 18.12.2019
6246 Clouds -6 1011 73 10000 3.1 50 14:57 18.12.2019
6247 Clouds -6 1011 73 10000 3.1 50 14:39 18.12.2019
6248 Clouds -6 1011 73 10000 3.1 50 14:19 18.12.2019
6249 Clouds -6 1012 73 10000 2.6 50 13:55 18.12.2019
6250 Clouds -6 1012 73 10000 2.6 50 13:37 18.12.2019
6251 Clouds -6 1012 73 10000 2.6 50 13:19 18.12.2019
6252 Clouds -6 1012 79 10000 2.6 40 12:54 18.12.2019
6253 Clouds -6 1012 79 10000 2.6 40 12:36 18.12.2019
6254 Clouds -6 1012 79 10000 2.6 40 12:18 18.12.2019
6255 Clouds -5 1012 73 10000 3.6 40 11:54 18.12.2019
6256 Clouds -5 1012 73 10000 3.6 40 11:36 18.12.2019
6257 Clouds -5 1012 73 10000 3.6 40 11:18 18.12.2019
6258 Clouds -5 1011 62 10000 2.6 20 10:54 18.12.2019
6259 Clouds -5 1011 62 10000 2.6 20 10:36 18.12.2019
6260 Clouds -5 1011 62 10000 2.6 20 10:18 18.12.2019
6261 Clouds -4 1011 68 0 4.6 60 09:21 18.12.2019
6262 Clouds -4 1011 62 0 4.6 60 08:57 18.12.2019
6263 Clouds -4 1011 62 0 4.6 60 08:57 18.12.2019
6264 Clouds -4 1011 62 0 4.6 60 08:39 18.12.2019
6265 Clouds -4 1011 62 0 4.6 60 08:20 18.12.2019
6266 Clouds -3 1011 53 0 5.7 70 07:42 18.12.2019
6267 Clouds -3 1011 53 0 5.7 70 07:21 18.12.2019
6268 Clouds -3 1010 53 0 5.1 60 06:53 18.12.2019
6269 Clouds -3 1010 53 0 5.1 60 06:26 18.12.2019
6270 Clouds -2 1010 50 0 4.1 60 05:39 18.12.2019
6271 Clouds -2 1010 50 0 7.2 70 04:37 18.12.2019
6272 Clear -2 1009 50 10000 7.7 70 02:50 18.12.2019
6273 Clear -2 1009 50 10000 7.7 70 02:30 18.12.2019
6274 Clouds -2 1009 54 10000 7.7 60 01:47 18.12.2019
6275 Clouds -2 1009 54 10000 7.7 60 01:29 18.12.2019
6276 Clouds -2 1009 46 10000 7.2 70 00:59 18.12.2019
6277 Clouds -1 1009 46 10000 7.2 70 00:40 18.12.2019
6278 Clouds -1 1009 46 10000 7.2 70 00:21 18.12.2019
6279 Clouds -1 1009 46 10000 6.7 60 23:54 17.12.2019
6280 Clouds -1 1009 46 10000 6.7 60 23:36 17.12.2019
6281 Clouds -1 1009 46 10000 6.7 60 23:18 17.12.2019
6282 Clouds -1 1009 46 10000 7.2 70 22:54 17.12.2019
6283 Clouds -1 1009 46 10000 7.2 70 22:36 17.12.2019
6284 Clouds -1 1009 46 10000 7.2 70 22:18 17.12.2019
6285 Clouds 0 1009 46 10000 1 0 21:55 17.12.2019
6286 Clouds 0 1009 46 10000 1 0 21:36 17.12.2019
6287 Clouds 0 1009 46 10000 1 0 21:18 17.12.2019
6288 Clouds 0 1008 46 10000 6.7 70 20:55 17.12.2019
6289 Clouds 0 1008 46 10000 6.7 70 20:36 17.12.2019
6290 Clouds 0 1008 48 10000 6.7 70 20:18 17.12.2019
6291 Clouds 0 1008 47 10000 6.2 80 19:41 17.12.2019
6292 Clouds 0 1008 47 10000 6.2 80 19:20 17.12.2019
6293 Clouds 1 1007 40 10000 0.5 0 18:58 17.12.2019
6294 Clouds 1 1007 40 10000 0.5 0 18:40 17.12.2019
6295 Clouds 1 1007 40 10000 0.5 0 18:21 17.12.2019
6296 Clouds 1 1006 43 10000 1.5 0 17:58 17.12.2019
6297 Clouds 1 1006 43 10000 1.5 0 17:40 17.12.2019
6298 Clouds 1 1006 43 10000 1.5 0 17:19 17.12.2019
6299 Clouds 1 1006 43 10000 2.6 130 16:56 17.12.2019
6300 Clouds 1 1006 43 10000 2.6 130 16:37 17.12.2019
6301 Clouds 1 1006 43 10000 2.6 130 16:37 17.12.2019
6302 Clouds 1 1006 43 10000 2.6 130 16:19 17.12.2019
6303 Clouds 1 1006 43 10000 5.1 90 15:55 17.12.2019
6304 Clouds 1 1006 43 10000 5.1 90 15:37 17.12.2019
6305 Clouds 1 1006 43 10000 5.1 90 15:18 17.12.2019
6306 Clouds 1 1006 43 10000 8.7 70 14:55 17.12.2019
6307 Clouds 1 1006 43 10000 8.7 70 14:36 17.12.2019
6308 Clouds 1 1006 43 10000 8.7 70 14:18 17.12.2019
6309 Clouds 1 1005 43 10000 10.3 80 13:55 17.12.2019
6310 Clouds 1 1005 43 10000 10.3 80 13:37 17.12.2019
6311 Clouds 1 1005 43 10000 10.3 80 13:18 17.12.2019
6312 Clouds 1 1005 47 10000 10.3 70 12:40 17.12.2019
6313 Clouds 1 1005 47 10000 10.3 70 12:19 17.12.2019
6314 Clouds 1 1005 40 10000 11.3 60 11:59 17.12.2019
6315 Clouds 2 1005 40 10000 11.3 60 11:37 17.12.2019
6316 Clouds 2 1005 40 10000 11.3 60 11:19 17.12.2019
6317 Clouds 1 1004 47 0 11.3 80 10:59 17.12.2019
6318 Clouds 1 1004 47 0 11.3 80 10:41 17.12.2019
6319 Clouds 1 1004 47 0 11.3 80 10:41 17.12.2019
6320 Clouds 1 1004 47 0 11.3 80 10:22 17.12.2019
6321 Clouds 1 1004 47 0 10.8 80 09:59 17.12.2019
6322 Clouds 1 1004 47 0 10.8 80 09:41 17.12.2019
6323 Clouds 1 1004 47 0 10.8 80 09:20 17.12.2019
6324 Clouds 1 1003 40 0 10.3 80 08:56 17.12.2019
6325 Clouds 2 1003 40 0 10.3 80 08:38 17.12.2019
6326 Clouds 2 1003 40 0 10.3 80 08:19 17.12.2019
6327 Rain 2 1002 40 0 11.3 90 07:47 17.12.2019
6328 Rain 2 1002 40 0 11.3 90 07:27 17.12.2019
6329 Rain 1 1002 47 0 12.9 80 06:59 17.12.2019
6330 Rain 1 1002 47 0 12.9 80 06:35 17.12.2019
6331 Clouds 0 1002 50 0 11.3 70 05:54 17.12.2019
6332 Clouds 0 1002 50 0 11.3 70 05:36 17.12.2019
6333 Rain 0 1002 51 0 12.9 80 04:31 17.12.2019
6334 Clouds -1 1003 46 0 8.2 80 02:34 17.12.2019
6335 Clouds -1 1003 42 0 8.2 70 01:55 17.12.2019
6336 Clouds -1 1003 42 0 8.2 70 01:18 17.12.2019
6337 Clouds -1 1003 42 0 7.2 80 00:38 17.12.2019
6338 Clouds -1 1003 42 0 7.2 80 00:19 17.12.2019
6339 Clouds -2 1003 46 10000 7.7 80 23:42 16.12.2019
6340 Clouds -2 1003 46 10000 7.7 80 23:19 16.12.2019
6341 Clouds -2 1003 46 10000 7.7 80 23:19 16.12.2019
6342 Clouds -2 1003 42 10000 6.7 90 22:58 16.12.2019
6343 Clouds -2 1003 42 10000 6.7 90 22:37 16.12.2019
6344 Clouds -2 1003 42 10000 6.7 90 22:19 16.12.2019
6345 Clouds -2 1003 42 10000 6.7 90 22:19 16.12.2019
6346 Clouds -3 1003 45 10000 8.2 80 21:55 16.12.2019
6347 Clouds -3 1003 45 10000 8.2 80 21:37 16.12.2019
6348 Clouds -3 1003 45 10000 8.2 80 21:19 16.12.2019
6349 Clouds -3 1003 45 10000 11.8 70 20:57 16.12.2019
6350 Clouds -3 1003 45 10000 11.8 70 20:37 16.12.2019
6351 Clouds -3 1003 45 10000 11.8 70 20:19 16.12.2019
6352 Clouds -4 1003 45 10000 11.3 60 19:56 16.12.2019
6353 Clouds -4 1003 45 10000 11.3 60 19:37 16.12.2019
6354 Clouds -4 1003 45 10000 11.3 60 19:19 16.12.2019
6355 Clouds -4 1003 49 10000 12.3 70 18:56 16.12.2019
6356 Clouds -4 1003 49 10000 12.3 70 18:56 16.12.2019
6357 Clouds -4 1003 49 10000 12.3 70 18:38 16.12.2019
6358 Clouds -4 1003 49 10000 12.3 70 18:38 16.12.2019
6359 Clouds -4 1003 49 10000 12.3 70 18:19 16.12.2019
6360 Clouds -4 1004 49 10000 11.3 80 17:57 16.12.2019
6361 Clouds -4 1004 49 10000 11.3 80 17:38 16.12.2019
6362 Clouds -4 1004 49 10000 11.3 80 17:20 16.12.2019
6363 Clouds -4 1005 45 10000 12.9 80 16:56 16.12.2019
6364 Clouds -4 1005 45 10000 12.9 80 16:38 16.12.2019
6365 Clouds -4 1005 45 10000 12.9 80 16:19 16.12.2019
6366 Clouds -4 1005 41 10000 12.3 60 15:57 16.12.2019
6367 Clouds -4 1005 41 10000 12.3 60 15:38 16.12.2019
6368 Clouds -4 1005 41 10000 12.3 60 15:20 16.12.2019
6369 Clouds -5 1005 53 10000 13.4 90 14:55 16.12.2019
6370 Clouds -5 1005 53 10000 13.4 90 14:37 16.12.2019
6371 Clouds -5 1005 53 10000 13.4 90 14:18 16.12.2019
6372 Clouds -5 1005 53 10000 13.4 90 14:18 16.12.2019
6373 Clouds -5 1006 45 10000 13.9 80 13:56 16.12.2019
6374 Clouds -5 1006 45 10000 13.9 80 13:37 16.12.2019
6375 Clouds -5 1006 45 10000 13.9 80 13:19 16.12.2019
6376 Clouds -5 1006 41 10000 11.3 80 12:57 16.12.2019
6377 Clouds -5 1006 41 10000 11.3 80 12:39 16.12.2019
6378 Clouds -5 1006 41 10000 11.3 80 12:18 16.12.2019
6379 Clouds -6 1007 41 10000 5.7 80 11:57 16.12.2019
6380 Clouds -6 1007 41 10000 5.7 80 11:39 16.12.2019
6381 Clouds -6 1007 41 10000 5.7 80 11:19 16.12.2019
6382 Clouds -6 1007 37 10000 2.1 0 10:54 16.12.2019
6383 Clouds -6 1007 37 10000 2.1 0 10:36 16.12.2019
6384 Clouds -6 1007 37 10000 2.1 0 10:18 16.12.2019
6385 Clouds -9 1007 52 0 2.1 40 09:44 16.12.2019
6386 Clouds -9 1007 52 0 2.1 40 09:26 16.12.2019
6387 Clouds -10 1007 61 0 0.5 10 08:41 16.12.2019
6388 Clouds -10 1007 61 0 0.5 10 08:20 16.12.2019
6389 Clouds -8 1007 52 0 3.6 0 07:53 16.12.2019
6390 Clouds -8 1007 52 0 3.6 0 07:31 16.12.2019
6391 Clouds -8 1007 48 0 2.1 0 06:59 16.12.2019
6392 Clouds -8 1007 48 0 2.1 0 06:40 16.12.2019
6393 Clouds -8 1007 48 0 2.1 0 06:21 16.12.2019
6394 Clouds -10 1007 56 0 4.6 70 05:41 16.12.2019
6395 Clouds -10 1007 56 0 4.6 70 05:23 16.12.2019
6396 Clear -10 1008 61 0 2.1 120 03:29 16.12.2019
6397 Clear -11 1009 72 0 5.7 70 01:52 16.12.2019
6398 Clear -11 1009 72 0 5.7 70 01:33 16.12.2019
6399 Clear -11 1010 72 0 6.2 60 00:41 16.12.2019
6400 Clear -11 1010 72 0 6.2 60 00:21 16.12.2019
6401 Clear -10 1010 66 0 7.2 60 23:57 15.12.2019
6402 Clear -10 1010 66 0 7.2 60 23:37 15.12.2019
6403 Clear -10 1010 66 0 7.2 60 23:19 15.12.2019
6404 Clear -10 1010 72 0 7.7 60 22:54 15.12.2019
6405 Clear -10 1010 72 0 7.7 60 22:36 15.12.2019
6406 Clear -10 1010 72 0 7.7 60 22:18 15.12.2019
6407 Clear -10 1011 72 0 7.7 60 21:54 15.12.2019
6408 Clear -10 1011 72 0 7.7 60 21:36 15.12.2019
6409 Clear -10 1011 72 0 7.7 60 21:18 15.12.2019
6410 Clear -10 1012 78 0 7.2 50 20:54 15.12.2019
6411 Clear -10 1012 78 0 7.2 50 20:36 15.12.2019
6412 Clear -10 1012 78 0 7.2 50 20:18 15.12.2019
6413 Clear -10 1012 72 0 5.1 40 19:54 15.12.2019
6414 Clear -10 1012 72 0 5.1 40 19:36 15.12.2019
6415 Clear -10 1012 72 0 5.1 40 19:18 15.12.2019
6416 Clear -10 1013 72 0 5.1 50 18:54 15.12.2019
6417 Clear -10 1013 72 0 5.1 50 18:36 15.12.2019
6418 Clear -10 1013 72 0 5.1 50 18:18 15.12.2019
6419 Clear -10 1013 72 10000 6.2 50 17:54 15.12.2019
6420 Clear -10 1013 72 10000 6.2 50 17:36 15.12.2019
6421 Clear -10 1013 72 10000 6.2 50 17:18 15.12.2019
6422 Clear -10 1014 72 10000 7.2 60 16:42 15.12.2019
6423 Clear -10 1014 72 10000 7.2 60 16:22 15.12.2019
6424 Clear -10 1014 72 10000 6.2 40 15:57 15.12.2019
6425 Clear -10 1014 72 10000 6.2 40 15:38 15.12.2019
6426 Clear -10 1014 72 10000 6.2 40 15:19 15.12.2019
6427 Clear -10 1015 72 10000 5.1 40 14:56 15.12.2019
6428 Clear -10 1015 72 10000 5.1 40 14:37 15.12.2019
6429 Clear -10 1015 72 10000 5.1 40 14:19 15.12.2019
6430 Clouds -9 1015 61 10000 6.7 50 13:58 15.12.2019
6431 Clouds -9 1015 61 10000 6.7 50 13:38 15.12.2019
6432 Clouds -9 1015 61 10000 6.7 50 13:19 15.12.2019
6433 Clear -9 1015 66 0 8.7 60 12:57 15.12.2019
6434 Clear -9 1015 66 0 8.7 60 12:39 15.12.2019
6435 Clear -9 1015 66 0 8.7 60 12:21 15.12.2019
6436 Clear -9 1015 72 0 7.7 60 11:58 15.12.2019
6437 Clear -9 1015 72 0 7.7 60 11:37 15.12.2019
6438 Clear -9 1015 72 0 7.7 60 11:19 15.12.2019
6439 Clear -8 1015 67 0 6.2 50 10:55 15.12.2019
6440 Clear -8 1015 67 0 6.2 50 10:37 15.12.2019
6441 Clear -8 1015 67 0 6.2 50 10:19 15.12.2019
6442 Clear -7 1015 62 0 6.2 50 09:41 15.12.2019
6443 Clear -7 1015 62 0 6.2 50 09:20 15.12.2019
6444 Clear -7 1015 57 0 5.7 50 08:59 15.12.2019
6445 Clear -7 1015 57 0 5.7 50 08:41 15.12.2019
6446 Clouds -7 1015 57 0 5.7 50 08:22 15.12.2019
6447 Clouds -7 1014 67 0 4.6 20 07:56 15.12.2019
6448 Clouds -7 1014 67 0 4.6 20 07:35 15.12.2019
6449 Clouds -7 1014 57 0 5.1 30 06:52 15.12.2019
6450 Clouds -7 1014 57 0 5.1 30 06:20 15.12.2019
6451 Clouds -7 1014 62 0 4.1 30 05:28 15.12.2019
6452 Clouds -7 1013 67 0 4.6 10 04:47 15.12.2019
6453 Clouds -7 1013 67 0 4.6 10 03:54 15.12.2019
6454 Clouds -7 1013 73 0 6.2 340 02:34 15.12.2019
6455 Clouds -8 1012 78 0 6.2 10 01:50 15.12.2019
6456 Clouds -8 1012 78 0 6.2 10 01:28 15.12.2019
6457 Clouds -8 1012 78 0 4.6 10 00:59 15.12.2019
6458 Clouds -8 1012 78 0 4.6 10 00:41 15.12.2019
6459 Clouds -8 1012 78 0 4.6 10 00:23 15.12.2019
6460 Snow -8 1012 85 10000 4.6 360 23:40 14.12.2019
6461 Snow -8 1012 85 10000 4.6 360 23:40 14.12.2019
6462 Snow -8 1012 85 10000 4.6 360 23:21 14.12.2019
6463 Rain -8 1011 85 10000 5.1 350 22:58 14.12.2019
6464 Rain -8 1011 85 10000 5.1 350 22:40 14.12.2019
6465 Rain -8 1011 85 10000 5.1 350 22:21 14.12.2019
6466 Snow -8 1011 92 2500 5.1 340 21:56 14.12.2019
6467 Snow -8 1011 92 2500 5.1 340 21:38 14.12.2019
6468 Snow -8 1011 92 2500 5.1 340 21:19 14.12.2019
6469 Clouds -8 1010 85 10000 5.7 350 20:57 14.12.2019
6470 Clouds -8 1010 85 10000 5.7 350 20:38 14.12.2019
6471 Clouds -8 1010 85 10000 5.7 350 20:19 14.12.2019
6472 Rain -8 1010 78 10000 5.1 10 19:56 14.12.2019
6473 Rain -8 1010 78 10000 5.1 10 19:37 14.12.2019
6474 Rain -8 1010 78 10000 5.1 10 19:18 14.12.2019
6475 Clouds -7 1009 67 10000 5.7 350 18:56 14.12.2019
6476 Clouds -7 1009 67 10000 5.7 350 18:37 14.12.2019
6477 Clouds -7 1009 67 10000 5.7 350 18:19 14.12.2019
6478 Rain -7 1009 62 10000 5.7 350 17:43 14.12.2019
6479 Rain -7 1009 62 10000 5.7 350 17:24 14.12.2019
6480 Rain -7 1009 62 10000 5.1 350 16:58 14.12.2019
6481 Rain -7 1009 62 10000 5.1 350 16:38 14.12.2019
6482 Rain -7 1009 62 10000 5.1 350 16:38 14.12.2019
6483 Rain -7 1009 62 10000 5.1 350 16:18 14.12.2019
6484 Rain -7 1009 67 10000 5.1 350 15:43 14.12.2019
6485 Rain -7 1009 67 10000 5.1 350 15:22 14.12.2019
6486 Clouds -7 1008 67 10000 5.1 340 14:59 14.12.2019
6487 Clouds -7 1008 67 10000 5.1 340 14:38 14.12.2019
6488 Clouds -7 1008 67 10000 5.1 340 14:19 14.12.2019
6489 Snow -7 1007 73 10000 4.6 10 13:55 14.12.2019
6490 Snow -7 1007 73 10000 4.6 10 13:37 14.12.2019
6491 Snow -7 1007 73 10000 4.6 10 13:18 14.12.2019
6492 Snow -7 1007 85 8000 4.6 360 12:54 14.12.2019
6493 Snow -7 1007 85 8000 4.6 360 12:36 14.12.2019
6494 Snow -7 1007 85 8000 4.6 360 12:18 14.12.2019
6495 Snow -7 1007 79 0 4.1 340 11:54 14.12.2019
6496 Snow -7 1007 79 0 4.1 340 11:36 14.12.2019
6497 Snow -7 1007 79 0 4.1 340 11:18 14.12.2019
6498 Snow -6 1006 73 0 5.7 310 10:54 14.12.2019
6499 Snow -6 1006 73 0 5.7 310 10:36 14.12.2019
6500 Snow -6 1006 73 0 5.7 310 10:18 14.12.2019
6501 Snow -6 1006 62 0 5.7 320 09:40 14.12.2019
6502 Snow -6 1006 62 0 5.7 320 09:20 14.12.2019
6503 Snow -6 1005 62 0 6.7 310 08:43 14.12.2019
6504 Snow -6 1005 62 0 6.7 310 08:20 14.12.2019
6505 Snow -6 1005 73 0 6.7 300 07:57 14.12.2019
6506 Snow -6 1005 73 0 6.7 300 07:38 14.12.2019
6507 Snow -6 1005 73 0 6.7 300 07:19 14.12.2019
6508 Snow -6 1004 73 0 6.2 330 06:39 14.12.2019
6509 Snow -6 1004 73 0 6.2 330 06:20 14.12.2019
6510 Snow -6 1004 73 0 6.7 330 05:22 14.12.2019
6511 Snow -7 1002 92 0 4.1 340 02:49 14.12.2019
6512 Snow -7 1002 92 0 4.1 340 02:22 14.12.2019
6513 Snow -6 1001 85 0 4.6 350 01:43 14.12.2019
6514 Snow -6 1001 79 0 5.1 360 00:54 14.12.2019
6515 Snow -6 1001 79 0 5.1 360 00:36 14.12.2019
6516 Snow -6 1001 79 0 5.1 360 00:18 14.12.2019
6517 Snow -6 1000 79 10000 6.2 30 23:39 13.12.2019
6518 Snow -6 1000 79 10000 6.2 30 23:19 13.12.2019
6519 Snow -6 1000 79 7000 5.1 10 22:55 13.12.2019
6520 Snow -6 1000 79 7000 5.1 10 22:36 13.12.2019
6521 Snow -6 1000 79 7000 5.1 10 22:18 13.12.2019
6522 Rain -5 999 73 10000 5.1 360 21:42 13.12.2019
6523 Rain -5 999 73 10000 5.1 360 21:21 13.12.2019
6524 Clouds -6 998 73 10000 4.6 360 20:57 13.12.2019
6525 Clouds -6 998 73 10000 4.6 360 20:39 13.12.2019
6526 Clouds -6 998 73 10000 4.6 360 20:19 13.12.2019
6527 Clouds -5 997 73 10000 2.6 360 19:56 13.12.2019
6528 Clouds -5 997 73 10000 2.6 360 19:38 13.12.2019
6529 Clouds -5 997 73 10000 2.6 360 19:18 13.12.2019
6530 Clouds -5 996 79 10000 2.6 360 18:42 13.12.2019
6531 Clouds -5 996 79 10000 2.6 360 18:42 13.12.2019
6532 Clouds -5 996 79 10000 2.6 360 18:20 13.12.2019
6533 Clouds -5 995 79 10000 4.6 10 18:00 13.12.2019
6534 Clouds -5 995 79 10000 4.6 10 17:39 13.12.2019
6535 Clouds -5 995 79 10000 4.6 10 17:18 13.12.2019
6536 Clouds -5 994 85 10000 3.1 50 16:56 13.12.2019
6537 Clouds -5 994 85 10000 3.1 50 16:38 13.12.2019
6538 Clouds -5 994 85 10000 3.1 50 16:20 13.12.2019
6539 Clouds -5 994 79 10000 2.6 40 15:42 13.12.2019
6540 Clouds -5 994 79 10000 2.6 40 15:21 13.12.2019
6541 Clouds -5 993 79 10000 3.1 10 14:57 13.12.2019
6542 Clouds -5 993 79 10000 3.1 10 14:38 13.12.2019
6543 Clouds -5 993 79 10000 3.1 10 14:19 13.12.2019
6544 Clouds -5 992 79 10000 3.6 360 13:44 13.12.2019
6545 Clouds -5 992 79 10000 3.6 360 13:26 13.12.2019
6546 Clouds -5 992 79 10000 4.6 10 12:58 13.12.2019
6547 Clouds -5 992 79 10000 4.6 10 12:40 13.12.2019
6548 Clouds -5 992 79 10000 4.6 10 12:19 13.12.2019
6549 Clouds -5 991 79 10000 3.6 10 11:45 13.12.2019
6550 Clouds -5 991 79 10000 3.6 10 11:26 13.12.2019
6551 Clouds -5 991 79 10000 5.1 350 10:58 13.12.2019
6552 Clouds -5 991 79 10000 5.1 350 10:40 13.12.2019
6553 Clouds -5 991 79 10000 5.1 350 10:21 13.12.2019
6554 Clouds -5 990 79 0 4.6 10 09:43 13.12.2019
6555 Clouds -5 990 79 0 4.6 10 09:22 13.12.2019
6556 Clouds -5 989 85 0 4.1 350 08:55 13.12.2019
6557 Clouds -5 989 85 0 4.1 350 08:36 13.12.2019
6558 Clouds -5 989 85 0 4.1 350 08:18 13.12.2019
6559 Clouds -5 989 79 0 4.1 360 07:42 13.12.2019
6560 Clouds -5 989 79 0 4.1 360 07:19 13.12.2019
6561 Clouds -5 988 73 0 5.7 10 06:45 13.12.2019
6562 Clouds -5 988 73 0 5.7 10 06:25 13.12.2019
6563 Clouds -5 988 79 0 4.6 10 05:38 13.12.2019
6564 Clouds -5 988 79 0 4.6 10 05:20 13.12.2019
6565 Clouds -5 988 79 0 4.6 360 04:29 13.12.2019
6566 Snow -5 988 92 10000 4.1 360 02:57 13.12.2019
6567 Snow -5 988 92 10000 4.1 360 02:30 13.12.2019
6568 Snow -5 988 92 10000 4.1 360 01:38 13.12.2019
6569 Snow -5 988 85 8000 5.7 360 00:51 13.12.2019
6570 Snow -5 988 85 8000 5.7 360 00:28 13.12.2019
6571 Snow -5 988 85 5000 2.6 20 23:44 12.12.2019
6572 Clouds -5 988 79 10000 4.1 360 23:26 12.12.2019
6573 Clouds -5 987 92 10000 3.6 20 22:57 12.12.2019
6574 Clouds -5 987 92 10000 3.6 20 22:39 12.12.2019
6575 Clouds -5 987 92 10000 3.6 20 22:21 12.12.2019
6576 Clouds -5 987 92 10000 5.1 10 21:56 12.12.2019
6577 Clouds -5 987 92 10000 5.1 10 21:38 12.12.2019
6578 Clouds -5 987 92 10000 5.1 10 21:20 12.12.2019
6579 Clouds -4 987 92 10000 4.6 10 20:59 12.12.2019
6580 Clouds -4 987 92 10000 4.6 10 20:40 12.12.2019
6581 Clouds -4 987 92 10000 4.6 10 20:22 12.12.2019
6582 Clouds -5 986 85 10000 4.1 50 19:56 12.12.2019
6583 Clouds -5 986 85 10000 4.1 50 19:38 12.12.2019
6584 Clouds -5 986 85 10000 4.1 50 19:20 12.12.2019
6585 Clouds -5 986 92 10000 4.1 50 18:56 12.12.2019
6586 Clouds -5 986 92 10000 4.1 50 18:56 12.12.2019
6587 Clouds -5 986 92 10000 4.1 50 18:38 12.12.2019
6588 Clouds -5 986 92 10000 4.1 50 18:19 12.12.2019
6589 Clouds -5 986 92 10000 5.1 10 17:57 12.12.2019
6590 Clouds -5 986 92 10000 5.1 10 17:38 12.12.2019
6591 Clouds -5 986 92 10000 5.1 10 17:19 12.12.2019
6592 Snow -5 986 92 10000 3.1 50 16:55 12.12.2019
6593 Snow -5 986 92 10000 3.1 50 16:37 12.12.2019
6594 Snow -5 986 92 10000 3.1 50 16:19 12.12.2019
6595 Snow -5 986 92 3600 2.6 30 15:54 12.12.2019
6596 Snow -5 986 92 3600 2.6 30 15:36 12.12.2019
6597 Snow -5 986 92 3600 2.6 30 15:18 12.12.2019
6598 Snow -5 986 85 10000 4.6 30 14:38 12.12.2019
6599 Snow -5 986 85 10000 4.6 30 14:20 12.12.2019
6600 Clouds -5 985 85 10000 4.1 40 13:57 12.12.2019
6601 Clouds -5 985 85 10000 4.1 40 13:39 12.12.2019
6602 Clouds -5 985 85 10000 4.1 40 13:21 12.12.2019
6603 Clouds -4 985 73 10000 2.6 60 12:57 12.12.2019
6604 Clouds -4 985 73 10000 2.6 60 12:38 12.12.2019
6605 Clouds -4 985 73 10000 2.6 60 12:20 12.12.2019
6606 Clouds -5 984 85 10000 2.6 60 11:56 12.12.2019
6607 Clouds -5 984 85 10000 2.6 60 11:37 12.12.2019
6608 Clouds -5 984 85 10000 2.6 60 11:19 12.12.2019
6609 Snow -6 984 85 0 4.1 40 10:55 12.12.2019
6610 Snow -6 984 85 0 4.1 40 10:37 12.12.2019
6611 Snow -6 984 85 0 4.1 40 10:18 12.12.2019
6612 Snow -6 984 79 0 3.6 60 09:42 12.12.2019
6613 Snow -6 984 79 0 3.6 60 09:23 12.12.2019
6614 Snow -6 983 73 0 2.6 20 08:56 12.12.2019
6615 Snow -6 983 73 0 2.6 20 08:38 12.12.2019
6616 Clouds -6 983 73 0 2.6 20 08:20 12.12.2019
6617 Clouds -6 982 79 0 3.1 20 07:46 12.12.2019
6618 Clouds -6 982 79 0 3.1 20 07:25 12.12.2019
6619 Clouds -6 982 73 0 2.6 40 06:54 12.12.2019
6620 Clouds -6 982 73 0 2.6 40 06:33 12.12.2019
6621 Clouds -6 981 67 0 3.6 50 05:40 12.12.2019
6622 Clouds -6 980 67 0 5.1 60 04:52 12.12.2019
6623 Clouds -6 979 62 0 6.2 50 03:37 12.12.2019
6624 Clouds -6 979 57 0 4.1 50 02:39 12.12.2019
6625 Clouds -6 979 57 0 4.1 50 02:20 12.12.2019
6626 Clouds -7 979 52 0 1 0 01:43 12.12.2019
6627 Clouds -7 979 52 0 1 0 01:24 12.12.2019
6628 Clouds -7 979 57 0 2.6 50 00:47 12.12.2019
6629 Clouds -7 979 57 0 2.6 50 00:20 12.12.2019
6630 Clouds -7 979 57 10000 3.6 60 23:44 11.12.2019
6631 Clouds -7 979 57 10000 3.6 60 23:21 11.12.2019
6632 Clouds -8 979 61 10000 1.5 180 22:58 11.12.2019
6633 Clouds -8 979 61 10000 1.5 180 22:39 11.12.2019
6634 Clouds -8 979 61 10000 1.5 180 22:20 11.12.2019
6635 Clouds -8 978 52 10000 1 120 21:57 11.12.2019
6636 Clouds -7 978 52 10000 1 120 21:39 11.12.2019
6637 Clouds -7 978 52 10000 1 120 21:20 11.12.2019
6638 Clouds -8 978 52 10000 2.1 150 20:56 11.12.2019
6639 Clouds -8 978 52 10000 2.1 150 20:56 11.12.2019
6640 Clouds -8 978 52 10000 2.1 150 20:38 11.12.2019
6641 Clouds -8 978 52 10000 2.1 150 20:19 11.12.2019
6642 Clouds -8 979 57 10000 1.5 0 19:58 11.12.2019
6643 Clouds -8 979 57 10000 1.5 0 19:39 11.12.2019
6644 Clouds -8 979 57 10000 1.5 0 19:19 11.12.2019
6645 Clouds -8 979 57 10000 2.1 100 18:55 11.12.2019
6646 Clouds -8 979 57 10000 2.1 100 18:36 11.12.2019
6647 Clouds -8 979 57 10000 2.1 100 18:18 11.12.2019
6648 Clouds -9 979 61 10000 3.1 70 17:54 11.12.2019
6649 Clouds -9 979 61 10000 3.1 70 17:36 11.12.2019
6650 Clouds -9 979 61 10000 3.1 70 17:18 11.12.2019
6651 Clouds -10 980 61 10000 3.6 70 16:55 11.12.2019
6652 Clouds -10 980 61 10000 3.6 70 16:36 11.12.2019
6653 Clouds -10 980 61 10000 3.6 70 16:18 11.12.2019
6654 Clouds -10 981 56 10000 3.1 90 15:41 11.12.2019
6655 Clouds -10 981 56 10000 3.1 90 15:23 11.12.2019
6656 Clouds -10 981 56 10000 1.5 110 14:57 11.12.2019
6657 Clouds -10 981 56 10000 1.5 110 14:39 11.12.2019
6658 Clouds -10 981 56 10000 1.5 110 14:20 11.12.2019
6659 Clouds -10 982 61 10000 5.1 80 13:58 11.12.2019
6660 Clouds -10 982 61 10000 5.1 80 13:39 11.12.2019
6661 Clouds -10 982 61 10000 5.1 80 13:20 11.12.2019
6662 Clouds -9 983 56 10000 6.2 70 12:57 11.12.2019
6663 Clouds -9 983 56 10000 6.2 70 12:38 11.12.2019
6664 Clouds -9 983 56 10000 6.2 70 12:20 11.12.2019
6665 Clouds -9 984 57 10000 6.7 70 11:57 11.12.2019
6666 Clouds -8 984 57 10000 6.7 70 11:38 11.12.2019
6667 Clouds -8 984 57 10000 6.7 70 11:38 11.12.2019
6668 Clouds -8 984 57 10000 6.7 70 11:18 11.12.2019
6669 Clouds -8 984 57 10000 6.7 70 11:18 11.12.2019
6670 Clouds -8 984 57 10000 6.7 70 11:18 11.12.2019
6671 Clouds -9 984 61 0 8.7 70 10:55 11.12.2019
6672 Clouds -9 984 61 0 8.7 70 10:37 11.12.2019
6673 Clouds -9 984 61 0 8.7 70 10:19 11.12.2019
6674 Clouds -9 986 61 0 9.3 70 09:40 11.12.2019
6675 Clouds -9 986 61 0 9.3 70 09:21 11.12.2019
6676 Clouds -9 988 67 0 9.3 70 08:58 11.12.2019
6677 Clouds -8 988 67 0 9.3 70 08:38 11.12.2019
6678 Clouds -8 988 67 0 9.3 70 08:19 11.12.2019
6679 Clouds -8 989 67 0 7.2 70 07:55 11.12.2019
6680 Clouds -8 989 67 0 7.2 70 07:37 11.12.2019
6681 Clouds -8 989 67 0 7.2 70 07:18 11.12.2019
6682 Clouds -8 989 67 0 7.2 70 07:18 11.12.2019
6683 Clouds -8 991 72 0 7.7 60 06:43 11.12.2019
6684 Clouds -8 991 72 0 7.7 60 06:22 11.12.2019
6685 Clouds -8 994 61 0 8.7 80 05:41 11.12.2019
6686 Clear -8 994 61 0 8.7 80 05:19 11.12.2019
6687 Clear -7 996 67 0 6.7 80 04:28 11.12.2019
6688 Clear -8 998 61 10000 5.7 90 02:49 11.12.2019
6689 Clear -8 1000 61 10000 5.1 80 01:25 11.12.2019
6690 Clouds -8 1000 61 10000 4.6 90 00:47 11.12.2019
6691 Clouds -8 1000 61 10000 4.6 90 00:21 11.12.2019
6692 Clouds -7 1001 62 10000 4.6 90 23:50 10.12.2019
6693 Clouds -7 1001 62 10000 4.6 90 23:30 10.12.2019
6694 Clouds -8 1002 67 10000 5.1 100 22:59 10.12.2019
6695 Clouds -8 1002 67 10000 5.1 100 22:59 10.12.2019
6696 Clouds -8 1002 67 10000 5.1 100 22:40 10.12.2019
6697 Clouds -8 1002 67 10000 5.1 100 22:40 10.12.2019
6698 Clouds -8 1002 67 10000 5.1 100 22:22 10.12.2019
6699 Clouds -7 1003 73 10000 3.6 120 21:57 10.12.2019
6700 Clouds -7 1003 73 10000 3.6 120 21:57 10.12.2019
6701 Clouds -7 1003 73 10000 3.6 120 21:39 10.12.2019
6702 Clouds -7 1003 73 10000 3.6 120 21:21 10.12.2019
6703 Snow -7 1003 100 3000 0.5 0 20:57 10.12.2019
6704 Snow -7 1003 100 3000 0.5 0 20:38 10.12.2019
6705 Snow -7 1003 100 3000 0.5 0 20:38 10.12.2019
6706 Snow -7 1003 100 3000 0.5 0 20:19 10.12.2019
6707 Snow -6 1003 85 1400 2.6 180 19:55 10.12.2019
6708 Snow -6 1003 85 1400 2.6 180 19:37 10.12.2019
6709 Snow -6 1003 85 1400 2.6 180 19:19 10.12.2019
6710 Snow -6 1003 73 1500 1.5 130 18:40 10.12.2019
6711 Snow -6 1003 73 1500 1.5 130 18:21 10.12.2019
6712 Rain -6 1004 85 10000 2.1 150 17:58 10.12.2019
6713 Rain -6 1004 85 10000 2.1 150 17:40 10.12.2019
6714 Rain -6 1004 85 10000 2.1 150 17:40 10.12.2019
6715 Rain -6 1004 85 10000 2.1 150 17:20 10.12.2019
6716 Snow -6 1003 85 5000 5.1 200 16:54 10.12.2019
6717 Clouds -6 1003 79 10000 2.6 240 16:36 10.12.2019
6718 Clouds -6 1003 79 10000 2.6 240 16:18 10.12.2019
6719 Clouds -6 1003 73 10000 3.6 180 15:38 10.12.2019
6720 Clouds -6 1003 73 10000 3.6 180 15:18 10.12.2019
6721 Snow -6 1002 92 2000 5.1 220 14:56 10.12.2019
6722 Snow -6 1002 92 2000 5.1 220 14:38 10.12.2019
6723 Snow -6 1002 92 2000 5.1 220 14:19 10.12.2019
6724 Clouds -6 1001 73 10000 4.6 210 13:57 10.12.2019
6725 Clouds -5 1001 73 10000 4.6 210 13:39 10.12.2019
6726 Clouds -5 1001 73 10000 4.6 210 13:20 10.12.2019
6727 Snow -5 1000 79 7000 6.7 230 12:48 10.12.2019
6728 Snow -5 1000 79 7000 6.7 230 12:28 10.12.2019
6729 Clouds -5 999 62 10000 6.2 220 11:55 10.12.2019
6730 Clouds -5 999 62 10000 6.2 220 11:37 10.12.2019
6731 Clouds -5 999 62 10000 6.2 220 11:18 10.12.2019
6732 Snow -5 999 85 0 4.1 220 10:42 10.12.2019
6733 Snow -5 999 85 0 4.1 220 10:24 10.12.2019
6734 Snow -4 997 79 0 5.1 230 09:57 10.12.2019
6735 Snow -4 997 79 0 5.1 230 09:39 10.12.2019
6736 Snow -4 997 79 0 5.1 230 09:20 10.12.2019
6737 Snow -4 996 85 0 6.2 260 08:58 10.12.2019
6738 Snow -4 996 85 0 6.2 260 08:39 10.12.2019
6739 Snow -4 996 85 0 6.2 260 08:20 10.12.2019
6740 Snow -4 994 100 0 7.7 260 07:45 10.12.2019
6741 Snow -4 994 100 0 7.7 260 07:27 10.12.2019
6742 Snow -3 993 92 0 7.7 220 06:55 10.12.2019
6743 Snow -3 993 92 0 7.7 220 06:37 10.12.2019
6744 Snow -3 993 92 0 7.7 220 06:19 10.12.2019
6745 Snow -1 991 54 0 6.2 120 05:47 10.12.2019
6746 Clouds -2 992 63 0 4.1 110 04:23 10.12.2019
6747 Clouds -2 992 63 0 5.1 100 03:25 10.12.2019
6748 Snow -1 992 58 0 6.7 160 01:57 10.12.2019
6749 Snow -1 992 58 0 6.7 160 01:38 10.12.2019
6750 Snow -1 992 58 0 6.7 160 01:18 10.12.2019
6751 Clouds -1 992 63 10000 4.1 140 00:29 10.12.2019
6752 Snow -1 992 68 10000 10.8 140 23:58 09.12.2019
6753 Snow -1 992 68 10000 10.8 140 23:39 09.12.2019
6754 Snow -1 992 68 10000 10.8 140 23:39 09.12.2019
6755 Snow -1 992 68 10000 10.8 140 23:20 09.12.2019
6756 Snow -1 992 68 10000 10.8 140 23:20 09.12.2019
6757 Snow -1 992 74 10000 14.4 140 22:56 09.12.2019
6758 Snow -1 992 74 10000 14.4 140 22:38 09.12.2019
6759 Snow -1 992 74 10000 14.4 140 22:38 09.12.2019
6760 Snow 0 992 74 10000 14.4 140 22:18 09.12.2019
6761 Rain 0 992 91 10000 4.6 140 21:55 09.12.2019
6762 Rain 0 992 91 10000 4.6 140 21:37 09.12.2019
6763 Rain 0 992 91 10000 4.6 140 21:18 09.12.2019
6764 Clouds -3 992 68 10000 4.1 90 20:55 09.12.2019
6765 Clouds -3 992 68 10000 4.1 90 20:37 09.12.2019
6766 Clouds -3 992 68 10000 4.1 90 20:19 09.12.2019
6767 Clouds -4 992 68 10000 7.7 60 19:55 09.12.2019
6768 Clouds -4 992 68 10000 7.7 60 19:37 09.12.2019
6769 Clouds -4 992 68 10000 7.7 60 19:18 09.12.2019